Wetterdaten: Samstag, 09.12.2017
Datum Zeit Temp. A. Temp. A. max Feuchte A. Luftdruck Regen Wind Richtung Richtung Sonnenschein ET UV Solar Taupunkt Windchill Windböen
09.12.2017 00:00 -3,3 °C -3,2 °C 87 % 1012,3 hPa 0,0 mm 6,4 km/h (2 Bft) W 270 ° 0 min 0,000 mm 0,0 UV-I 0 W/m² -5,1 °C -6,0 °C 11,3 km/h (2 Bft)
09.12.2017 00:01 -3,2 °C -3,2 °C 87 % 1012,4 hPa 0,0 mm 6,4 km/h (2 Bft) W 270 ° 0 min 0,000 mm 0,0 UV-I 0 W/m² -5,0 °C -5,9 °C 11,3 km/h (2 Bft)
09.12.2017 00:02 -3,2 °C -3,2 °C 87 % 1012,3 hPa 0,0 mm 9,7 km/h (2 Bft) W-SW 247 ° 0 min 0,000 mm 0,0 UV-I 0 W/m² -5,0 °C -7,0 °C 14,5 km/h (3 Bft)
09.12.2017 00:03 -3,2 °C -3,2 °C 87 % 1012,3 hPa 0,0 mm 8,0 km/h (2 Bft) W 270 ° 0 min 0,000 mm 0,0 UV-I 0 W/m² -5,0 °C -6,5 °C 11,3 km/h (2 Bft)
09.12.2017 00:04 -3,2 °C -3,2 °C 87 % 1012,3 hPa 0,0 mm 4,8 km/h (1 Bft) W 270 ° 0 min 0,000 mm 0,0 UV-I 0 W/m² -5,0 °C -5,1 °C 9,7 km/h (2 Bft)
09.12.2017 00:05 -3,2 °C -3,2 °C 87 % 1012,3 hPa 0,0 mm 8,0 km/h (2 Bft) W-SW 247 ° 0 min 0,000 mm 0,0 UV-I 0 W/m² -5,0 °C -6,5 °C 17,7 km/h (3 Bft)
09.12.2017 00:06 -3,2 °C -3,2 °C 87 % 1012,3 hPa 0,0 mm 11,3 km/h (2 Bft) W 270 ° 0 min 0,000 mm 0,0 UV-I 0 W/m² -5,0 °C -7,5 °C 14,5 km/h (3 Bft)
09.12.2017 00:07 -3,2 °C -3,2 °C 88 % 1012,3 hPa 0,0 mm 11,3 km/h (2 Bft) W 270 ° 0 min 0,000 mm 0,0 UV-I 0 W/m² -4,9 °C -7,5 °C 14,5 km/h (3 Bft)
09.12.2017 00:08 -3,2 °C -3,2 °C 88 % 1012,3 hPa 0,0 mm 9,7 km/h (2 Bft) W 270 ° 0 min 0,000 mm 0,0 UV-I 0 W/m² -4,9 °C -7,0 °C 14,5 km/h (3 Bft)
09.12.2017 00:09 -3,2 °C -3,2 °C 87 % 1012,3 hPa 0,0 mm 8,0 km/h (2 Bft) W 270 ° 0 min 0,000 mm 0,0 UV-I 0 W/m² -5,0 °C -6,5 °C 16,1 km/h (3 Bft)
09.12.2017 00:10 -3,2 °C -3,2 °C 88 % 1012,3 hPa 0,0 mm 14,5 km/h (3 Bft) W 270 ° 0 min 0,000 mm 0,0 UV-I 0 W/m² -4,9 °C -8,3 °C 17,7 km/h (3 Bft)
09.12.2017 00:11 -3,2 °C -3,2 °C 88 % 1012,3 hPa 0,0 mm 14,5 km/h (3 Bft) W 270 ° 0 min 0,000 mm 0,0 UV-I 0 W/m² -4,9 °C -8,3 °C 17,7 km/h (3 Bft)
09.12.2017 00:12 -3,2 °C -3,2 °C 88 % 1012,3 hPa 0,0 mm 14,5 km/h (3 Bft) W 270 ° 0 min 0,000 mm 0,0 UV-I 0 W/m² -4,9 °C -8,3 °C 19,3 km/h (3 Bft)
09.12.2017 00:13 -3,1 °C -3,1 °C 88 % 1012,4 hPa 0,0 mm 11,3 km/h (2 Bft) W 270 ° 0 min 0,000 mm 0,0 UV-I 0 W/m² -4,8 °C -7,4 °C 16,1 km/h (3 Bft)
09.12.2017 00:14 -3,1 °C -3,1 °C 88 % 1012,4 hPa 0,0 mm 9,7 km/h (2 Bft) W 270 ° 0 min 0,000 mm 0,0 UV-I 0 W/m² -4,8 °C -6,9 °C 14,5 km/h (3 Bft)
09.12.2017 00:15 -3,1 °C -3,1 °C 88 % 1012,4 hPa 0,0 mm 8,0 km/h (2 Bft) W 270 ° 0 min 0,000 mm 0,0 UV-I 0 W/m² -4,8 °C -6,4 °C 12,9 km/h (3 Bft)
09.12.2017 00:16 -3,1 °C -3,1 °C 88 % 1012,3 hPa 0,0 mm 11,3 km/h (2 Bft) W 270 ° 0 min 0,000 mm 0,0 UV-I 0 W/m² -4,8 °C -7,4 °C 16,1 km/h (3 Bft)
09.12.2017 00:17 -3,1 °C -3,1 °C 88 % 1012,3 hPa 0,0 mm 9,7 km/h (2 Bft) W 270 ° 0 min 0,000 mm 0,0 UV-I 0 W/m² -4,8 °C -6,9 °C 12,9 km/h (3 Bft)
09.12.2017 00:18 -3,1 °C -3,1 °C 88 % 1012,3 hPa 0,0 mm 11,3 km/h (2 Bft) W 270 ° 0 min 0,000 mm 0,0 UV-I 0 W/m² -4,8 °C -7,4 °C 19,3 km/h (3 Bft)
09.12.2017 00:19 -3,1 °C -3,1 °C 88 % 1012,3 hPa 0,0 mm 12,9 km/h (3 Bft) W 270 ° 0 min 0,000 mm 0,0 UV-I 0 W/m² -4,8 °C -7,8 °C 17,7 km/h (3 Bft)
09.12.2017 00:20 -3,0 °C -3,0 °C 88 % 1012,3 hPa 0,0 mm 12,9 km/h (3 Bft) W-SW 247 ° 0 min 0,000 mm 0,0 UV-I 0 W/m² -4,7 °C -7,7 °C 25,7 km/h (4 Bft)
09.12.2017 00:21 -3,0 °C -3,0 °C 88 % 1012,2 hPa 0,0 mm 12,9 km/h (3 Bft) W 270 ° 0 min 0,000 mm 0,0 UV-I 0 W/m² -4,7 °C -7,7 °C 20,9 km/h (4 Bft)
09.12.2017 00:22 -2,9 °C -2,9 °C 88 % 1012,3 hPa 0,0 mm 14,5 km/h (3 Bft) W 270 ° 0 min 0,000 mm 0,0 UV-I 0 W/m² -4,6 °C -7,9 °C 25,7 km/h (4 Bft)
09.12.2017 00:23 -2,9 °C -2,9 °C 88 % 1012,3 hPa 0,0 mm 11,3 km/h (2 Bft) W 270 ° 0 min 0,000 mm 0,0 UV-I 0 W/m² -4,6 °C -7,1 °C 16,1 km/h (3 Bft)
09.12.2017 00:24 -2,9 °C -2,9 °C 88 % 1012,3 hPa 0,0 mm 16,1 km/h (3 Bft) W-SW 247 ° 0 min 0,000 mm 0,0 UV-I 0 W/m² -4,6 °C -8,2 °C 22,5 km/h (4 Bft)
09.12.2017 00:25 -2,9 °C -2,9 °C 88 % 1012,4 hPa 0,0 mm 9,7 km/h (2 Bft) W 270 ° 0 min 0,000 mm 0,0 UV-I 0 W/m² -4,6 °C -6,7 °C 12,9 km/h (3 Bft)
09.12.2017 00:26 -2,9 °C -2,9 °C 88 % 1012,3 hPa 0,0 mm 11,3 km/h (2 Bft) W 270 ° 0 min 0,000 mm 0,0 UV-I 0 W/m² -4,6 °C -7,1 °C 20,9 km/h (4 Bft)
09.12.2017 00:27 -2,9 °C -2,9 °C 88 % 1012,4 hPa 0,0 mm 14,5 km/h (3 Bft) W-SW 247 ° 0 min 0,000 mm 0,0 UV-I 0 W/m² -4,6 °C -7,9 °C 17,7 km/h (3 Bft)
09.12.2017 00:28 -2,9 °C -2,9 °C 89 % 1012,3 hPa 0,0 mm 11,3 km/h (2 Bft) W 270 ° 0 min 0,000 mm 0,0 UV-I 0 W/m² -4,5 °C -7,1 °C 19,3 km/h (3 Bft)
09.12.2017 00:29 -2,8 °C -2,8 °C 89 % 1012,3 hPa 0,0 mm 16,1 km/h (3 Bft) W 270 ° 0 min 0,000 mm 0,0 UV-I 0 W/m² -4,4 °C -8,1 °C 24,1 km/h (4 Bft)
09.12.2017 00:30 -2,9 °C -2,8 °C 89 % 1012,3 hPa 0,0 mm 12,9 km/h (3 Bft) W 270 ° 0 min 0,000 mm 0,0 UV-I 0 W/m² -4,5 °C -7,5 °C 17,7 km/h (3 Bft)
09.12.2017 00:31 -2,8 °C -2,8 °C 89 % 1012,3 hPa 0,0 mm 11,3 km/h (2 Bft) W-SW 247 ° 0 min 0,000 mm 0,0 UV-I 0 W/m² -4,4 °C -7,0 °C 17,7 km/h (3 Bft)
09.12.2017 00:32 -2,8 °C -2,8 °C 89 % 1012,2 hPa 0,0 mm 8,0 km/h (2 Bft) W-SW 247 ° 0 min 0,000 mm 0,0 UV-I 0 W/m² -4,4 °C -6,0 °C 14,5 km/h (3 Bft)
09.12.2017 00:33 -2,8 °C -2,8 °C 89 % 1012,3 hPa 0,0 mm 11,3 km/h (2 Bft) W 270 ° 0 min 0,000 mm 0,0 UV-I 0 W/m² -4,4 °C -7,0 °C 17,7 km/h (3 Bft)
09.12.2017 00:34 -2,8 °C -2,8 °C 89 % 1012,2 hPa 0,0 mm 12,9 km/h (3 Bft) W-SW 247 ° 0 min 0,000 mm 0,0 UV-I 0 W/m² -4,4 °C -7,4 °C 17,7 km/h (3 Bft)
09.12.2017 00:35 -2,8 °C -2,8 °C 89 % 1012,2 hPa 0,0 mm 9,7 km/h (2 Bft) W 270 ° 0 min 0,000 mm 0,0 UV-I 0 W/m² -4,4 °C -6,6 °C 14,5 km/h (3 Bft)
09.12.2017 00:36 -2,8 °C -2,8 °C 89 % 1012,2 hPa 0,0 mm 9,7 km/h (2 Bft) W 270 ° 0 min 0,000 mm 0,0 UV-I 0 W/m² -4,4 °C -6,6 °C 12,9 km/h (3 Bft)
09.12.2017 00:37 -2,8 °C -2,8 °C 90 % 1012,2 hPa 0,0 mm 12,9 km/h (3 Bft) W 270 ° 0 min 0,000 mm 0,0 UV-I 0 W/m² -4,2 °C -7,4 °C 14,5 km/h (3 Bft)
09.12.2017 00:38 -2,8 °C -2,8 °C 89 % 1012,2 hPa 0,0 mm 9,7 km/h (2 Bft) W 270 ° 0 min 0,000 mm 0,0 UV-I 0 W/m² -4,4 °C -6,6 °C 14,5 km/h (3 Bft)
09.12.2017 00:39 -2,8 °C -2,8 °C 89 % 1012,1 hPa 0,0 mm 9,7 km/h (2 Bft) W 270 ° 0 min 0,000 mm 0,0 UV-I 0 W/m² -4,4 °C -6,6 °C 14,5 km/h (3 Bft)
09.12.2017 00:40 -2,8 °C -2,8 °C 90 % 1012,1 hPa 0,0 mm 11,3 km/h (2 Bft) W 270 ° 0 min 0,000 mm 0,0 UV-I 0 W/m² -4,2 °C -7,0 °C 19,3 km/h (3 Bft)
09.12.2017 00:41 -2,8 °C -2,8 °C 90 % 1012,1 hPa 0,0 mm 11,3 km/h (2 Bft) W 270 ° 0 min 0,000 mm 0,0 UV-I 0 W/m² -4,2 °C -7,0 °C 14,5 km/h (3 Bft)
09.12.2017 00:42 -2,8 °C -2,8 °C 90 % 1012,1 hPa 0,0 mm 14,5 km/h (3 Bft) W 270 ° 0 min 0,000 mm 0,0 UV-I 0 W/m² -4,2 °C -7,8 °C 19,3 km/h (3 Bft)
09.12.2017 00:43 -2,8 °C -2,8 °C 90 % 1012,0 hPa 0,0 mm 14,5 km/h (3 Bft) W 270 ° 0 min 0,000 mm 0,0 UV-I 0 W/m² -4,2 °C -7,8 °C 19,3 km/h (3 Bft)
09.12.2017 00:44 -2,8 °C -2,8 °C 90 % 1012,0 hPa 0,0 mm 9,7 km/h (2 Bft) W 270 ° 0 min 0,000 mm 0,0 UV-I 0 W/m² -4,2 °C -6,6 °C 16,1 km/h (3 Bft)
09.12.2017 00:45 -2,8 °C -2,8 °C 90 % 1012,0 hPa 0,0 mm 9,7 km/h (2 Bft) W 270 ° 0 min 0,000 mm 0,0 UV-I 0 W/m² -4,2 °C -6,6 °C 16,1 km/h (3 Bft)
09.12.2017 00:46 -2,8 °C -2,8 °C 90 % 1012,0 hPa 0,0 mm 11,3 km/h (2 Bft) W-SW 247 ° 0 min 0,000 mm 0,0 UV-I 0 W/m² -4,2 °C -7,0 °C 14,5 km/h (3 Bft)
09.12.2017 00:47 -2,8 °C -2,8 °C 90 % 1012,0 hPa 0,0 mm 11,3 km/h (2 Bft) W 270 ° 0 min 0,000 mm 0,0 UV-I 0 W/m² -4,2 °C -7,0 °C 16,1 km/h (3 Bft)
09.12.2017 00:48 -2,8 °C -2,8 °C 90 % 1012,0 hPa 0,0 mm 12,9 km/h (3 Bft) W 270 ° 0 min 0,000 mm 0,0 UV-I 0 W/m² -4,2 °C -7,4 °C 19,3 km/h (3 Bft)
09.12.2017 00:49 -2,8 °C -2,8 °C 90 % 1012,0 hPa 0,0 mm 11,3 km/h (2 Bft) W 270 ° 0 min 0,000 mm 0,0 UV-I 0 W/m² -4,2 °C -7,0 °C 16,1 km/h (3 Bft)
09.12.2017 00:50 -2,8 °C -2,8 °C 90 % 1012,1 hPa 0,0 mm 9,7 km/h (2 Bft) W 270 ° 0 min 0,000 mm 0,0 UV-I 0 W/m² -4,2 °C -6,6 °C 14,5 km/h (3 Bft)
09.12.2017 00:51 -2,8 °C -2,8 °C 90 % 1012,0 hPa 0,0 mm 11,3 km/h (2 Bft) W 270 ° 0 min 0,000 mm 0,0 UV-I 0 W/m² -4,2 °C -7,0 °C 16,1 km/h (3 Bft)
09.12.2017 00:52 -2,8 °C -2,8 °C 90 % 1012,1 hPa 0,0 mm 11,3 km/h (2 Bft) W 270 ° 0 min 0,000 mm 0,0 UV-I 0 W/m² -4,2 °C -7,0 °C 16,1 km/h (3 Bft)
09.12.2017 00:53 -2,8 °C -2,8 °C 91 % 1012,0 hPa 0,0 mm 9,7 km/h (2 Bft) W-SW 247 ° 0 min 0,000 mm 0,0 UV-I 0 W/m² -4,1 °C -6,6 °C 12,9 km/h (3 Bft)
09.12.2017 00:54 -2,8 °C -2,8 °C 90 % 1012,0 hPa 0,0 mm 8,0 km/h (2 Bft) W 270 ° 0 min 0,000 mm 0,0 UV-I 0 W/m² -4,2 °C -6,0 °C 12,9 km/h (3 Bft)
09.12.2017 00:55 -2,8 °C -2,8 °C 90 % 1012,0 hPa 0,0 mm 9,7 km/h (2 Bft) W 270 ° 0 min 0,000 mm 0,0 UV-I 0 W/m² -4,2 °C -6,6 °C 16,1 km/h (3 Bft)
09.12.2017 00:56 -2,8 °C -2,8 °C 90 % 1012,1 hPa 0,0 mm 6,4 km/h (2 Bft) W 270 ° 0 min 0,000 mm 0,0 UV-I 0 W/m² -4,2 °C -5,4 °C 11,3 km/h (2 Bft)
09.12.2017 00:57 -2,8 °C -2,8 °C 90 % 1012,1 hPa 0,0 mm 8,0 km/h (2 Bft) W 270 ° 0 min 0,000 mm 0,0 UV-I 0 W/m² -4,2 °C -6,0 °C 12,9 km/h (3 Bft)
09.12.2017 00:58 -2,8 °C -2,8 °C 91 % 1012,1 hPa 0,0 mm 8,0 km/h (2 Bft) W 270 ° 0 min 0,000 mm 0,0 UV-I 0 W/m² -4,1 °C -6,0 °C 11,3 km/h (2 Bft)
09.12.2017 00:59 -2,8 °C -2,8 °C 91 % 1012,1 hPa 0,0 mm 6,4 km/h (2 Bft) W 270 ° 0 min 0,000 mm 0,0 UV-I 0 W/m² -4,1 °C -5,4 °C 11,3 km/h (2 Bft)
09.12.2017 01:00 -2,8 °C -2,8 °C 91 % 1012,0 hPa 0,0 mm 4,8 km/h (1 Bft) W 270 ° 0 min 0,000 mm 0,0 UV-I 0 W/m² -4,1 °C -4,7 °C 9,7 km/h (2 Bft)
09.12.2017 01:01 -2,8 °C -2,8 °C 91 % 1012,1 hPa 0,0 mm 8,0 km/h (2 Bft) W 270 ° 0 min 0,000 mm 0,0 UV-I 0 W/m² -4,1 °C -6,0 °C 11,3 km/h (2 Bft)
09.12.2017 01:02 -2,8 °C -2,8 °C 91 % 1012,0 hPa 0,0 mm 8,0 km/h (2 Bft) W-SW 247 ° 0 min 0,000 mm 0,0 UV-I 0 W/m² -4,1 °C -6,0 °C 11,3 km/h (2 Bft)
09.12.2017 01:03 -2,9 °C -2,8 °C 91 % 1012,1 hPa 0,0 mm 6,4 km/h (2 Bft) W 270 ° 0 min 0,000 mm 0,0 UV-I 0 W/m² -4,2 °C -5,5 °C 9,7 km/h (2 Bft)
09.12.2017 01:04 -2,8 °C -2,8 °C 91 % 1012,1 hPa 0,0 mm 4,8 km/h (1 Bft) W-NW 292 ° 0 min 0,000 mm 0,0 UV-I 0 W/m² -4,1 °C -4,7 °C 6,4 km/h (2 Bft)
09.12.2017 01:05 -2,9 °C -2,8 °C 91 % 1012,1 hPa 0,0 mm 4,8 km/h (1 Bft) W-SW 247 ° 0 min 0,000 mm 0,0 UV-I 0 W/m² -4,2 °C -4,8 °C 8,0 km/h (2 Bft)
09.12.2017 01:06 -2,9 °C -2,8 °C 91 % 1012,1 hPa 0,0 mm 3,2 km/h (1 Bft) W-SW 247 ° 0 min 0,000 mm 0,0 UV-I 0 W/m² -4,2 °C -2,9 °C 6,4 km/h (2 Bft)
09.12.2017 01:07 -2,8 °C -2,8 °C 91 % 1012,1 hPa 0,0 mm 9,7 km/h (2 Bft) W 270 ° 0 min 0,000 mm 0,0 UV-I 0 W/m² -4,1 °C -6,6 °C 12,9 km/h (3 Bft)
09.12.2017 01:08 -2,9 °C -2,8 °C 91 % 1012,1 hPa 0,0 mm 6,4 km/h (2 Bft) W 270 ° 0 min 0,000 mm 0,0 UV-I 0 W/m² -4,2 °C -5,5 °C 9,7 km/h (2 Bft)
09.12.2017 01:09 -2,9 °C -2,8 °C 91 % 1012,1 hPa 0,0 mm 6,4 km/h (2 Bft) W-SW 247 ° 0 min 0,000 mm 0,0 UV-I 0 W/m² -4,2 °C -5,5 °C 11,3 km/h (2 Bft)
09.12.2017 01:10 -2,8 °C -2,8 °C 91 % 1012,0 hPa 0,0 mm 6,4 km/h (2 Bft) W 270 ° 0 min 0,000 mm 0,0 UV-I 0 W/m² -4,1 °C -5,4 °C 9,7 km/h (2 Bft)
09.12.2017 01:11 -2,9 °C -2,8 °C 91 % 1012,1 hPa 0,0 mm 11,3 km/h (2 Bft) W 270 ° 0 min 0,000 mm 0,0 UV-I 0 W/m² -4,2 °C -7,1 °C 16,1 km/h (3 Bft)
09.12.2017 01:12 -2,9 °C -2,8 °C 91 % 1012,0 hPa 0,0 mm 6,4 km/h (2 Bft) W-SW 247 ° 0 min 0,000 mm 0,0 UV-I 0 W/m² -4,2 °C -5,5 °C 9,7 km/h (2 Bft)
09.12.2017 01:13 -2,9 °C -2,9 °C 91 % 1012,0 hPa 0,0 mm 8,0 km/h (2 Bft) W 270 ° 0 min 0,000 mm 0,0 UV-I 0 W/m² -4,2 °C -6,1 °C 12,9 km/h (3 Bft)
09.12.2017 01:14 -2,9 °C -2,9 °C 91 % 1012,0 hPa 0,0 mm 9,7 km/h (2 Bft) W 270 ° 0 min 0,000 mm 0,0 UV-I 0 W/m² -4,2 °C -6,7 °C 12,9 km/h (3 Bft)
09.12.2017 01:15 -2,8 °C -2,8 °C 91 % 1012,1 hPa 0,0 mm 9,7 km/h (2 Bft) W 270 ° 0 min 0,000 mm 0,0 UV-I 0 W/m² -4,1 °C -6,6 °C 12,9 km/h (3 Bft)
09.12.2017 01:16 -2,9 °C -2,9 °C 91 % 1012,0 hPa 0,0 mm 8,0 km/h (2 Bft) W 270 ° 0 min 0,000 mm 0,0 UV-I 0 W/m² -4,2 °C -6,1 °C 11,3 km/h (2 Bft)
09.12.2017 01:17 -2,9 °C -2,9 °C 91 % 1012,0 hPa 0,0 mm 8,0 km/h (2 Bft) W 270 ° 0 min 0,000 mm 0,0 UV-I 0 W/m² -4,2 °C -6,1 °C 11,3 km/h (2 Bft)
09.12.2017 01:18 -2,9 °C -2,9 °C 91 % 1012,0 hPa 0,0 mm 6,4 km/h (2 Bft) W-NW 292 ° 0 min 0,000 mm 0,0 UV-I 0 W/m² -4,2 °C -5,5 °C 12,9 km/h (3 Bft)
09.12.2017 01:19 -2,9 °C -2,9 °C 91 % 1012,0 hPa 0,0 mm 8,0 km/h (2 Bft) W-SW 247 ° 0 min 0,000 mm 0,0 UV-I 0 W/m² -4,2 °C -6,1 °C 14,5 km/h (3 Bft)
09.12.2017 01:20 -2,9 °C -2,9 °C 91 % 1012,0 hPa 0,0 mm 9,7 km/h (2 Bft) W 270 ° 0 min 0,000 mm 0,0 UV-I 0 W/m² -4,2 °C -6,7 °C 14,5 km/h (3 Bft)
09.12.2017 01:21 -2,9 °C -2,9 °C 91 % 1012,0 hPa 0,0 mm 6,4 km/h (2 Bft) W 270 ° 0 min 0,000 mm 0,0 UV-I 0 W/m² -4,2 °C -5,5 °C 9,7 km/h (2 Bft)
09.12.2017 01:22 -2,9 °C -2,9 °C 91 % 1012,0 hPa 0,0 mm 8,0 km/h (2 Bft) W 270 ° 0 min 0,000 mm 0,0 UV-I 0 W/m² -4,2 °C -6,1 °C 11,3 km/h (2 Bft)
09.12.2017 01:23 -2,9 °C -2,9 °C 91 % 1012,0 hPa 0,0 mm 8,0 km/h (2 Bft) W 270 ° 0 min 0,000 mm 0,0 UV-I 0 W/m² -4,2 °C -6,1 °C 12,9 km/h (3 Bft)
09.12.2017 01:24 -2,9 °C -2,9 °C 91 % 1012,0 hPa 0,0 mm 8,0 km/h (2 Bft) W 270 ° 0 min 0,000 mm 0,0 UV-I 0 W/m² -4,2 °C -6,1 °C 12,9 km/h (3 Bft)
09.12.2017 01:25 -2,9 °C -2,9 °C 91 % 1012,1 hPa 0,0 mm 8,0 km/h (2 Bft) W-NW 292 ° 0 min 0,000 mm 0,0 UV-I 0 W/m² -4,2 °C -6,1 °C 12,9 km/h (3 Bft)
09.12.2017 01:26 -2,9 °C -2,9 °C 91 % 1012,1 hPa 0,0 mm 9,7 km/h (2 Bft) W 270 ° 0 min 0,000 mm 0,0 UV-I 0 W/m² -4,2 °C -6,7 °C 12,9 km/h (3 Bft)
09.12.2017 01:27 -2,9 °C -2,9 °C 91 % 1012,2 hPa 0,0 mm 8,0 km/h (2 Bft) W-NW 292 ° 0 min 0,000 mm 0,0 UV-I 0 W/m² -4,2 °C -6,1 °C 12,9 km/h (3 Bft)
09.12.2017 01:28 -2,9 °C -2,9 °C 91 % 1012,3 hPa 0,0 mm 12,9 km/h (3 Bft) W-NW 292 ° 0 min 0,000 mm 0,0 UV-I 0 W/m² -4,2 °C -7,5 °C 19,3 km/h (3 Bft)
09.12.2017 01:29 -2,9 °C -2,9 °C 91 % 1012,4 hPa 0,0 mm 11,3 km/h (2 Bft) W-NW 292 ° 0 min 0,000 mm 0,0 UV-I 0 W/m² -4,2 °C -7,1 °C 17,7 km/h (3 Bft)
09.12.2017 01:30 -2,9 °C -2,9 °C 91 % 1012,5 hPa 0,0 mm 6,4 km/h (2 Bft) W-NW 292 ° 0 min 0,000 mm 0,0 UV-I 0 W/m² -4,2 °C -5,5 °C 9,7 km/h (2 Bft)
09.12.2017 01:31 -2,9 °C -2,9 °C 91 % 1012,6 hPa 0,0 mm 16,1 km/h (3 Bft) W-NW 292 ° 0 min 0,000 mm 0,0 UV-I 0 W/m² -4,2 °C -8,2 °C 22,5 km/h (4 Bft)
09.12.2017 01:32 -2,9 °C -2,9 °C 91 % 1012,6 hPa 0,0 mm 19,3 km/h (3 Bft) W-SW 247 ° 0 min 0,000 mm 0,0 UV-I 0 W/m² -4,2 °C -8,8 °C 27,4 km/h (4 Bft)
09.12.2017 01:33 -2,9 °C -2,9 °C 92 % 1012,6 hPa 0,0 mm 17,7 km/h (3 Bft) W-NW 292 ° 0 min 0,000 mm 0,0 UV-I 0 W/m² -4,0 °C -8,5 °C 27,4 km/h (4 Bft)
09.12.2017 01:34 -2,9 °C -2,9 °C 92 % 1012,6 hPa 0,0 mm 16,1 km/h (3 Bft) W 270 ° 0 min 0,000 mm 0,0 UV-I 0 W/m² -4,0 °C -8,2 °C 27,4 km/h (4 Bft)
09.12.2017 01:35 -2,9 °C -2,9 °C 91 % 1012,7 hPa 0,0 mm 17,7 km/h (3 Bft) W-NW 292 ° 0 min 0,000 mm 0,0 UV-I 0 W/m² -4,2 °C -8,5 °C 24,1 km/h (4 Bft)
09.12.2017 01:36 -2,9 °C -2,9 °C 91 % 1012,7 hPa 0,0 mm 11,3 km/h (2 Bft) W-NW 292 ° 0 min 0,000 mm 0,0 UV-I 0 W/m² -4,2 °C -7,1 °C 16,1 km/h (3 Bft)
09.12.2017 01:37 -3,0 °C -2,9 °C 91 % 1012,8 hPa 0,0 mm 11,3 km/h (2 Bft) W-NW 292 ° 0 min 0,000 mm 0,0 UV-I 0 W/m² -4,3 °C -7,3 °C 19,3 km/h (3 Bft)
09.12.2017 01:38 -3,1 °C -3,0 °C 91 % 1012,8 hPa 0,0 mm 14,5 km/h (3 Bft) W 270 ° 0 min 0,000 mm 0,0 UV-I 0 W/m² -4,4 °C -8,1 °C 24,1 km/h (4 Bft)
09.12.2017 01:39 -3,1 °C -3,1 °C 91 % 1012,9 hPa 0,0 mm 14,5 km/h (3 Bft) NW 315 ° 0 min 0,000 mm 0,0 UV-I 0 W/m² -4,4 °C -8,1 °C 19,3 km/h (3 Bft)
09.12.2017 01:40 -3,1 °C -3,1 °C 91 % 1012,9 hPa 0,0 mm 11,3 km/h (2 Bft) W-NW 292 ° 0 min 0,000 mm 0,0 UV-I 0 W/m² -4,4 °C -7,4 °C 17,7 km/h (3 Bft)
09.12.2017 01:41 -3,2 °C -3,1 °C 91 % 1012,9 hPa 0,0 mm 8,0 km/h (2 Bft) NW 315 ° 0 min 0,000 mm 0,0 UV-I 0 W/m² -4,5 °C -6,5 °C 12,9 km/h (3 Bft)
09.12.2017 01:42 -3,2 °C -3,2 °C 91 % 1013,0 hPa 0,0 mm 12,9 km/h (3 Bft) W-NW 292 ° 0 min 0,000 mm 0,0 UV-I 0 W/m² -4,5 °C -7,9 °C 19,3 km/h (3 Bft)
09.12.2017 01:43 -3,2 °C -3,2 °C 91 % 1013,0 hPa 0,0 mm 12,9 km/h (3 Bft) NW 315 ° 0 min 0,000 mm 0,0 UV-I 0 W/m² -4,5 °C -7,9 °C 24,1 km/h (4 Bft)
09.12.2017 01:44 -3,3 °C -3,2 °C 91 % 1013,0 hPa 0,0 mm 9,7 km/h (2 Bft) W-NW 292 ° 0 min 0,000 mm 0,0 UV-I 0 W/m² -4,6 °C -7,2 °C 19,3 km/h (3 Bft)
09.12.2017 01:45 -3,3 °C -3,3 °C 91 % 1013,0 hPa 0,0 mm 12,9 km/h (3 Bft) W-NW 292 ° 0 min 0,000 mm 0,0 UV-I 0 W/m² -4,6 °C -8,0 °C 22,5 km/h (4 Bft)
09.12.2017 01:46 -3,3 °C -3,3 °C 91 % 1013,0 hPa 0,0 mm 9,7 km/h (2 Bft) W-NW 292 ° 0 min 0,000 mm 0,0 UV-I 0 W/m² -4,6 °C -7,2 °C 16,1 km/h (3 Bft)
09.12.2017 01:47 -3,4 °C -3,3 °C 91 % 1013,0 hPa 0,0 mm 8,0 km/h (2 Bft) NW 315 ° 0 min 0,000 mm 0,0 UV-I 0 W/m² -4,7 °C -6,7 °C 14,5 km/h (3 Bft)
09.12.2017 01:48 -3,4 °C -3,4 °C 91 % 1013,1 hPa 0,0 mm 11,3 km/h (2 Bft) W-NW 292 ° 0 min 0,000 mm 0,0 UV-I 0 W/m² -4,7 °C -7,7 °C 16,1 km/h (3 Bft)
09.12.2017 01:49 -3,4 °C -3,4 °C 91 % 1013,1 hPa 0,0 mm 8,0 km/h (2 Bft) W-NW 292 ° 0 min 0,000 mm 0,0 UV-I 0 W/m² -4,7 °C -6,7 °C 12,9 km/h (3 Bft)
09.12.2017 01:50 -3,4 °C -3,4 °C 91 % 1013,1 hPa 0,0 mm 4,8 km/h (1 Bft) W 270 ° 0 min 0,000 mm 0,0 UV-I 0 W/m² -4,7 °C -5,3 °C 12,9 km/h (3 Bft)
09.12.2017 01:51 -3,4 °C -3,4 °C 91 % 1013,1 hPa 0,0 mm 12,9 km/h (3 Bft) W 270 ° 0 min 0,000 mm 0,0 UV-I 0 W/m² -4,7 °C -8,1 °C 17,7 km/h (3 Bft)
09.12.2017 01:52 -3,5 °C -3,5 °C 91 % 1013,1 hPa 0,0 mm 9,7 km/h (2 Bft) W 270 ° 0 min 0,000 mm 0,0 UV-I 0 W/m² -4,8 °C -7,4 °C 12,9 km/h (3 Bft)
09.12.2017 01:53 -3,5 °C -3,5 °C 91 % 1013,1 hPa 0,0 mm 8,0 km/h (2 Bft) W 270 ° 0 min 0,000 mm 0,0 UV-I 0 W/m² -4,8 °C -6,8 °C 11,3 km/h (2 Bft)
09.12.2017 01:54 -3,5 °C -3,5 °C 91 % 1013,2 hPa 0,0 mm 8,0 km/h (2 Bft) W 270 ° 0 min 0,000 mm 0,0 UV-I 0 W/m² -4,8 °C -6,8 °C 14,5 km/h (3 Bft)
09.12.2017 01:55 -3,6 °C -3,6 °C 91 % 1013,3 hPa 0,0 mm 11,3 km/h (2 Bft) W 270 ° 0 min 0,000 mm 0,0 UV-I 0 W/m² -4,8 °C -8,0 °C 16,1 km/h (3 Bft)
09.12.2017 01:56 -3,6 °C -3,6 °C 91 % 1013,3 hPa 0,0 mm 6,4 km/h (2 Bft) W 270 ° 0 min 0,000 mm 0,0 UV-I 0 W/m² -4,8 °C -6,3 °C 11,3 km/h (2 Bft)
09.12.2017 01:57 -3,6 °C -3,6 °C 91 % 1013,3 hPa 0,0 mm 8,0 km/h (2 Bft) W 270 ° 0 min 0,000 mm 0,0 UV-I 0 W/m² -4,8 °C -7,0 °C 11,3 km/h (2 Bft)
09.12.2017 01:58 -3,6 °C -3,6 °C 91 % 1013,3 hPa 0,0 mm 4,8 km/h (1 Bft) W 270 ° 0 min 0,000 mm 0,0 UV-I 0 W/m² -4,8 °C -5,6 °C 9,7 km/h (2 Bft)
09.12.2017 01:59 -3,6 °C -3,6 °C 91 % 1013,3 hPa 0,0 mm 8,0 km/h (2 Bft) W 270 ° 0 min 0,000 mm 0,0 UV-I 0 W/m² -4,8 °C -7,0 °C 12,9 km/h (3 Bft)
09.12.2017 02:00 -3,7 °C -3,6 °C 91 % 1013,3 hPa 0,0 mm 9,7 km/h (2 Bft) W 270 ° 0 min 0,000 mm 0,0 UV-I 0 W/m² -4,9 °C -7,6 °C 14,5 km/h (3 Bft)
09.12.2017 02:01 -3,7 °C -3,6 °C 91 % 1013,3 hPa 0,0 mm 8,0 km/h (2 Bft) W 270 ° 0 min 0,000 mm 0,0 UV-I 0 W/m² -4,9 °C -7,1 °C 12,9 km/h (3 Bft)
09.12.2017 02:02 -3,7 °C -3,7 °C 91 % 1013,3 hPa 0,0 mm 11,3 km/h (2 Bft) W 270 ° 0 min 0,000 mm 0,0 UV-I 0 W/m² -4,9 °C -8,1 °C 17,7 km/h (3 Bft)
09.12.2017 02:03 -3,7 °C -3,7 °C 91 % 1013,4 hPa 0,0 mm 8,0 km/h (2 Bft) W 270 ° 0 min 0,000 mm 0,0 UV-I 0 W/m² -4,9 °C -7,1 °C 14,5 km/h (3 Bft)
09.12.2017 02:04 -3,7 °C -3,7 °C 91 % 1013,3 hPa 0,0 mm 6,4 km/h (2 Bft) W-SW 247 ° 0 min 0,000 mm 0,0 UV-I 0 W/m² -4,9 °C -6,5 °C 16,1 km/h (3 Bft)
09.12.2017 02:05 -3,7 °C -3,7 °C 91 % 1013,3 hPa 0,0 mm 9,7 km/h (2 Bft) W-SW 247 ° 0 min 0,000 mm 0,0 UV-I 0 W/m² -4,9 °C -7,6 °C 12,9 km/h (3 Bft)
09.12.2017 02:06 -3,7 °C -3,7 °C 91 % 1013,3 hPa 0,0 mm 4,8 km/h (1 Bft) W-SW 247 ° 0 min 0,000 mm 0,0 UV-I 0 W/m² -4,9 °C -5,7 °C 8,0 km/h (2 Bft)
09.12.2017 02:07 -3,7 °C -3,7 °C 91 % 1013,4 hPa 0,0 mm 6,4 km/h (2 Bft) S-SW 202 ° 0 min 0,000 mm 0,0 UV-I 0 W/m² -4,9 °C -6,5 °C 11,3 km/h (2 Bft)
09.12.2017 02:08 -3,8 °C -3,7 °C 91 % 1013,4 hPa 0,0 mm 4,8 km/h (1 Bft) SW 225 ° 0 min 0,000 mm 0,0 UV-I 0 W/m² -5,0 °C -5,8 °C 8,0 km/h (2 Bft)
09.12.2017 02:09 -3,8 °C -3,8 °C 91 % 1013,4 hPa 0,0 mm 6,4 km/h (2 Bft) W-SW 247 ° 0 min 0,000 mm 0,0 UV-I 0 W/m² -5,0 °C -6,6 °C 11,3 km/h (2 Bft)
09.12.2017 02:10 -3,8 °C -3,8 °C 91 % 1013,4 hPa 0,0 mm 8,0 km/h (2 Bft) W-SW 247 ° 0 min 0,000 mm 0,0 UV-I 0 W/m² -5,0 °C -7,2 °C 12,9 km/h (3 Bft)
09.12.2017 02:11 -3,8 °C -3,8 °C 91 % 1013,5 hPa 0,0 mm 4,8 km/h (1 Bft) SW 225 ° 0 min 0,000 mm 0,0 UV-I 0 W/m² -5,0 °C -5,8 °C 8,0 km/h (2 Bft)
09.12.2017 02:12 -3,8 °C -3,8 °C 91 % 1013,5 hPa 0,0 mm 6,4 km/h (2 Bft) W-SW 247 ° 0 min 0,000 mm 0,0 UV-I 0 W/m² -5,0 °C -6,6 °C 9,7 km/h (2 Bft)
09.12.2017 02:13 -3,8 °C -3,8 °C 91 % 1013,5 hPa 0,0 mm 6,4 km/h (2 Bft) SW 225 ° 0 min 0,000 mm 0,0 UV-I 0 W/m² -5,0 °C -6,6 °C 9,7 km/h (2 Bft)
09.12.2017 02:14 -3,8 °C -3,8 °C 91 % 1013,4 hPa 0,0 mm 8,0 km/h (2 Bft) W 270 ° 0 min 0,000 mm 0,0 UV-I 0 W/m² -5,0 °C -7,2 °C 11,3 km/h (2 Bft)
09.12.2017 02:15 -3,8 °C -3,8 °C 91 % 1013,5 hPa 0,0 mm 6,4 km/h (2 Bft) W-SW 247 ° 0 min 0,000 mm 0,0 UV-I 0 W/m² -5,0 °C -6,6 °C 9,7 km/h (2 Bft)
09.12.2017 02:16 -3,8 °C -3,8 °C 91 % 1013,5 hPa 0,0 mm 4,8 km/h (1 Bft) W-SW 247 ° 0 min 0,000 mm 0,0 UV-I 0 W/m² -5,0 °C -5,8 °C 6,4 km/h (2 Bft)
09.12.2017 02:17 -3,8 °C -3,8 °C 91 % 1013,5 hPa 0,0 mm 4,8 km/h (1 Bft) W-SW 247 ° 0 min 0,000 mm 0,0 UV-I 0 W/m² -5,0 °C -5,8 °C 9,7 km/h (2 Bft)
09.12.2017 02:18 -3,9 °C -3,8 °C 91 % 1013,5 hPa 0,0 mm 6,4 km/h (2 Bft) W-SW 247 ° 0 min 0,000 mm 0,0 UV-I 0 W/m² -5,1 °C -6,7 °C 9,7 km/h (2 Bft)
09.12.2017 02:19 -3,9 °C -3,8 °C 91 % 1013,5 hPa 0,0 mm 8,0 km/h (2 Bft) W-SW 247 ° 0 min 0,000 mm 0,0 UV-I 0 W/m² -5,1 °C -7,3 °C 14,5 km/h (3 Bft)
09.12.2017 02:20 -3,9 °C -3,9 °C 91 % 1013,6 hPa 0,0 mm 6,4 km/h (2 Bft) SW 225 ° 0 min 0,000 mm 0,0 UV-I 0 W/m² -5,1 °C -6,7 °C 12,9 km/h (3 Bft)
09.12.2017 02:21 -3,9 °C -3,9 °C 91 % 1013,6 hPa 0,0 mm 6,4 km/h (2 Bft) W 270 ° 0 min 0,000 mm 0,0 UV-I 0 W/m² -5,1 °C -6,7 °C 9,7 km/h (2 Bft)
09.12.2017 02:22 -3,9 °C -3,9 °C 91 % 1013,6 hPa 0,0 mm 6,4 km/h (2 Bft) W 270 ° 0 min 0,000 mm 0,0 UV-I 0 W/m² -5,1 °C -6,7 °C 9,7 km/h (2 Bft)
09.12.2017 02:23 -3,9 °C -3,9 °C 91 % 1013,6 hPa 0,0 mm 8,0 km/h (2 Bft) W-SW 247 ° 0 min 0,000 mm 0,0 UV-I 0 W/m² -5,1 °C -7,3 °C 11,3 km/h (2 Bft)
09.12.2017 02:24 -3,9 °C -3,9 °C 91 % 1013,7 hPa 0,0 mm 6,4 km/h (2 Bft) W-SW 247 ° 0 min 0,000 mm 0,0 UV-I 0 W/m² -5,1 °C -6,7 °C 9,7 km/h (2 Bft)
09.12.2017 02:25 -3,9 °C -3,9 °C 91 % 1013,7 hPa 0,0 mm 4,8 km/h (1 Bft) W 270 ° 0 min 0,000 mm 0,0 UV-I 0 W/m² -5,1 °C -5,9 °C 9,7 km/h (2 Bft)
09.12.2017 02:26 -3,9 °C -3,9 °C 91 % 1013,7 hPa 0,0 mm 4,8 km/h (1 Bft) W-SW 247 ° 0 min 0,000 mm 0,0 UV-I 0 W/m² -5,1 °C -5,9 °C 9,7 km/h (2 Bft)
09.12.2017 02:27 -3,9 °C -3,9 °C 91 % 1013,8 hPa 0,0 mm 8,0 km/h (2 Bft) W 270 ° 0 min 0,000 mm 0,0 UV-I 0 W/m² -5,1 °C -7,3 °C 11,3 km/h (2 Bft)
09.12.2017 02:28 -3,9 °C -3,9 °C 91 % 1013,8 hPa 0,0 mm 6,4 km/h (2 Bft) W-SW 247 ° 0 min 0,000 mm 0,0 UV-I 0 W/m² -5,1 °C -6,7 °C 11,3 km/h (2 Bft)
09.12.2017 02:29 -3,9 °C -3,9 °C 91 % 1013,8 hPa 0,0 mm 4,8 km/h (1 Bft) W 270 ° 0 min 0,000 mm 0,0 UV-I 0 W/m² -5,1 °C -5,9 °C 6,4 km/h (2 Bft)
09.12.2017 02:30 -3,9 °C -3,9 °C 91 % 1013,8 hPa 0,0 mm 6,4 km/h (2 Bft) W 270 ° 0 min 0,000 mm 0,0 UV-I 0 W/m² -5,1 °C -6,7 °C 9,7 km/h (2 Bft)
09.12.2017 02:31 -3,9 °C -3,9 °C 91 % 1013,8 hPa 0,0 mm 6,4 km/h (2 Bft) W-SW 247 ° 0 min 0,000 mm 0,0 UV-I 0 W/m² -5,1 °C -6,7 °C 9,7 km/h (2 Bft)
09.12.2017 02:32 -3,9 °C -3,9 °C 91 % 1013,8 hPa 0,0 mm 4,8 km/h (1 Bft) W-SW 247 ° 0 min 0,000 mm 0,0 UV-I 0 W/m² -5,1 °C -5,9 °C 6,4 km/h (2 Bft)
09.12.2017 02:33 -3,9 °C -3,9 °C 91 % 1013,9 hPa 0,0 mm 1,6 km/h (1 Bft) W-SW 247 ° 0 min 0,000 mm 0,0 UV-I 0 W/m² -5,1 °C -3,9 °C 3,2 km/h (1 Bft)
09.12.2017 02:34 -3,9 °C -3,9 °C 91 % 1013,9 hPa 0,0 mm 4,8 km/h (1 Bft) W-SW 247 ° 0 min 0,000 mm 0,0 UV-I 0 W/m² -5,1 °C -5,9 °C 6,4 km/h (2 Bft)
09.12.2017 02:35 -3,9 °C -3,9 °C 91 % 1013,9 hPa 0,0 mm 8,0 km/h (2 Bft) W 270 ° 0 min 0,000 mm 0,0 UV-I 0 W/m² -5,1 °C -7,3 °C 12,9 km/h (3 Bft)
09.12.2017 02:36 -3,9 °C -3,9 °C 91 % 1013,9 hPa 0,0 mm 11,3 km/h (2 Bft) W 270 ° 0 min 0,000 mm 0,0 UV-I 0 W/m² -5,1 °C -8,3 °C 17,7 km/h (3 Bft)
09.12.2017 02:37 -4,0 °C -3,9 °C 91 % 1013,9 hPa 0,0 mm 11,3 km/h (2 Bft) W 270 ° 0 min 0,000 mm 0,0 UV-I 0 W/m² -5,2 °C -8,5 °C 14,5 km/h (3 Bft)
09.12.2017 02:38 -3,9 °C -3,9 °C 91 % 1013,9 hPa 0,0 mm 6,4 km/h (2 Bft) W-SW 247 ° 0 min 0,000 mm 0,0 UV-I 0 W/m² -5,1 °C -6,7 °C 12,9 km/h (3 Bft)
09.12.2017 02:39 -4,0 °C -3,9 °C 91 % 1013,9 hPa 0,0 mm 8,0 km/h (2 Bft) W-SW 247 ° 0 min 0,000 mm 0,0 UV-I 0 W/m² -5,2 °C -7,4 °C 12,9 km/h (3 Bft)
09.12.2017 02:40 -3,9 °C -3,9 °C 91 % 1013,8 hPa 0,0 mm 11,3 km/h (2 Bft) W 270 ° 0 min 0,000 mm 0,0 UV-I 0 W/m² -5,1 °C -8,3 °C 14,5 km/h (3 Bft)
09.12.2017 02:41 -4,0 °C -3,9 °C 91 % 1013,9 hPa 0,0 mm 11,3 km/h (2 Bft) W-SW 247 ° 0 min 0,000 mm 0,0 UV-I 0 W/m² -5,2 °C -8,5 °C 16,1 km/h (3 Bft)
09.12.2017 02:42 -3,9 °C -3,9 °C 91 % 1013,9 hPa 0,0 mm 6,4 km/h (2 Bft) W-SW 247 ° 0 min 0,000 mm 0,0 UV-I 0 W/m² -5,1 °C -6,7 °C 12,9 km/h (3 Bft)
09.12.2017 02:43 -3,9 °C -3,9 °C 91 % 1013,9 hPa 0,0 mm 6,4 km/h (2 Bft) W-SW 247 ° 0 min 0,000 mm 0,0 UV-I 0 W/m² -5,1 °C -6,7 °C 11,3 km/h (2 Bft)
09.12.2017 02:44 -3,9 °C -3,9 °C 91 % 1013,9 hPa 0,0 mm 3,2 km/h (1 Bft) W-SW 247 ° 0 min 0,000 mm 0,0 UV-I 0 W/m² -5,1 °C -3,9 °C 9,7 km/h (2 Bft)
09.12.2017 02:45 -4,0 °C -3,9 °C 91 % 1013,9 hPa 0,0 mm 9,7 km/h (2 Bft) W 270 ° 0 min 0,000 mm 0,0 UV-I 0 W/m² -5,2 °C -8,0 °C 12,9 km/h (3 Bft)
09.12.2017 02:46 -4,0 °C -3,9 °C 91 % 1013,9 hPa 0,0 mm 11,3 km/h (2 Bft) W 270 ° 0 min 0,000 mm 0,0 UV-I 0 W/m² -5,2 °C -8,5 °C 14,5 km/h (3 Bft)
09.12.2017 02:47 -4,0 °C -3,9 °C 91 % 1014,0 hPa 0,0 mm 6,4 km/h (2 Bft) W-SW 247 ° 0 min 0,000 mm 0,0 UV-I 0 W/m² -5,2 °C -6,8 °C 11,3 km/h (2 Bft)
09.12.2017 02:48 -3,9 °C -3,9 °C 91 % 1013,9 hPa 0,0 mm 6,4 km/h (2 Bft) W-SW 247 ° 0 min 0,000 mm 0,0 UV-I 0 W/m² -5,1 °C -6,7 °C 11,3 km/h (2 Bft)
09.12.2017 02:49 -3,9 °C -3,9 °C 91 % 1013,9 hPa 0,0 mm 4,8 km/h (1 Bft) W-SW 247 ° 0 min 0,000 mm 0,0 UV-I 0 W/m² -5,1 °C -5,9 °C 8,0 km/h (2 Bft)
09.12.2017 02:50 -3,9 °C -3,9 °C 91 % 1014,0 hPa 0,0 mm 6,4 km/h (2 Bft) SW 225 ° 0 min 0,000 mm 0,0 UV-I 0 W/m² -5,1 °C -6,7 °C 9,7 km/h (2 Bft)
09.12.2017 02:51 -3,9 °C -3,9 °C 91 % 1014,0 hPa 0,0 mm 4,8 km/h (1 Bft) W-SW 247 ° 0 min 0,000 mm 0,0 UV-I 0 W/m² -5,1 °C -5,9 °C 8,0 km/h (2 Bft)
09.12.2017 02:52 -3,9 °C -3,9 °C 91 % 1014,0 hPa 0,0 mm 4,8 km/h (1 Bft) S-SW 202 ° 0 min 0,000 mm 0,0 UV-I 0 W/m² -5,1 °C -5,9 °C 8,0 km/h (2 Bft)
09.12.2017 02:53 -3,9 °C -3,9 °C 91 % 1014,0 hPa 0,0 mm 4,8 km/h (1 Bft) W-SW 247 ° 0 min 0,000 mm 0,0 UV-I 0 W/m² -5,1 °C -5,9 °C 11,3 km/h (2 Bft)
09.12.2017 02:54 -3,9 °C -3,9 °C 91 % 1014,0 hPa 0,0 mm 6,4 km/h (2 Bft) SW 225 ° 0 min 0,000 mm 0,0 UV-I 0 W/m² -5,1 °C -6,7 °C 9,7 km/h (2 Bft)
09.12.2017 02:55 -3,9 °C -3,9 °C 91 % 1014,0 hPa 0,0 mm 8,0 km/h (2 Bft) W 270 ° 0 min 0,000 mm 0,0 UV-I 0 W/m² -5,1 °C -7,3 °C 14,5 km/h (3 Bft)
09.12.2017 02:56 -3,9 °C -3,9 °C 91 % 1014,1 hPa 0,0 mm 8,0 km/h (2 Bft) W-NW 292 ° 0 min 0,000 mm 0,0 UV-I 0 W/m² -5,1 °C -7,3 °C 12,9 km/h (3 Bft)
09.12.2017 02:57 -3,9 °C -3,9 °C 91 % 1014,2 hPa 0,0 mm 6,4 km/h (2 Bft) W-SW 247 ° 0 min 0,000 mm 0,0 UV-I 0 W/m² -5,1 °C -6,7 °C 11,3 km/h (2 Bft)
09.12.2017 02:58 -3,9 °C -3,9 °C 91 % 1014,1 hPa 0,0 mm 11,3 km/h (2 Bft) W 270 ° 0 min 0,000 mm 0,0 UV-I 0 W/m² -5,1 °C -8,3 °C 17,7 km/h (3 Bft)
09.12.2017 02:59 -3,9 °C -3,9 °C 91 % 1014,3 hPa 0,0 mm 11,3 km/h (2 Bft) W 270 ° 0 min 0,000 mm 0,0 UV-I 0 W/m² -5,1 °C -8,3 °C 14,5 km/h (3 Bft)
09.12.2017 03:00 -3,9 °C -3,9 °C 91 % 1014,2 hPa 0,0 mm 9,7 km/h (2 Bft) W 270 ° 0 min 0,000 mm 0,0 UV-I 0 W/m² -5,1 °C -7,9 °C 16,1 km/h (3 Bft)
09.12.2017 03:01 -3,9 °C -3,9 °C 91 % 1014,2 hPa 0,0 mm 6,4 km/h (2 Bft) W-SW 247 ° 0 min 0,000 mm 0,0 UV-I 0 W/m² -5,1 °C -6,7 °C 11,3 km/h (2 Bft)
09.12.2017 03:02 -3,8 °C -3,8 °C 91 % 1014,2 hPa 0,0 mm 6,4 km/h (2 Bft) W-SW 247 ° 0 min 0,000 mm 0,0 UV-I 0 W/m² -5,0 °C -6,6 °C 12,9 km/h (3 Bft)
09.12.2017 03:03 -3,9 °C -3,9 °C 90 % 1014,2 hPa 0,0 mm 6,4 km/h (2 Bft) W 270 ° 0 min 0,000 mm 0,0 UV-I 0 W/m² -5,3 °C -6,7 °C 9,7 km/h (2 Bft)
09.12.2017 03:04 -3,9 °C -3,8 °C 90 % 1014,2 hPa 0,0 mm 4,8 km/h (1 Bft) W 270 ° 0 min 0,000 mm 0,0 UV-I 0 W/m² -5,3 °C -5,9 °C 6,4 km/h (2 Bft)
09.12.2017 03:05 -3,8 °C -3,8 °C 90 % 1014,2 hPa 0,0 mm 3,2 km/h (1 Bft) W-SW 247 ° 0 min 0,000 mm 0,0 UV-I 0 W/m² -5,2 °C -3,8 °C 6,4 km/h (2 Bft)
09.12.2017 03:06 -3,8 °C -3,8 °C 90 % 1014,2 hPa 0,0 mm 3,2 km/h (1 Bft) W-SW 247 ° 0 min 0,000 mm 0,0 UV-I 0 W/m² -5,2 °C -3,8 °C 6,4 km/h (2 Bft)
09.12.2017 03:07 -3,8 °C -3,8 °C 90 % 1014,2 hPa 0,0 mm 8,0 km/h (2 Bft) W 270 ° 0 min 0,000 mm 0,0 UV-I 0 W/m² -5,2 °C -7,2 °C 16,1 km/h (3 Bft)
09.12.2017 03:08 -3,8 °C -3,8 °C 91 % 1014,1 hPa 0,0 mm 8,0 km/h (2 Bft) W-SW 247 ° 0 min 0,000 mm 0,0 UV-I 0 W/m² -5,0 °C -7,2 °C 14,5 km/h (3 Bft)
09.12.2017 03:09 -3,8 °C -3,8 °C 91 % 1014,2 hPa 0,0 mm 4,8 km/h (1 Bft) SW 225 ° 0 min 0,000 mm 0,0 UV-I 0 W/m² -5,0 °C -5,8 °C 6,4 km/h (2 Bft)
09.12.2017 03:10 -3,8 °C -3,8 °C 90 % 1014,2 hPa 0,0 mm 4,8 km/h (1 Bft) W-SW 247 ° 0 min 0,000 mm 0,0 UV-I 0 W/m² -5,2 °C -5,8 °C 6,4 km/h (2 Bft)
09.12.2017 03:11 -3,8 °C -3,8 °C 90 % 1014,2 hPa 0,0 mm 9,7 km/h (2 Bft) W-SW 247 ° 0 min 0,000 mm 0,0 UV-I 0 W/m² -5,2 °C -7,8 °C 12,9 km/h (3 Bft)
09.12.2017 03:12 -3,8 °C -3,8 °C 90 % 1014,3 hPa 0,0 mm 3,2 km/h (1 Bft) SW 225 ° 0 min 0,000 mm 0,0 UV-I 0 W/m² -5,2 °C -3,8 °C 9,7 km/h (2 Bft)
09.12.2017 03:13 -3,8 °C -3,8 °C 90 % 1014,2 hPa 0,0 mm 8,0 km/h (2 Bft) SW 225 ° 0 min 0,000 mm 0,0 UV-I 0 W/m² -5,2 °C -7,2 °C 11,3 km/h (2 Bft)
09.12.2017 03:14 -3,8 °C -3,8 °C 90 % 1014,3 hPa 0,0 mm 11,3 km/h (2 Bft) W-SW 247 ° 0 min 0,000 mm 0,0 UV-I 0 W/m² -5,2 °C -8,2 °C 16,1 km/h (3 Bft)
09.12.2017 03:15 -3,8 °C -3,8 °C 90 % 1014,2 hPa 0,0 mm 12,9 km/h (3 Bft) W-SW 247 ° 0 min 0,000 mm 0,0 UV-I 0 W/m² -5,2 °C -8,6 °C 22,5 km/h (4 Bft)
09.12.2017 03:16 -3,8 °C -3,8 °C 90 % 1014,2 hPa 0,0 mm 11,3 km/h (2 Bft) W 270 ° 0 min 0,000 mm 0,0 UV-I 0 W/m² -5,2 °C -8,2 °C 12,9 km/h (3 Bft)
09.12.2017 03:17 -3,8 °C -3,8 °C 90 % 1014,2 hPa 0,0 mm 8,0 km/h (2 Bft) W 270 ° 0 min 0,000 mm 0,0 UV-I 0 W/m² -5,2 °C -7,2 °C 12,9 km/h (3 Bft)
09.12.2017 03:18 -3,8 °C -3,8 °C 90 % 1014,2 hPa 0,0 mm 6,4 km/h (2 Bft) W-SW 247 ° 0 min 0,000 mm 0,0 UV-I 0 W/m² -5,2 °C -6,6 °C 11,3 km/h (2 Bft)
09.12.2017 03:19 -3,8 °C -3,8 °C 90 % 1014,2 hPa 0,0 mm 9,7 km/h (2 Bft) W 270 ° 0 min 0,000 mm 0,0 UV-I 0 W/m² -5,2 °C -7,8 °C 12,9 km/h (3 Bft)
09.12.2017 03:20 -3,8 °C -3,8 °C 90 % 1014,3 hPa 0,0 mm 9,7 km/h (2 Bft) S 180 ° 0 min 0,000 mm 0,0 UV-I 0 W/m² -5,2 °C -7,8 °C 14,5 km/h (3 Bft)
09.12.2017 03:21 -3,8 °C -3,8 °C 90 % 1014,2 hPa 0,0 mm 8,0 km/h (2 Bft) W-SW 247 ° 0 min 0,000 mm 0,0 UV-I 0 W/m² -5,2 °C -7,2 °C 16,1 km/h (3 Bft)
09.12.2017 03:22 -3,8 °C -3,8 °C 90 % 1014,3 hPa 0,0 mm 12,9 km/h (3 Bft) W 270 ° 0 min 0,000 mm 0,0 UV-I 0 W/m² -5,2 °C -8,6 °C 16,1 km/h (3 Bft)
09.12.2017 03:23 -3,8 °C -3,8 °C 90 % 1014,2 hPa 0,0 mm 6,4 km/h (2 Bft) W-SW 247 ° 0 min 0,000 mm 0,0 UV-I 0 W/m² -5,2 °C -6,6 °C 8,0 km/h (2 Bft)
09.12.2017 03:24 -3,8 °C -3,7 °C 90 % 1014,2 hPa 0,0 mm 3,2 km/h (1 Bft) SW 225 ° 0 min 0,000 mm 0,0 UV-I 0 W/m² -5,2 °C -3,8 °C 9,7 km/h (2 Bft)
09.12.2017 03:25 -3,8 °C -3,8 °C 90 % 1014,2 hPa 0,0 mm 4,8 km/h (1 Bft) W 270 ° 0 min 0,000 mm 0,0 UV-I 0 W/m² -5,2 °C -5,8 °C 6,4 km/h (2 Bft)
09.12.2017 03:26 -3,8 °C -3,8 °C 90 % 1014,2 hPa 0,0 mm 6,4 km/h (2 Bft) W 270 ° 0 min 0,000 mm 0,0 UV-I 0 W/m² -5,2 °C -6,6 °C 9,7 km/h (2 Bft)
09.12.2017 03:27 -3,8 °C -3,8 °C 90 % 1014,2 hPa 0,0 mm 6,4 km/h (2 Bft) W 270 ° 0 min 0,000 mm 0,0 UV-I 0 W/m² -5,2 °C -6,6 °C 9,7 km/h (2 Bft)
09.12.2017 03:28 -3,8 °C -3,8 °C 90 % 1014,2 hPa 0,0 mm 9,7 km/h (2 Bft) W 270 ° 0 min 0,000 mm 0,0 UV-I 0 W/m² -5,2 °C -7,8 °C 12,9 km/h (3 Bft)
09.12.2017 03:29 -3,8 °C -3,8 °C 90 % 1014,2 hPa 0,0 mm 11,3 km/h (2 Bft) W 270 ° 0 min 0,000 mm 0,0 UV-I 0 W/m² -5,2 °C -8,2 °C 14,5 km/h (3 Bft)
09.12.2017 03:30 -3,8 °C -3,8 °C 90 % 1014,2 hPa 0,0 mm 8,0 km/h (2 Bft) W 270 ° 0 min 0,000 mm 0,0 UV-I 0 W/m² -5,2 °C -7,2 °C 12,9 km/h (3 Bft)
09.12.2017 03:31 -3,8 °C -3,8 °C 90 % 1014,1 hPa 0,0 mm 9,7 km/h (2 Bft) W 270 ° 0 min 0,000 mm 0,0 UV-I 0 W/m² -5,2 °C -7,8 °C 11,3 km/h (2 Bft)
09.12.2017 03:32 -3,7 °C -3,7 °C 90 % 1014,2 hPa 0,0 mm 4,8 km/h (1 Bft) W-NW 292 ° 0 min 0,000 mm 0,0 UV-I 0 W/m² -5,1 °C -5,7 °C 9,7 km/h (2 Bft)
09.12.2017 03:33 -3,7 °C -3,7 °C 90 % 1014,2 hPa 0,0 mm 6,4 km/h (2 Bft) W-SW 247 ° 0 min 0,000 mm 0,0 UV-I 0 W/m² -5,1 °C -6,5 °C 11,3 km/h (2 Bft)
09.12.2017 03:34 -3,7 °C -3,7 °C 90 % 1014,2 hPa 0,0 mm 11,3 km/h (2 Bft) W 270 ° 0 min 0,000 mm 0,0 UV-I 0 W/m² -5,1 °C -8,1 °C 14,5 km/h (3 Bft)
09.12.2017 03:35 -3,8 °C -3,8 °C 90 % 1014,2 hPa 0,0 mm 6,4 km/h (2 Bft) W 270 ° 0 min 0,000 mm 0,0 UV-I 0 W/m² -5,2 °C -6,6 °C 9,7 km/h (2 Bft)
09.12.2017 03:36 -3,8 °C -3,7 °C 90 % 1014,2 hPa 0,0 mm 4,8 km/h (1 Bft) W-SW 247 ° 0 min 0,000 mm 0,0 UV-I 0 W/m² -5,2 °C -5,8 °C 6,4 km/h (2 Bft)
09.12.2017 03:37 -3,7 °C -3,7 °C 90 % 1014,2 hPa 0,0 mm 4,8 km/h (1 Bft) SW 225 ° 0 min 0,000 mm 0,0 UV-I 0 W/m² -5,1 °C -5,7 °C 9,7 km/h (2 Bft)
09.12.2017 03:38 -3,8 °C -3,8 °C 90 % 1014,2 hPa 0,0 mm 4,8 km/h (1 Bft) W 270 ° 0 min 0,000 mm 0,0 UV-I 0 W/m² -5,2 °C -5,8 °C 6,4 km/h (2 Bft)
09.12.2017 03:39 -3,8 °C -3,8 °C 90 % 1014,2 hPa 0,0 mm 4,8 km/h (1 Bft) S-SW 202 ° 0 min 0,000 mm 0,0 UV-I 0 W/m² -5,2 °C -5,8 °C 6,4 km/h (2 Bft)
09.12.2017 03:40 -3,8 °C -3,8 °C 90 % 1014,2 hPa 0,0 mm 3,2 km/h (1 Bft) W-SW 247 ° 0 min 0,000 mm 0,0 UV-I 0 W/m² -5,2 °C -3,8 °C 6,4 km/h (2 Bft)
09.12.2017 03:41 -3,8 °C -3,7 °C 90 % 1014,1 hPa 0,0 mm 8,0 km/h (2 Bft) W-SW 247 ° 0 min 0,000 mm 0,0 UV-I 0 W/m² -5,2 °C -7,2 °C 14,5 km/h (3 Bft)
09.12.2017 03:42 -3,8 °C -3,8 °C 90 % 1014,1 hPa 0,0 mm 6,4 km/h (2 Bft) W 270 ° 0 min 0,000 mm 0,0 UV-I 0 W/m² -5,2 °C -6,6 °C 8,0 km/h (2 Bft)
09.12.2017 03:43 -3,8 °C -3,8 °C 90 % 1014,1 hPa 0,0 mm 3,2 km/h (1 Bft) W 270 ° 0 min 0,000 mm 0,0 UV-I 0 W/m² -5,2 °C -3,8 °C 4,8 km/h (1 Bft)
09.12.2017 03:44 -3,8 °C -3,8 °C 90 % 1014,0 hPa 0,0 mm 3,2 km/h (1 Bft) W 270 ° 0 min 0,000 mm 0,0 UV-I 0 W/m² -5,2 °C -3,8 °C 6,4 km/h (2 Bft)
09.12.2017 03:45 -3,7 °C -3,7 °C 90 % 1014,1 hPa 0,0 mm 4,8 km/h (1 Bft) W 270 ° 0 min 0,000 mm 0,0 UV-I 0 W/m² -5,1 °C -5,7 °C 6,4 km/h (2 Bft)
09.12.2017 03:46 -3,7 °C -3,7 °C 90 % 1014,1 hPa 0,0 mm 6,4 km/h (2 Bft) W 270 ° 0 min 0,000 mm 0,0 UV-I 0 W/m² -5,1 °C -6,5 °C 9,7 km/h (2 Bft)
09.12.2017 03:47 -3,8 °C -3,7 °C 90 % 1014,1 hPa 0,0 mm 6,4 km/h (2 Bft) W 270 ° 0 min 0,000 mm 0,0 UV-I 0 W/m² -5,2 °C -6,6 °C 11,3 km/h (2 Bft)
09.12.2017 03:48 -3,7 °C -3,7 °C 90 % 1014,1 hPa 0,0 mm 8,0 km/h (2 Bft) W 270 ° 0 min 0,000 mm 0,0 UV-I 0 W/m² -5,1 °C -7,1 °C 11,3 km/h (2 Bft)
09.12.2017 03:49 -3,7 °C -3,7 °C 90 % 1014,1 hPa 0,0 mm 3,2 km/h (1 Bft) W-SW 247 ° 0 min 0,000 mm 0,0 UV-I 0 W/m² -5,1 °C -3,7 °C 4,8 km/h (1 Bft)
09.12.2017 03:50 -3,8 °C -3,8 °C 90 % 1014,1 hPa 0,0 mm 4,8 km/h (1 Bft) W-SW 247 ° 0 min 0,000 mm 0,0 UV-I 0 W/m² -5,2 °C -5,8 °C 9,7 km/h (2 Bft)
09.12.2017 03:51 -3,8 °C -3,7 °C 90 % 1014,1 hPa 0,0 mm 4,8 km/h (1 Bft) W-SW 247 ° 0 min 0,000 mm 0,0 UV-I 0 W/m² -5,2 °C -5,8 °C 4,8 km/h (1 Bft)
09.12.2017 03:52 -3,8 °C -3,7 °C 90 % 1014,1 hPa 0,0 mm 1,6 km/h (1 Bft) W-SW 247 ° 0 min 0,000 mm 0,0 UV-I 0 W/m² -5,2 °C -3,8 °C 4,8 km/h (1 Bft)
09.12.2017 03:53 -3,8 °C -3,7 °C 90 % 1014,1 hPa 0,0 mm 6,4 km/h (2 Bft) W 270 ° 0 min 0,000 mm 0,0 UV-I 0 W/m² -5,2 °C -6,6 °C 9,7 km/h (2 Bft)
09.12.2017 03:54 -3,8 °C -3,7 °C 90 % 1014,1 hPa 0,0 mm 3,2 km/h (1 Bft) W-SW 247 ° 0 min 0,000 mm 0,0 UV-I 0 W/m² -5,2 °C -3,8 °C 6,4 km/h (2 Bft)
09.12.2017 03:55 -3,8 °C -3,7 °C 90 % 1014,1 hPa 0,0 mm 4,8 km/h (1 Bft) W 270 ° 0 min 0,000 mm 0,0 UV-I 0 W/m² -5,2 °C -5,8 °C 6,4 km/h (2 Bft)
09.12.2017 03:56 -3,8 °C -3,7 °C 90 % 1014,1 hPa 0,0 mm 6,4 km/h (2 Bft) W-NW 292 ° 0 min 0,000 mm 0,0 UV-I 0 W/m² -5,2 °C -6,6 °C 9,7 km/h (2 Bft)
09.12.2017 03:57 -3,8 °C -3,8 °C 90 % 1014,1 hPa 0,0 mm 6,4 km/h (2 Bft) W-SW 247 ° 0 min 0,000 mm 0,0 UV-I 0 W/m² -5,2 °C -6,6 °C 9,7 km/h (2 Bft)
09.12.2017 03:58 -3,8 °C -3,7 °C 90 % 1014,1 hPa 0,0 mm 6,4 km/h (2 Bft) W 270 ° 0 min 0,000 mm 0,0 UV-I 0 W/m² -5,2 °C -6,6 °C 9,7 km/h (2 Bft)
09.12.2017 03:59 -3,7 °C -3,7 °C 90 % 1014,0 hPa 0,0 mm 4,8 km/h (1 Bft) W 270 ° 0 min 0,000 mm 0,0 UV-I 0 W/m² -5,1 °C -5,7 °C 8,0 km/h (2 Bft)
09.12.2017 04:00 -3,7 °C -3,7 °C 90 % 1014,1 hPa 0,0 mm 3,2 km/h (1 Bft) W-SW 247 ° 0 min 0,000 mm 0,0 UV-I 0 W/m² -5,1 °C -3,7 °C 6,4 km/h (2 Bft)
09.12.2017 04:01 -3,7 °C -3,7 °C 90 % 1014,0 hPa 0,0 mm 3,2 km/h (1 Bft) W 270 ° 0 min 0,000 mm 0,0 UV-I 0 W/m² -5,1 °C -3,7 °C 3,2 km/h (1 Bft)
09.12.2017 04:02 -3,8 °C -3,7 °C 90 % 1014,0 hPa 0,0 mm 4,8 km/h (1 Bft) W-SW 247 ° 0 min 0,000 mm 0,0 UV-I 0 W/m² -5,2 °C -5,8 °C 11,3 km/h (2 Bft)
09.12.2017 04:03 -3,8 °C -3,7 °C 90 % 1014,0 hPa 0,0 mm 6,4 km/h (2 Bft) W-SW 247 ° 0 min 0,000 mm 0,0 UV-I 0 W/m² -5,2 °C -6,6 °C 8,0 km/h (2 Bft)
09.12.2017 04:04 -3,8 °C -3,7 °C 90 % 1014,0 hPa 0,0 mm 6,4 km/h (2 Bft) W 270 ° 0 min 0,000 mm 0,0 UV-I 0 W/m² -5,2 °C -6,6 °C 11,3 km/h (2 Bft)
09.12.2017 04:05 -3,7 °C -3,7 °C 90 % 1014,0 hPa 0,0 mm 8,0 km/h (2 Bft) W 270 ° 0 min 0,000 mm 0,0 UV-I 0 W/m² -5,1 °C -7,1 °C 11,3 km/h (2 Bft)
09.12.2017 04:06 -3,8 °C -3,8 °C 90 % 1014,0 hPa 0,0 mm 9,7 km/h (2 Bft) W 270 ° 0 min 0,000 mm 0,0 UV-I 0 W/m² -5,2 °C -7,8 °C 14,5 km/h (3 Bft)
09.12.2017 04:07 -3,8 °C -3,8 °C 90 % 1014,0 hPa 0,0 mm 8,0 km/h (2 Bft) W 270 ° 0 min 0,000 mm 0,0 UV-I 0 W/m² -5,2 °C -7,2 °C 12,9 km/h (3 Bft)
09.12.2017 04:08 -3,8 °C -3,8 °C 90 % 1014,0 hPa 0,0 mm 6,4 km/h (2 Bft) SW 225 ° 0 min 0,000 mm 0,0 UV-I 0 W/m² -5,2 °C -6,6 °C 9,7 km/h (2 Bft)
09.12.2017 04:09 -3,8 °C -3,7 °C 90 % 1014,1 hPa 0,0 mm 4,8 km/h (1 Bft) W-SW 247 ° 0 min 0,000 mm 0,0 UV-I 0 W/m² -5,2 °C -5,8 °C 6,4 km/h (2 Bft)
09.12.2017 04:10 -3,8 °C -3,7 °C 90 % 1014,1 hPa 0,0 mm 3,2 km/h (1 Bft) SW 225 ° 0 min 0,000 mm 0,0 UV-I 0 W/m² -5,2 °C -3,8 °C 4,8 km/h (1 Bft)
09.12.2017 04:11 -3,8 °C -3,8 °C 90 % 1014,1 hPa 0,0 mm 6,4 km/h (2 Bft) W 270 ° 0 min 0,000 mm 0,0 UV-I 0 W/m² -5,2 °C -6,6 °C 11,3 km/h (2 Bft)
09.12.2017 04:12 -3,8 °C -3,8 °C 90 % 1014,0 hPa 0,0 mm 11,3 km/h (2 Bft) W 270 ° 0 min 0,000 mm 0,0 UV-I 0 W/m² -5,2 °C -8,2 °C 14,5 km/h (3 Bft)
09.12.2017 04:13 -3,8 °C -3,8 °C 90 % 1014,0 hPa 0,0 mm 9,7 km/h (2 Bft) W 270 ° 0 min 0,000 mm 0,0 UV-I 0 W/m² -5,2 °C -7,8 °C 14,5 km/h (3 Bft)
09.12.2017 04:14 -3,8 °C -3,8 °C 90 % 1014,1 hPa 0,0 mm 6,4 km/h (2 Bft) W-SW 247 ° 0 min 0,000 mm 0,0 UV-I 0 W/m² -5,2 °C -6,6 °C 9,7 km/h (2 Bft)
09.12.2017 04:15 -3,8 °C -3,8 °C 90 % 1014,0 hPa 0,0 mm 8,0 km/h (2 Bft) W-SW 247 ° 0 min 0,000 mm 0,0 UV-I 0 W/m² -5,2 °C -7,2 °C 11,3 km/h (2 Bft)
09.12.2017 04:16 -3,8 °C -3,8 °C 90 % 1014,0 hPa 0,0 mm 6,4 km/h (2 Bft) W 270 ° 0 min 0,000 mm 0,0 UV-I 0 W/m² -5,2 °C -6,6 °C 11,3 km/h (2 Bft)
09.12.2017 04:17 -3,8 °C -3,8 °C 90 % 1014,1 hPa 0,0 mm 6,4 km/h (2 Bft) W 270 ° 0 min 0,000 mm 0,0 UV-I 0 W/m² -5,2 °C -6,6 °C 12,9 km/h (3 Bft)
09.12.2017 04:18 -3,8 °C -3,8 °C 90 % 1014,1 hPa 0,0 mm 9,7 km/h (2 Bft) W 270 ° 0 min 0,000 mm 0,0 UV-I 0 W/m² -5,2 °C -7,8 °C 19,3 km/h (3 Bft)
09.12.2017 04:19 -3,8 °C -3,8 °C 90 % 1014,1 hPa 0,0 mm 11,3 km/h (2 Bft) W 270 ° 0 min 0,000 mm 0,0 UV-I 0 W/m² -5,2 °C -8,2 °C 19,3 km/h (3 Bft)
09.12.2017 04:20 -3,8 °C -3,8 °C 90 % 1014,0 hPa 0,0 mm 8,0 km/h (2 Bft) W 270 ° 0 min 0,000 mm 0,0 UV-I 0 W/m² -5,2 °C -7,2 °C 11,3 km/h (2 Bft)
09.12.2017 04:21 -3,8 °C -3,8 °C 90 % 1014,1 hPa 0,0 mm 8,0 km/h (2 Bft) W 270 ° 0 min 0,000 mm 0,0 UV-I 0 W/m² -5,2 °C -7,2 °C 12,9 km/h (3 Bft)
09.12.2017 04:22 -3,8 °C -3,8 °C 90 % 1014,1 hPa 0,0 mm 8,0 km/h (2 Bft) W 270 ° 0 min 0,000 mm 0,0 UV-I 0 W/m² -5,2 °C -7,2 °C 11,3 km/h (2 Bft)
09.12.2017 04:23 -3,8 °C -3,8 °C 90 % 1014,1 hPa 0,0 mm 8,0 km/h (2 Bft) W 270 ° 0 min 0,000 mm 0,0 UV-I 0 W/m² -5,2 °C -7,2 °C 11,3 km/h (2 Bft)
09.12.2017 04:24 -3,8 °C -3,8 °C 90 % 1014,0 hPa 0,0 mm 9,7 km/h (2 Bft) W 270 ° 0 min 0,000 mm 0,0 UV-I 0 W/m² -5,2 °C -7,8 °C 12,9 km/h (3 Bft)
09.12.2017 04:25 -3,8 °C -3,8 °C 90 % 1014,0 hPa 0,0 mm 8,0 km/h (2 Bft) W-SW 247 ° 0 min 0,000 mm 0,0 UV-I 0 W/m² -5,2 °C -7,2 °C 11,3 km/h (2 Bft)
09.12.2017 04:26 -3,8 °C -3,8 °C 90 % 1014,0 hPa 0,0 mm 4,8 km/h (1 Bft) W-SW 247 ° 0 min 0,000 mm 0,0 UV-I 0 W/m² -5,2 °C -5,8 °C 9,7 km/h (2 Bft)
09.12.2017 04:27 -3,8 °C -3,8 °C 90 % 1014,0 hPa 0,0 mm 8,0 km/h (2 Bft) W 270 ° 0 min 0,000 mm 0,0 UV-I 0 W/m² -5,2 °C -7,2 °C 14,5 km/h (3 Bft)
09.12.2017 04:28 -3,8 °C -3,8 °C 90 % 1014,1 hPa 0,0 mm 9,7 km/h (2 Bft) W-SW 247 ° 0 min 0,000 mm 0,0 UV-I 0 W/m² -5,2 °C -7,8 °C 17,7 km/h (3 Bft)
09.12.2017 04:29 -3,8 °C -3,8 °C 90 % 1014,1 hPa 0,0 mm 9,7 km/h (2 Bft) W-SW 247 ° 0 min 0,000 mm 0,0 UV-I 0 W/m² -5,2 °C -7,8 °C 17,7 km/h (3 Bft)
09.12.2017 04:30 -3,8 °C -3,8 °C 90 % 1014,1 hPa 0,0 mm 16,1 km/h (3 Bft) W 270 ° 0 min 0,000 mm 0,0 UV-I 0 W/m² -5,2 °C -9,3 °C 24,1 km/h (4 Bft)
09.12.2017 04:31 -3,8 °C -3,8 °C 90 % 1014,1 hPa 0,0 mm 11,3 km/h (2 Bft) W 270 ° 0 min 0,000 mm 0,0 UV-I 0 W/m² -5,2 °C -8,2 °C 14,5 km/h (3 Bft)
09.12.2017 04:32 -3,8 °C -3,8 °C 90 % 1014,0 hPa 0,0 mm 8,0 km/h (2 Bft) W 270 ° 0 min 0,000 mm 0,0 UV-I 0 W/m² -5,2 °C -7,2 °C 11,3 km/h (2 Bft)
09.12.2017 04:33 -3,8 °C -3,8 °C 90 % 1014,1 hPa 0,0 mm 9,7 km/h (2 Bft) W 270 ° 0 min 0,000 mm 0,0 UV-I 0 W/m² -5,2 °C -7,8 °C 16,1 km/h (3 Bft)
09.12.2017 04:34 -3,8 °C -3,8 °C 90 % 1014,1 hPa 0,0 mm 8,0 km/h (2 Bft) W-SW 247 ° 0 min 0,000 mm 0,0 UV-I 0 W/m² -5,2 °C -7,2 °C 12,9 km/h (3 Bft)
09.12.2017 04:35 -3,8 °C -3,8 °C 90 % 1014,1 hPa 0,0 mm 6,4 km/h (2 Bft) W 270 ° 0 min 0,000 mm 0,0 UV-I 0 W/m² -5,2 °C -6,6 °C 9,7 km/h (2 Bft)
09.12.2017 04:36 -3,8 °C -3,8 °C 90 % 1014,1 hPa 0,0 mm 3,2 km/h (1 Bft) W 270 ° 0 min 0,000 mm 0,0 UV-I 0 W/m² -5,2 °C -3,8 °C 4,8 km/h (1 Bft)
09.12.2017 04:37 -3,8 °C -3,8 °C 90 % 1014,1 hPa 0,0 mm 4,8 km/h (1 Bft) W 270 ° 0 min 0,000 mm 0,0 UV-I 0 W/m² -5,2 °C -5,8 °C 6,4 km/h (2 Bft)
09.12.2017 04:38 -3,8 °C -3,8 °C 90 % 1014,0 hPa 0,0 mm 4,8 km/h (1 Bft) W 270 ° 0 min 0,000 mm 0,0 UV-I 0 W/m² -5,2 °C -5,8 °C 9,7 km/h (2 Bft)
09.12.2017 04:39 -3,8 °C -3,8 °C 90 % 1014,1 hPa 0,0 mm 6,4 km/h (2 Bft) W 270 ° 0 min 0,000 mm 0,0 UV-I 0 W/m² -5,2 °C -6,6 °C 9,7 km/h (2 Bft)
09.12.2017 04:40 -3,8 °C -3,8 °C 90 % 1014,1 hPa 0,0 mm 4,8 km/h (1 Bft) W-SW 247 ° 0 min 0,000 mm 0,0 UV-I 0 W/m² -5,2 °C -5,8 °C 6,4 km/h (2 Bft)
09.12.2017 04:41 -3,8 °C -3,8 °C 90 % 1014,1 hPa 0,0 mm 6,4 km/h (2 Bft) W 270 ° 0 min 0,000 mm 0,0 UV-I 0 W/m² -5,2 °C -6,6 °C 9,7 km/h (2 Bft)
09.12.2017 04:42 -3,8 °C -3,8 °C 90 % 1014,1 hPa 0,0 mm 4,8 km/h (1 Bft) W 270 ° 0 min 0,000 mm 0,0 UV-I 0 W/m² -5,2 °C -5,8 °C 6,4 km/h (2 Bft)
09.12.2017 04:43 -3,8 °C -3,8 °C 90 % 1014,1 hPa 0,0 mm 8,0 km/h (2 Bft) W 270 ° 0 min 0,000 mm 0,0 UV-I 0 W/m² -5,2 °C -7,2 °C 11,3 km/h (2 Bft)
09.12.2017 04:44 -3,8 °C -3,8 °C 90 % 1014,1 hPa 0,0 mm 3,2 km/h (1 Bft) W 270 ° 0 min 0,000 mm 0,0 UV-I 0 W/m² -5,2 °C -3,8 °C 4,8 km/h (1 Bft)
09.12.2017 04:45 -3,8 °C -3,8 °C 90 % 1014,0 hPa 0,0 mm 4,8 km/h (1 Bft) W-NW 292 ° 0 min 0,000 mm 0,0 UV-I 0 W/m² -5,2 °C -5,8 °C 6,4 km/h (2 Bft)
09.12.2017 04:46 -3,8 °C -3,8 °C 90 % 1014,1 hPa 0,0 mm 4,8 km/h (1 Bft) W-NW 292 ° 0 min 0,000 mm 0,0 UV-I 0 W/m² -5,2 °C -5,8 °C 9,7 km/h (2 Bft)
09.12.2017 04:47 -3,8 °C -3,8 °C 90 % 1014,1 hPa 0,0 mm 4,8 km/h (1 Bft) W-NW 292 ° 0 min 0,000 mm 0,0 UV-I 0 W/m² -5,2 °C -5,8 °C 11,3 km/h (2 Bft)
09.12.2017 04:48 -3,8 °C -3,8 °C 90 % 1014,1 hPa 0,0 mm 4,8 km/h (1 Bft) W-NW 292 ° 0 min 0,000 mm 0,0 UV-I 0 W/m² -5,2 °C -5,8 °C 9,7 km/h (2 Bft)
09.12.2017 04:49 -3,8 °C -3,8 °C 90 % 1014,1 hPa 0,0 mm 4,8 km/h (1 Bft) W-NW 292 ° 0 min 0,000 mm 0,0 UV-I 0 W/m² -5,2 °C -5,8 °C 6,4 km/h (2 Bft)
09.12.2017 04:50 -3,8 °C -3,8 °C 90 % 1014,1 hPa 0,0 mm 3,2 km/h (1 Bft) W-NW 292 ° 0 min 0,000 mm 0,0 UV-I 0 W/m² -5,2 °C -3,8 °C 6,4 km/h (2 Bft)
09.12.2017 04:51 -3,8 °C -3,8 °C 90 % 1014,1 hPa 0,0 mm 3,2 km/h (1 Bft) W-NW 292 ° 0 min 0,000 mm 0,0 UV-I 0 W/m² -5,2 °C -3,8 °C 6,4 km/h (2 Bft)
09.12.2017 04:52 -3,8 °C -3,8 °C 90 % 1014,1 hPa 0,0 mm 3,2 km/h (1 Bft) NW 315 ° 0 min 0,000 mm 0,0 UV-I 0 W/m² -5,2 °C -3,8 °C 6,4 km/h (2 Bft)
09.12.2017 04:53 -3,8 °C -3,8 °C 91 % 1014,1 hPa 0,0 mm 3,2 km/h (1 Bft) W-NW 292 ° 0 min 0,000 mm 0,0 UV-I 0 W/m² -5,0 °C -3,8 °C 6,4 km/h (2 Bft)
09.12.2017 04:54 -3,8 °C -3,8 °C 90 % 1014,1 hPa 0,0 mm 4,8 km/h (1 Bft) NW 315 ° 0 min 0,000 mm 0,0 UV-I 0 W/m² -5,2 °C -5,8 °C 8,0 km/h (2 Bft)
09.12.2017 04:55 -3,9 °C -3,8 °C 90 % 1014,1 hPa 0,0 mm 4,8 km/h (1 Bft) W-NW 292 ° 0 min 0,000 mm 0,0 UV-I 0 W/m² -5,3 °C -5,9 °C 11,3 km/h (2 Bft)
09.12.2017 04:56 -3,9 °C -3,8 °C 91 % 1014,1 hPa 0,0 mm 6,4 km/h (2 Bft) N-NW 337 ° 0 min 0,000 mm 0,0 UV-I 0 W/m² -5,1 °C -6,7 °C 8,0 km/h (2 Bft)
09.12.2017 04:57 -3,8 °C -3,8 °C 91 % 1014,2 hPa 0,0 mm 4,8 km/h (1 Bft) W-NW 292 ° 0 min 0,000 mm 0,0 UV-I 0 W/m² -5,0 °C -5,8 °C 11,3 km/h (2 Bft)
09.12.2017 04:58 -3,9 °C -3,8 °C 91 % 1014,2 hPa 0,0 mm 6,4 km/h (2 Bft) W 270 ° 0 min 0,000 mm 0,0 UV-I 0 W/m² -5,1 °C -6,7 °C 9,7 km/h (2 Bft)
09.12.2017 04:59 -3,9 °C -3,9 °C 91 % 1014,2 hPa 0,0 mm 8,0 km/h (2 Bft) W-NW 292 ° 0 min 0,000 mm 0,0 UV-I 0 W/m² -5,1 °C -7,3 °C 14,5 km/h (3 Bft)
09.12.2017 05:00 -3,9 °C -3,9 °C 91 % 1014,3 hPa 0,0 mm 4,8 km/h (1 Bft) W 270 ° 0 min 0,000 mm 0,0 UV-I 0 W/m² -5,1 °C -5,9 °C 9,7 km/h (2 Bft)
09.12.2017 05:01 -3,9 °C -3,9 °C 91 % 1014,2 hPa 0,0 mm 8,0 km/h (2 Bft) W 270 ° 0 min 0,000 mm 0,0 UV-I 0 W/m² -5,1 °C -7,3 °C 11,3 km/h (2 Bft)
09.12.2017 05:02 -3,9 °C -3,9 °C 91 % 1014,3 hPa 0,0 mm 8,0 km/h (2 Bft) NW 315 ° 0 min 0,000 mm 0,0 UV-I 0 W/m² -5,1 °C -7,3 °C 12,9 km/h (3 Bft)
09.12.2017 05:03 -3,9 °C -3,9 °C 91 % 1014,3 hPa 0,0 mm 6,4 km/h (2 Bft) W-NW 292 ° 0 min 0,000 mm 0,0 UV-I 0 W/m² -5,1 °C -6,7 °C 11,3 km/h (2 Bft)
09.12.2017 05:04 -3,9 °C -3,9 °C 91 % 1014,3 hPa 0,0 mm 9,7 km/h (2 Bft) W 270 ° 0 min 0,000 mm 0,0 UV-I 0 W/m² -5,1 °C -7,9 °C 17,7 km/h (3 Bft)
09.12.2017 05:05 -3,9 °C -3,9 °C 91 % 1014,4 hPa 0,0 mm 8,0 km/h (2 Bft) W-NW 292 ° 0 min 0,000 mm 0,0 UV-I 0 W/m² -5,1 °C -7,3 °C 16,1 km/h (3 Bft)
09.12.2017 05:06 -3,9 °C -3,9 °C 91 % 1014,3 hPa 0,0 mm 4,8 km/h (1 Bft) W-NW 292 ° 0 min 0,000 mm 0,0 UV-I 0 W/m² -5,1 °C -5,9 °C 6,4 km/h (2 Bft)
09.12.2017 05:07 -3,9 °C -3,9 °C 91 % 1014,4 hPa 0,0 mm 3,2 km/h (1 Bft) W 270 ° 0 min 0,000 mm 0,0 UV-I 0 W/m² -5,1 °C -3,9 °C 6,4 km/h (2 Bft)
09.12.2017 05:08 -3,9 °C -3,9 °C 91 % 1014,3 hPa 0,0 mm 4,8 km/h (1 Bft) W 270 ° 0 min 0,000 mm 0,0 UV-I 0 W/m² -5,1 °C -5,9 °C 9,7 km/h (2 Bft)
09.12.2017 05:09 -3,9 °C -3,9 °C 91 % 1014,3 hPa 0,0 mm 6,4 km/h (2 Bft) W-NW 292 ° 0 min 0,000 mm 0,0 UV-I 0 W/m² -5,1 °C -6,7 °C 11,3 km/h (2 Bft)
09.12.2017 05:10 -3,9 °C -3,9 °C 91 % 1014,3 hPa 0,0 mm 4,8 km/h (1 Bft) W-NW 292 ° 0 min 0,000 mm 0,0 UV-I 0 W/m² -5,1 °C -5,9 °C 11,3 km/h (2 Bft)
09.12.2017 05:11 -3,9 °C -3,9 °C 91 % 1014,3 hPa 0,0 mm 3,2 km/h (1 Bft) W-NW 292 ° 0 min 0,000 mm 0,0 UV-I 0 W/m² -5,1 °C -3,9 °C 11,3 km/h (2 Bft)
09.12.2017 05:12 -3,9 °C -3,9 °C 91 % 1014,4 hPa 0,0 mm 8,0 km/h (2 Bft) W 270 ° 0 min 0,000 mm 0,0 UV-I 0 W/m² -5,1 °C -7,3 °C 12,9 km/h (3 Bft)
09.12.2017 05:13 -3,9 °C -3,9 °C 91 % 1014,4 hPa 0,0 mm 14,5 km/h (3 Bft) W 270 ° 0 min 0,000 mm 0,0 UV-I 0 W/m² -5,1 °C -9,1 °C 20,9 km/h (4 Bft)
09.12.2017 05:14 -3,9 °C -3,9 °C 91 % 1014,4 hPa 0,0 mm 8,0 km/h (2 Bft) W-SW 247 ° 0 min 0,000 mm 0,0 UV-I 0 W/m² -5,1 °C -7,3 °C 12,9 km/h (3 Bft)
09.12.2017 05:15 -3,9 °C -3,9 °C 91 % 1014,4 hPa 0,0 mm 12,9 km/h (3 Bft) W 270 ° 0 min 0,000 mm 0,0 UV-I 0 W/m² -5,1 °C -8,8 °C 20,9 km/h (4 Bft)
09.12.2017 05:16 -3,9 °C -3,9 °C 91 % 1014,4 hPa 0,0 mm 16,1 km/h (3 Bft) W 270 ° 0 min 0,000 mm 0,0 UV-I 0 W/m² -5,1 °C -9,5 °C 20,9 km/h (4 Bft)
09.12.2017 05:17 -3,9 °C -3,9 °C 91 % 1014,4 hPa 0,0 mm 9,7 km/h (2 Bft) W 270 ° 0 min 0,000 mm 0,0 UV-I 0 W/m² -5,1 °C -7,9 °C 14,5 km/h (3 Bft)
09.12.2017 05:18 -3,9 °C -3,9 °C 91 % 1014,4 hPa 0,0 mm 16,1 km/h (3 Bft) W 270 ° 0 min 0,000 mm 0,0 UV-I 0 W/m² -5,1 °C -9,5 °C 20,9 km/h (4 Bft)
09.12.2017 05:19 -3,9 °C -3,9 °C 91 % 1014,5 hPa 0,0 mm 11,3 km/h (2 Bft) W 270 ° 0 min 0,000 mm 0,0 UV-I 0 W/m² -5,1 °C -8,3 °C 14,5 km/h (3 Bft)
09.12.2017 05:20 -4,0 °C -3,9 °C 91 % 1014,5 hPa 0,0 mm 11,3 km/h (2 Bft) W 270 ° 0 min 0,000 mm 0,0 UV-I 0 W/m² -5,2 °C -8,5 °C 14,5 km/h (3 Bft)
09.12.2017 05:21 -3,9 °C -3,9 °C 91 % 1014,5 hPa 0,0 mm 8,0 km/h (2 Bft) W 270 ° 0 min 0,000 mm 0,0 UV-I 0 W/m² -5,1 °C -7,3 °C 14,5 km/h (3 Bft)
09.12.2017 05:22 -3,9 °C -3,9 °C 91 % 1014,5 hPa 0,0 mm 9,7 km/h (2 Bft) W 270 ° 0 min 0,000 mm 0,0 UV-I 0 W/m² -5,1 °C -7,9 °C 14,5 km/h (3 Bft)
09.12.2017 05:23 -3,9 °C -3,9 °C 91 % 1014,5 hPa 0,0 mm 11,3 km/h (2 Bft) W-SW 247 ° 0 min 0,000 mm 0,0 UV-I 0 W/m² -5,1 °C -8,3 °C 16,1 km/h (3 Bft)
09.12.2017 05:24 -4,0 °C -3,9 °C 91 % 1014,5 hPa 0,0 mm 11,3 km/h (2 Bft) W 270 ° 0 min 0,000 mm 0,0 UV-I 0 W/m² -5,2 °C -8,5 °C 14,5 km/h (3 Bft)
09.12.2017 05:25 -4,0 °C -4,0 °C 91 % 1014,5 hPa 0,0 mm 11,3 km/h (2 Bft) W-SW 247 ° 0 min 0,000 mm 0,0 UV-I 0 W/m² -5,2 °C -8,5 °C 17,7 km/h (3 Bft)
09.12.2017 05:26 -4,0 °C -4,0 °C 91 % 1014,5 hPa 0,0 mm 14,5 km/h (3 Bft) W 270 ° 0 min 0,000 mm 0,0 UV-I 0 W/m² -5,2 °C -9,2 °C 20,9 km/h (4 Bft)
09.12.2017 05:27 -4,0 °C -4,0 °C 90 % 1014,5 hPa 0,0 mm 12,9 km/h (3 Bft) W 270 ° 0 min 0,000 mm 0,0 UV-I 0 W/m² -5,4 °C -8,9 °C 17,7 km/h (3 Bft)
09.12.2017 05:28 -4,1 °C -4,0 °C 90 % 1014,6 hPa 0,0 mm 16,1 km/h (3 Bft) W-SW 247 ° 0 min 0,000 mm 0,0 UV-I 0 W/m² -5,5 °C -9,7 °C 24,1 km/h (4 Bft)
09.12.2017 05:29 -4,1 °C -4,0 °C 90 % 1014,5 hPa 0,0 mm 11,3 km/h (2 Bft) W 270 ° 0 min 0,000 mm 0,0 UV-I 0 W/m² -5,5 °C -8,6 °C 17,7 km/h (3 Bft)
09.12.2017 05:30 -4,1 °C -4,1 °C 90 % 1014,6 hPa 0,0 mm 12,9 km/h (3 Bft) W 270 ° 0 min 0,000 mm 0,0 UV-I 0 W/m² -5,5 °C -9,0 °C 17,7 km/h (3 Bft)
09.12.2017 05:31 -4,1 °C -4,1 °C 90 % 1014,6 hPa 0,0 mm 11,3 km/h (2 Bft) W 270 ° 0 min 0,000 mm 0,0 UV-I 0 W/m² -5,5 °C -8,6 °C 16,1 km/h (3 Bft)
09.12.2017 05:32 -4,1 °C -4,1 °C 90 % 1014,6 hPa 0,0 mm 11,3 km/h (2 Bft) W 270 ° 0 min 0,000 mm 0,0 UV-I 0 W/m² -5,5 °C -8,6 °C 14,5 km/h (3 Bft)
09.12.2017 05:33 -4,1 °C -4,1 °C 90 % 1014,6 hPa 0,0 mm 9,7 km/h (2 Bft) W 270 ° 0 min 0,000 mm 0,0 UV-I 0 W/m² -5,5 °C -8,1 °C 16,1 km/h (3 Bft)
09.12.2017 05:34 -4,1 °C -4,1 °C 90 % 1014,6 hPa 0,0 mm 4,8 km/h (1 Bft) W-SW 247 ° 0 min 0,000 mm 0,0 UV-I 0 W/m² -5,5 °C -6,1 °C 8,0 km/h (2 Bft)
09.12.2017 05:35 -4,1 °C -4,1 °C 89 % 1014,5 hPa 0,0 mm 11,3 km/h (2 Bft) W 270 ° 0 min 0,000 mm 0,0 UV-I 0 W/m² -5,6 °C -8,6 °C 14,5 km/h (3 Bft)
09.12.2017 05:36 -4,2 °C -4,1 °C 89 % 1014,6 hPa 0,0 mm 8,0 km/h (2 Bft) W 270 ° 0 min 0,000 mm 0,0 UV-I 0 W/m² -5,7 °C -7,7 °C 12,9 km/h (3 Bft)
09.12.2017 05:37 -4,2 °C -4,2 °C 89 % 1014,6 hPa 0,0 mm 9,7 km/h (2 Bft) W 270 ° 0 min 0,000 mm 0,0 UV-I 0 W/m² -5,7 °C -8,2 °C 12,9 km/h (3 Bft)
09.12.2017 05:38 -4,2 °C -4,2 °C 89 % 1014,6 hPa 0,0 mm 8,0 km/h (2 Bft) W 270 ° 0 min 0,000 mm 0,0 UV-I 0 W/m² -5,7 °C -7,7 °C 11,3 km/h (2 Bft)
09.12.2017 05:39 -4,2 °C -4,2 °C 89 % 1014,6 hPa 0,0 mm 9,7 km/h (2 Bft) W-SW 247 ° 0 min 0,000 mm 0,0 UV-I 0 W/m² -5,7 °C -8,2 °C 20,9 km/h (4 Bft)
09.12.2017 05:40 -4,3 °C -4,2 °C 89 % 1014,6 hPa 0,0 mm 9,7 km/h (2 Bft) W 270 ° 0 min 0,000 mm 0,0 UV-I 0 W/m² -5,8 °C -8,4 °C 17,7 km/h (3 Bft)
09.12.2017 05:41 -4,3 °C -4,3 °C 89 % 1014,6 hPa 0,0 mm 9,7 km/h (2 Bft) W 270 ° 0 min 0,000 mm 0,0 UV-I 0 W/m² -5,8 °C -8,4 °C 12,9 km/h (3 Bft)
09.12.2017 05:42 -4,3 °C -4,3 °C 88 % 1014,6 hPa 0,0 mm 9,7 km/h (2 Bft) W 270 ° 0 min 0,000 mm 0,0 UV-I 0 W/m² -6,0 °C -8,4 °C 14,5 km/h (3 Bft)
09.12.2017 05:43 -4,4 °C -4,3 °C 88 % 1014,6 hPa 0,0 mm 9,7 km/h (2 Bft) W 270 ° 0 min 0,000 mm 0,0 UV-I 0 W/m² -6,1 °C -8,5 °C 16,1 km/h (3 Bft)
09.12.2017 05:44 -4,4 °C -4,4 °C 88 % 1014,6 hPa 0,0 mm 9,7 km/h (2 Bft) W 270 ° 0 min 0,000 mm 0,0 UV-I 0 W/m² -6,1 °C -8,5 °C 16,1 km/h (3 Bft)
09.12.2017 05:45 -4,4 °C -4,4 °C 88 % 1014,6 hPa 0,0 mm 8,0 km/h (2 Bft) W 270 ° 0 min 0,000 mm 0,0 UV-I 0 W/m² -6,1 °C -7,9 °C 11,3 km/h (2 Bft)
09.12.2017 05:46 -4,5 °C -4,4 °C 88 % 1014,7 hPa 0,0 mm 8,0 km/h (2 Bft) W-SW 247 ° 0 min 0,000 mm 0,0 UV-I 0 W/m² -6,2 °C -8,0 °C 12,9 km/h (3 Bft)
09.12.2017 05:47 -4,5 °C -4,4 °C 89 % 1014,7 hPa 0,0 mm 4,8 km/h (1 Bft) W-SW 247 ° 0 min 0,000 mm 0,0 UV-I 0 W/m² -6,0 °C -6,6 °C 6,4 km/h (2 Bft)
09.12.2017 05:48 -4,5 °C -4,5 °C 89 % 1014,7 hPa 0,0 mm 4,8 km/h (1 Bft) W-SW 247 ° 0 min 0,000 mm 0,0 UV-I 0 W/m² -6,0 °C -6,6 °C 6,4 km/h (2 Bft)
09.12.2017 05:49 -4,6 °C -4,5 °C 88 % 1014,6 hPa 0,0 mm 8,0 km/h (2 Bft) W-SW 247 ° 0 min 0,000 mm 0,0 UV-I 0 W/m² -6,3 °C -8,1 °C 11,3 km/h (2 Bft)
09.12.2017 05:50 -4,6 °C -4,6 °C 88 % 1014,6 hPa 0,0 mm 4,8 km/h (1 Bft) W-SW 247 ° 0 min 0,000 mm 0,0 UV-I 0 W/m² -6,3 °C -6,7 °C 8,0 km/h (2 Bft)
09.12.2017 05:51 -4,6 °C -4,6 °C 88 % 1014,6 hPa 0,0 mm 4,8 km/h (1 Bft) SW 225 ° 0 min 0,000 mm 0,0 UV-I 0 W/m² -6,3 °C -6,7 °C 6,4 km/h (2 Bft)
09.12.2017 05:52 -4,7 °C -4,6 °C 88 % 1014,6 hPa 0,0 mm 4,8 km/h (1 Bft) W-SW 247 ° 0 min 0,000 mm 0,0 UV-I 0 W/m² -6,4 °C -6,8 °C 9,7 km/h (2 Bft)
09.12.2017 05:53 -4,7 °C -4,6 °C 88 % 1014,6 hPa 0,0 mm 9,7 km/h (2 Bft) W 270 ° 0 min 0,000 mm 0,0 UV-I 0 W/m² -6,4 °C -8,8 °C 12,9 km/h (3 Bft)
09.12.2017 05:54 -4,7 °C -4,7 °C 88 % 1014,7 hPa 0,0 mm 9,7 km/h (2 Bft) W 270 ° 0 min 0,000 mm 0,0 UV-I 0 W/m² -6,4 °C -8,8 °C 16,1 km/h (3 Bft)
09.12.2017 05:55 -4,7 °C -4,7 °C 88 % 1014,7 hPa 0,0 mm 9,7 km/h (2 Bft) SW 225 ° 0 min 0,000 mm 0,0 UV-I 0 W/m² -6,4 °C -8,8 °C 14,5 km/h (3 Bft)
09.12.2017 05:56 -4,7 °C -4,7 °C 89 % 1014,7 hPa 0,0 mm 4,8 km/h (1 Bft) W-SW 247 ° 0 min 0,000 mm 0,0 UV-I 0 W/m² -6,2 °C -6,8 °C 6,4 km/h (2 Bft)
09.12.2017 05:57 -4,7 °C -4,7 °C 89 % 1014,7 hPa 0,0 mm 9,7 km/h (2 Bft) W 270 ° 0 min 0,000 mm 0,0 UV-I 0 W/m² -6,2 °C -8,8 °C 14,5 km/h (3 Bft)
09.12.2017 05:58 -4,7 °C -4,7 °C 89 % 1014,8 hPa 0,0 mm 9,7 km/h (2 Bft) W 270 ° 0 min 0,000 mm 0,0 UV-I 0 W/m² -6,2 °C -8,8 °C 11,3 km/h (2 Bft)
09.12.2017 05:59 -4,8 °C -4,7 °C 89 % 1014,7 hPa 0,0 mm 6,4 km/h (2 Bft) W-SW 247 ° 0 min 0,000 mm 0,0 UV-I 0 W/m² -6,3 °C -7,7 °C 8,0 km/h (2 Bft)
09.12.2017 06:00 -4,7 °C -4,7 °C 89 % 1014,7 hPa 0,0 mm 4,8 km/h (1 Bft) W 270 ° 0 min 0,000 mm 0,0 UV-I 0 W/m² -6,2 °C -6,8 °C 6,4 km/h (2 Bft)
09.12.2017 06:01 -4,8 °C -4,7 °C 89 % 1014,7 hPa 0,0 mm 9,7 km/h (2 Bft) W-SW 247 ° 0 min 0,000 mm 0,0 UV-I 0 W/m² -6,3 °C -9,0 °C 16,1 km/h (3 Bft)
09.12.2017 06:02 -4,8 °C -4,7 °C 89 % 1014,8 hPa 0,0 mm 6,4 km/h (2 Bft) W-SW 247 ° 0 min 0,000 mm 0,0 UV-I 0 W/m² -6,3 °C -7,7 °C 16,1 km/h (3 Bft)
09.12.2017 06:03 -4,8 °C -4,8 °C 89 % 1014,7 hPa 0,0 mm 9,7 km/h (2 Bft) W 270 ° 0 min 0,000 mm 0,0 UV-I 0 W/m² -6,3 °C -9,0 °C 17,7 km/h (3 Bft)
09.12.2017 06:04 -4,8 °C -4,8 °C 89 % 1014,7 hPa 0,0 mm 9,7 km/h (2 Bft) W 270 ° 0 min 0,000 mm 0,0 UV-I 0 W/m² -6,3 °C -9,0 °C 17,7 km/h (3 Bft)
09.12.2017 06:05 -4,8 °C -4,8 °C 89 % 1014,7 hPa 0,0 mm 11,3 km/h (2 Bft) W-SW 247 ° 0 min 0,000 mm 0,0 UV-I 0 W/m² -6,3 °C -9,4 °C 16,1 km/h (3 Bft)
09.12.2017 06:06 -4,8 °C -4,8 °C 89 % 1014,8 hPa 0,0 mm 11,3 km/h (2 Bft) W 270 ° 0 min 0,000 mm 0,0 UV-I 0 W/m² -6,3 °C -9,4 °C 20,9 km/h (4 Bft)
09.12.2017 06:07 -4,8 °C -4,8 °C 89 % 1014,8 hPa 0,0 mm 11,3 km/h (2 Bft) W-SW 247 ° 0 min 0,000 mm 0,0 UV-I 0 W/m² -6,3 °C -9,4 °C 19,3 km/h (3 Bft)
09.12.2017 06:08 -4,8 °C -4,8 °C 89 % 1014,7 hPa 0,0 mm 16,1 km/h (3 Bft) W 270 ° 0 min 0,000 mm 0,0 UV-I 0 W/m² -6,3 °C -10,6 °C 29,0 km/h (5 Bft)
09.12.2017 06:09 -4,8 °C -4,8 °C 89 % 1014,7 hPa 0,0 mm 12,9 km/h (3 Bft) W 270 ° 0 min 0,000 mm 0,0 UV-I 0 W/m² -6,3 °C -9,8 °C 29,0 km/h (5 Bft)
09.12.2017 06:10 -4,8 °C -4,8 °C 89 % 1014,8 hPa 0,0 mm 12,9 km/h (3 Bft) W 270 ° 0 min 0,000 mm 0,0 UV-I 0 W/m² -6,3 °C -9,8 °C 17,7 km/h (3 Bft)
09.12.2017 06:11 -4,8 °C -4,8 °C 89 % 1014,7 hPa 0,0 mm 11,3 km/h (2 Bft) W 270 ° 0 min 0,000 mm 0,0 UV-I 0 W/m² -6,3 °C -9,4 °C 14,5 km/h (3 Bft)
09.12.2017 06:12 -4,8 °C -4,8 °C 89 % 1014,7 hPa 0,0 mm 11,3 km/h (2 Bft) W-SW 247 ° 0 min 0,000 mm 0,0 UV-I 0 W/m² -6,3 °C -9,4 °C 19,3 km/h (3 Bft)
09.12.2017 06:13 -4,8 °C -4,8 °C 89 % 1014,7 hPa 0,0 mm 11,3 km/h (2 Bft) W 270 ° 0 min 0,000 mm 0,0 UV-I 0 W/m² -6,3 °C -9,4 °C 17,7 km/h (3 Bft)
09.12.2017 06:14 -4,8 °C -4,8 °C 89 % 1014,8 hPa 0,0 mm 12,9 km/h (3 Bft) W 270 ° 0 min 0,000 mm 0,0 UV-I 0 W/m² -6,3 °C -9,8 °C 19,3 km/h (3 Bft)
09.12.2017 06:15 -4,8 °C -4,8 °C 89 % 1014,8 hPa 0,0 mm 11,3 km/h (2 Bft) W 270 ° 0 min 0,000 mm 0,0 UV-I 0 W/m² -6,3 °C -9,4 °C 14,5 km/h (3 Bft)
09.12.2017 06:16 -4,8 °C -4,8 °C 89 % 1014,8 hPa 0,0 mm 8,0 km/h (2 Bft) W-SW 247 ° 0 min 0,000 mm 0,0 UV-I 0 W/m² -6,3 °C -8,4 °C 14,5 km/h (3 Bft)
09.12.2017 06:17 -4,8 °C -4,8 °C 89 % 1014,9 hPa 0,0 mm 8,0 km/h (2 Bft) W-SW 247 ° 0 min 0,000 mm 0,0 UV-I 0 W/m² -6,3 °C -8,4 °C 14,5 km/h (3 Bft)
09.12.2017 06:18 -4,8 °C -4,8 °C 89 % 1014,9 hPa 0,0 mm 11,3 km/h (2 Bft) W 270 ° 0 min 0,000 mm 0,0 UV-I 0 W/m² -6,3 °C -9,4 °C 14,5 km/h (3 Bft)
09.12.2017 06:19 -4,8 °C -4,8 °C 89 % 1014,9 hPa 0,0 mm 8,0 km/h (2 Bft) W 270 ° 0 min 0,000 mm 0,0 UV-I 0 W/m² -6,3 °C -8,4 °C 12,9 km/h (3 Bft)
09.12.2017 06:20 -4,8 °C -4,8 °C 89 % 1015,0 hPa 0,0 mm 9,7 km/h (2 Bft) W 270 ° 0 min 0,000 mm 0,0 UV-I 0 W/m² -6,3 °C -9,0 °C 14,5 km/h (3 Bft)
09.12.2017 06:21 -4,8 °C -4,8 °C 88 % 1015,0 hPa 0,0 mm 14,5 km/h (3 Bft) W 270 ° 0 min 0,000 mm 0,0 UV-I 0 W/m² -6,5 °C -10,2 °C 20,9 km/h (4 Bft)
09.12.2017 06:22 -4,8 °C -4,8 °C 89 % 1015,1 hPa 0,0 mm 11,3 km/h (2 Bft) W-SW 247 ° 0 min 0,000 mm 0,0 UV-I 0 W/m² -6,3 °C -9,4 °C 14,5 km/h (3 Bft)
09.12.2017 06:23 -4,8 °C -4,8 °C 88 % 1015,0 hPa 0,0 mm 14,5 km/h (3 Bft) W 270 ° 0 min 0,000 mm 0,0 UV-I 0 W/m² -6,5 °C -10,2 °C 17,7 km/h (3 Bft)
09.12.2017 06:24 -4,7 °C -4,7 °C 88 % 1015,1 hPa 0,0 mm 8,0 km/h (2 Bft) W-SW 247 ° 0 min 0,000 mm 0,0 UV-I 0 W/m² -6,4 °C -8,3 °C 11,3 km/h (2 Bft)
09.12.2017 06:25 -4,7 °C -4,7 °C 88 % 1015,1 hPa 0,0 mm 14,5 km/h (3 Bft) W 270 ° 0 min 0,000 mm 0,0 UV-I 0 W/m² -6,4 °C -10,1 °C 17,7 km/h (3 Bft)
09.12.2017 06:26 -4,7 °C -4,7 °C 88 % 1015,1 hPa 0,0 mm 11,3 km/h (2 Bft) W 270 ° 0 min 0,000 mm 0,0 UV-I 0 W/m² -6,4 °C -9,3 °C 19,3 km/h (3 Bft)
09.12.2017 06:27 -4,7 °C -4,7 °C 88 % 1015,1 hPa 0,0 mm 11,3 km/h (2 Bft) W 270 ° 0 min 0,000 mm 0,0 UV-I 0 W/m² -6,4 °C -9,3 °C 16,1 km/h (3 Bft)
09.12.2017 06:28 -4,7 °C -4,7 °C 88 % 1015,2 hPa 0,0 mm 11,3 km/h (2 Bft) W 270 ° 0 min 0,000 mm 0,0 UV-I 0 W/m² -6,4 °C -9,3 °C 14,5 km/h (3 Bft)
09.12.2017 06:29 -4,7 °C -4,7 °C 88 % 1015,1 hPa 0,0 mm 11,3 km/h (2 Bft) W 270 ° 0 min 0,000 mm 0,0 UV-I 0 W/m² -6,4 °C -9,3 °C 16,1 km/h (3 Bft)
09.12.2017 06:30 -4,7 °C -4,7 °C 88 % 1015,2 hPa 0,0 mm 9,7 km/h (2 Bft) W-NW 292 ° 0 min 0,000 mm 0,0 UV-I 0 W/m² -6,4 °C -8,8 °C 12,9 km/h (3 Bft)
09.12.2017 06:31 -4,7 °C -4,7 °C 88 % 1015,2 hPa 0,0 mm 9,7 km/h (2 Bft) W 270 ° 0 min 0,000 mm 0,0 UV-I 0 W/m² -6,4 °C -8,8 °C 12,9 km/h (3 Bft)
09.12.2017 06:32 -4,7 °C -4,7 °C 88 % 1015,2 hPa 0,0 mm 8,0 km/h (2 Bft) W 270 ° 0 min 0,000 mm 0,0 UV-I 0 W/m² -6,4 °C -8,3 °C 12,9 km/h (3 Bft)
09.12.2017 06:33 -4,7 °C -4,7 °C 88 % 1015,3 hPa 0,0 mm 14,5 km/h (3 Bft) W-SW 247 ° 0 min 0,000 mm 0,0 UV-I 0 W/m² -6,4 °C -10,1 °C 24,1 km/h (4 Bft)
09.12.2017 06:34 -4,7 °C -4,7 °C 88 % 1015,2 hPa 0,0 mm 9,7 km/h (2 Bft) W-SW 247 ° 0 min 0,000 mm 0,0 UV-I 0 W/m² -6,4 °C -8,8 °C 14,5 km/h (3 Bft)
09.12.2017 06:35 -4,7 °C -4,7 °C 88 % 1015,3 hPa 0,0 mm 8,0 km/h (2 Bft) W 270 ° 0 min 0,000 mm 0,0 UV-I 0 W/m² -6,4 °C -8,3 °C 12,9 km/h (3 Bft)
09.12.2017 06:36 -4,7 °C -4,7 °C 87 % 1015,2 hPa 0,0 mm 9,7 km/h (2 Bft) W 270 ° 0 min 0,000 mm 0,0 UV-I 0 W/m² -6,5 °C -8,8 °C 12,9 km/h (3 Bft)
09.12.2017 06:37 -4,7 °C -4,7 °C 87 % 1015,3 hPa 0,0 mm 6,4 km/h (2 Bft) W-SW 247 ° 0 min 0,000 mm 0,0 UV-I 0 W/m² -6,5 °C -7,6 °C 11,3 km/h (2 Bft)
09.12.2017 06:38 -4,7 °C -4,7 °C 88 % 1015,3 hPa 0,0 mm 11,3 km/h (2 Bft) W 270 ° 0 min 0,000 mm 0,0 UV-I 0 W/m² -6,4 °C -9,3 °C 16,1 km/h (3 Bft)
09.12.2017 06:39 -4,7 °C -4,7 °C 87 % 1015,3 hPa 0,0 mm 8,0 km/h (2 Bft) W 270 ° 0 min 0,000 mm 0,0 UV-I 0 W/m² -6,5 °C -8,3 °C 11,3 km/h (2 Bft)
09.12.2017 06:40 -4,7 °C -4,7 °C 87 % 1015,3 hPa 0,0 mm 12,9 km/h (3 Bft) W-SW 247 ° 0 min 0,000 mm 0,0 UV-I 0 W/m² -6,5 °C -9,7 °C 19,3 km/h (3 Bft)
09.12.2017 06:41 -4,7 °C -4,7 °C 87 % 1015,3 hPa 0,0 mm 14,5 km/h (3 Bft) W 270 ° 0 min 0,000 mm 0,0 UV-I 0 W/m² -6,5 °C -10,1 °C 17,7 km/h (3 Bft)
09.12.2017 06:42 -4,7 °C -4,7 °C 87 % 1015,2 hPa 0,0 mm 11,3 km/h (2 Bft) W 270 ° 0 min 0,000 mm 0,0 UV-I 0 W/m² -6,5 °C -9,3 °C 14,5 km/h (3 Bft)
09.12.2017 06:43 -4,8 °C -4,7 °C 87 % 1015,2 hPa 0,0 mm 9,7 km/h (2 Bft) W 270 ° 0 min 0,000 mm 0,0 UV-I 0 W/m² -6,6 °C -9,0 °C 14,5 km/h (3 Bft)
09.12.2017 06:44 -4,8 °C -4,8 °C 87 % 1015,3 hPa 0,0 mm 9,7 km/h (2 Bft) W-SW 247 ° 0 min 0,000 mm 0,0 UV-I 0 W/m² -6,6 °C -9,0 °C 17,7 km/h (3 Bft)
09.12.2017 06:45 -4,8 °C -4,8 °C 87 % 1015,2 hPa 0,0 mm 12,9 km/h (3 Bft) W 270 ° 0 min 0,000 mm 0,0 UV-I 0 W/m² -6,6 °C -9,8 °C 12,9 km/h (3 Bft)
09.12.2017 06:47 -4,8 °C -4,8 °C 87 % 1015,3 hPa 0,0 mm 9,0 km/h (2 Bft) W 275 ° 0 min 0,000 mm 0,0 UV-I 0 W/m² -6,6 °C -8,7 °C 14,5 km/h (3 Bft)
09.12.2017 06:48 -4,8 °C -4,8 °C 87 % 1015,2 hPa 0,0 mm 13,1 km/h (3 Bft) W-NW 289 ° 0 min 0,000 mm 0,0 UV-I 0 W/m² -6,6 °C -9,9 °C 16,1 km/h (3 Bft)
09.12.2017 06:49 -4,9 °C -4,8 °C 87 % 1015,2 hPa 0,0 mm 12,0 km/h (2 Bft) W 273 ° 0 min 0,000 mm 0,0 UV-I 0 W/m² -6,7 °C -9,7 °C 16,1 km/h (3 Bft)
09.12.2017 06:50 -4,9 °C -4,8 °C 87 % 1015,3 hPa 0,0 mm 13,8 km/h (3 Bft) W-SW 257 ° 0 min 0,000 mm 0,0 UV-I 0 W/m² -6,7 °C -10,2 °C 19,3 km/h (3 Bft)
09.12.2017 06:51 -4,9 °C -4,9 °C 87 % 1015,3 hPa 0,0 mm 13,2 km/h (3 Bft) W 269 ° 0 min 0,000 mm 0,0 UV-I 0 W/m² -6,7 °C -10,0 °C 19,3 km/h (3 Bft)
09.12.2017 06:52 -4,9 °C -4,9 °C 87 % 1015,3 hPa 0,0 mm 10,8 km/h (2 Bft) W-SW 256 ° 0 min 0,000 mm 0,0 UV-I 0 W/m² -6,7 °C -9,4 °C 14,5 km/h (3 Bft)
09.12.2017 06:53 -4,9 °C -4,9 °C 87 % 1015,3 hPa 0,0 mm 10,2 km/h (2 Bft) W 268 ° 0 min 0,000 mm 0,0 UV-I 0 W/m² -6,7 °C -9,2 °C 19,3 km/h (3 Bft)
09.12.2017 06:54 -4,9 °C -4,9 °C 87 % 1015,3 hPa 0,0 mm 11,8 km/h (2 Bft) W 266 ° 0 min 0,000 mm 0,0 UV-I 0 W/m² -6,7 °C -9,7 °C 17,7 km/h (3 Bft)
09.12.2017 06:55 -5,0 °C -4,9 °C 87 % 1015,3 hPa 0,0 mm 14,9 km/h (3 Bft) W-SW 257 ° 0 min 0,000 mm 0,0 UV-I 0 W/m² -6,8 °C -10,6 °C 19,3 km/h (3 Bft)
09.12.2017 06:56 -5,0 °C -5,0 °C 86 % 1015,4 hPa 0,0 mm 8,5 km/h (2 Bft) W 267 ° 0 min 0,000 mm 0,0 UV-I 0 W/m² -7,0 °C -8,8 °C 14,5 km/h (3 Bft)
09.12.2017 06:57 -5,1 °C -5,0 °C 86 % 1015,3 hPa 0,0 mm 9,7 km/h (2 Bft) W-SW 247 ° 0 min 0,000 mm 0,0 UV-I 0 W/m² -7,1 °C -9,3 °C 12,9 km/h (3 Bft)
09.12.2017 06:58 -5,1 °C -5,1 °C 86 % 1015,3 hPa 0,0 mm 10,1 km/h (2 Bft) W-SW 252 ° 0 min 0,000 mm 0,0 UV-I 0 W/m² -7,1 °C -9,4 °C 16,1 km/h (3 Bft)
09.12.2017 06:59 -5,1 °C -5,1 °C 86 % 1015,3 hPa 0,0 mm 12,2 km/h (2 Bft) W-SW 257 ° 0 min 0,000 mm 0,0 UV-I 0 W/m² -7,1 °C -10,0 °C 17,7 km/h (3 Bft)
09.12.2017 07:00 -5,1 °C -5,1 °C 86 % 1015,3 hPa 0,0 mm 9,3 km/h (2 Bft) W 263 ° 0 min 0,000 mm 0,0 UV-I 0 W/m² -7,1 °C -9,2 °C 16,1 km/h (3 Bft)
09.12.2017 07:01 -5,2 °C -5,1 °C 86 % 1015,3 hPa 0,0 mm 10,7 km/h (2 Bft) W-SW 257 ° 0 min 0,000 mm 0,0 UV-I 0 W/m² -7,2 °C -9,7 °C 16,1 km/h (3 Bft)
09.12.2017 07:02 -5,2 °C -5,2 °C 86 % 1015,3 hPa 0,0 mm 9,9 km/h (2 Bft) W-SW 247 ° 0 min 0,000 mm 0,0 UV-I 0 W/m² -7,2 °C -9,5 °C 14,5 km/h (3 Bft)
09.12.2017 07:03 -5,2 °C -5,2 °C 87 % 1015,3 hPa 0,0 mm 5,7 km/h (1 Bft) W-SW 254 ° 0 min 0,000 mm 0,0 UV-I 0 W/m² -7,0 °C -7,9 °C 9,7 km/h (2 Bft)
09.12.2017 07:04 -5,2 °C -5,2 °C 87 % 1015,4 hPa 0,0 mm 11,9 km/h (2 Bft) W-SW 253 ° 0 min 0,000 mm 0,0 UV-I 0 W/m² -7,0 °C -10,1 °C 17,7 km/h (3 Bft)
09.12.2017 07:05 -5,2 °C -5,2 °C 87 % 1015,4 hPa 0,0 mm 12,1 km/h (2 Bft) W 269 ° 0 min 0,000 mm 0,0 UV-I 0 W/m² -7,0 °C -10,1 °C 16,1 km/h (3 Bft)
09.12.2017 07:06 -5,2 °C -5,2 °C 87 % 1015,5 hPa 0,0 mm 11,0 km/h (2 Bft) W 271 ° 0 min 0,000 mm 0,0 UV-I 0 W/m² -7,0 °C -9,8 °C 16,1 km/h (3 Bft)
09.12.2017 07:07 -5,2 °C -5,2 °C 87 % 1015,5 hPa 0,0 mm 12,7 km/h (3 Bft) W-SW 239 ° 0 min 0,000 mm 0,0 UV-I 0 W/m² -7,0 °C -10,3 °C 16,1 km/h (3 Bft)
09.12.2017 07:08 -5,2 °C -5,2 °C 87 % 1015,5 hPa 0,0 mm 10,7 km/h (2 Bft) W 265 ° 0 min 0,000 mm 0,0 UV-I 0 W/m² -7,0 °C -9,7 °C 14,5 km/h (3 Bft)
09.12.2017 07:09 -5,2 °C -5,2 °C 87 % 1015,5 hPa 0,0 mm 9,5 km/h (2 Bft) W 267 ° 0 min 0,000 mm 0,0 UV-I 0 W/m² -7,0 °C -9,4 °C 12,9 km/h (3 Bft)
09.12.2017 07:10 -5,2 °C -5,2 °C 87 % 1015,6 hPa 0,0 mm 11,3 km/h (2 Bft) W 267 ° 0 min 0,000 mm 0,0 UV-I 0 W/m² -7,0 °C -9,9 °C 16,1 km/h (3 Bft)
09.12.2017 07:11 -5,3 °C -5,2 °C 87 % 1015,6 hPa 0,0 mm 10,1 km/h (2 Bft) W 270 ° 0 min 0,000 mm 0,0 UV-I 0 W/m² -7,1 °C -9,7 °C 16,1 km/h (3 Bft)
09.12.2017 07:12 -5,3 °C -5,3 °C 87 % 1015,5 hPa 0,0 mm 12,9 km/h (3 Bft) W 261 ° 0 min 0,000 mm 0,0 UV-I 0 W/m² -7,1 °C -10,5 °C 16,1 km/h (3 Bft)
09.12.2017 07:13 -5,3 °C -5,3 °C 87 % 1015,6 hPa 0,0 mm 11,3 km/h (2 Bft) W 261 ° 0 min 0,000 mm 0,0 UV-I 0 W/m² -7,1 °C -10,0 °C 14,5 km/h (3 Bft)
09.12.2017 07:14 -5,3 °C -5,3 °C 87 % 1015,5 hPa 0,0 mm 8,6 km/h (2 Bft) W 263 ° 0 min 0,000 mm 0,0 UV-I 0 W/m² -7,1 °C -9,2 °C 12,9 km/h (3 Bft)
09.12.2017 07:15 -5,3 °C -5,3 °C 87 % 1015,5 hPa 0,0 mm 7,8 km/h (2 Bft) W 268 ° 0 min 0,000 mm 0,0 UV-I 0 W/m² -7,1 °C -8,9 °C 11,3 km/h (2 Bft)
09.12.2017 07:16 -5,3 °C -5,3 °C 87 % 1015,6 hPa 0,0 mm 9,5 km/h (2 Bft) W 274 ° 0 min 0,000 mm 0,0 UV-I 0 W/m² -7,1 °C -9,5 °C 16,1 km/h (3 Bft)
09.12.2017 07:17 -5,3 °C -5,3 °C 87 % 1015,6 hPa 0,0 mm 8,0 km/h (2 Bft) W 259 ° 0 min 0,000 mm 0,0 UV-I 0 W/m² -7,1 °C -9,0 °C 12,9 km/h (3 Bft)
09.12.2017 07:18 -5,3 °C -5,3 °C 87 % 1015,6 hPa 0,0 mm 9,1 km/h (2 Bft) W-SW 246 ° 0 min 0,000 mm 0,0 UV-I 0 W/m² -7,1 °C -9,4 °C 16,1 km/h (3 Bft)
09.12.2017 07:19 -5,3 °C -5,3 °C 87 % 1015,5 hPa 0,0 mm 10,1 km/h (2 Bft) W-SW 252 ° 0 min 0,000 mm 0,0 UV-I 0 W/m² -7,1 °C -9,7 °C 12,9 km/h (3 Bft)
09.12.2017 07:20 -5,3 °C -5,3 °C 87 % 1015,5 hPa 0,0 mm 11,9 km/h (2 Bft) W 260 ° 0 min 0,000 mm 0,0 UV-I 0 W/m² -7,1 °C -10,2 °C 14,5 km/h (3 Bft)
09.12.2017 07:21 -5,3 °C -5,3 °C 88 % 1015,5 hPa 0,0 mm 7,6 km/h (2 Bft) SW 215 ° 0 min 0,000 mm 0,0 UV-I 0 W/m² -7,0 °C -8,8 °C 11,3 km/h (2 Bft)
09.12.2017 07:22 -5,2 °C -5,2 °C 87 % 1015,5 hPa 0,0 mm 4,2 km/h (1 Bft) W 261 ° 0 min 0,000 mm 0,0 UV-I 0 W/m² -7,0 °C -5,2 °C 11,3 km/h (2 Bft)
09.12.2017 07:23 -5,3 °C -5,2 °C 88 % 1015,5 hPa 0,0 mm 10,7 km/h (2 Bft) W 271 ° 0 min 0,000 mm 0,0 UV-I 0 W/m² -7,0 °C -9,9 °C 12,9 km/h (3 Bft)
09.12.2017 07:24 -5,3 °C -5,2 °C 88 % 1015,5 hPa 0,0 mm 11,0 km/h (2 Bft) W 268 ° 0 min 0,000 mm 0,0 UV-I 0 W/m² -7,0 °C -9,9 °C 16,1 km/h (3 Bft)
09.12.2017 07:25 -5,2 °C -5,2 °C 88 % 1015,5 hPa 0,0 mm 9,7 km/h (2 Bft) W-SW 254 ° 0 min 0,000 mm 0,0 UV-I 0 W/m² -6,9 °C -9,4 °C 12,9 km/h (3 Bft)
09.12.2017 07:26 -5,2 °C -5,2 °C 88 % 1015,5 hPa 0,0 mm 4,4 km/h (1 Bft) W-NW 298 ° 0 min 0,000 mm 0,0 UV-I 0 W/m² -6,9 °C -5,2 °C 8,0 km/h (2 Bft)
09.12.2017 07:27 -5,2 °C -5,2 °C 88 % 1015,5 hPa 0,0 mm 8,9 km/h (2 Bft) W 271 ° 0 min 0,000 mm 0,0 UV-I 0 W/m² -6,9 °C -9,2 °C 12,9 km/h (3 Bft)
09.12.2017 07:28 -5,2 °C -5,2 °C 88 % 1015,6 hPa 0,0 mm 8,0 km/h (2 Bft) W 276 ° 0 min 0,000 mm 0,0 UV-I 0 W/m² -6,9 °C -8,8 °C 12,9 km/h (3 Bft)
09.12.2017 07:29 -5,2 °C -5,2 °C 88 % 1015,6 hPa 0,0 mm 11,3 km/h (2 Bft) W 265 ° 0 min 0,000 mm 0,0 UV-I 0 W/m² -6,9 °C -9,9 °C 16,1 km/h (3 Bft)
09.12.2017 07:30 -5,2 °C -5,2 °C 88 % 1015,6 hPa 0,0 mm 7,6 km/h (2 Bft) SW 236 ° 0 min 0,000 mm 0,0 UV-I 0 W/m² -6,9 °C -8,7 °C 11,3 km/h (2 Bft)
09.12.2017 07:31 -5,2 °C -5,2 °C 88 % 1015,7 hPa 0,0 mm 4,6 km/h (1 Bft) W 265 ° 0 min 0,000 mm 0,0 UV-I 0 W/m² -6,9 °C -7,3 °C 6,4 km/h (2 Bft)
09.12.2017 07:32 -5,2 °C -5,2 °C 88 % 1015,7 hPa 0,0 mm 7,3 km/h (2 Bft) W-SW 246 ° 0 min 0,000 mm 0,0 UV-I 0 W/m² -6,9 °C -8,6 °C 11,3 km/h (2 Bft)
09.12.2017 07:33 -5,2 °C -5,2 °C 88 % 1015,7 hPa 0,0 mm 4,7 km/h (1 Bft) W-SW 250 ° 0 min 0,000 mm 0,0 UV-I 0 W/m² -6,9 °C -7,3 °C 8,0 km/h (2 Bft)
09.12.2017 07:34 -5,2 °C -5,2 °C 88 % 1015,7 hPa 0,0 mm 11,0 km/h (2 Bft) SW 236 ° 0 min 0,000 mm 0,0 UV-I 0 W/m² -6,9 °C -9,8 °C 22,5 km/h (4 Bft)
09.12.2017 07:35 -5,2 °C -5,2 °C 88 % 1015,7 hPa 0,0 mm 13,7 km/h (3 Bft) SW 231 ° 0 min 0,000 mm 0,0 UV-I 0 W/m² -6,9 °C -10,5 °C 17,7 km/h (3 Bft)
09.12.2017 07:36 -5,1 °C -5,1 °C 88 % 1015,6 hPa 0,0 mm 8,3 km/h (2 Bft) W-SW 247 ° 0 min 0,000 mm 0,0 UV-I 0 W/m² -6,8 °C -8,8 °C 14,5 km/h (3 Bft)
09.12.2017 07:37 -5,1 °C -5,1 °C 88 % 1015,6 hPa 0,0 mm 5,6 km/h (1 Bft) W-NW 282 ° 0 min 0,000 mm 0,0 UV-I 0 W/m² -6,8 °C -7,7 °C 11,3 km/h (2 Bft)
09.12.2017 07:38 -5,1 °C -5,1 °C 88 % 1015,6 hPa 0,0 mm 12,4 km/h (3 Bft) W 267 ° 0 min 0,000 mm 0,0 UV-I 0 W/m² -6,8 °C -10,1 °C 17,7 km/h (3 Bft)
09.12.2017 07:39 -5,1 °C -5,1 °C 88 % 1015,7 hPa 0,0 mm 5,9 km/h (2 Bft) W 261 ° 0 min 0,000 mm 0,0 UV-I 0 W/m² -6,8 °C -7,8 °C 11,3 km/h (2 Bft)
09.12.2017 07:40 -5,1 °C -5,1 °C 88 % 1015,7 hPa 0,0 mm 10,9 km/h (2 Bft) W-SW 248 ° 0 min 0,000 mm 0,0 UV-I 0 W/m² -6,8 °C -9,7 °C 19,3 km/h (3 Bft)
09.12.2017 07:41 -5,1 °C -5,1 °C 88 % 1015,7 hPa 0,0 mm 10,7 km/h (2 Bft) NW 307 ° 0 min 0,000 mm 0,0 UV-I 0 W/m² -6,8 °C -9,6 °C 16,1 km/h (3 Bft)
09.12.2017 07:42 -5,1 °C -5,0 °C 88 % 1015,7 hPa 0,0 mm 14,6 km/h (3 Bft) W-SW 240 ° 0 min 0,000 mm 0,0 UV-I 0 W/m² -6,8 °C -10,6 °C 22,5 km/h (4 Bft)
09.12.2017 07:43 -5,0 °C -5,0 °C 88 % 1015,7 hPa 0,0 mm 15,9 km/h (3 Bft) W 261 ° 0 min 0,000 mm 0,0 UV-I 0 W/m² -6,7 °C -10,8 °C 25,7 km/h (4 Bft)
09.12.2017 07:45 -4,9 °C -4,9 °C 88 % 1015,6 hPa 0,0 mm 14,2 km/h (3 Bft) SW 232 ° 0 min 0,000 mm 0,0 UV-I 0 W/m² -6,6 °C -10,3 °C 25,7 km/h (4 Bft)
09.12.2017 07:46 -4,9 °C -4,9 °C 88 % 1015,6 hPa 0,0 mm 13,9 km/h (3 Bft) W 260 ° 0 min 0,000 mm 0,0 UV-I 0 W/m² -6,6 °C -10,2 °C 17,7 km/h (3 Bft)
09.12.2017 07:47 -4,9 °C -4,9 °C 88 % 1015,6 hPa 0,0 mm 9,7 km/h (2 Bft) W-SW 255 ° 0 min 0,000 mm 0,0 UV-I 0 W/m² -6,6 °C -9,1 °C 14,5 km/h (3 Bft)
09.12.2017 07:48 -4,9 °C -4,9 °C 88 % 1015,7 hPa 0,0 mm 11,3 km/h (2 Bft) W-SW 241 ° 0 min 0,000 mm 0,0 UV-I 0 W/m² -6,6 °C -9,5 °C 20,9 km/h (4 Bft)
09.12.2017 07:49 -4,9 °C -4,9 °C 88 % 1015,8 hPa 0,0 mm 13,9 km/h (3 Bft) W 265 ° 0 min 0,000 mm 0,0 UV-I 0 W/m² -6,6 °C -10,2 °C 19,3 km/h (3 Bft)
09.12.2017 07:50 -4,8 °C -4,8 °C 87 % 1015,8 hPa 0,0 mm 11,1 km/h (2 Bft) W 267 ° 0 min 0,000 mm 0,0 UV-I 0 W/m² -6,6 °C -9,4 °C 17,7 km/h (3 Bft)
09.12.2017 07:51 -4,8 °C -4,8 °C 87 % 1015,7 hPa 0,0 mm 11,3 km/h (2 Bft) W-SW 250 ° 0 min 0,000 mm 0,0 UV-I 0 W/m² -6,6 °C -9,4 °C 14,5 km/h (3 Bft)
09.12.2017 07:52 -4,8 °C -4,8 °C 87 % 1015,7 hPa 0,0 mm 4,6 km/h (1 Bft) W 277 ° 0 min 0,000 mm 0,0 UV-I 0 W/m² -6,6 °C -6,8 °C 6,4 km/h (2 Bft)
09.12.2017 07:53 -4,8 °C -4,8 °C 87 % 1015,7 hPa 0,0 mm 6,8 km/h (2 Bft) W-SW 252 ° 0 min 0,000 mm 0,0 UV-I 0 W/m² -6,6 °C -7,9 °C 11,3 km/h (2 Bft)
09.12.2017 07:54 -4,8 °C -4,8 °C 87 % 1015,7 hPa 0,0 mm 8,3 km/h (2 Bft) W-SW 258 ° 0 min 0,000 mm 0,0 UV-I 0 W/m² -6,6 °C -8,5 °C 14,5 km/h (3 Bft)
09.12.2017 07:55 -4,8 °C -4,8 °C 87 % 1015,7 hPa 0,0 mm 7,5 km/h (2 Bft) W 260 ° 0 min 0,000 mm 0,0 UV-I 0 W/m² -6,6 °C -8,2 °C 11,3 km/h (2 Bft)
09.12.2017 07:56 -4,8 °C -4,8 °C 87 % 1015,7 hPa 0,0 mm 8,0 km/h (2 Bft) W 271 ° 0 min 0,000 mm 0,0 UV-I 0 W/m² -6,6 °C -8,4 °C 16,1 km/h (3 Bft)
09.12.2017 07:57 -4,8 °C -4,8 °C 87 % 1015,7 hPa 0,0 mm 12,6 km/h (3 Bft) W 264 ° 0 min 0,000 mm 0,0 UV-I 0 W/m² -6,6 °C -9,8 °C 20,9 km/h (4 Bft)
09.12.2017 07:59 -4,8 °C -4,8 °C 87 % 1015,8 hPa 0,0 mm 11,9 km/h (2 Bft) W 269 ° 0 min 0,000 mm 0,0 UV-I 0 W/m² -6,6 °C -9,6 °C 17,7 km/h (3 Bft)
09.12.2017 08:00 -4,8 °C -4,8 °C 87 % 1015,8 hPa 0,0 mm 9,2 km/h (2 Bft) SW 231 ° 0 min 0,000 mm 0,0 UV-I 0 W/m² -6,6 °C -8,8 °C 19,3 km/h (3 Bft)
09.12.2017 08:01 -4,8 °C -4,8 °C 87 % 1015,8 hPa 0,0 mm 14,5 km/h (3 Bft) W-NW 291 ° 0 min 0,000 mm 0,0 UV-I 0 W/m² -6,6 °C -10,2 °C 20,9 km/h (4 Bft)
09.12.2017 08:02 -4,8 °C -4,8 °C 87 % 1015,8 hPa 0,0 mm 5,7 km/h (1 Bft) W 263 ° 0 min 0,000 mm 0,0 UV-I 0 W/m² -6,6 °C -7,4 °C 9,7 km/h (2 Bft)
09.12.2017 08:03 -4,8 °C -4,8 °C 87 % 1015,8 hPa 0,0 mm 5,9 km/h (2 Bft) W 263 ° 0 min 0,000 mm 0,0 UV-I 0 W/m² -6,6 °C -7,5 °C 9,7 km/h (2 Bft)
09.12.2017 08:04 -4,8 °C -4,8 °C 87 % 1015,8 hPa 0,0 mm 5,5 km/h (1 Bft) W-SW 250 ° 0 min 0,000 mm 0,0 UV-I 0 W/m² -6,6 °C -7,3 °C 9,7 km/h (2 Bft)
09.12.2017 08:05 -4,8 °C -4,8 °C 87 % 1015,9 hPa 0,0 mm 8,1 km/h (2 Bft) W 265 ° 0 min 0,000 mm 0,0 UV-I 0 W/m² -6,6 °C -8,4 °C 11,3 km/h (2 Bft)
09.12.2017 08:06 -4,8 °C -4,8 °C 87 % 1015,9 hPa 0,0 mm 11,0 km/h (2 Bft) W 271 ° 0 min 0,000 mm 0,0 UV-I 0 W/m² -6,6 °C -9,3 °C 24,1 km/h (4 Bft)
09.12.2017 08:07 -4,8 °C -4,7 °C 87 % 1015,9 hPa 0,0 mm 11,1 km/h (2 Bft) W-SW 244 ° 0 min 0,000 mm 0,0 UV-I 0 W/m² -6,6 °C -9,4 °C 24,1 km/h (4 Bft)
09.12.2017 08:08 -4,7 °C -4,7 °C 87 % 1015,9 hPa 0,0 mm 12,5 km/h (3 Bft) W 259 ° 0 min 0,000 mm 0,0 UV-I 0 W/m² -6,5 °C -9,6 °C 20,9 km/h (4 Bft)
09.12.2017 08:09 -4,7 °C -4,7 °C 87 % 1015,9 hPa 0,0 mm 14,7 km/h (3 Bft) W-SW 251 ° 0 min 0,000 mm 0,0 UV-I 0 W/m² -6,5 °C -10,1 °C 19,3 km/h (3 Bft)
09.12.2017 08:10 -4,7 °C -4,7 °C 87 % 1016,1 hPa 0,0 mm 8,0 km/h (2 Bft) W 278 ° 0 min 0,000 mm 0,0 UV-I 0 W/m² -6,5 °C -8,3 °C 12,9 km/h (3 Bft)
09.12.2017 08:11 -4,7 °C -4,7 °C 87 % 1016,1 hPa 0,0 mm 9,3 km/h (2 Bft) SW 220 ° 0 min 0,000 mm 0,0 UV-I 0 W/m² -6,5 °C -8,7 °C 16,1 km/h (3 Bft)
09.12.2017 08:12 -4,7 °C -4,7 °C 87 % 1016,1 hPa 0,0 mm 8,2 km/h (2 Bft) W 275 ° 0 min 0,000 mm 0,0 UV-I 0 W/m² -6,5 °C -8,3 °C 12,9 km/h (3 Bft)
09.12.2017 08:13 -4,7 °C -4,7 °C 86 % 1016,1 hPa 0,0 mm 9,7 km/h (2 Bft) W-SW 247 ° 0 min 0,000 mm 0,0 UV-I 0 W/m² -6,7 °C -8,8 °C 16,1 km/h (3 Bft)
09.12.2017 08:14 -4,7 °C -4,7 °C 86 % 1016,1 hPa 0,0 mm 8,4 km/h (2 Bft) W-NW 301 ° 0 min 0,000 mm 0,0 UV-I 5 W/m² -6,7 °C -8,4 °C 16,1 km/h (3 Bft)
09.12.2017 08:15 -4,7 °C -4,7 °C 86 % 1016,1 hPa 0,0 mm 9,6 km/h (2 Bft) W-SW 257 ° 0 min 0,000 mm 0,0 UV-I 5 W/m² -6,7 °C -8,8 °C 16,1 km/h (3 Bft)
09.12.2017 08:16 -4,7 °C -4,7 °C 86 % 1016,1 hPa 0,0 mm 16,0 km/h (3 Bft) W 261 ° 0 min 0,000 mm 0,0 UV-I 5 W/m² -6,7 °C -10,4 °C 24,1 km/h (4 Bft)
09.12.2017 08:17 -4,7 °C -4,7 °C 86 % 1016,2 hPa 0,0 mm 10,8 km/h (2 Bft) W 262 ° 0 min 0,000 mm 0,0 UV-I 5 W/m² -6,7 °C -9,2 °C 14,5 km/h (3 Bft)
09.12.2017 08:18 -4,7 °C -4,7 °C 86 % 1016,3 hPa 0,0 mm 14,2 km/h (3 Bft) W 261 ° 0 min 0,000 mm 0,0 UV-I 5 W/m² -6,7 °C -10,0 °C 17,7 km/h (3 Bft)
09.12.2017 08:19 -4,7 °C -4,7 °C 86 % 1016,2 hPa 0,0 mm 10,9 km/h (2 Bft) W 280 ° 0 min 0,000 mm 0,0 UV-I 7 W/m² -6,7 °C -9,2 °C 14,5 km/h (3 Bft)
09.12.2017 08:20 -4,7 °C -4,7 °C 86 % 1016,2 hPa 0,0 mm 12,3 km/h (3 Bft) W-SW 257 ° 0 min 0,000 mm 0,0 UV-I 7 W/m² -6,7 °C -9,6 °C 17,7 km/h (3 Bft)
09.12.2017 08:21 -4,7 °C -4,7 °C 86 % 1016,2 hPa 0,0 mm 15,1 km/h (3 Bft) W-SW 252 ° 0 min 0,000 mm 0,0 UV-I 7 W/m² -6,7 °C -10,2 °C 19,3 km/h (3 Bft)
09.12.2017 08:22 -4,7 °C -4,6 °C 86 % 1016,2 hPa 0,0 mm 11,7 km/h (2 Bft) W 266 ° 0 min 0,000 mm 0,0 UV-I 7 W/m² -6,7 °C -9,4 °C 17,7 km/h (3 Bft)
09.12.2017 08:23 -4,7 °C -4,7 °C 86 % 1016,2 hPa 0,0 mm 12,1 km/h (2 Bft) W-NW 290 ° 0 min 0,000 mm 0,0 UV-I 7 W/m² -6,7 °C -9,5 °C 19,3 km/h (3 Bft)
09.12.2017 08:24 -4,7 °C -4,6 °C 86 % 1016,2 hPa 0,0 mm 17,3 km/h (3 Bft) W-SW 240 ° 0 min 0,000 mm 0,0 UV-I 7 W/m² -6,7 °C -10,7 °C 24,1 km/h (4 Bft)
09.12.2017 08:25 -4,6 °C -4,6 °C 86 % 1016,2 hPa 0,0 mm 13,2 km/h (3 Bft) W 263 ° 0 min 0,000 mm 0,0 UV-I 7 W/m² -6,6 °C -9,7 °C 20,9 km/h (4 Bft)
09.12.2017 08:26 -4,6 °C -4,6 °C 86 % 1016,2 hPa 0,0 mm 10,3 km/h (2 Bft) W 278 ° 0 min 0,000 mm 0,0 UV-I 7 W/m² -6,6 °C -8,9 °C 17,7 km/h (3 Bft)
09.12.2017 08:27 -4,6 °C -4,6 °C 86 % 1016,1 hPa 0,0 mm 13,9 km/h (3 Bft) W 261 ° 0 min 0,000 mm 0,0 UV-I 7 W/m² -6,6 °C -9,8 °C 20,9 km/h (4 Bft)
09.12.2017 08:28 -4,6 °C -4,6 °C 86 % 1016,2 hPa 0,0 mm 11,7 km/h (2 Bft) W 279 ° 0 min 0,000 mm 0,0 UV-I 7 W/m² -6,6 °C -9,3 °C 17,7 km/h (3 Bft)
09.12.2017 08:29 -4,6 °C -4,6 °C 86 % 1016,2 hPa 0,0 mm 15,1 km/h (3 Bft) W-SW 257 ° 0 min 0,000 mm 0,0 UV-I 7 W/m² -6,6 °C -10,1 °C 20,9 km/h (4 Bft)
09.12.2017 08:30 -4,6 °C -4,6 °C 86 % 1016,2 hPa 0,0 mm 12,0 km/h (2 Bft) W 271 ° 0 min 0,000 mm 0,0 UV-I 7 W/m² -6,6 °C -9,4 °C 16,1 km/h (3 Bft)
09.12.2017 08:31 -4,6 °C -4,6 °C 86 % 1016,2 hPa 0,0 mm 13,2 km/h (3 Bft) W 263 ° 0 min 0,000 mm 0,0 UV-I 7 W/m² -6,6 °C -9,7 °C 24,1 km/h (4 Bft)
09.12.2017 08:32 -4,6 °C -4,6 °C 86 % 1016,2 hPa 0,0 mm 14,5 km/h (3 Bft) W 263 ° 0 min 0,000 mm 0,0 UV-I 7 W/m² -6,6 °C -10,0 °C 19,3 km/h (3 Bft)
09.12.2017 08:33 -4,6 °C -4,6 °C 86 % 1016,2 hPa 0,0 mm 14,9 km/h (3 Bft) W 266 ° 0 min 0,000 mm 0,0 UV-I 7 W/m² -6,6 °C -10,1 °C 22,5 km/h (4 Bft)
09.12.2017 08:34 -4,6 °C -4,6 °C 86 % 1016,2 hPa 0,0 mm 12,3 km/h (3 Bft) W 259 ° 0 min 0,000 mm 0,0 UV-I 7 W/m² -6,6 °C -9,5 °C 20,9 km/h (4 Bft)
09.12.2017 08:35 -4,6 °C -4,6 °C 86 % 1016,2 hPa 0,0 mm 13,4 km/h (3 Bft) W-SW 255 ° 0 min 0,000 mm 0,0 UV-I 9 W/m² -6,6 °C -9,7 °C 17,7 km/h (3 Bft)
09.12.2017 08:36 -4,6 °C -4,6 °C 86 % 1016,2 hPa 0,0 mm 12,6 km/h (3 Bft) SW 225 ° 0 min 0,000 mm 0,0 UV-I 9 W/m² -6,6 °C -9,5 °C 17,7 km/h (3 Bft)
09.12.2017 08:37 -4,6 °C -4,6 °C 86 % 1016,2 hPa 0,0 mm 14,3 km/h (3 Bft) W 259 ° 0 min 0,000 mm 0,0 UV-I 9 W/m² -6,6 °C -9,9 °C 20,9 km/h (4 Bft)
09.12.2017 08:38 -4,6 °C -4,6 °C 85 % 1016,2 hPa 0,0 mm 13,3 km/h (3 Bft) W 266 ° 0 min 0,000 mm 0,0 UV-I 9 W/m² -6,7 °C -9,7 °C 17,7 km/h (3 Bft)
09.12.2017 08:39 -4,6 °C -4,6 °C 86 % 1016,2 hPa 0,0 mm 12,1 km/h (2 Bft) W-SW 244 ° 0 min 0,000 mm 0,0 UV-I 11 W/m² -6,6 °C -9,4 °C 17,7 km/h (3 Bft)
09.12.2017 08:40 -4,6 °C -4,6 °C 86 % 1016,2 hPa 0,0 mm 14,3 km/h (3 Bft) W-SW 248 ° 0 min 0,000 mm 0,0 UV-I 11 W/m² -6,6 °C -9,9 °C 16,1 km/h (3 Bft)
09.12.2017 08:41 -4,6 °C -4,6 °C 86 % 1016,2 hPa 0,0 mm 10,5 km/h (2 Bft) W 263 ° 0 min 0,000 mm 0,0 UV-I 11 W/m² -6,6 °C -9,0 °C 14,5 km/h (3 Bft)
09.12.2017 08:42 -4,6 °C -4,6 °C 86 % 1016,2 hPa 0,0 mm 10,5 km/h (2 Bft) W 266 ° 0 min 0,000 mm 0,0 UV-I 12 W/m² -6,6 °C -9,0 °C 16,1 km/h (3 Bft)
09.12.2017 08:43 -4,6 °C -4,6 °C 86 % 1016,2 hPa 0,0 mm 11,1 km/h (2 Bft) NW 311 ° 0 min 0,000 mm 0,0 UV-I 14 W/m² -6,6 °C -9,1 °C 14,5 km/h (3 Bft)
09.12.2017 08:44 -4,6 °C -4,6 °C 86 % 1016,2 hPa 0,0 mm 9,0 km/h (2 Bft) W-SW 238 ° 0 min 0,000 mm 0,0 UV-I 14 W/m² -6,6 °C -8,5 °C 12,9 km/h (3 Bft)
09.12.2017 08:45 -4,6 °C -4,6 °C 86 % 1016,2 hPa 0,0 mm 10,7 km/h (2 Bft) W 268 ° 0 min 0,000 mm 0,0 UV-I 16 W/m² -6,6 °C -9,0 °C 16,1 km/h (3 Bft)
09.12.2017 08:46 -4,6 °C -4,6 °C 86 % 1016,2 hPa 0,0 mm 11,9 km/h (2 Bft) W-SW 251 ° 0 min 0,000 mm 0,0 UV-I 18 W/m² -6,6 °C -9,3 °C 19,3 km/h (3 Bft)
09.12.2017 08:47 -4,6 °C -4,5 °C 86 % 1016,2 hPa 0,0 mm 9,9 km/h (2 Bft) W 259 ° 0 min 0,000 mm 0,0 UV-I 18 W/m² -6,6 °C -8,8 °C 16,1 km/h (3 Bft)
09.12.2017 08:48 -4,6 °C -4,6 °C 86 % 1016,2 hPa 0,0 mm 14,7 km/h (3 Bft) W 265 ° 0 min 0,000 mm 0,0 UV-I 19 W/m² -6,6 °C -10,0 °C 22,5 km/h (4 Bft)
09.12.2017 08:49 -4,6 °C -4,6 °C 86 % 1016,2 hPa 0,0 mm 12,7 km/h (3 Bft) W-SW 242 ° 0 min 0,000 mm 0,0 UV-I 19 W/m² -6,6 °C -9,6 °C 17,7 km/h (3 Bft)
09.12.2017 08:50 -4,6 °C -4,6 °C 86 % 1016,2 hPa 0,0 mm 16,5 km/h (3 Bft) W 274 ° 0 min 0,000 mm 0,0 UV-I 19 W/m² -6,6 °C -10,4 °C 27,4 km/h (4 Bft)
09.12.2017 08:51 -4,6 °C -4,6 °C 86 % 1016,3 hPa 0,0 mm 15,8 km/h (3 Bft) W 264 ° 0 min 0,000 mm 0,0 UV-I 19 W/m² -6,6 °C -10,3 °C 22,5 km/h (4 Bft)
09.12.2017 08:52 -4,6 °C -4,6 °C 86 % 1016,3 hPa 0,0 mm 12,4 km/h (3 Bft) W 261 ° 0 min 0,000 mm 0,0 UV-I 18 W/m² -6,6 °C -9,5 °C 17,7 km/h (3 Bft)
09.12.2017 08:53 -4,6 °C -4,6 °C 86 % 1016,3 hPa 0,0 mm 13,9 km/h (3 Bft) W 265 ° 0 min 0,000 mm 0,0 UV-I 18 W/m² -6,6 °C -9,8 °C 20,9 km/h (4 Bft)
09.12.2017 08:54 -4,6 °C -4,5 °C 86 % 1016,2 hPa 0,0 mm 14,0 km/h (3 Bft) W 265 ° 0 min 0,000 mm 0,0 UV-I 18 W/m² -6,6 °C -9,9 °C 19,3 km/h (3 Bft)
09.12.2017 08:55 -4,6 °C -4,5 °C 86 % 1016,2 hPa 0,0 mm 11,5 km/h (2 Bft) W-SW 245 ° 0 min 0,000 mm 0,0 UV-I 16 W/m² -6,6 °C -9,2 °C 16,1 km/h (3 Bft)
09.12.2017 08:56 -4,6 °C -4,5 °C 85 % 1016,2 hPa 0,0 mm 11,8 km/h (2 Bft) W-NW 289 ° 0 min 0,000 mm 0,0 UV-I 14 W/m² -6,7 °C -9,3 °C 17,7 km/h (3 Bft)
09.12.2017 08:57 -4,5 °C -4,5 °C 85 % 1016,2 hPa 0,0 mm 11,0 km/h (2 Bft) W 280 ° 0 min 0,000 mm 0,0 UV-I 14 W/m² -6,6 °C -9,0 °C 14,5 km/h (3 Bft)
09.12.2017 08:58 -4,6 °C -4,5 °C 85 % 1016,2 hPa 0,0 mm 9,8 km/h (2 Bft) W-SW 258 ° 0 min 0,000 mm 0,0 UV-I 14 W/m² -6,7 °C -8,7 °C 12,9 km/h (3 Bft)
09.12.2017 08:59 -4,6 °C -4,5 °C 85 % 1016,3 hPa 0,0 mm 16,0 km/h (3 Bft) W-SW 248 ° 0 min 0,000 mm 0,0 UV-I 14 W/m² -6,7 °C -10,3 °C 20,9 km/h (4 Bft)
09.12.2017 09:00 -4,6 °C -4,5 °C 85 % 1016,2 hPa 0,0 mm 13,7 km/h (3 Bft) W 271 ° 0 min 0,000 mm 0,0 UV-I 14 W/m² -6,7 °C -9,8 °C 19,3 km/h (3 Bft)
09.12.2017 09:01 -4,6 °C -4,6 °C 85 % 1016,2 hPa 0,0 mm 9,0 km/h (2 Bft) W-SW 249 ° 0 min 0,000 mm 0,0 UV-I 14 W/m² -6,7 °C -8,5 °C 11,3 km/h (2 Bft)
09.12.2017 09:02 -4,5 °C -4,5 °C 85 % 1016,1 hPa 0,0 mm 7,6 km/h (2 Bft) W-SW 246 ° 0 min 0,000 mm 0,0 UV-I 16 W/m² -6,6 °C -7,9 °C 14,5 km/h (3 Bft)
09.12.2017 09:03 -4,6 °C -4,5 °C 85 % 1016,3 hPa 0,0 mm 9,9 km/h (2 Bft) W 277 ° 0 min 0,000 mm 0,0 UV-I 16 W/m² -6,7 °C -8,8 °C 14,5 km/h (3 Bft)
09.12.2017 09:04 -4,5 °C -4,5 °C 86 % 1016,2 hPa 0,0 mm 6,2 km/h (2 Bft) W-SW 255 ° 0 min 0,000 mm 0,0 UV-I 16 W/m² -6,5 °C -7,3 °C 12,9 km/h (3 Bft)
09.12.2017 09:05 -4,6 °C -4,5 °C 86 % 1016,3 hPa 0,0 mm 6,6 km/h (2 Bft) W-NW 292 ° 0 min 0,000 mm 0,0 UV-I 16 W/m² -6,6 °C -7,6 °C 14,5 km/h (3 Bft)
09.12.2017 09:06 -4,5 °C -4,5 °C 86 % 1016,3 hPa 0,0 mm 13,8 km/h (3 Bft) W 268 ° 0 min 0,000 mm 0,0 UV-I 18 W/m² -6,5 °C -9,7 °C 17,7 km/h (3 Bft)
09.12.2017 09:07 -4,5 °C -4,5 °C 86 % 1016,3 hPa 0,0 mm 11,3 km/h (2 Bft) W 275 ° 0 min 0,000 mm 0,0 UV-I 18 W/m² -6,5 °C -9,1 °C 14,5 km/h (3 Bft)
09.12.2017 09:08 -4,5 °C -4,5 °C 86 % 1016,3 hPa 0,0 mm 10,2 km/h (2 Bft) W-SW 238 ° 0 min 0,000 mm 0,0 UV-I 19 W/m² -6,5 °C -8,8 °C 19,3 km/h (3 Bft)
09.12.2017 09:09 -4,5 °C -4,5 °C 86 % 1016,3 hPa 0,0 mm 13,3 km/h (3 Bft) W 277 ° 0 min 0,000 mm 0,0 UV-I 19 W/m² -6,5 °C -9,6 °C 19,3 km/h (3 Bft)
09.12.2017 09:10 -4,5 °C -4,5 °C 86 % 1016,3 hPa 0,0 mm 13,8 km/h (3 Bft) W 277 ° 0 min 0,000 mm 0,0 UV-I 19 W/m² -6,5 °C -9,7 °C 19,3 km/h (3 Bft)
09.12.2017 09:11 -4,5 °C -4,4 °C 86 % 1016,3 hPa 0,0 mm 12,4 km/h (3 Bft) W 274 ° 0 min 0,000 mm 0,0 UV-I 18 W/m² -6,5 °C -9,4 °C 16,1 km/h (3 Bft)
09.12.2017 09:12 -4,4 °C -4,4 °C 86 % 1016,4 hPa 0,0 mm 6,3 km/h (2 Bft) W-NW 286 ° 0 min 0,000 mm 0,0 UV-I 18 W/m² -6,4 °C -7,2 °C 12,9 km/h (3 Bft)
09.12.2017 09:13 -4,4 °C -4,4 °C 86 % 1016,4 hPa 0,0 mm 13,0 km/h (3 Bft) W-NW 284 ° 0 min 0,000 mm 0,0 UV-I 18 W/m² -6,4 °C -9,4 °C 16,1 km/h (3 Bft)
09.12.2017 09:14 -4,5 °C -4,4 °C 86 % 1016,4 hPa 0,0 mm 14,6 km/h (3 Bft) W 263 ° 0 min 0,000 mm 0,0 UV-I 18 W/m² -6,5 °C -9,9 °C 19,3 km/h (3 Bft)
09.12.2017 09:15 -4,4 °C -4,4 °C 86 % 1016,4 hPa 0,0 mm 12,7 km/h (3 Bft) W-SW 257 ° 0 min 0,000 mm 0,0 UV-I 18 W/m² -6,4 °C -9,3 °C 19,3 km/h (3 Bft)
09.12.2017 09:16 -4,4 °C -4,4 °C 86 % 1016,3 hPa 0,0 mm 10,4 km/h (2 Bft) W 269 ° 0 min 0,000 mm 0,0 UV-I 18 W/m² -6,4 °C -8,7 °C 16,1 km/h (3 Bft)
09.12.2017 09:17 -4,4 °C -4,4 °C 86 % 1016,5 hPa 0,0 mm 12,4 km/h (3 Bft) W-SW 254 ° 0 min 0,000 mm 0,0 UV-I 18 W/m² -6,4 °C -9,2 °C 17,7 km/h (3 Bft)
09.12.2017 09:18 -4,4 °C -4,4 °C 86 % 1016,5 hPa 0,0 mm 18,9 km/h (3 Bft) W-SW 246 ° 0 min 0,000 mm 0,0 UV-I 18 W/m² -6,4 °C -10,6 °C 25,7 km/h (4 Bft)
09.12.2017 09:19 -4,4 °C -4,4 °C 86 % 1016,5 hPa 0,0 mm 18,2 km/h (3 Bft) W 265 ° 0 min 0,000 mm 0,0 UV-I 18 W/m² -6,4 °C -10,5 °C 22,5 km/h (4 Bft)
09.12.2017 09:20 -4,4 °C -4,4 °C 86 % 1016,5 hPa 0,0 mm 12,6 km/h (3 Bft) W 277 ° 0 min 0,000 mm 0,0 UV-I 18 W/m² -6,4 °C -9,3 °C 17,7 km/h (3 Bft)
09.12.2017 09:21 -4,4 °C -4,4 °C 86 % 1016,5 hPa 0,0 mm 15,2 km/h (3 Bft) W 270 ° 0 min 0,000 mm 0,0 UV-I 18 W/m² -6,4 °C -9,9 °C 22,5 km/h (4 Bft)
09.12.2017 09:22 -4,4 °C -4,4 °C 86 % 1016,5 hPa 0,0 mm 12,4 km/h (3 Bft) SW 225 ° 0 min 0,000 mm 0,0 UV-I 18 W/m² -6,4 °C -9,2 °C 22,5 km/h (4 Bft)
09.12.2017 09:23 -4,4 °C -4,4 °C 86 % 1016,5 hPa 0,0 mm 14,0 km/h (3 Bft) W-SW 254 ° 0 min 0,000 mm 0,0 UV-I 18 W/m² -6,4 °C -9,6 °C 20,9 km/h (4 Bft)
09.12.2017 09:24 -4,4 °C -4,4 °C 86 % 1016,6 hPa 0,0 mm 13,5 km/h (3 Bft) SW 229 ° 0 min 0,000 mm 0,0 UV-I 18 W/m² -6,4 °C -9,5 °C 24,1 km/h (4 Bft)
09.12.2017 09:25 -4,4 °C -4,4 °C 86 % 1016,5 hPa 0,0 mm 6,7 km/h (2 Bft) W 274 ° 0 min 0,000 mm 0,0 UV-I 16 W/m² -6,4 °C -7,4 °C 16,1 km/h (3 Bft)
09.12.2017 09:26 -4,4 °C -4,4 °C 86 % 1016,5 hPa 0,0 mm 8,4 km/h (2 Bft) W 275 ° 0 min 0,000 mm 0,0 UV-I 16 W/m² -6,4 °C -8,0 °C 12,9 km/h (3 Bft)
09.12.2017 09:27 -4,4 °C -4,4 °C 86 % 1016,6 hPa 0,0 mm 14,5 km/h (3 Bft) W 260 ° 0 min 0,000 mm 0,0 UV-I 16 W/m² -6,4 °C -9,7 °C 22,5 km/h (4 Bft)
09.12.2017 09:28 -4,4 °C -4,4 °C 86 % 1016,6 hPa 0,0 mm 16,6 km/h (3 Bft) W 274 ° 0 min 0,000 mm 0,0 UV-I 16 W/m² -6,4 °C -10,2 °C 22,5 km/h (4 Bft)
09.12.2017 09:29 -4,4 °C -4,4 °C 86 % 1016,7 hPa 0,0 mm 12,1 km/h (2 Bft) W-SW 257 ° 0 min 0,000 mm 0,0 UV-I 16 W/m² -6,4 °C -9,2 °C 16,1 km/h (3 Bft)
09.12.2017 09:30 -4,4 °C -4,4 °C 86 % 1016,7 hPa 0,0 mm 17,2 km/h (3 Bft) W-NW 286 ° 0 min 0,000 mm 0,0 UV-I 18 W/m² -6,4 °C -10,3 °C 25,7 km/h (4 Bft)
09.12.2017 09:31 -4,4 °C -4,4 °C 86 % 1016,7 hPa 0,0 mm 15,0 km/h (3 Bft) W 279 ° 0 min 0,000 mm 0,0 UV-I 18 W/m² -6,4 °C -9,8 °C 17,7 km/h (3 Bft)
09.12.2017 09:32 -4,4 °C -4,4 °C 86 % 1016,7 hPa 0,0 mm 13,6 km/h (3 Bft) W 269 ° 0 min 0,000 mm 0,0 UV-I 19 W/m² -6,4 °C -9,5 °C 22,5 km/h (4 Bft)
09.12.2017 09:33 -4,4 °C -4,4 °C 86 % 1016,6 hPa 0,0 mm 13,3 km/h (3 Bft) W 261 ° 0 min 0,000 mm 0,0 UV-I 19 W/m² -6,4 °C -9,5 °C 22,5 km/h (4 Bft)
09.12.2017 09:34 -4,4 °C -4,4 °C 86 % 1016,6 hPa 0,0 mm 12,3 km/h (3 Bft) W 265 ° 0 min 0,000 mm 0,0 UV-I 21 W/m² -6,4 °C -9,2 °C 17,7 km/h (3 Bft)
09.12.2017 09:35 -4,3 °C -4,3 °C 87 % 1016,6 hPa 0,0 mm 12,8 km/h (3 Bft) W 265 ° 0 min 0,000 mm 0,0 UV-I 21 W/m² -6,1 °C -9,2 °C 17,7 km/h (3 Bft)
09.12.2017 09:36 -4,3 °C -4,3 °C 86 % 1016,7 hPa 0,0 mm 14,8 km/h (3 Bft) W-NW 288 ° 0 min 0,000 mm 0,0 UV-I 21 W/m² -6,3 °C -9,7 °C 19,3 km/h (3 Bft)
09.12.2017 09:37 -4,4 °C -4,3 °C 86 % 1016,7 hPa 0,0 mm 13,4 km/h (3 Bft) W-SW 244 ° 0 min 0,000 mm 0,0 UV-I 21 W/m² -6,4 °C -9,5 °C 17,7 km/h (3 Bft)
09.12.2017 09:38 -4,4 °C -4,4 °C 86 % 1016,7 hPa 0,0 mm 10,8 km/h (2 Bft) W 281 ° 0 min 0,000 mm 0,0 UV-I 21 W/m² -6,4 °C -8,8 °C 19,3 km/h (3 Bft)
09.12.2017 09:39 -4,4 °C -4,3 °C 87 % 1016,6 hPa 0,0 mm 13,0 km/h (3 Bft) W 265 ° 0 min 0,000 mm 0,0 UV-I 21 W/m² -6,2 °C -9,4 °C 19,3 km/h (3 Bft)
09.12.2017 09:40 -4,4 °C -4,3 °C 87 % 1016,7 hPa 0,0 mm 10,4 km/h (2 Bft) W 259 ° 0 min 0,000 mm 0,0 UV-I 21 W/m² -6,2 °C -8,7 °C 14,5 km/h (3 Bft)
09.12.2017 09:41 -4,3 °C -4,3 °C 87 % 1016,8 hPa 0,0 mm 17,0 km/h (3 Bft) W-NW 290 ° 0 min 0,000 mm 0,0 UV-I 19 W/m² -6,1 °C -10,1 °C 24,1 km/h (4 Bft)
09.12.2017 09:42 -4,4 °C -4,3 °C 87 % 1016,8 hPa 0,0 mm 12,5 km/h (3 Bft) W 261 ° 0 min 0,000 mm 0,0 UV-I 19 W/m² -6,2 °C -9,3 °C 17,7 km/h (3 Bft)
09.12.2017 09:43 -4,4 °C -4,3 °C 87 % 1016,8 hPa 0,0 mm 10,7 km/h (2 Bft) W-SW 257 ° 0 min 0,000 mm 0,0 UV-I 21 W/m² -6,2 °C -8,8 °C 22,5 km/h (4 Bft)
09.12.2017 09:44 -4,3 °C -4,3 °C 87 % 1016,8 hPa 0,0 mm 18,3 km/h (3 Bft) W 264 ° 0 min 0,000 mm 0,0 UV-I 21 W/m² -6,1 °C -10,4 °C 22,5 km/h (4 Bft)
09.12.2017 09:45 -4,3 °C -4,3 °C 87 % 1016,8 hPa 0,0 mm 15,1 km/h (3 Bft) W 275 ° 0 min 0,000 mm 0,0 UV-I 23 W/m² -6,1 °C -9,7 °C 19,3 km/h (3 Bft)
09.12.2017 09:46 -4,3 °C -4,3 °C 87 % 1016,8 hPa 0,0 mm 12,4 km/h (3 Bft) W 268 ° 0 min 0,000 mm 0,0 UV-I 25 W/m² -6,1 °C -9,1 °C 17,7 km/h (3 Bft)
09.12.2017 09:47 -4,3 °C -4,3 °C 87 % 1016,8 hPa 0,0 mm 13,3 km/h (3 Bft) SW 221 ° 0 min 0,000 mm 0,0 UV-I 25 W/m² -6,1 °C -9,3 °C 19,3 km/h (3 Bft)
09.12.2017 09:48 -4,3 °C -4,3 °C 87 % 1016,8 hPa 0,0 mm 12,4 km/h (3 Bft) W 279 ° 0 min 0,000 mm 0,0 UV-I 25 W/m² -6,1 °C -9,1 °C 16,1 km/h (3 Bft)
09.12.2017 09:49 -4,3 °C -4,3 °C 87 % 1016,8 hPa 0,0 mm 14,6 km/h (3 Bft) W-SW 252 ° 0 min 0,000 mm 0,0 UV-I 25 W/m² -6,1 °C -9,6 °C 19,3 km/h (3 Bft)
09.12.2017 09:50 -4,3 °C -4,3 °C 87 % 1016,8 hPa 0,0 mm 13,1 km/h (3 Bft) W-SW 240 ° 0 min 0,000 mm 0,0 UV-I 26 W/m² -6,1 °C -9,3 °C 16,1 km/h (3 Bft)
09.12.2017 09:51 -4,3 °C -4,3 °C 87 % 1016,8 hPa 0,0 mm 10,0 km/h (2 Bft) W 267 ° 0 min 0,000 mm 0,0 UV-I 26 W/m² -6,1 °C -8,5 °C 16,1 km/h (3 Bft)
09.12.2017 09:52 -4,3 °C -4,3 °C 87 % 1016,8 hPa 0,0 mm 9,1 km/h (2 Bft) W-SW 257 ° 0 min 0,000 mm 0,0 UV-I 26 W/m² -6,1 °C -8,2 °C 14,5 km/h (3 Bft)
09.12.2017 09:53 -4,3 °C -4,3 °C 87 % 1016,8 hPa 0,0 mm 10,8 km/h (2 Bft) NW 304 ° 0 min 0,000 mm 0,0 UV-I 26 W/m² -6,1 °C -8,7 °C 17,7 km/h (3 Bft)
09.12.2017 09:54 -4,3 °C -4,3 °C 87 % 1016,8 hPa 0,0 mm 12,1 km/h (2 Bft) W-SW 247 ° 0 min 0,000 mm 0,0 UV-I 26 W/m² -6,1 °C -9,0 °C 14,5 km/h (3 Bft)
09.12.2017 09:55 -4,3 °C -4,3 °C 87 % 1016,7 hPa 0,0 mm 9,9 km/h (2 Bft) W 270 ° 0 min 0,000 mm 0,0 UV-I 26 W/m² -6,1 °C -8,4 °C 17,7 km/h (3 Bft)
09.12.2017 09:56 -4,3 °C -4,3 °C 87 % 1016,9 hPa 0,0 mm 12,4 km/h (3 Bft) W 263 ° 0 min 0,000 mm 0,0 UV-I 28 W/m² -6,1 °C -9,1 °C 16,1 km/h (3 Bft)
09.12.2017 09:57 -4,3 °C -4,3 °C 87 % 1016,9 hPa 0,0 mm 9,3 km/h (2 Bft) W-SW 254 ° 0 min 0,000 mm 0,0 UV-I 26 W/m² -6,1 °C -8,2 °C 14,5 km/h (3 Bft)
09.12.2017 09:58 -4,3 °C -4,3 °C 87 % 1016,8 hPa 0,0 mm 7,5 km/h (2 Bft) SW 217 ° 0 min 0,000 mm 0,0 UV-I 26 W/m² -6,1 °C -7,6 °C 12,9 km/h (3 Bft)
09.12.2017 09:59 -4,3 °C -4,3 °C 87 % 1016,8 hPa 0,0 mm 13,0 km/h (3 Bft) SW 236 ° 0 min 0,000 mm 0,0 UV-I 26 W/m² -6,1 °C -9,3 °C 20,9 km/h (4 Bft)
09.12.2017 10:00 -4,3 °C -4,3 °C 87 % 1016,8 hPa 0,0 mm 9,5 km/h (2 Bft) SW 220 ° 0 min 0,025 mm 0,0 UV-I 26 W/m² -6,1 °C -8,3 °C 16,1 km/h (3 Bft)
09.12.2017 10:01 -4,3 °C -4,3 °C 87 % 1016,9 hPa 0,0 mm 11,2 km/h (2 Bft) W-NW 285 ° 0 min 0,000 mm 0,0 UV-I 26 W/m² -6,1 °C -8,8 °C 16,1 km/h (3 Bft)
09.12.2017 10:02 -4,3 °C -4,3 °C 87 % 1016,9 hPa 0,0 mm 12,6 km/h (3 Bft) W-SW 244 ° 0 min 0,000 mm 0,0 UV-I 26 W/m² -6,1 °C -9,2 °C 20,9 km/h (4 Bft)
09.12.2017 10:03 -4,3 °C -4,3 °C 87 % 1016,8 hPa 0,0 mm 10,6 km/h (2 Bft) W-SW 256 ° 0 min 0,000 mm 0,0 UV-I 26 W/m² -6,1 °C -8,6 °C 16,1 km/h (3 Bft)
09.12.2017 10:04 -4,3 °C -4,3 °C 87 % 1016,9 hPa 0,0 mm 14,2 km/h (3 Bft) W 275 ° 0 min 0,000 mm 0,0 UV-I 26 W/m² -6,1 °C -9,5 °C 19,3 km/h (3 Bft)
09.12.2017 10:05 -4,3 °C -4,3 °C 87 % 1016,8 hPa 0,0 mm 7,3 km/h (2 Bft) W-SW 240 ° 0 min 0,000 mm 0,0 UV-I 25 W/m² -6,1 °C -7,5 °C 11,3 km/h (2 Bft)
09.12.2017 10:06 -4,3 °C -4,3 °C 87 % 1016,9 hPa 0,0 mm 11,9 km/h (2 Bft) W 274 ° 0 min 0,000 mm 0,0 UV-I 25 W/m² -6,1 °C -9,0 °C 20,9 km/h (4 Bft)
09.12.2017 10:07 -4,3 °C -4,3 °C 87 % 1016,9 hPa 0,0 mm 8,9 km/h (2 Bft) W-NW 284 ° 0 min 0,000 mm 0,0 UV-I 25 W/m² -6,1 °C -8,1 °C 12,9 km/h (3 Bft)
09.12.2017 10:08 -4,3 °C -4,3 °C 87 % 1016,9 hPa 0,0 mm 11,1 km/h (2 Bft) W-SW 257 ° 0 min 0,000 mm 0,0 UV-I 26 W/m² -6,1 °C -8,8 °C 14,5 km/h (3 Bft)
09.12.2017 10:09 -4,3 °C -4,3 °C 87 % 1016,9 hPa 0,0 mm 13,3 km/h (3 Bft) W 260 ° 0 min 0,000 mm 0,0 UV-I 26 W/m² -6,1 °C -9,3 °C 25,7 km/h (4 Bft)
09.12.2017 10:10 -4,3 °C -4,3 °C 86 % 1017,0 hPa 0,0 mm 9,7 km/h (2 Bft) W-SW 252 ° 0 min 0,000 mm 0,0 UV-I 25 W/m² -6,3 °C -8,4 °C 12,9 km/h (3 Bft)
09.12.2017 10:11 -4,3 °C -4,3 °C 86 % 1017,0 hPa 0,0 mm 9,3 km/h (2 Bft) W-SW 245 ° 0 min 0,000 mm 0,0 UV-I 26 W/m² -6,3 °C -8,2 °C 14,5 km/h (3 Bft)
09.12.2017 10:12 -4,3 °C -4,3 °C 87 % 1017,0 hPa 0,0 mm 10,5 km/h (2 Bft) W-SW 243 ° 0 min 0,000 mm 0,0 UV-I 26 W/m² -6,1 °C -8,6 °C 14,5 km/h (3 Bft)
09.12.2017 10:13 -4,2 °C -4,2 °C 86 % 1017,1 hPa 0,0 mm 11,7 km/h (2 Bft) SW 224 ° 0 min 0,000 mm 0,0 UV-I 28 W/m² -6,2 °C -8,8 °C 17,7 km/h (3 Bft)
09.12.2017 10:14 -4,2 °C -4,2 °C 86 % 1017,1 hPa 0,0 mm 7,3 km/h (2 Bft) W 278 ° 0 min 0,000 mm 0,0 UV-I 30 W/m² -6,2 °C -7,4 °C 20,9 km/h (4 Bft)
09.12.2017 10:15 -4,2 °C -4,2 °C 86 % 1017,1 hPa 0,0 mm 14,1 km/h (3 Bft) W 269 ° 0 min 0,000 mm 0,0 UV-I 30 W/m² -6,2 °C -9,4 °C 17,7 km/h (3 Bft)
09.12.2017 10:16 -4,2 °C -4,2 °C 86 % 1017,2 hPa 0,0 mm 11,9 km/h (2 Bft) W 273 ° 0 min 0,000 mm 0,0 UV-I 30 W/m² -6,2 °C -8,9 °C 19,3 km/h (3 Bft)
09.12.2017 10:17 -4,2 °C -4,2 °C 86 % 1017,1 hPa 0,0 mm 15,8 km/h (3 Bft) W 259 ° 0 min 0,000 mm 0,0 UV-I 30 W/m² -6,2 °C -9,8 °C 20,9 km/h (4 Bft)
09.12.2017 10:18 -4,2 °C -4,2 °C 86 % 1017,2 hPa 0,0 mm 16,2 km/h (3 Bft) W 265 ° 0 min 0,000 mm 0,0 UV-I 32 W/m² -6,2 °C -9,8 °C 22,5 km/h (4 Bft)
09.12.2017 10:19 -4,2 °C -4,2 °C 86 % 1017,2 hPa 0,0 mm 18,6 km/h (3 Bft) SW 227 ° 0 min 0,000 mm 0,0 UV-I 33 W/m² -6,2 °C -10,3 °C 27,4 km/h (4 Bft)
09.12.2017 10:20 -4,2 °C -4,2 °C 86 % 1017,2 hPa 0,0 mm 18,2 km/h (3 Bft) W-NW 286 ° 0 min 0,000 mm 0,0 UV-I 35 W/m² -6,2 °C -10,2 °C 30,6 km/h (5 Bft)
09.12.2017 10:21 -4,2 °C -4,2 °C 86 % 1017,2 hPa 0,0 mm 16,9 km/h (3 Bft) W-SW 256 ° 0 min 0,000 mm 0,0 UV-I 37 W/m² -6,2 °C -10,0 °C 25,7 km/h (4 Bft)
09.12.2017 10:22 -4,2 °C -4,2 °C 87 % 1017,2 hPa 0,0 mm 8,0 km/h (2 Bft) W-SW 243 ° 0 min 0,000 mm 0,0 UV-I 39 W/m² -6,0 °C -7,7 °C 12,9 km/h (3 Bft)
09.12.2017 10:23 -4,2 °C -4,2 °C 87 % 1017,2 hPa 0,0 mm 16,1 km/h (3 Bft) W 273 ° 0 min 0,000 mm 0,0 UV-I 39 W/m² -6,0 °C -9,8 °C 24,1 km/h (4 Bft)
09.12.2017 10:24 -4,2 °C -4,2 °C 87 % 1017,2 hPa 0,0 mm 15,4 km/h (3 Bft) W-SW 240 ° 0 min 0,000 mm 0,0 UV-I 40 W/m² -6,0 °C -9,7 °C 22,5 km/h (4 Bft)
09.12.2017 10:25 -4,2 °C -4,1 °C 86 % 1017,2 hPa 0,0 mm 14,6 km/h (3 Bft) W 259 ° 0 min 0,000 mm 0,0 UV-I 40 W/m² -6,2 °C -9,5 °C 20,9 km/h (4 Bft)
09.12.2017 10:26 -4,1 °C -4,1 °C 86 % 1017,3 hPa 0,0 mm 14,8 km/h (3 Bft) W 272 ° 0 min 0,000 mm 0,0 UV-I 40 W/m² -6,1 °C -9,4 °C 19,3 km/h (3 Bft)
09.12.2017 10:27 -4,1 °C -4,1 °C 86 % 1017,2 hPa 0,0 mm 13,9 km/h (3 Bft) W 275 ° 0 min 0,000 mm 0,0 UV-I 40 W/m² -6,1 °C -9,2 °C 16,1 km/h (3 Bft)
09.12.2017 10:28 -4,1 °C -4,1 °C 86 % 1017,2 hPa 0,0 mm 8,1 km/h (2 Bft) W-SW 238 ° 0 min 0,000 mm 0,0 UV-I 42 W/m² -6,1 °C -7,6 °C 12,9 km/h (3 Bft)
09.12.2017 10:29 -4,1 °C -4,1 °C 86 % 1017,2 hPa 0,0 mm 8,3 km/h (2 Bft) W-SW 238 ° 0 min 0,000 mm 0,0 UV-I 42 W/m² -6,1 °C -7,7 °C 12,9 km/h (3 Bft)
09.12.2017 10:30 -4,1 °C -4,1 °C 86 % 1017,2 hPa 0,0 mm 10,2 km/h (2 Bft) W 263 ° 0 min 0,000 mm 0,0 UV-I 44 W/m² -6,1 °C -8,3 °C 17,7 km/h (3 Bft)
09.12.2017 10:31 -4,1 °C -4,1 °C 86 % 1017,2 hPa 0,0 mm 7,0 km/h (2 Bft) W-SW 242 ° 0 min 0,000 mm 0,0 UV-I 44 W/m² -6,1 °C -7,2 °C 14,5 km/h (3 Bft)
09.12.2017 10:32 -4,1 °C -4,1 °C 86 % 1017,2 hPa 0,0 mm 11,1 km/h (2 Bft) W 277 ° 0 min 0,000 mm 0,0 UV-I 46 W/m² -6,1 °C -8,5 °C 20,9 km/h (4 Bft)
09.12.2017 10:33 -4,1 °C -4,0 °C 86 % 1017,1 hPa 0,0 mm 13,0 km/h (3 Bft) W 263 ° 0 min 0,000 mm 0,0 UV-I 46 W/m² -6,1 °C -9,0 °C 16,1 km/h (3 Bft)
09.12.2017 10:34 -4,0 °C -4,0 °C 86 % 1017,2 hPa 0,0 mm 13,6 km/h (3 Bft) W-SW 254 ° 0 min 0,000 mm 0,0 UV-I 46 W/m² -6,0 °C -9,0 °C 19,3 km/h (3 Bft)
09.12.2017 10:35 -4,0 °C -3,9 °C 86 % 1017,2 hPa 0,0 mm 7,0 km/h (2 Bft) W 260 ° 0 min 0,000 mm 0,0 UV-I 46 W/m² -6,0 °C -7,1 °C 11,3 km/h (2 Bft)
09.12.2017 10:36 -3,9 °C -3,9 °C 86 % 1017,1 hPa 0,0 mm 8,7 km/h (2 Bft) W-SW 242 ° 0 min 0,000 mm 0,0 UV-I 44 W/m² -5,9 °C -7,6 °C 14,5 km/h (3 Bft)
09.12.2017 10:37 -3,9 °C -3,9 °C 86 % 1017,2 hPa 0,0 mm 13,8 km/h (3 Bft) W 275 ° 0 min 0,000 mm 0,0 UV-I 46 W/m² -5,9 °C -9,0 °C 22,5 km/h (4 Bft)
09.12.2017 10:38 -3,9 °C -3,9 °C 86 % 1017,2 hPa 0,0 mm 15,4 km/h (3 Bft) W 264 ° 0 min 0,000 mm 0,0 UV-I 46 W/m² -5,9 °C -9,3 °C 19,3 km/h (3 Bft)
09.12.2017 10:39 -3,9 °C -3,9 °C 85 % 1017,1 hPa 0,0 mm 15,6 km/h (3 Bft) W-SW 247 ° 0 min 0,000 mm 0,0 UV-I 47 W/m² -6,0 °C -9,4 °C 19,3 km/h (3 Bft)
09.12.2017 10:40 -3,9 °C -3,9 °C 85 % 1017,2 hPa 0,0 mm 10,4 km/h (2 Bft) W 273 ° 0 min 0,000 mm 0,0 UV-I 47 W/m² -6,0 °C -8,1 °C 17,7 km/h (3 Bft)
09.12.2017 10:41 -3,9 °C -3,9 °C 85 % 1017,2 hPa 0,0 mm 9,9 km/h (2 Bft) SW 229 ° 0 min 0,000 mm 0,0 UV-I 44 W/m² -6,0 °C -7,9 °C 14,5 km/h (3 Bft)
09.12.2017 10:42 -3,9 °C -3,9 °C 85 % 1017,2 hPa 0,0 mm 14,8 km/h (3 Bft) NW 308 ° 0 min 0,000 mm 0,0 UV-I 44 W/m² -6,0 °C -9,2 °C 20,9 km/h (4 Bft)
09.12.2017 10:43 -3,9 °C -3,9 °C 85 % 1017,2 hPa 0,0 mm 13,5 km/h (3 Bft) W-NW 295 ° 0 min 0,000 mm 0,0 UV-I 44 W/m² -6,0 °C -8,9 °C 20,9 km/h (4 Bft)
09.12.2017 10:44 -3,9 °C -3,9 °C 85 % 1017,2 hPa 0,0 mm 11,1 km/h (2 Bft) W-NW 291 ° 0 min 0,000 mm 0,0 UV-I 35 W/m² -6,0 °C -8,3 °C 16,1 km/h (3 Bft)
09.12.2017 10:45 -3,9 °C -3,9 °C 85 % 1017,2 hPa 0,0 mm 9,5 km/h (2 Bft) W 271 ° 0 min 0,000 mm 0,0 UV-I 33 W/m² -6,0 °C -7,8 °C 12,9 km/h (3 Bft)
09.12.2017 10:46 -3,9 °C -3,9 °C 85 % 1017,2 hPa 0,0 mm 11,9 km/h (2 Bft) W 265 ° 0 min 0,000 mm 0,0 UV-I 35 W/m² -6,0 °C -8,5 °C 14,5 km/h (3 Bft)
09.12.2017 10:47 -3,9 °C -3,9 °C 85 % 1017,3 hPa 0,0 mm 12,4 km/h (3 Bft) NW 315 ° 0 min 0,000 mm 0,0 UV-I 35 W/m² -6,0 °C -8,6 °C 19,3 km/h (3 Bft)
09.12.2017 10:48 -3,9 °C -3,9 °C 85 % 1017,3 hPa 0,0 mm 16,1 km/h (3 Bft) W-SW 252 ° 0 min 0,000 mm 0,0 UV-I 40 W/m² -6,0 °C -9,5 °C 20,9 km/h (4 Bft)
09.12.2017 10:49 -3,9 °C -3,9 °C 85 % 1017,3 hPa 0,0 mm 11,0 km/h (2 Bft) W 263 ° 0 min 0,000 mm 0,0 UV-I 42 W/m² -6,0 °C -8,3 °C 17,7 km/h (3 Bft)
09.12.2017 10:50 -3,9 °C -3,9 °C 84 % 1017,2 hPa 0,0 mm 15,2 km/h (3 Bft) W 264 ° 0 min 0,000 mm 0,0 UV-I 46 W/m² -6,2 °C -9,3 °C 22,5 km/h (4 Bft)
09.12.2017 10:51 -3,9 °C -3,9 °C 85 % 1017,2 hPa 0,0 mm 10,6 km/h (2 Bft) W-NW 285 ° 0 min 0,000 mm 0,0 UV-I 46 W/m² -6,0 °C -8,1 °C 14,5 km/h (3 Bft)
09.12.2017 10:52 -3,9 °C -3,9 °C 85 % 1017,2 hPa 0,0 mm 7,7 km/h (2 Bft) W 264 ° 0 min 0,000 mm 0,0 UV-I 46 W/m² -6,0 °C -7,2 °C 11,3 km/h (2 Bft)
09.12.2017 10:53 -3,8 °C -3,8 °C 84 % 1017,2 hPa 0,0 mm 12,4 km/h (3 Bft) W-SW 252 ° 0 min 0,000 mm 0,0 UV-I 44 W/m² -6,1 °C -8,5 °C 16,1 km/h (3 Bft)
09.12.2017 10:54 -3,9 °C -3,8 °C 84 % 1017,1 hPa 0,0 mm 13,3 km/h (3 Bft) W 269 ° 0 min 0,000 mm 0,0 UV-I 40 W/m² -6,2 °C -8,8 °C 17,7 km/h (3 Bft)
09.12.2017 10:55 -3,9 °C -3,9 °C 84 % 1017,1 hPa 0,0 mm 9,3 km/h (2 Bft) W 273 ° 0 min 0,000 mm 0,0 UV-I 39 W/m² -6,2 °C -7,8 °C 12,9 km/h (3 Bft)
09.12.2017 10:56 -3,9 °C -3,8 °C 84 % 1017,1 hPa 0,0 mm 7,6 km/h (2 Bft) W-NW 282 ° 0 min 0,000 mm 0,0 UV-I 39 W/m² -6,2 °C -7,2 °C 11,3 km/h (2 Bft)
09.12.2017 10:57 -3,9 °C -3,9 °C 84 % 1017,0 hPa 0,0 mm 8,6 km/h (2 Bft) W-NW 290 ° 0 min 0,000 mm 0,0 UV-I 37 W/m² -6,2 °C -7,5 °C 12,9 km/h (3 Bft)
09.12.2017 10:58 -3,9 °C -3,9 °C 84 % 1017,0 hPa 0,0 mm 9,0 km/h (2 Bft) W-SW 247 ° 0 min 0,000 mm 0,0 UV-I 35 W/m² -6,2 °C -7,7 °C 11,3 km/h (2 Bft)
09.12.2017 10:59 -3,8 °C -3,8 °C 85 % 1016,9 hPa 0,0 mm 6,5 km/h (2 Bft) W 281 ° 0 min 0,000 mm 0,0 UV-I 35 W/m² -5,9 °C -6,6 °C 11,3 km/h (2 Bft)
09.12.2017 11:00 -3,9 °C -3,8 °C 84 % 1017,0 hPa 0,0 mm 11,1 km/h (2 Bft) W 267 ° 0 min 0,026 mm 0,0 UV-I 39 W/m² -6,2 °C -8,3 °C 14,5 km/h (3 Bft)
09.12.2017 11:01 -3,9 °C -3,9 °C 84 % 1017,0 hPa 0,0 mm 10,4 km/h (2 Bft) W 269 ° 0 min 0,000 mm 0,0 UV-I 40 W/m² -6,2 °C -8,1 °C 14,5 km/h (3 Bft)
09.12.2017 11:02 -3,9 °C -3,8 °C 84 % 1017,1 hPa 0,0 mm 13,1 km/h (3 Bft) W-NW 284 ° 0 min 0,000 mm 0,0 UV-I 42 W/m² -6,2 °C -8,8 °C 17,7 km/h (3 Bft)
09.12.2017 11:03 -3,8 °C -3,8 °C 84 % 1017,0 hPa 0,0 mm 10,6 km/h (2 Bft) W 280 ° 0 min 0,000 mm 0,0 UV-I 44 W/m² -6,1 °C -8,0 °C 14,5 km/h (3 Bft)
09.12.2017 11:04 -3,9 °C -3,8 °C 84 % 1017,0 hPa 0,0 mm 10,1 km/h (2 Bft) W-SW 258 ° 0 min 0,000 mm 0,0 UV-I 44 W/m² -6,2 °C -8,0 °C 17,7 km/h (3 Bft)
09.12.2017 11:05 -3,8 °C -3,8 °C 84 % 1017,0 hPa 0,0 mm 15,9 km/h (3 Bft) W-SW 254 ° 0 min 0,000 mm 0,0 UV-I 40 W/m² -6,1 °C -9,3 °C 19,3 km/h (3 Bft)
09.12.2017 11:06 -3,8 °C -3,8 °C 84 % 1017,0 hPa 0,0 mm 9,7 km/h (2 Bft) W-SW 254 ° 0 min 0,000 mm 0,0 UV-I 37 W/m² -6,1 °C -7,8 °C 16,1 km/h (3 Bft)
09.12.2017 11:07 -3,8 °C -3,8 °C 84 % 1017,0 hPa 0,0 mm 4,5 km/h (1 Bft) W-SW 251 ° 0 min 0,000 mm 0,0 UV-I 35 W/m² -6,1 °C -3,8 °C 8,0 km/h (2 Bft)
09.12.2017 11:08 -3,8 °C -3,8 °C 84 % 1016,9 hPa 0,0 mm 11,3 km/h (2 Bft) W-SW 253 ° 0 min 0,000 mm 0,0 UV-I 37 W/m² -6,1 °C -8,2 °C 16,1 km/h (3 Bft)
09.12.2017 11:09 -3,8 °C -3,8 °C 84 % 1016,9 hPa 0,0 mm 7,8 km/h (2 Bft) W-SW 240 ° 0 min 0,000 mm 0,0 UV-I 37 W/m² -6,1 °C -7,1 °C 14,5 km/h (3 Bft)
09.12.2017 11:10 -3,8 °C -3,8 °C 84 % 1016,9 hPa 0,0 mm 8,0 km/h (2 Bft) W-SW 247 ° 0 min 0,000 mm 0,0 UV-I 37 W/m² -6,1 °C -7,2 °C 12,9 km/h (3 Bft)
09.12.2017 11:11 -3,8 °C -3,8 °C 84 % 1016,9 hPa 0,0 mm 12,9 km/h (3 Bft) W-NW 286 ° 0 min 0,000 mm 0,0 UV-I 33 W/m² -6,1 °C -8,6 °C 14,5 km/h (3 Bft)
09.12.2017 11:12 -3,8 °C -3,8 °C 84 % 1017,0 hPa 0,0 mm 5,6 km/h (1 Bft) W-SW 256 ° 0 min 0,000 mm 0,0 UV-I 33 W/m² -6,1 °C -6,2 °C 9,7 km/h (2 Bft)
09.12.2017 11:13 -3,8 °C -3,8 °C 84 % 1017,0 hPa 0,0 mm 6,8 km/h (2 Bft) W-SW 244 ° 0 min 0,000 mm 0,0 UV-I 33 W/m² -6,1 °C -6,7 °C 11,3 km/h (2 Bft)
09.12.2017 11:14 -3,8 °C -3,8 °C 84 % 1017,0 hPa 0,0 mm 7,2 km/h (2 Bft) W-NW 298 ° 0 min 0,000 mm 0,0 UV-I 33 W/m² -6,1 °C -6,9 °C 12,9 km/h (3 Bft)
09.12.2017 11:15 -3,8 °C -3,8 °C 84 % 1017,0 hPa 0,0 mm 9,5 km/h (2 Bft) W 265 ° 0 min 0,000 mm 0,0 UV-I 33 W/m² -6,1 °C -7,7 °C 11,3 km/h (2 Bft)
09.12.2017 11:16 -3,8 °C -3,8 °C 84 % 1017,1 hPa 0,0 mm 5,7 km/h (1 Bft) W 271 ° 0 min 0,000 mm 0,0 UV-I 33 W/m² -6,1 °C -6,3 °C 11,3 km/h (2 Bft)
09.12.2017 11:17 -3,8 °C -3,8 °C 84 % 1017,1 hPa 0,0 mm 11,9 km/h (2 Bft) W 267 ° 0 min 0,000 mm 0,0 UV-I 33 W/m² -6,1 °C -8,4 °C 16,1 km/h (3 Bft)
09.12.2017 11:18 -3,8 °C -3,8 °C 83 % 1017,0 hPa 0,0 mm 7,8 km/h (2 Bft) W 261 ° 0 min 0,000 mm 0,0 UV-I 33 W/m² -6,3 °C -7,1 °C 14,5 km/h (3 Bft)
09.12.2017 11:19 -3,8 °C -3,8 °C 83 % 1017,1 hPa 0,0 mm 5,8 km/h (2 Bft) W-SW 252 ° 0 min 0,000 mm 0,0 UV-I 35 W/m² -6,3 °C -6,3 °C 8,0 km/h (2 Bft)
09.12.2017 11:20 -3,8 °C -3,8 °C 83 % 1017,1 hPa 0,0 mm 8,3 km/h (2 Bft) W 263 ° 0 min 0,000 mm 0,0 UV-I 39 W/m² -6,3 °C -7,3 °C 11,3 km/h (2 Bft)
09.12.2017 11:21 -3,8 °C -3,8 °C 83 % 1017,1 hPa 0,0 mm 7,3 km/h (2 Bft) W-NW 301 ° 0 min 0,000 mm 0,0 UV-I 39 W/m² -6,3 °C -6,9 °C 14,5 km/h (3 Bft)
09.12.2017 11:22 -3,8 °C -3,8 °C 84 % 1017,1 hPa 0,0 mm 9,3 km/h (2 Bft) NW 305 ° 0 min 0,000 mm 0,0 UV-I 37 W/m² -6,1 °C -7,6 °C 14,5 km/h (3 Bft)
09.12.2017 11:23 -3,8 °C -3,8 °C 84 % 1017,1 hPa 0,0 mm 10,6 km/h (2 Bft) W 265 ° 0 min 0,000 mm 0,0 UV-I 32 W/m² -6,1 °C -8,0 °C 16,1 km/h (3 Bft)
09.12.2017 11:24 -3,8 °C -3,8 °C 83 % 1017,1 hPa 0,0 mm 11,7 km/h (2 Bft) W-SW 253 ° 0 min 0,000 mm 0,0 UV-I 32 W/m² -6,3 °C -8,3 °C 14,5 km/h (3 Bft)
09.12.2017 11:25 -3,8 °C -3,8 °C 83 % 1017,1 hPa 0,0 mm 4,8 km/h (1 Bft) W-SW 258 ° 0 min 0,000 mm 0,0 UV-I 32 W/m² -6,3 °C -5,8 °C 9,7 km/h (2 Bft)
09.12.2017 11:26 -3,8 °C -3,8 °C 83 % 1017,1 hPa 0,0 mm 14,2 km/h (3 Bft) W 260 ° 0 min 0,000 mm 0,0 UV-I 33 W/m² -6,3 °C -8,9 °C 25,7 km/h (4 Bft)
09.12.2017 11:27 -3,8 °C -3,8 °C 83 % 1017,1 hPa 0,0 mm 13,8 km/h (3 Bft) W 277 ° 0 min 0,000 mm 0,0 UV-I 33 W/m² -6,3 °C -8,8 °C 19,3 km/h (3 Bft)
09.12.2017 11:28 -3,8 °C -3,8 °C 83 % 1017,1 hPa 0,0 mm 12,3 km/h (3 Bft) W 269 ° 0 min 0,000 mm 0,0 UV-I 33 W/m² -6,3 °C -8,5 °C 16,1 km/h (3 Bft)
09.12.2017 11:29 -3,8 °C -3,8 °C 83 % 1017,1 hPa 0,0 mm 10,2 km/h (2 Bft) W 277 ° 0 min 0,000 mm 0,0 UV-I 26 W/m² -6,3 °C -7,9 °C 16,1 km/h (3 Bft)
09.12.2017 11:30 -3,8 °C -3,8 °C 83 % 1017,1 hPa 0,0 mm 8,9 km/h (2 Bft) W-SW 248 ° 0 min 0,000 mm 0,0 UV-I 28 W/m² -6,3 °C -7,5 °C 14,5 km/h (3 Bft)
09.12.2017 11:31 -3,8 °C -3,8 °C 83 % 1017,1 hPa 0,0 mm 15,1 km/h (3 Bft) W 276 ° 0 min 0,000 mm 0,0 UV-I 33 W/m² -6,3 °C -9,1 °C 20,9 km/h (4 Bft)
09.12.2017 11:32 -3,8 °C -3,8 °C 82 % 1017,1 hPa 0,0 mm 11,7 km/h (2 Bft) W 270 ° 0 min 0,000 mm 0,0 UV-I 40 W/m² -6,4 °C -8,3 °C 16,1 km/h (3 Bft)
09.12.2017 11:33 -3,8 °C -3,8 °C 82 % 1017,1 hPa 0,0 mm 14,6 km/h (3 Bft) W-NW 289 ° 0 min 0,000 mm 0,0 UV-I 40 W/m² -6,4 °C -9,0 °C 17,7 km/h (3 Bft)
09.12.2017 11:34 -3,8 °C -3,8 °C 82 % 1017,1 hPa 0,0 mm 12,9 km/h (3 Bft) W 271 ° 0 min 0,000 mm 0,0 UV-I 39 W/m² -6,4 °C -8,6 °C 16,1 km/h (3 Bft)
09.12.2017 11:35 -3,8 °C -3,8 °C 82 % 1017,2 hPa 0,0 mm 10,3 km/h (2 Bft) W-NW 291 ° 0 min 0,000 mm 0,0 UV-I 40 W/m² -6,4 °C -7,9 °C 19,3 km/h (3 Bft)
09.12.2017 11:36 -3,8 °C -3,8 °C 82 % 1017,2 hPa 0,0 mm 15,2 km/h (3 Bft) W-SW 238 ° 0 min 0,000 mm 0,0 UV-I 39 W/m² -6,4 °C -9,1 °C 24,1 km/h (4 Bft)
09.12.2017 11:37 -3,8 °C -3,8 °C 82 % 1017,2 hPa 0,0 mm 9,9 km/h (2 Bft) W-SW 244 ° 0 min 0,000 mm 0,0 UV-I 33 W/m² -6,4 °C -7,8 °C 14,5 km/h (3 Bft)
09.12.2017 11:38 -3,8 °C -3,8 °C 82 % 1017,2 hPa 0,0 mm 6,8 km/h (2 Bft) W 279 ° 0 min 0,000 mm 0,0 UV-I 33 W/m² -6,4 °C -6,7 °C 17,7 km/h (3 Bft)
09.12.2017 11:39 -3,8 °C -3,8 °C 82 % 1017,2 hPa 0,0 mm 11,7 km/h (2 Bft) W 271 ° 0 min 0,000 mm 0,0 UV-I 32 W/m² -6,4 °C -8,3 °C 19,3 km/h (3 Bft)
09.12.2017 11:40 -3,8 °C -3,8 °C 82 % 1017,3 hPa 0,0 mm 16,0 km/h (3 Bft) W 259 ° 0 min 0,000 mm 0,0 UV-I 28 W/m² -6,4 °C -9,3 °C 19,3 km/h (3 Bft)
09.12.2017 11:41 -3,8 °C -3,8 °C 83 % 1017,3 hPa 0,0 mm 8,3 km/h (2 Bft) N 360 ° 0 min 0,000 mm 0,0 UV-I 28 W/m² -6,3 °C -7,3 °C 19,3 km/h (3 Bft)
09.12.2017 11:42 -3,8 °C -3,8 °C 82 % 1017,2 hPa 0,0 mm 9,6 km/h (2 Bft) W-NW 296 ° 0 min 0,000 mm 0,0 UV-I 28 W/m² -6,4 °C -7,7 °C 16,1 km/h (3 Bft)
09.12.2017 11:43 -3,8 °C -3,8 °C 83 % 1017,2 hPa 0,0 mm 9,2 km/h (2 Bft) W 263 ° 0 min 0,000 mm 0,0 UV-I 26 W/m² -6,3 °C -7,6 °C 17,7 km/h (3 Bft)
09.12.2017 11:44 -3,8 °C -3,8 °C 82 % 1017,3 hPa 0,0 mm 16,9 km/h (3 Bft) W-SW 252 ° 0 min 0,000 mm 0,0 UV-I 23 W/m² -6,4 °C -9,5 °C 24,1 km/h (4 Bft)
09.12.2017 11:45 -3,8 °C -3,8 °C 82 % 1017,2 hPa 0,0 mm 10,9 km/h (2 Bft) W 277 ° 0 min 0,000 mm 0,0 UV-I 21 W/m² -6,4 °C -8,1 °C 19,3 km/h (3 Bft)
09.12.2017 11:46 -3,8 °C -3,8 °C 82 % 1017,3 hPa 0,0 mm 10,4 km/h (2 Bft) W-NW 295 ° 0 min 0,000 mm 0,0 UV-I 19 W/m² -6,4 °C -8,0 °C 16,1 km/h (3 Bft)
09.12.2017 11:47 -3,8 °C -3,8 °C 82 % 1017,3 hPa 0,0 mm 9,0 km/h (2 Bft) W-NW 283 ° 0 min 0,000 mm 0,0 UV-I 21 W/m² -6,4 °C -7,5 °C 16,1 km/h (3 Bft)
09.12.2017 11:48 -3,9 °C -3,8 °C 82 % 1017,2 hPa 0,0 mm 14,9 km/h (3 Bft) W 265 ° 0 min 0,000 mm 0,0 UV-I 21 W/m² -6,5 °C -9,2 °C 27,4 km/h (4 Bft)
09.12.2017 11:49 -3,9 °C -3,9 °C 82 % 1017,2 hPa 0,0 mm 14,0 km/h (3 Bft) W-NW 301 ° 0 min 0,000 mm 0,0 UV-I 21 W/m² -6,5 °C -9,0 °C 20,9 km/h (4 Bft)
09.12.2017 11:50 -3,9 °C -3,9 °C 82 % 1017,2 hPa 0,0 mm 15,7 km/h (3 Bft) W 265 ° 0 min 0,000 mm 0,0 UV-I 19 W/m² -6,5 °C -9,4 °C 27,4 km/h (4 Bft)
09.12.2017 11:51 -3,9 °C -3,9 °C 82 % 1017,1 hPa 0,0 mm 21,3 km/h (4 Bft) W-SW 246 ° 0 min 0,000 mm 0,0 UV-I 18 W/m² -6,5 °C -10,4 °C 30,6 km/h (5 Bft)
09.12.2017 11:52 -3,9 °C -3,9 °C 82 % 1017,1 hPa 0,0 mm 19,8 km/h (3 Bft) W-SW 252 ° 0 min 0,000 mm 0,0 UV-I 19 W/m² -6,5 °C -10,1 °C 27,4 km/h (4 Bft)
09.12.2017 11:53 -4,0 °C -3,9 °C 82 % 1017,2 hPa 0,0 mm 14,7 km/h (3 Bft) W-NW 284 ° 0 min 0,000 mm 0,0 UV-I 18 W/m² -6,6 °C -9,3 °C 22,5 km/h (4 Bft)
09.12.2017 11:54 -4,0 °C -3,9 °C 82 % 1017,1 hPa 0,0 mm 15,7 km/h (3 Bft) W 261 ° 0 min 0,000 mm 0,0 UV-I 18 W/m² -6,6 °C -9,5 °C 19,3 km/h (3 Bft)
09.12.2017 11:55 -4,0 °C -4,0 °C 82 % 1017,1 hPa 0,0 mm 15,4 km/h (3 Bft) W 261 ° 0 min 0,000 mm 0,0 UV-I 18 W/m² -6,6 °C -9,4 °C 22,5 km/h (4 Bft)
09.12.2017 11:56 -4,0 °C -4,0 °C 82 % 1017,1 hPa 0,0 mm 18,8 km/h (3 Bft) W-NW 292 ° 0 min 0,000 mm 0,0 UV-I 14 W/m² -6,6 °C -10,1 °C 25,7 km/h (4 Bft)
09.12.2017 11:57 -4,1 °C -4,0 °C 82 % 1017,1 hPa 0,0 mm 10,3 km/h (2 Bft) W-SW 242 ° 0 min 0,000 mm 0,0 UV-I 14 W/m² -6,7 °C -8,3 °C 16,1 km/h (3 Bft)
09.12.2017 11:58 -4,1 °C -4,1 °C 83 % 1017,1 hPa 0,0 mm 13,3 km/h (3 Bft) W 272 ° 0 min 0,000 mm 0,0 UV-I 12 W/m² -6,5 °C -9,1 °C 20,9 km/h (4 Bft)
09.12.2017 11:59 -4,1 °C -4,1 °C 82 % 1017,0 hPa 0,0 mm 16,0 km/h (3 Bft) W 273 ° 0 min 0,000 mm 0,0 UV-I 14 W/m² -6,7 °C -9,7 °C 22,5 km/h (4 Bft)
09.12.2017 12:00 -4,1 °C -4,1 °C 82 % 1017,0 hPa 0,0 mm 15,3 km/h (3 Bft) W-NW 302 ° 0 min 0,025 mm 0,0 UV-I 14 W/m² -6,7 °C -9,5 °C 20,9 km/h (4 Bft)
09.12.2017 12:01 -4,1 °C -4,1 °C 82 % 1017,0 hPa 0,0 mm 11,7 km/h (2 Bft) W-NW 284 ° 0 min 0,000 mm 0,0 UV-I 14 W/m² -6,7 °C -8,7 °C 16,1 km/h (3 Bft)
09.12.2017 12:02 -4,1 °C -4,1 °C 82 % 1017,1 hPa 0,0 mm 12,7 km/h (3 Bft) W 263 ° 0 min 0,000 mm 0,0 UV-I 14 W/m² -6,7 °C -8,9 °C 17,7 km/h (3 Bft)
09.12.2017 12:03 -4,1 °C -4,1 °C 83 % 1017,0 hPa 0,0 mm 7,9 km/h (2 Bft) W-NW 303 ° 0 min 0,000 mm 0,0 UV-I 14 W/m² -6,5 °C -7,5 °C 16,1 km/h (3 Bft)
09.12.2017 12:04 -4,1 °C -4,1 °C 83 % 1017,0 hPa 0,0 mm 12,5 km/h (3 Bft) W 276 ° 0 min 0,000 mm 0,0 UV-I 18 W/m² -6,5 °C -8,9 °C 14,5 km/h (3 Bft)
09.12.2017 12:05 -4,2 °C -4,1 °C 83 % 1017,0 hPa 0,0 mm 11,5 km/h (2 Bft) W-NW 290 ° 0 min 0,000 mm 0,0 UV-I 19 W/m² -6,6 °C -8,8 °C 16,1 km/h (3 Bft)
09.12.2017 12:06 -4,1 °C -4,1 °C 83 % 1017,1 hPa 0,0 mm 9,8 km/h (2 Bft) W-NW 298 ° 0 min 0,000 mm 0,0 UV-I 19 W/m² -6,5 °C -8,2 °C 16,1 km/h (3 Bft)
09.12.2017 12:07 -4,2 °C -4,1 °C 83 % 1017,2 hPa 0,0 mm 12,4 km/h (3 Bft) W-SW 251 ° 0 min 0,000 mm 0,0 UV-I 21 W/m² -6,6 °C -9,0 °C 20,9 km/h (4 Bft)
09.12.2017 12:08 -4,2 °C -4,2 °C 83 % 1017,1 hPa 0,0 mm 8,3 km/h (2 Bft) W 260 ° 0 min 0,000 mm 0,0 UV-I 19 W/m² -6,6 °C -7,8 °C 17,7 km/h (3 Bft)
09.12.2017 12:09 -4,2 °C -4,2 °C 83 % 1017,1 hPa 0,0 mm 19,2 km/h (3 Bft) W-SW 251 ° 0 min 0,000 mm 0,0 UV-I 19 W/m² -6,6 °C -10,4 °C 25,7 km/h (4 Bft)
09.12.2017 12:10 -4,2 °C -4,2 °C 83 % 1017,0 hPa 0,0 mm 16,4 km/h (3 Bft) S-SW 201 ° 0 min 0,000 mm 0,0 UV-I 18 W/m² -6,6 °C -9,9 °C 29,0 km/h (5 Bft)
09.12.2017 12:11 -4,2 °C -4,2 °C 83 % 1017,0 hPa 0,0 mm 17,8 km/h (3 Bft) W-NW 284 ° 0 min 0,000 mm 0,0 UV-I 14 W/m² -6,6 °C -10,2 °C 27,4 km/h (4 Bft)
09.12.2017 12:12 -4,2 °C -4,2 °C 83 % 1017,1 hPa 0,0 mm 17,5 km/h (3 Bft) W-SW 248 ° 0 min 0,000 mm 0,0 UV-I 12 W/m² -6,6 °C -10,1 °C 24,1 km/h (4 Bft)
09.12.2017 12:13 -4,2 °C -4,2 °C 83 % 1017,2 hPa 0,0 mm 11,6 km/h (2 Bft) SW 227 ° 0 min 0,000 mm 0,0 UV-I 12 W/m² -6,6 °C -8,8 °C 17,7 km/h (3 Bft)
09.12.2017 12:14 -4,2 °C -4,2 °C 83 % 1017,2 hPa 0,0 mm 11,7 km/h (2 Bft) W-NW 300 ° 0 min 0,000 mm 0,0 UV-I 14 W/m² -6,6 °C -8,8 °C 19,3 km/h (3 Bft)
09.12.2017 12:15 -4,2 °C -4,2 °C 83 % 1017,2 hPa 0,0 mm 14,8 km/h (3 Bft) W 262 ° 0 min 0,000 mm 0,0 UV-I 14 W/m² -6,6 °C -9,6 °C 17,7 km/h (3 Bft)
09.12.2017 12:16 -4,2 °C -4,2 °C 83 % 1017,2 hPa 0,0 mm 13,8 km/h (3 Bft) W 271 ° 0 min 0,000 mm 0,0 UV-I 12 W/m² -6,6 °C -9,3 °C 20,9 km/h (4 Bft)
09.12.2017 12:17 -4,2 °C -4,2 °C 83 % 1017,2 hPa 0,0 mm 11,8 km/h (2 Bft) W-NW 286 ° 0 min 0,000 mm 0,0 UV-I 12 W/m² -6,6 °C -8,8 °C 16,1 km/h (3 Bft)
09.12.2017 12:18 -4,2 °C -4,2 °C 83 % 1017,2 hPa 0,0 mm 21,5 km/h (4 Bft) W-SW 249 ° 0 min 0,000 mm 0,0 UV-I 12 W/m² -6,6 °C -10,8 °C 30,6 km/h (5 Bft)
09.12.2017 12:19 -4,2 °C -4,2 °C 83 % 1017,2 hPa 0,0 mm 11,5 km/h (2 Bft) W 263 ° 0 min 0,000 mm 0,0 UV-I 14 W/m² -6,6 °C -8,8 °C 22,5 km/h (4 Bft)
09.12.2017 12:20 -4,2 °C -4,2 °C 83 % 1017,2 hPa 0,0 mm 19,1 km/h (3 Bft) W 268 ° 0 min 0,000 mm 0,0 UV-I 16 W/m² -6,6 °C -10,4 °C 32,2 km/h (5 Bft)
09.12.2017 12:21 -4,2 °C -4,2 °C 83 % 1017,2 hPa 0,0 mm 19,0 km/h (3 Bft) W 264 ° 0 min 0,000 mm 0,0 UV-I 19 W/m² -6,6 °C -10,4 °C 32,2 km/h (5 Bft)
09.12.2017 12:22 -4,2 °C -4,2 °C 83 % 1017,2 hPa 0,0 mm 17,9 km/h (3 Bft) W-SW 255 ° 0 min 0,000 mm 0,0 UV-I 18 W/m² -6,6 °C -10,2 °C 22,5 km/h (4 Bft)
09.12.2017 12:23 -4,2 °C -4,2 °C 83 % 1017,2 hPa 0,0 mm 14,2 km/h (3 Bft) W-SW 242 ° 0 min 0,000 mm 0,0 UV-I 14 W/m² -6,6 °C -9,4 °C 19,3 km/h (3 Bft)
09.12.2017 12:24 -4,2 °C -4,2 °C 83 % 1017,3 hPa 0,0 mm 11,3 km/h (2 Bft) W-SW 255 ° 0 min 0,000 mm 0,0 UV-I 21 W/m² -6,6 °C -8,7 °C 16,1 km/h (3 Bft)
09.12.2017 12:25 -4,3 °C -4,2 °C 83 % 1017,3 hPa 0,0 mm 9,1 km/h (2 Bft) W-SW 255 ° 0 min 0,000 mm 0,0 UV-I 30 W/m² -6,7 °C -8,2 °C 16,1 km/h (3 Bft)
09.12.2017 12:26 -4,2 °C -4,2 °C 83 % 1017,2 hPa 0,0 mm 6,8 km/h (2 Bft) W 261 ° 0 min 0,000 mm 0,0 UV-I 40 W/m² -6,6 °C -7,2 °C 11,3 km/h (2 Bft)
09.12.2017 12:27 -4,2 °C -4,2 °C 83 % 1017,3 hPa 0,0 mm 15,1 km/h (3 Bft) W 271 ° 0 min 0,000 mm 0,0 UV-I 30 W/m² -6,6 °C -9,6 °C 20,9 km/h (4 Bft)
09.12.2017 12:28 -4,2 °C -4,2 °C 83 % 1017,2 hPa 0,0 mm 19,0 km/h (3 Bft) W 275 ° 0 min 0,000 mm 0,0 UV-I 21 W/m² -6,6 °C -10,4 °C 24,1 km/h (4 Bft)
09.12.2017 12:29 -4,2 °C -4,2 °C 83 % 1017,2 hPa 0,0 mm 14,9 km/h (3 Bft) SW 221 ° 0 min 0,000 mm 0,0 UV-I 16 W/m² -6,6 °C -9,6 °C 20,9 km/h (4 Bft)
09.12.2017 12:30 -4,2 °C -4,2 °C 83 % 1017,3 hPa 0,0 mm 9,8 km/h (2 Bft) SW 225 ° 0 min 0,000 mm 0,0 UV-I 16 W/m² -6,6 °C -8,3 °C 17,7 km/h (3 Bft)
09.12.2017 12:31 -4,2 °C -4,2 °C 83 % 1017,3 hPa 0,0 mm 16,8 km/h (3 Bft) W-SW 254 ° 0 min 0,000 mm 0,0 UV-I 16 W/m² -6,6 °C -10,0 °C 24,1 km/h (4 Bft)
09.12.2017 12:32 -4,2 °C -4,2 °C 83 % 1017,2 hPa 0,0 mm 12,6 km/h (3 Bft) W-NW 295 ° 0 min 0,000 mm 0,0 UV-I 16 W/m² -6,6 °C -9,0 °C 19,3 km/h (3 Bft)
09.12.2017 12:33 -4,2 °C -4,2 °C 83 % 1017,2 hPa 0,0 mm 7,2 km/h (2 Bft) W 277 ° 0 min 0,000 mm 0,0 UV-I 16 W/m² -6,6 °C -7,4 °C 12,9 km/h (3 Bft)
09.12.2017 12:34 -4,2 °C -4,2 °C 83 % 1017,3 hPa 0,0 mm 18,9 km/h (3 Bft) W-NW 297 ° 0 min 0,000 mm 0,0 UV-I 18 W/m² -6,6 °C -10,4 °C 24,1 km/h (4 Bft)
09.12.2017 12:35 -4,2 °C -4,2 °C 83 % 1017,3 hPa 0,0 mm 15,2 km/h (3 Bft) W-SW 250 ° 0 min 0,000 mm 0,0 UV-I 18 W/m² -6,6 °C -9,6 °C 20,9 km/h (4 Bft)
09.12.2017 12:36 -4,2 °C -4,2 °C 83 % 1017,3 hPa 0,0 mm 7,1 km/h (2 Bft) S-SW 202 ° 0 min 0,000 mm 0,0 UV-I 18 W/m² -6,6 °C -7,3 °C 12,9 km/h (3 Bft)
09.12.2017 12:37 -4,2 °C -4,2 °C 83 % 1017,2 hPa 0,0 mm 8,5 km/h (2 Bft) W-SW 240 ° 0 min 0,000 mm 0,0 UV-I 19 W/m² -6,6 °C -7,8 °C 14,5 km/h (3 Bft)
09.12.2017 12:38 -4,1 °C -4,1 °C 83 % 1017,2 hPa 0,0 mm 17,6 km/h (3 Bft) W-NW 282 ° 0 min 0,000 mm 0,0 UV-I 23 W/m² -6,5 °C -10,0 °C 27,4 km/h (4 Bft)
09.12.2017 12:39 -4,2 °C -4,1 °C 83 % 1017,2 hPa 0,0 mm 9,0 km/h (2 Bft) W-SW 254 ° 0 min 0,000 mm 0,0 UV-I 21 W/m² -6,6 °C -8,0 °C 14,5 km/h (3 Bft)
09.12.2017 12:40 -4,1 °C -4,1 °C 83 % 1017,3 hPa 0,0 mm 11,3 km/h (2 Bft) W-SW 250 ° 0 min 0,000 mm 0,0 UV-I 21 W/m² -6,5 °C -8,6 °C 17,7 km/h (3 Bft)
09.12.2017 12:41 -4,1 °C -4,1 °C 83 % 1017,3 hPa 0,0 mm 14,2 km/h (3 Bft) W 260 ° 0 min 0,000 mm 0,0 UV-I 25 W/m² -6,5 °C -9,3 °C 22,5 km/h (4 Bft)
09.12.2017 12:42 -4,1 °C -4,1 °C 83 % 1017,2 hPa 0,0 mm 15,0 km/h (3 Bft) W 259 ° 0 min 0,000 mm 0,0 UV-I 30 W/m² -6,5 °C -9,5 °C 19,3 km/h (3 Bft)
09.12.2017 12:43 -4,1 °C -4,1 °C 83 % 1017,3 hPa 0,0 mm 13,4 km/h (3 Bft) W 267 ° 0 min 0,000 mm 0,0 UV-I 33 W/m² -6,5 °C -9,1 °C 17,7 km/h (3 Bft)
09.12.2017 12:44 -4,1 °C -4,1 °C 83 % 1017,3 hPa 0,0 mm 15,1 km/h (3 Bft) W 267 ° 0 min 0,000 mm 0,0 UV-I 39 W/m² -6,5 °C -9,5 °C 22,5 km/h (4 Bft)
09.12.2017 12:45 -4,0 °C -4,0 °C 83 % 1017,3 hPa 0,0 mm 9,9 km/h (2 Bft) W-SW 254 ° 0 min 0,000 mm 0,0 UV-I 32 W/m² -6,4 °C -8,1 °C 12,9 km/h (3 Bft)
09.12.2017 12:46 -4,0 °C -3,9 °C 83 % 1017,3 hPa 0,0 mm 11,8 km/h (2 Bft) W 259 ° 0 min 0,000 mm 0,0 UV-I 30 W/m² -6,4 °C -8,6 °C 16,1 km/h (3 Bft)
09.12.2017 12:47 -3,9 °C -3,9 °C 83 % 1017,3 hPa 0,0 mm 10,8 km/h (2 Bft) W 269 ° 0 min 0,000 mm 0,0 UV-I 32 W/m² -6,4 °C -8,2 °C 16,1 km/h (3 Bft)
09.12.2017 12:48 -3,9 °C -3,9 °C 83 % 1017,3 hPa 0,0 mm 12,6 km/h (3 Bft) W-NW 298 ° 0 min 0,000 mm 0,0 UV-I 30 W/m² -6,4 °C -8,7 °C 17,7 km/h (3 Bft)
09.12.2017 12:49 -3,9 °C -3,9 °C 83 % 1017,3 hPa 0,0 mm 8,5 km/h (2 Bft) W-NW 288 ° 0 min 0,000 mm 0,0 UV-I 25 W/m² -6,4 °C -7,5 °C 12,9 km/h (3 Bft)
09.12.2017 12:50 -3,8 °C -3,8 °C 83 % 1017,3 hPa 0,0 mm 8,0 km/h (2 Bft) SW 227 ° 0 min 0,000 mm 0,0 UV-I 25 W/m² -6,3 °C -7,2 °C 11,3 km/h (2 Bft)
09.12.2017 12:51 -3,8 °C -3,8 °C 83 % 1017,4 hPa 0,0 mm 8,7 km/h (2 Bft) SW 228 ° 0 min 0,000 mm 0,0 UV-I 35 W/m² -6,3 °C -7,4 °C 14,5 km/h (3 Bft)
09.12.2017 12:52 -3,8 °C -3,8 °C 83 % 1017,4 hPa 0,0 mm 8,3 km/h (2 Bft) W 271 ° 0 min 0,000 mm 0,0 UV-I 39 W/m² -6,3 °C -7,3 °C 11,3 km/h (2 Bft)
09.12.2017 12:53 -3,8 °C -3,8 °C 83 % 1017,4 hPa 0,0 mm 9,3 km/h (2 Bft) W 262 ° 0 min 0,000 mm 0,0 UV-I 40 W/m² -6,3 °C -7,6 °C 16,1 km/h (3 Bft)
09.12.2017 12:54 -3,8 °C -3,8 °C 83 % 1017,5 hPa 0,0 mm 7,6 km/h (2 Bft) W-SW 251 ° 0 min 0,000 mm 0,0 UV-I 40 W/m² -6,3 °C -7,1 °C 11,3 km/h (2 Bft)
09.12.2017 12:55 -3,8 °C -3,8 °C 83 % 1017,5 hPa 0,0 mm 5,9 km/h (2 Bft) W-SW 254 ° 0 min 0,000 mm 0,0 UV-I 33 W/m² -6,3 °C -6,3 °C 11,3 km/h (2 Bft)
09.12.2017 12:56 -3,8 °C -3,8 °C 83 % 1017,5 hPa 0,0 mm 8,2 km/h (2 Bft) SW 231 ° 0 min 0,000 mm 0,0 UV-I 33 W/m² -6,3 °C -7,3 °C 11,3 km/h (2 Bft)
09.12.2017 12:57 -3,8 °C -3,8 °C 83 % 1017,5 hPa 0,0 mm 13,2 km/h (3 Bft) W-SW 255 ° 0 min 0,000 mm 0,0 UV-I 35 W/m² -6,3 °C -8,7 °C 17,7 km/h (3 Bft)
09.12.2017 12:58 -3,8 °C -3,8 °C 83 % 1017,5 hPa 0,0 mm 10,4 km/h (2 Bft) W-SW 252 ° 0 min 0,000 mm 0,0 UV-I 40 W/m² -6,3 °C -8,0 °C 17,7 km/h (3 Bft)
09.12.2017 12:59 -3,7 °C -3,7 °C 83 % 1017,5 hPa 0,0 mm 17,6 km/h (3 Bft) NW 313 ° 0 min 0,000 mm 0,0 UV-I 40 W/m² -6,2 °C -9,5 °C 27,4 km/h (4 Bft)
09.12.2017 13:00 -3,7 °C -3,7 °C 82 % 1017,5 hPa 0,0 mm 11,5 km/h (2 Bft) W-SW 243 ° 0 min 0,026 mm 0,0 UV-I 49 W/m² -6,3 °C -8,2 °C 19,3 km/h (3 Bft)
09.12.2017 13:01 -3,7 °C -3,7 °C 82 % 1017,5 hPa 0,0 mm 13,7 km/h (3 Bft) SW 223 ° 0 min 0,000 mm 0,0 UV-I 44 W/m² -6,3 °C -8,7 °C 30,6 km/h (5 Bft)
09.12.2017 13:02 -3,7 °C -3,7 °C 82 % 1017,5 hPa 0,0 mm 18,2 km/h (3 Bft) W 275 ° 0 min 0,000 mm 0,0 UV-I 28 W/m² -6,3 °C -9,6 °C 33,8 km/h (5 Bft)
09.12.2017 13:03 -3,7 °C -3,7 °C 82 % 1017,5 hPa 0,0 mm 12,7 km/h (3 Bft) W-SW 238 ° 0 min 0,000 mm 0,0 UV-I 32 W/m² -6,3 °C -8,5 °C 19,3 km/h (3 Bft)
09.12.2017 13:04 -3,6 °C -3,6 °C 81 % 1017,4 hPa 0,0 mm 12,6 km/h (3 Bft) W-NW 292 ° 0 min 0,000 mm 0,0 UV-I 33 W/m² -6,4 °C -8,3 °C 17,7 km/h (3 Bft)
09.12.2017 13:05 -3,7 °C -3,6 °C 81 % 1017,4 hPa 0,0 mm 9,9 km/h (2 Bft) W-SW 252 ° 0 min 0,000 mm 0,0 UV-I 28 W/m² -6,5 °C -7,7 °C 12,9 km/h (3 Bft)
09.12.2017 13:06 -3,7 °C -3,7 °C 81 % 1017,4 hPa 0,0 mm 11,8 km/h (2 Bft) W 260 ° 0 min 0,000 mm 0,0 UV-I 25 W/m² -6,5 °C -8,2 °C 19,3 km/h (3 Bft)
09.12.2017 13:07 -3,7 °C -3,7 °C 81 % 1017,5 hPa 0,0 mm 12,1 km/h (2 Bft) W-SW 249 ° 0 min 0,000 mm 0,0 UV-I 23 W/m² -6,5 °C -8,3 °C 17,7 km/h (3 Bft)
09.12.2017 13:08 -3,7 °C -3,7 °C 81 % 1017,4 hPa 0,0 mm 14,6 km/h (3 Bft) W-SW 237 ° 0 min 0,000 mm 0,0 UV-I 25 W/m² -6,5 °C -8,9 °C 19,3 km/h (3 Bft)
09.12.2017 13:09 -3,7 °C -3,7 °C 81 % 1017,4 hPa 0,0 mm 10,2 km/h (2 Bft) W-SW 249 ° 0 min 0,000 mm 0,0 UV-I 26 W/m² -6,5 °C -7,8 °C 17,7 km/h (3 Bft)
09.12.2017 13:10 -3,7 °C -3,7 °C 82 % 1017,4 hPa 0,0 mm 15,1 km/h (3 Bft) W-NW 296 ° 0 min 0,000 mm 0,0 UV-I 25 W/m² -6,3 °C -9,0 °C 20,9 km/h (4 Bft)
09.12.2017 13:11 -3,7 °C -3,7 °C 81 % 1017,3 hPa 0,0 mm 10,8 km/h (2 Bft) W 268 ° 0 min 0,000 mm 0,0 UV-I 21 W/m² -6,5 °C -8,0 °C 14,5 km/h (3 Bft)
09.12.2017 13:12 -3,7 °C -3,7 °C 81 % 1017,4 hPa 0,0 mm 5,0 km/h (1 Bft) W-SW 248 ° 0 min 0,000 mm 0,0 UV-I 19 W/m² -6,5 °C -5,8 °C 8,0 km/h (2 Bft)
09.12.2017 13:13 -3,7 °C -3,7 °C 81 % 1017,4 hPa 0,0 mm 12,1 km/h (2 Bft) W 262 ° 0 min 0,000 mm 0,0 UV-I 18 W/m² -6,5 °C -8,3 °C 17,7 km/h (3 Bft)
09.12.2017 13:14 -3,8 °C -3,7 °C 81 % 1017,4 hPa 0,0 mm 15,5 km/h (3 Bft) SW 228 ° 0 min 0,000 mm 0,0 UV-I 16 W/m² -6,6 °C -9,2 °C 19,3 km/h (3 Bft)
09.12.2017 13:15 -3,8 °C -3,7 °C 81 % 1017,4 hPa 0,0 mm 8,5 km/h (2 Bft) W 279 ° 0 min 0,000 mm 0,0 UV-I 14 W/m² -6,6 °C -7,4 °C 17,7 km/h (3 Bft)
09.12.2017 13:16 -3,8 °C -3,8 °C 81 % 1017,4 hPa 0,0 mm 13,4 km/h (3 Bft) W 275 ° 0 min 0,000 mm 0,0 UV-I 16 W/m² -6,6 °C -8,7 °C 25,7 km/h (4 Bft)
09.12.2017 13:17 -3,8 °C -3,8 °C 81 % 1017,4 hPa 0,0 mm 15,0 km/h (3 Bft) W 260 ° 0 min 0,000 mm 0,0 UV-I 16 W/m² -6,6 °C -9,1 °C 24,1 km/h (4 Bft)
09.12.2017 13:18 -3,8 °C -3,8 °C 81 % 1017,4 hPa 0,0 mm 12,4 km/h (3 Bft) W-NW 294 ° 0 min 0,000 mm 0,0 UV-I 18 W/m² -6,6 °C -8,5 °C 17,7 km/h (3 Bft)
09.12.2017 13:19 -3,8 °C -3,8 °C 81 % 1017,4 hPa 0,0 mm 12,4 km/h (3 Bft) W 269 ° 0 min 0,000 mm 0,0 UV-I 16 W/m² -6,6 °C -8,5 °C 16,1 km/h (3 Bft)
09.12.2017 13:20 -3,8 °C -3,8 °C 80 % 1017,4 hPa 0,0 mm 14,7 km/h (3 Bft) W-NW 303 ° 0 min 0,000 mm 0,0 UV-I 16 W/m² -6,7 °C -9,0 °C 20,9 km/h (4 Bft)
09.12.2017 13:21 -3,9 °C -3,8 °C 80 % 1017,4 hPa 0,0 mm 10,7 km/h (2 Bft) W-NW 288 ° 0 min 0,000 mm 0,0 UV-I 18 W/m² -6,8 °C -8,2 °C 17,7 km/h (3 Bft)
09.12.2017 13:22 -3,9 °C -3,8 °C 81 % 1017,4 hPa 0,0 mm 8,7 km/h (2 Bft) S 191 ° 0 min 0,000 mm 0,0 UV-I 21 W/m² -6,7 °C -7,6 °C 14,5 km/h (3 Bft)
09.12.2017 13:23 -3,9 °C -3,9 °C 81 % 1017,4 hPa 0,0 mm 6,4 km/h (2 Bft) W-SW 242 ° 0 min 0,000 mm 0,0 UV-I 25 W/m² -6,7 °C -6,7 °C 14,5 km/h (3 Bft)
09.12.2017 13:24 -3,9 °C -3,9 °C 81 % 1017,4 hPa 0,0 mm 10,2 km/h (2 Bft) W 270 ° 0 min 0,000 mm 0,0 UV-I 21 W/m² -6,7 °C -8,0 °C 12,9 km/h (3 Bft)
09.12.2017 13:25 -3,9 °C -3,8 °C 80 % 1017,4 hPa 0,0 mm 13,7 km/h (3 Bft) W 263 ° 0 min 0,000 mm 0,0 UV-I 21 W/m² -6,8 °C -8,9 °C 16,1 km/h (3 Bft)
09.12.2017 13:26 -3,9 °C -3,9 °C 80 % 1017,4 hPa 0,0 mm 12,0 km/h (2 Bft) W-NW 282 ° 0 min 0,000 mm 0,0 UV-I 18 W/m² -6,8 °C -8,5 °C 20,9 km/h (4 Bft)
09.12.2017 13:27 -3,9 °C -3,9 °C 80 % 1017,3 hPa 0,0 mm 19,3 km/h (3 Bft) W 262 ° 0 min 0,000 mm 0,0 UV-I 19 W/m² -6,8 °C -10,0 °C 25,7 km/h (4 Bft)
09.12.2017 13:29 -3,9 °C -3,9 °C 80 % 1017,4 hPa 0,0 mm 11,0 km/h (2 Bft) W-SW 249 ° 0 min 0,000 mm 0,0 UV-I 28 W/m² -6,8 °C -8,3 °C 19,3 km/h (3 Bft)
09.12.2017 13:30 -3,9 °C -3,9 °C 80 % 1017,4 hPa 0,0 mm 4,8 km/h (1 Bft) W 275 ° 0 min 0,000 mm 0,0 UV-I 33 W/m² -6,8 °C -5,9 °C 9,7 km/h (2 Bft)
09.12.2017 13:31 -3,9 °C -3,8 °C 80 % 1017,4 hPa 0,0 mm 14,0 km/h (3 Bft) W 261 ° 0 min 0,000 mm 0,0 UV-I 26 W/m² -6,8 °C -9,0 °C 20,9 km/h (4 Bft)
09.12.2017 13:32 -3,9 °C -3,8 °C 80 % 1017,4 hPa 0,0 mm 6,4 km/h (2 Bft) W 259 ° 0 min 0,000 mm 0,0 UV-I 26 W/m² -6,8 °C -6,7 °C 9,7 km/h (2 Bft)
09.12.2017 13:34 -3,8 °C -3,8 °C 81 % 1017,4 hPa 0,0 mm 8,3 km/h (2 Bft) W 263 ° 0 min 0,000 mm 0,0 UV-I 42 W/m² -6,6 °C -7,3 °C 14,5 km/h (3 Bft)
09.12.2017 13:35 -3,8 °C -3,8 °C 80 % 1017,4 hPa 0,0 mm 12,1 km/h (2 Bft) W-SW 253 ° 0 min 0,000 mm 0,0 UV-I 44 W/m² -6,7 °C -8,4 °C 17,7 km/h (3 Bft)
09.12.2017 13:37 -3,8 °C -3,8 °C 80 % 1017,5 hPa 0,0 mm 15,3 km/h (3 Bft) W 271 ° 0 min 0,000 mm 0,0 UV-I 44 W/m² -6,7 °C -9,2 °C 16,1 km/h (3 Bft)
09.12.2017 13:38 -3,8 °C -3,8 °C 81 % 1017,5 hPa 0,0 mm 6,4 km/h (2 Bft) W 270 ° 0 min 0,000 mm 0,0 UV-I 81 W/m² -6,6 °C -6,6 °C 11,3 km/h (2 Bft)
09.12.2017 13:39 -3,8 °C -3,8 °C 81 % 1017,5 hPa 0,0 mm 6,4 km/h (2 Bft) SW 225 ° 0 min 0,000 mm 0,0 UV-I 105 W/m² -6,6 °C -6,6 °C 14,5 km/h (3 Bft)
09.12.2017 13:40 -3,8 °C -3,8 °C 81 % 1017,4 hPa 0,0 mm 6,4 km/h (2 Bft) SW 225 ° 0 min 0,000 mm 0,0 UV-I 113 W/m² -6,6 °C -6,6 °C 12,9 km/h (3 Bft)
09.12.2017 13:41 -3,8 °C -3,8 °C 80 % 1017,5 hPa 0,0 mm 9,7 km/h (2 Bft) W-SW 247 ° 0 min 0,000 mm 0,0 UV-I 54 W/m² -6,7 °C -7,8 °C 12,9 km/h (3 Bft)
09.12.2017 13:42 -3,7 °C -3,7 °C 79 % 1017,4 hPa 0,0 mm 11,3 km/h (2 Bft) W 270 ° 0 min 0,000 mm 0,0 UV-I 54 W/m² -6,8 °C -8,1 °C 16,1 km/h (3 Bft)
09.12.2017 13:43 -3,7 °C -3,7 °C 79 % 1017,5 hPa 0,0 mm 11,3 km/h (2 Bft) S-SW 202 ° 0 min 0,000 mm 0,0 UV-I 186 W/m² -6,8 °C -8,1 °C 20,9 km/h (4 Bft)
09.12.2017 13:44 -3,7 °C -3,7 °C 79 % 1017,5 hPa 0,0 mm 12,9 km/h (3 Bft) W-SW 247 ° 0 min 0,000 mm 0,0 UV-I 51 W/m² -6,8 °C -8,5 °C 19,3 km/h (3 Bft)
09.12.2017 13:45 -3,7 °C -3,6 °C 79 % 1017,4 hPa 0,0 mm 9,7 km/h (2 Bft) W-SW 247 ° 0 min 0,000 mm 0,0 UV-I 21 W/m² -6,8 °C -7,6 °C 16,1 km/h (3 Bft)
09.12.2017 13:46 -3,7 °C -3,6 °C 79 % 1017,5 hPa 0,0 mm 12,9 km/h (3 Bft) W 270 ° 0 min 0,000 mm 0,0 UV-I 23 W/m² -6,8 °C -8,5 °C 19,3 km/h (3 Bft)
09.12.2017 13:47 -3,7 °C -3,6 °C 78 % 1017,4 hPa 0,0 mm 11,3 km/h (2 Bft) W 270 ° 0 min 0,000 mm 0,0 UV-I 26 W/m² -7,0 °C -8,1 °C 17,7 km/h (3 Bft)
09.12.2017 13:49 -3,7 °C -3,6 °C 79 % 1017,5 hPa 0,0 mm 11,0 km/h (2 Bft) W-NW 284 ° 0 min 0,000 mm 0,0 UV-I 46 W/m² -6,8 °C -8,0 °C 17,7 km/h (3 Bft)
09.12.2017 13:50 -3,7 °C -3,6 °C 79 % 1017,6 hPa 0,0 mm 16,6 km/h (3 Bft) W 271 ° 0 min 0,000 mm 0,0 UV-I 23 W/m² -6,8 °C -9,3 °C 24,1 km/h (4 Bft)
09.12.2017 13:51 -3,7 °C -3,7 °C 79 % 1017,6 hPa 0,0 mm 16,4 km/h (3 Bft) W-SW 248 ° 0 min 0,000 mm 0,0 UV-I 76 W/m² -6,8 °C -9,3 °C 24,1 km/h (4 Bft)
09.12.2017 13:52 -3,7 °C -3,7 °C 79 % 1017,6 hPa 0,0 mm 17,5 km/h (3 Bft) W 269 ° 0 min 0,000 mm 0,0 UV-I 16 W/m² -6,8 °C -9,5 °C 24,1 km/h (4 Bft)
09.12.2017 13:53 -3,8 °C -3,7 °C 78 % 1017,6 hPa 0,0 mm 12,4 km/h (3 Bft) W-NW 293 ° 0 min 0,000 mm 0,0 UV-I 16 W/m² -7,1 °C -8,5 °C 24,1 km/h (4 Bft)
09.12.2017 13:54 -3,8 °C -3,8 °C 78 % 1017,5 hPa 0,0 mm 13,5 km/h (3 Bft) SW 234 ° 0 min 0,000 mm 0,0 UV-I 190 W/m² -7,1 °C -8,8 °C 19,3 km/h (3 Bft)
09.12.2017 13:55 -3,8 °C -3,8 °C 79 % 1017,6 hPa 0,0 mm 14,5 km/h (3 Bft) W-SW 242 ° 0 min 0,000 mm 0,0 UV-I 26 W/m² -6,9 °C -9,0 °C 20,9 km/h (4 Bft)
09.12.2017 13:56 -3,9 °C -3,8 °C 79 % 1017,5 hPa 0,0 mm 12,6 km/h (3 Bft) W 279 ° 0 min 0,000 mm 0,0 UV-I 19 W/m² -7,0 °C -8,7 °C 20,9 km/h (4 Bft)
09.12.2017 13:57 -3,8 °C -3,8 °C 79 % 1017,5 hPa 0,0 mm 12,6 km/h (3 Bft) NW 315 ° 0 min 0,000 mm 0,0 UV-I 19 W/m² -6,9 °C -8,6 °C 20,9 km/h (4 Bft)
09.12.2017 13:58 -3,9 °C -3,8 °C 80 % 1017,5 hPa 0,0 mm 17,4 km/h (3 Bft) W-SW 258 ° 0 min 0,000 mm 0,0 UV-I 26 W/m² -6,8 °C -9,7 °C 29,0 km/h (5 Bft)
09.12.2017 13:59 -3,9 °C -3,9 °C 80 % 1017,5 hPa 0,0 mm 22,1 km/h (4 Bft) W-NW 296 ° 0 min 0,000 mm 0,0 UV-I 21 W/m² -6,8 °C -10,5 °C 29,0 km/h (5 Bft)
09.12.2017 14:00 -3,9 °C -3,9 °C 80 % 1017,5 hPa 0,0 mm 14,6 km/h (3 Bft) W 278 ° 0 min 0,000 mm 0,0 UV-I 19 W/m² -6,8 °C -9,1 °C 19,3 km/h (3 Bft)
09.12.2017 14:01 -3,9 °C -3,9 °C 80 % 1017,5 hPa 0,0 mm 18,5 km/h (3 Bft) SW 231 ° 0 min 0,025 mm 0,0 UV-I 19 W/m² -6,8 °C -9,9 °C 25,7 km/h (4 Bft)
09.12.2017 14:02 -3,9 °C -3,9 °C 81 % 1017,5 hPa 0,0 mm 14,3 km/h (3 Bft) W 264 ° 0 min 0,000 mm 0,0 UV-I 19 W/m² -6,7 °C -9,1 °C 22,5 km/h (4 Bft)
09.12.2017 14:03 -3,9 °C -3,9 °C 81 % 1017,5 hPa 0,0 mm 15,6 km/h (3 Bft) W 266 ° 0 min 0,000 mm 0,0 UV-I 19 W/m² -6,7 °C -9,4 °C 20,9 km/h (4 Bft)
09.12.2017 14:04 -3,9 °C -3,9 °C 81 % 1017,5 hPa 0,0 mm 16,0 km/h (3 Bft) W 266 ° 0 min 0,000 mm 0,0 UV-I 19 W/m² -6,7 °C -9,4 °C 25,7 km/h (4 Bft)
09.12.2017 14:05 -4,0 °C -3,9 °C 81 % 1017,5 hPa 0,0 mm 16,0 km/h (3 Bft) W 265 ° 0 min 0,000 mm 0,0 UV-I 18 W/m² -6,8 °C -9,6 °C 22,5 km/h (4 Bft)
09.12.2017 14:06 -4,0 °C -4,0 °C 81 % 1017,6 hPa 0,0 mm 15,4 km/h (3 Bft) W-SW 250 ° 0 min 0,000 mm 0,0 UV-I 16 W/m² -6,8 °C -9,4 °C 25,7 km/h (4 Bft)
09.12.2017 14:07 -4,0 °C -4,0 °C 81 % 1017,6 hPa 0,0 mm 20,7 km/h (4 Bft) W 261 ° 0 min 0,000 mm 0,0 UV-I 21 W/m² -6,8 °C -10,4 °C 27,4 km/h (4 Bft)
09.12.2017 14:08 -4,1 °C -4,0 °C 81 % 1017,5 hPa 0,0 mm 18,9 km/h (3 Bft) W 277 ° 0 min 0,000 mm 0,0 UV-I 25 W/m² -6,9 °C -10,2 °C 24,1 km/h (4 Bft)
09.12.2017 14:09 -4,1 °C -4,0 °C 81 % 1017,6 hPa 0,0 mm 15,0 km/h (3 Bft) W-SW 247 ° 0 min 0,000 mm 0,0 UV-I 33 W/m² -6,9 °C -9,5 °C 19,3 km/h (3 Bft)
09.12.2017 14:10 -4,1 °C -4,1 °C 81 % 1017,6 hPa 0,0 mm 12,9 km/h (3 Bft) W-SW 257 ° 0 min 0,000 mm 0,0 UV-I 42 W/m² -6,9 °C -9,0 °C 25,7 km/h (4 Bft)
09.12.2017 14:11 -4,1 °C -4,1 °C 81 % 1017,6 hPa 0,0 mm 13,1 km/h (3 Bft) W 264 ° 0 min 0,000 mm 0,0 UV-I 42 W/m² -6,9 °C -9,0 °C 19,3 km/h (3 Bft)
09.12.2017 14:12 -4,1 °C -4,0 °C 81 % 1017,6 hPa 0,0 mm 6,7 km/h (2 Bft) W 266 ° 0 min 0,000 mm 0,0 UV-I 33 W/m² -6,9 °C -7,0 °C 11,3 km/h (2 Bft)
09.12.2017 14:13 -4,1 °C -4,1 °C 81 % 1017,7 hPa 0,0 mm 18,6 km/h (3 Bft) SW 234 ° 0 min 0,000 mm 0,0 UV-I 28 W/m² -6,9 °C -10,2 °C 33,8 km/h (5 Bft)
09.12.2017 14:14 -4,1 °C -4,0 °C 81 % 1017,7 hPa 0,0 mm 15,6 km/h (3 Bft) W 277 ° 0 min 0,000 mm 0,0 UV-I 25 W/m² -6,9 °C -9,6 °C 27,4 km/h (4 Bft)
09.12.2017 14:15 -4,1 °C -4,0 °C 81 % 1017,6 hPa 0,0 mm 15,4 km/h (3 Bft) W 264 ° 0 min 0,000 mm 0,0 UV-I 23 W/m² -6,9 °C -9,6 °C 22,5 km/h (4 Bft)
09.12.2017 14:16 -4,0 °C -4,0 °C 81 % 1017,6 hPa 0,0 mm 11,5 km/h (2 Bft) W 269 ° 0 min 0,000 mm 0,0 UV-I 23 W/m² -6,8 °C -8,5 °C 27,4 km/h (4 Bft)
09.12.2017 14:17 -4,0 °C -4,0 °C 81 % 1017,5 hPa 0,0 mm 17,0 km/h (3 Bft) W-SW 247 ° 0 min 0,000 mm 0,0 UV-I 23 W/m² -6,8 °C -9,8 °C 24,1 km/h (4 Bft)
09.12.2017 14:18 -4,0 °C -3,9 °C 81 % 1017,5 hPa 0,0 mm 10,4 km/h (2 Bft) W 280 ° 0 min 0,000 mm 0,0 UV-I 25 W/m² -6,8 °C -8,2 °C 16,1 km/h (3 Bft)
09.12.2017 14:19 -4,0 °C -4,0 °C 81 % 1017,7 hPa 0,0 mm 13,5 km/h (3 Bft) W-SW 257 ° 0 min 0,000 mm 0,0 UV-I 26 W/m² -6,8 °C -9,0 °C 17,7 km/h (3 Bft)
09.12.2017 14:20 -3,9 °C -3,9 °C 81 % 1017,6 hPa 0,0 mm 13,5 km/h (3 Bft) W-SW 244 ° 0 min 0,000 mm 0,0 UV-I 28 W/m² -6,7 °C -8,9 °C 19,3 km/h (3 Bft)
09.12.2017 14:21 -3,9 °C -3,9 °C 81 % 1017,7 hPa 0,0 mm 14,3 km/h (3 Bft) W-NW 285 ° 0 min 0,000 mm 0,0 UV-I 26 W/m² -6,7 °C -9,1 °C 27,4 km/h (4 Bft)
09.12.2017 14:22 -4,0 °C -3,9 °C 81 % 1017,7 hPa 0,0 mm 17,8 km/h (3 Bft) W 280 ° 0 min 0,000 mm 0,0 UV-I 25 W/m² -6,8 °C -9,9 °C 24,1 km/h (4 Bft)
09.12.2017 14:23 -3,9 °C -3,9 °C 81 % 1017,8 hPa 0,0 mm 15,9 km/h (3 Bft) W 269 ° 0 min 0,000 mm 0,0 UV-I 23 W/m² -6,7 °C -9,4 °C 24,1 km/h (4 Bft)
09.12.2017 14:24 -3,9 °C -3,9 °C 81 % 1017,7 hPa 0,0 mm 12,3 km/h (3 Bft) W-SW 246 ° 0 min 0,000 mm 0,0 UV-I 23 W/m² -6,7 °C -8,6 °C 17,7 km/h (3 Bft)
09.12.2017 14:25 -3,9 °C -3,9 °C 82 % 1017,7 hPa 0,0 mm 13,3 km/h (3 Bft) W-NW 303 ° 0 min 0,000 mm 0,0 UV-I 23 W/m² -6,5 °C -8,8 °C 19,3 km/h (3 Bft)
09.12.2017 14:26 -3,9 °C -3,9 °C 82 % 1017,7 hPa 0,0 mm 10,2 km/h (2 Bft) SW 234 ° 0 min 0,000 mm 0,0 UV-I 21 W/m² -6,5 °C -8,0 °C 16,1 km/h (3 Bft)
09.12.2017 14:27 -3,9 °C -3,9 °C 82 % 1017,7 hPa 0,0 mm 7,7 km/h (2 Bft) S-SW 199 ° 0 min 0,000 mm 0,0 UV-I 18 W/m² -6,5 °C -7,2 °C 16,1 km/h (3 Bft)
09.12.2017 14:28 -3,9 °C -3,9 °C 82 % 1017,7 hPa 0,0 mm 14,1 km/h (3 Bft) W-SW 248 ° 0 min 0,000 mm 0,0 UV-I 16 W/m² -6,5 °C -9,0 °C 20,9 km/h (4 Bft)
09.12.2017 14:29 -3,9 °C -3,9 °C 82 % 1017,8 hPa 0,0 mm 13,2 km/h (3 Bft) S-SW 206 ° 0 min 0,000 mm 0,0 UV-I 14 W/m² -6,5 °C -8,8 °C 19,3 km/h (3 Bft)
09.12.2017 14:30 -3,9 °C -3,9 °C 82 % 1017,7 hPa 0,0 mm 14,2 km/h (3 Bft) W 263 ° 0 min 0,000 mm 0,0 UV-I 12 W/m² -6,5 °C -9,1 °C 24,1 km/h (4 Bft)
09.12.2017 14:31 -3,9 °C -3,9 °C 82 % 1017,7 hPa 0,0 mm 10,4 km/h (2 Bft) W 278 ° 0 min 0,000 mm 0,0 UV-I 12 W/m² -6,5 °C -8,1 °C 17,7 km/h (3 Bft)
09.12.2017 14:32 -3,9 °C -3,9 °C 82 % 1017,7 hPa 0,0 mm 6,6 km/h (2 Bft) W 270 ° 0 min 0,000 mm 0,0 UV-I 12 W/m² -6,5 °C -6,8 °C 11,3 km/h (2 Bft)
09.12.2017 14:33 -4,0 °C -3,9 °C 82 % 1017,7 hPa 0,0 mm 10,4 km/h (2 Bft) W 279 ° 0 min 0,000 mm 0,0 UV-I 12 W/m² -6,6 °C -8,2 °C 14,5 km/h (3 Bft)
09.12.2017 14:34 -4,0 °C -3,9 °C 82 % 1017,7 hPa 0,0 mm 10,0 km/h (2 Bft) W 273 ° 0 min 0,000 mm 0,0 UV-I 12 W/m² -6,6 °C -8,1 °C 16,1 km/h (3 Bft)
09.12.2017 14:35 -4,0 °C -4,0 °C 82 % 1017,7 hPa 0,0 mm 11,6 km/h (2 Bft) SW 227 ° 0 min 0,000 mm 0,0 UV-I 12 W/m² -6,6 °C -8,5 °C 19,3 km/h (3 Bft)
09.12.2017 14:36 -4,0 °C -4,0 °C 82 % 1017,7 hPa 0,0 mm 9,4 km/h (2 Bft) W 260 ° 0 min 0,000 mm 0,0 UV-I 12 W/m² -6,6 °C -7,9 °C 12,9 km/h (3 Bft)
09.12.2017 14:37 -4,1 °C -4,0 °C 82 % 1017,7 hPa 0,0 mm 8,8 km/h (2 Bft) W-SW 252 ° 0 min 0,000 mm 0,0 UV-I 12 W/m² -6,7 °C -7,8 °C 14,5 km/h (3 Bft)
09.12.2017 14:38 -4,1 °C -4,0 °C 82 % 1017,7 hPa 0,0 mm 7,8 km/h (2 Bft) W 278 ° 0 min 0,000 mm 0,0 UV-I 12 W/m² -6,7 °C -7,5 °C 11,3 km/h (2 Bft)
09.12.2017 14:39 -4,1 °C -4,1 °C 82 % 1017,7 hPa 0,0 mm 10,1 km/h (2 Bft) W 264 ° 0 min 0,000 mm 0,0 UV-I 12 W/m² -6,7 °C -8,2 °C 12,9 km/h (3 Bft)
09.12.2017 14:40 -4,1 °C -4,1 °C 82 % 1017,7 hPa 0,0 mm 11,9 km/h (2 Bft) W 276 ° 0 min 0,000 mm 0,0 UV-I 12 W/m² -6,7 °C -8,7 °C 17,7 km/h (3 Bft)
09.12.2017 14:42 -4,1 °C -4,1 °C 82 % 1017,7 hPa 0,0 mm 6,4 km/h (2 Bft) W 278 ° 0 min 0,000 mm 0,0 UV-I 12 W/m² -6,7 °C -6,9 °C 6,4 km/h (2 Bft)
09.12.2017 14:43 -4,1 °C -4,1 °C 81 % 1017,6 hPa 0,0 mm 9,7 km/h (2 Bft) W-SW 247 ° 0 min 0,000 mm 0,0 UV-I 12 W/m² -6,9 °C -8,1 °C 14,5 km/h (3 Bft)
09.12.2017 14:44 -4,1 °C -4,1 °C 81 % 1017,6 hPa 0,0 mm 8,0 km/h (2 Bft) W-SW 247 ° 0 min 0,000 mm 0,0 UV-I 12 W/m² -6,9 °C -7,6 °C 11,3 km/h (2 Bft)
09.12.2017 14:45 -4,2 °C -4,1 °C 82 % 1017,6 hPa 0,0 mm 9,7 km/h (2 Bft) W 270 ° 0 min 0,000 mm 0,0 UV-I 12 W/m² -6,8 °C -8,2 °C 12,9 km/h (3 Bft)
09.12.2017 14:46 -4,2 °C -4,2 °C 81 % 1017,6 hPa 0,0 mm 8,0 km/h (2 Bft) W 270 ° 0 min 0,000 mm 0,0 UV-I 12 W/m² -7,0 °C -7,7 °C 12,9 km/h (3 Bft)
09.12.2017 14:47 -4,2 °C -4,2 °C 81 % 1017,6 hPa 0,0 mm 9,7 km/h (2 Bft) W 270 ° 0 min 0,000 mm 0,0 UV-I 12 W/m² -7,0 °C -8,2 °C 14,5 km/h (3 Bft)
09.12.2017 14:48 -4,2 °C -4,2 °C 81 % 1017,7 hPa 0,0 mm 9,7 km/h (2 Bft) W 270 ° 0 min 0,000 mm 0,0 UV-I 12 W/m² -7,0 °C -8,2 °C 16,1 km/h (3 Bft)
09.12.2017 14:49 -4,3 °C -4,2 °C 81 % 1017,7 hPa 0,0 mm 9,7 km/h (2 Bft) W 270 ° 0 min 0,000 mm 0,0 UV-I 11 W/m² -7,1 °C -8,4 °C 17,7 km/h (3 Bft)
09.12.2017 14:50 -4,3 °C -4,3 °C 82 % 1017,7 hPa 0,0 mm 12,9 km/h (3 Bft) W 270 ° 0 min 0,000 mm 0,0 UV-I 11 W/m² -6,9 °C -9,2 °C 16,1 km/h (3 Bft)
09.12.2017 14:51 -4,3 °C -4,3 °C 82 % 1017,6 hPa 0,0 mm 9,7 km/h (2 Bft) W 270 ° 0 min 0,000 mm 0,0 UV-I 11 W/m² -6,9 °C -8,4 °C 14,5 km/h (3 Bft)
09.12.2017 14:52 -4,3 °C -4,3 °C 82 % 1017,6 hPa 0,0 mm 8,0 km/h (2 Bft) W-SW 247 ° 0 min 0,000 mm 0,0 UV-I 11 W/m² -6,9 °C -7,8 °C 11,3 km/h (2 Bft)
09.12.2017 14:54 -4,3 °C -4,3 °C 82 % 1017,6 hPa 0,0 mm 11,0 km/h (2 Bft) W 267 ° 0 min 0,000 mm 0,0 UV-I 11 W/m² -6,9 °C -8,7 °C 17,7 km/h (3 Bft)
09.12.2017 14:55 -4,3 °C -4,3 °C 82 % 1017,6 hPa 0,0 mm 14,6 km/h (3 Bft) W-SW 242 ° 0 min 0,000 mm 0,0 UV-I 11 W/m² -6,9 °C -9,6 °C 20,9 km/h (4 Bft)
09.12.2017 14:56 -4,3 °C -4,3 °C 82 % 1017,6 hPa 0,0 mm 11,3 km/h (2 Bft) W 270 ° 0 min 0,000 mm 0,0 UV-I 11 W/m² -6,9 °C -8,8 °C 17,7 km/h (3 Bft)
09.12.2017 14:57 -4,4 °C -4,3 °C 83 % 1017,6 hPa 0,0 mm 11,3 km/h (2 Bft) W 270 ° 0 min 0,000 mm 0,0 UV-I 11 W/m² -6,8 °C -8,9 °C 14,5 km/h (3 Bft)
09.12.2017 14:58 -4,4 °C -4,3 °C 83 % 1017,6 hPa 0,0 mm 9,7 km/h (2 Bft) W 270 ° 0 min 0,000 mm 0,0 UV-I 11 W/m² -6,8 °C -8,5 °C 12,9 km/h (3 Bft)
09.12.2017 14:59 -4,4 °C -4,4 °C 83 % 1017,6 hPa 0,0 mm 8,0 km/h (2 Bft) W-SW 247 ° 0 min 0,000 mm 0,0 UV-I 11 W/m² -6,8 °C -7,9 °C 11,3 km/h (2 Bft)
09.12.2017 15:00 -4,4 °C -4,4 °C 83 % 1017,6 hPa 0,0 mm 11,3 km/h (2 Bft) W 270 ° 0 min 0,025 mm 0,0 UV-I 11 W/m² -6,8 °C -8,9 °C 20,9 km/h (4 Bft)
09.12.2017 15:01 -4,4 °C -4,4 °C 83 % 1017,6 hPa 0,0 mm 12,9 km/h (3 Bft) W-SW 247 ° 0 min 0,000 mm 0,0 UV-I 11 W/m² -6,8 °C -9,4 °C 17,7 km/h (3 Bft)
09.12.2017 15:02 -4,4 °C -4,4 °C 83 % 1017,6 hPa 0,0 mm 14,5 km/h (3 Bft) W 270 ° 0 min 0,000 mm 0,0 UV-I 11 W/m² -6,8 °C -9,7 °C 19,3 km/h (3 Bft)
09.12.2017 15:03 -4,4 °C -4,4 °C 83 % 1017,6 hPa 0,0 mm 14,5 km/h (3 Bft) W 270 ° 0 min 0,000 mm 0,0 UV-I 11 W/m² -6,8 °C -9,7 °C 19,3 km/h (3 Bft)
09.12.2017 15:04 -4,4 °C -4,4 °C 83 % 1017,6 hPa 0,0 mm 9,7 km/h (2 Bft) W-SW 247 ° 0 min 0,000 mm 0,0 UV-I 11 W/m² -6,8 °C -8,5 °C 12,9 km/h (3 Bft)
09.12.2017 15:05 -4,4 °C -4,4 °C 83 % 1017,6 hPa 0,0 mm 9,7 km/h (2 Bft) W 270 ° 0 min 0,000 mm 0,0 UV-I 11 W/m² -6,8 °C -8,5 °C 14,5 km/h (3 Bft)
09.12.2017 15:07 -4,4 °C -4,4 °C 84 % 1017,7 hPa 0,0 mm 11,7 km/h (2 Bft) W 267 ° 0 min 0,000 mm 0,0 UV-I 11 W/m² -6,7 °C -9,1 °C 19,3 km/h (3 Bft)
09.12.2017 15:08 -4,4 °C -4,4 °C 83 % 1017,6 hPa 0,0 mm 8,9 km/h (2 Bft) W-SW 247 ° 0 min 0,000 mm 0,0 UV-I 11 W/m² -6,8 °C -8,2 °C 16,1 km/h (3 Bft)
09.12.2017 15:09 -4,4 °C -4,4 °C 84 % 1017,6 hPa 0,0 mm 11,7 km/h (2 Bft) W 267 ° 0 min 0,000 mm 0,0 UV-I 11 W/m² -6,7 °C -9,1 °C 17,7 km/h (3 Bft)
09.12.2017 15:10 -4,4 °C -4,4 °C 84 % 1017,6 hPa 0,0 mm 11,2 km/h (2 Bft) SW 235 ° 0 min 0,000 mm 0,0 UV-I 11 W/m² -6,7 °C -8,9 °C 17,7 km/h (3 Bft)
09.12.2017 15:12 -4,5 °C -4,4 °C 84 % 1017,6 hPa 0,0 mm 9,6 km/h (2 Bft) W 260 ° 0 min 0,000 mm 0,0 UV-I 11 W/m² -6,8 °C -8,6 °C 14,5 km/h (3 Bft)
09.12.2017 15:13 -4,5 °C -4,5 °C 84 % 1017,6 hPa 0,0 mm 4,4 km/h (1 Bft) SW 235 ° 0 min 0,000 mm 0,0 UV-I 9 W/m² -6,8 °C -4,5 °C 9,7 km/h (2 Bft)
09.12.2017 15:14 -4,5 °C -4,5 °C 84 % 1017,6 hPa 0,0 mm 6,8 km/h (2 Bft) W-SW 252 ° 0 min 0,000 mm 0,0 UV-I 9 W/m² -6,8 °C -7,6 °C 9,7 km/h (2 Bft)
09.12.2017 15:15 -4,5 °C -4,5 °C 84 % 1017,6 hPa 0,0 mm 8,0 km/h (2 Bft) SW 225 ° 0 min 0,000 mm 0,0 UV-I 9 W/m² -6,8 °C -8,0 °C 16,1 km/h (3 Bft)
09.12.2017 15:17 -4,5 °C -4,5 °C 84 % 1017,6 hPa 0,0 mm 3,5 km/h (1 Bft) W 281 ° 0 min 0,000 mm 0,0 UV-I 9 W/m² -6,8 °C -4,5 °C 4,8 km/h (1 Bft)
09.12.2017 15:18 -4,5 °C -4,5 °C 84 % 1017,6 hPa 0,0 mm 10,7 km/h (2 Bft) W-SW 258 ° 0 min 0,000 mm 0,0 UV-I 9 W/m² -6,8 °C -8,9 °C 14,5 km/h (3 Bft)
09.12.2017 15:19 -4,6 °C -4,5 °C 84 % 1017,6 hPa 0,0 mm 9,0 km/h (2 Bft) W 259 ° 0 min 0,000 mm 0,0 UV-I 9 W/m² -6,9 °C -8,5 °C 12,9 km/h (3 Bft)
09.12.2017 15:20 -4,6 °C -4,6 °C 84 % 1017,7 hPa 0,0 mm 7,3 km/h (2 Bft) W-SW 253 ° 0 min 0,000 mm 0,0 UV-I 9 W/m² -6,9 °C -7,9 °C 11,3 km/h (2 Bft)
09.12.2017 15:21 -4,6 °C -4,6 °C 84 % 1017,6 hPa 0,0 mm 5,0 km/h (1 Bft) W 263 ° 0 min 0,000 mm 0,0 UV-I 9 W/m² -6,9 °C -6,8 °C 6,4 km/h (2 Bft)
09.12.2017 15:22 -4,6 °C -4,6 °C 84 % 1017,6 hPa 0,0 mm 4,5 km/h (1 Bft) SW 227 ° 0 min 0,000 mm 0,0 UV-I 9 W/m² -6,9 °C -4,6 °C 9,7 km/h (2 Bft)
09.12.2017 15:23 -4,6 °C -4,6 °C 84 % 1017,5 hPa 0,0 mm 6,5 km/h (2 Bft) W-SW 237 ° 0 min 0,000 mm 0,0 UV-I 9 W/m² -6,9 °C -7,5 °C 14,5 km/h (3 Bft)
09.12.2017 15:24 -4,6 °C -4,6 °C 84 % 1017,6 hPa 0,0 mm 5,8 km/h (2 Bft) W-SW 238 ° 0 min 0,000 mm 0,0 UV-I 9 W/m² -6,9 °C -7,2 °C 8,0 km/h (2 Bft)
09.12.2017 15:25 -4,7 °C -4,6 °C 84 % 1017,6 hPa 0,0 mm 4,8 km/h (1 Bft) SW 222 ° 0 min 0,000 mm 0,0 UV-I 9 W/m² -7,0 °C -6,8 °C 8,0 km/h (2 Bft)
09.12.2017 15:26 -4,7 °C -4,6 °C 84 % 1017,6 hPa 0,0 mm 3,3 km/h (1 Bft) SW 222 ° 0 min 0,000 mm 0,0 UV-I 9 W/m² -7,0 °C -4,7 °C 6,4 km/h (2 Bft)
09.12.2017 15:27 -4,7 °C -4,7 °C 85 % 1017,6 hPa 0,0 mm 3,3 km/h (1 Bft) S-SW 205 ° 0 min 0,000 mm 0,0 UV-I 9 W/m² -6,8 °C -4,7 °C 8,0 km/h (2 Bft)
09.12.2017 15:28 -4,7 °C -4,7 °C 85 % 1017,6 hPa 0,0 mm 4,3 km/h (1 Bft) W-SW 240 ° 0 min 0,000 mm 0,0 UV-I 9 W/m² -6,8 °C -4,7 °C 6,4 km/h (2 Bft)
09.12.2017 15:29 -4,7 °C -4,7 °C 85 % 1017,6 hPa 0,0 mm 6,3 km/h (2 Bft) S-SW 198 ° 0 min 0,000 mm 0,0 UV-I 9 W/m² -6,8 °C -7,6 °C 14,5 km/h (3 Bft)
09.12.2017 15:30 -4,7 °C -4,7 °C 85 % 1017,6 hPa 0,0 mm 13,0 km/h (3 Bft) W-SW 254 ° 0 min 0,000 mm 0,0 UV-I 9 W/m² -6,8 °C -9,7 °C 20,9 km/h (4 Bft)
09.12.2017 15:31 -4,7 °C -4,7 °C 85 % 1017,6 hPa 0,0 mm 6,9 km/h (2 Bft) SW 221 ° 0 min 0,000 mm 0,0 UV-I 9 W/m² -6,8 °C -7,8 °C 12,9 km/h (3 Bft)
09.12.2017 15:32 -4,7 °C -4,7 °C 85 % 1017,6 hPa 0,0 mm 4,6 km/h (1 Bft) W-SW 248 ° 0 min 0,000 mm 0,0 UV-I 7 W/m² -6,8 °C -6,7 °C 9,7 km/h (2 Bft)
09.12.2017 15:33 -4,7 °C -4,7 °C 85 % 1017,6 hPa 0,0 mm 6,2 km/h (2 Bft) S-SW 212 ° 0 min 0,000 mm 0,0 UV-I 7 W/m² -6,8 °C -7,5 °C 11,3 km/h (2 Bft)
09.12.2017 15:34 -4,7 °C -4,7 °C 85 % 1017,6 hPa 0,0 mm 5,0 km/h (1 Bft) SW 234 ° 0 min 0,000 mm 0,0 UV-I 7 W/m² -6,8 °C -6,9 °C 8,0 km/h (2 Bft)
09.12.2017 15:35 -4,8 °C -4,7 °C 85 % 1017,6 hPa 0,0 mm 5,8 km/h (2 Bft) S-SW 195 ° 0 min 0,000 mm 0,0 UV-I 7 W/m² -6,9 °C -7,4 °C 8,0 km/h (2 Bft)
09.12.2017 15:36 -4,8 °C -4,8 °C 84 % 1017,6 hPa 0,0 mm 4,2 km/h (1 Bft) W 260 ° 0 min 0,000 mm 0,0 UV-I 7 W/m² -7,1 °C -4,8 °C 4,8 km/h (1 Bft)
09.12.2017 15:37 -4,8 °C -4,8 °C 84 % 1017,5 hPa 0,0 mm 4,0 km/h (1 Bft) S-SW 205 ° 0 min 0,000 mm 0,0 UV-I 7 W/m² -7,1 °C -4,8 °C 8,0 km/h (2 Bft)
09.12.2017 15:38 -4,8 °C -4,8 °C 84 % 1017,6 hPa 0,0 mm 4,4 km/h (1 Bft) W-SW 239 ° 0 min 0,000 mm 0,0 UV-I 7 W/m² -7,1 °C -4,8 °C 8,0 km/h (2 Bft)
09.12.2017 15:39 -4,8 °C -4,8 °C 84 % 1017,5 hPa 0,0 mm 3,2 km/h (1 Bft) S-SW 213 ° 0 min 0,000 mm 0,0 UV-I 7 W/m² -7,1 °C -4,8 °C 6,4 km/h (2 Bft)
09.12.2017 15:40 -4,8 °C -4,8 °C 84 % 1017,5 hPa 0,0 mm 4,8 km/h (1 Bft) S-SW 206 ° 0 min 0,000 mm 0,0 UV-I 7 W/m² -7,1 °C -6,9 °C 8,0 km/h (2 Bft)
09.12.2017 15:41 -4,8 °C -4,8 °C 84 % 1017,5 hPa 0,0 mm 6,4 km/h (2 Bft) S-SW 205 ° 0 min 0,000 mm 0,0 UV-I 7 W/m² -7,1 °C -7,7 °C 6,4 km/h (2 Bft)
09.12.2017 15:42 -4,8 °C -4,8 °C 84 % 1017,5 hPa 0,0 mm 4,8 km/h (1 Bft) SW 225 ° 0 min 0,000 mm 0,0 UV-I 7 W/m² -7,1 °C -6,9 °C 8,0 km/h (2 Bft)
09.12.2017 15:43 -4,8 °C -4,8 °C 84 % 1017,5 hPa 0,0 mm 4,8 km/h (1 Bft) SW 225 ° 0 min 0,000 mm 0,0 UV-I 7 W/m² -7,1 °C -6,9 °C 8,0 km/h (2 Bft)
09.12.2017 15:44 -4,8 °C -4,8 °C 84 % 1017,5 hPa 0,0 mm 3,2 km/h (1 Bft) W-SW 247 ° 0 min 0,000 mm 0,0 UV-I 7 W/m² -7,1 °C -4,8 °C 6,4 km/h (2 Bft)
09.12.2017 15:45 -4,8 °C -4,8 °C 84 % 1017,5 hPa 0,0 mm 4,8 km/h (1 Bft) S-SW 202 ° 0 min 0,000 mm 0,0 UV-I 7 W/m² -7,1 °C -6,9 °C 8,0 km/h (2 Bft)
09.12.2017 15:46 -4,8 °C -4,8 °C 84 % 1017,5 hPa 0,0 mm 3,2 km/h (1 Bft) SW 225 ° 0 min 0,000 mm 0,0 UV-I 7 W/m² -7,1 °C -4,8 °C 4,8 km/h (1 Bft)
09.12.2017 15:47 -4,8 °C -4,8 °C 83 % 1017,5 hPa 0,0 mm 6,4 km/h (2 Bft) SW 225 ° 0 min 0,000 mm 0,0 UV-I 5 W/m² -7,2 °C -7,7 °C 12,9 km/h (3 Bft)
09.12.2017 15:48 -4,8 °C -4,8 °C 83 % 1017,5 hPa 0,0 mm 6,4 km/h (2 Bft) S-SW 202 ° 0 min 0,000 mm 0,0 UV-I 5 W/m² -7,2 °C -7,7 °C 8,0 km/h (2 Bft)
09.12.2017 15:49 -4,8 °C -4,8 °C 84 % 1017,5 hPa 0,0 mm 3,2 km/h (1 Bft) S-SW 202 ° 0 min 0,000 mm 0,0 UV-I 5 W/m² -7,1 °C -4,8 °C 4,8 km/h (1 Bft)
09.12.2017 15:50 -4,9 °C -4,8 °C 83 % 1017,5 hPa 0,0 mm 4,8 km/h (1 Bft) S-SW 202 ° 0 min 0,000 mm 0,0 UV-I 5 W/m² -7,3 °C -7,0 °C 9,7 km/h (2 Bft)
09.12.2017 15:53 -4,9 °C -4,8 °C 83 % 1017,6 hPa 0,0 mm 3,7 km/h (1 Bft) SW 216 ° 0 min 0,000 mm 0,0 UV-I 5 W/m² -7,3 °C -4,9 °C 6,4 km/h (2 Bft)
09.12.2017 15:54 -4,9 °C -4,8 °C 83 % 1017,6 hPa 0,0 mm 3,4 km/h (1 Bft) SW 214 ° 0 min 0,000 mm 0,0 UV-I 5 W/m² -7,3 °C -4,9 °C 4,8 km/h (1 Bft)
09.12.2017 15:55 -4,9 °C -4,9 °C 83 % 1017,6 hPa 0,0 mm 7,5 km/h (2 Bft) S-SW 200 ° 0 min 0,000 mm 0,0 UV-I 5 W/m² -7,3 °C -8,3 °C 11,3 km/h (2 Bft)
09.12.2017 15:56 -4,9 °C -4,9 °C 83 % 1017,6 hPa 0,0 mm 3,2 km/h (1 Bft) S-SW 202 ° 0 min 0,000 mm 0,0 UV-I 5 W/m² -7,3 °C -4,9 °C 4,8 km/h (1 Bft)
09.12.2017 15:57 -4,9 °C -4,9 °C 83 % 1017,6 hPa 0,0 mm 3,2 km/h (1 Bft) S-SW 202 ° 0 min 0,000 mm 0,0 UV-I 5 W/m² -7,3 °C -4,9 °C 6,4 km/h (2 Bft)
09.12.2017 15:58 -4,9 °C -4,9 °C 83 % 1017,6 hPa 0,0 mm 4,8 km/h (1 Bft) SW 225 ° 0 min 0,000 mm 0,0 UV-I 5 W/m² -7,3 °C -7,0 °C 6,4 km/h (2 Bft)
09.12.2017 15:59 -4,9 °C -4,9 °C 83 % 1017,6 hPa 0,0 mm 6,4 km/h (2 Bft) S-SW 202 ° 0 min 0,000 mm 0,0 UV-I 5 W/m² -7,3 °C -7,8 °C 11,3 km/h (2 Bft)
09.12.2017 16:00 -4,9 °C -4,9 °C 83 % 1017,7 hPa 0,0 mm 6,4 km/h (2 Bft) S-SW 202 ° 0 min 0,000 mm 0,0 UV-I 5 W/m² -7,3 °C -7,8 °C 9,7 km/h (2 Bft)
09.12.2017 16:01 -4,9 °C -4,9 °C 83 % 1017,6 hPa 0,0 mm 3,2 km/h (1 Bft) S-SW 202 ° 0 min 0,000 mm 0,0 UV-I 5 W/m² -7,3 °C -4,9 °C 4,8 km/h (1 Bft)
09.12.2017 16:02 -4,9 °C -4,9 °C 83 % 1017,7 hPa 0,0 mm 8,0 km/h (2 Bft) S-SW 202 ° 0 min 0,000 mm 0,0 UV-I 5 W/m² -7,3 °C -8,5 °C 11,3 km/h (2 Bft)
09.12.2017 16:03 -4,9 °C -4,9 °C 83 % 1017,7 hPa 0,0 mm 6,4 km/h (2 Bft) S-SW 202 ° 0 min 0,000 mm 0,0 UV-I 5 W/m² -7,3 °C -7,8 °C 9,7 km/h (2 Bft)
09.12.2017 16:04 -4,9 °C -4,9 °C 83 % 1017,7 hPa 0,0 mm 4,8 km/h (1 Bft) W-SW 247 ° 0 min 0,000 mm 0,0 UV-I 5 W/m² -7,3 °C -7,0 °C 6,4 km/h (2 Bft)
09.12.2017 16:05 -5,0 °C -4,9 °C 83 % 1017,7 hPa 0,0 mm 6,4 km/h (2 Bft) S-SW 202 ° 0 min 0,000 mm 0,0 UV-I 0 W/m² -7,4 °C -8,0 °C 9,7 km/h (2 Bft)
09.12.2017 16:07 -5,0 °C -4,9 °C 83 % 1017,7 hPa 0,0 mm 4,9 km/h (1 Bft) S-SW 195 ° 0 min 0,000 mm 0,0 UV-I 0 W/m² -7,4 °C -7,2 °C 9,7 km/h (2 Bft)
09.12.2017 16:08 -5,0 °C -5,0 °C 83 % 1017,7 hPa 0,0 mm 3,7 km/h (1 Bft) S-SW 201 ° 0 min 0,000 mm 0,0 UV-I 0 W/m² -7,4 °C -5,0 °C 11,3 km/h (2 Bft)
09.12.2017 16:09 -5,0 °C -5,0 °C 83 % 1017,7 hPa 0,0 mm 5,2 km/h (1 Bft) S-SW 202 ° 0 min 0,000 mm 0,0 UV-I 0 W/m² -7,4 °C -7,4 °C 6,4 km/h (2 Bft)
09.12.2017 16:10 -5,0 °C -5,0 °C 83 % 1017,7 hPa 0,0 mm 4,0 km/h (1 Bft) SW 235 ° 0 min 0,000 mm 0,0 UV-I 0 W/m² -7,4 °C -5,0 °C 8,0 km/h (2 Bft)
09.12.2017 16:12 -5,1 °C -5,0 °C 82 % 1017,8 hPa 0,0 mm 6,2 km/h (2 Bft) W-SW 242 ° 0 min 0,000 mm 0,0 UV-I 0 W/m² -7,7 °C -8,0 °C 12,9 km/h (3 Bft)
09.12.2017 16:13 -5,1 °C -5,1 °C 82 % 1017,8 hPa 0,0 mm 4,1 km/h (1 Bft) SW 223 ° 0 min 0,000 mm 0,0 UV-I 0 W/m² -7,7 °C -5,1 °C 9,7 km/h (2 Bft)
09.12.2017 16:14 -5,1 °C -5,1 °C 82 % 1017,8 hPa 0,0 mm 5,0 km/h (1 Bft) W-SW 248 ° 0 min 0,000 mm 0,0 UV-I 0 W/m² -7,7 °C -7,4 °C 8,0 km/h (2 Bft)
09.12.2017 16:15 -5,1 °C -5,1 °C 82 % 1017,8 hPa 0,0 mm 3,8 km/h (1 Bft) W-SW 250 ° 0 min 0,000 mm 0,0 UV-I 0 W/m² -7,7 °C -5,1 °C 6,4 km/h (2 Bft)
09.12.2017 16:16 -5,1 °C -5,1 °C 82 % 1017,8 hPa 0,0 mm 3,5 km/h (1 Bft) S-SW 196 ° 0 min 0,000 mm 0,0 UV-I 0 W/m² -7,7 °C -5,1 °C 4,8 km/h (1 Bft)
09.12.2017 16:17 -5,1 °C -5,1 °C 82 % 1017,8 hPa 0,0 mm 6,4 km/h (2 Bft) W-SW 238 ° 0 min 0,000 mm 0,0 UV-I 0 W/m² -7,7 °C -8,1 °C 11,3 km/h (2 Bft)
09.12.2017 16:18 -5,1 °C -5,1 °C 82 % 1017,8 hPa 0,0 mm 3,9 km/h (1 Bft) S-SW 213 ° 0 min 0,000 mm 0,0 UV-I 0 W/m² -7,7 °C -5,1 °C 6,4 km/h (2 Bft)
09.12.2017 16:19 -5,1 °C -5,1 °C 82 % 1017,8 hPa 0,0 mm 3,3 km/h (1 Bft) SW 227 ° 0 min 0,000 mm 0,0 UV-I 0 W/m² -7,7 °C -5,1 °C 4,8 km/h (1 Bft)
09.12.2017 16:20 -5,2 °C -5,1 °C 82 % 1017,8 hPa 0,0 mm 3,8 km/h (1 Bft) SW 225 ° 0 min 0,000 mm 0,0 UV-I 0 W/m² -7,8 °C -5,2 °C 6,4 km/h (2 Bft)
09.12.2017 16:21 -5,2 °C -5,2 °C 82 % 1017,8 hPa 0,0 mm 4,3 km/h (1 Bft) SW 225 ° 0 min 0,000 mm 0,0 UV-I 0 W/m² -7,8 °C -5,2 °C 4,8 km/h (1 Bft)
09.12.2017 16:22 -5,2 °C -5,2 °C 82 % 1017,8 hPa 0,0 mm 8,0 km/h (2 Bft) S-SW 202 ° 0 min 0,000 mm 0,0 UV-I 0 W/m² -7,8 °C -8,8 °C 11,3 km/h (2 Bft)
09.12.2017 16:23 -5,2 °C -5,2 °C 82 % 1017,8 hPa 0,0 mm 4,8 km/h (1 Bft) S-SW 202 ° 0 min 0,000 mm 0,0 UV-I 0 W/m² -7,8 °C -7,4 °C 9,7 km/h (2 Bft)
09.12.2017 16:24 -5,2 °C -5,2 °C 82 % 1017,8 hPa 0,0 mm 3,2 km/h (1 Bft) SW 225 ° 0 min 0,000 mm 0,0 UV-I 0 W/m² -7,8 °C -5,2 °C 4,8 km/h (1 Bft)
09.12.2017 16:25 -5,2 °C -5,2 °C 82 % 1017,7 hPa 0,0 mm 8,0 km/h (2 Bft) W-SW 247 ° 0 min 0,000 mm 0,0 UV-I 0 W/m² -7,8 °C -8,8 °C 14,5 km/h (3 Bft)
09.12.2017 16:26 -5,2 °C -5,2 °C 81 % 1017,7 hPa 0,0 mm 4,8 km/h (1 Bft) W-SW 247 ° 0 min 0,000 mm 0,0 UV-I 0 W/m² -7,9 °C -7,4 °C 8,0 km/h (2 Bft)
09.12.2017 16:27 -5,3 °C -5,3 °C 82 % 1017,8 hPa 0,0 mm 4,8 km/h (1 Bft) W-SW 247 ° 0 min 0,000 mm 0,0 UV-I 0 W/m² -7,9 °C -7,5 °C 8,0 km/h (2 Bft)
09.12.2017 16:28 -5,3 °C -5,3 °C 82 % 1017,7 hPa 0,0 mm 6,4 km/h (2 Bft) W-SW 247 ° 0 min 0,000 mm 0,0 UV-I 0 W/m² -7,9 °C -8,3 °C 9,7 km/h (2 Bft)
09.12.2017 16:29 -5,3 °C -5,3 °C 81 % 1017,7 hPa 0,0 mm 4,8 km/h (1 Bft) W-SW 247 ° 0 min 0,000 mm 0,0 UV-I 0 W/m² -8,0 °C -7,5 °C 11,3 km/h (2 Bft)
09.12.2017 16:30 -5,3 °C -5,3 °C 82 % 1017,7 hPa 0,0 mm 6,4 km/h (2 Bft) W-SW 247 ° 0 min 0,000 mm 0,0 UV-I 0 W/m² -7,9 °C -8,3 °C 9,7 km/h (2 Bft)
09.12.2017 16:33 -5,3 °C -5,3 °C 81 % 1017,7 hPa 0,0 mm 5,5 km/h (1 Bft) W-SW 248 ° 0 min 0,000 mm 0,0 UV-I 0 W/m² -8,0 °C -7,9 °C 9,7 km/h (2 Bft)
09.12.2017 16:34 -5,3 °C -5,3 °C 81 % 1017,7 hPa 0,0 mm 5,6 km/h (1 Bft) W-SW 257 ° 0 min 0,000 mm 0,0 UV-I 0 W/m² -8,0 °C -7,9 °C 12,9 km/h (3 Bft)
09.12.2017 16:35 -5,4 °C -5,3 °C 81 % 1017,8 hPa 0,0 mm 9,8 km/h (2 Bft) SW 235 ° 0 min 0,000 mm 0,0 UV-I 0 W/m² -8,1 °C -9,7 °C 16,1 km/h (3 Bft)
09.12.2017 16:36 -5,4 °C -5,4 °C 81 % 1017,8 hPa 0,0 mm 6,0 km/h (2 Bft) W 259 ° 0 min 0,000 mm 0,0 UV-I 0 W/m² -8,1 °C -8,2 °C 12,9 km/h (3 Bft)
09.12.2017 16:37 -5,4 °C -5,4 °C 81 % 1017,8 hPa 0,0 mm 9,3 km/h (2 Bft) W-SW 238 ° 0 min 0,000 mm 0,0 UV-I 0 W/m² -8,1 °C -9,5 °C 17,7 km/h (3 Bft)
09.12.2017 16:38 -5,4 °C -5,4 °C 81 % 1017,8 hPa 0,0 mm 6,2 km/h (2 Bft) W-SW 253 ° 0 min 0,000 mm 0,0 UV-I 0 W/m² -8,1 °C -8,3 °C 12,9 km/h (3 Bft)
09.12.2017 16:39 -5,4 °C -5,4 °C 81 % 1017,7 hPa 0,0 mm 3,4 km/h (1 Bft) W 271 ° 0 min 0,000 mm 0,0 UV-I 0 W/m² -8,1 °C -5,4 °C 4,8 km/h (1 Bft)
09.12.2017 16:40 -5,4 °C -5,4 °C 81 % 1017,8 hPa 0,0 mm 7,0 km/h (2 Bft) W-SW 252 ° 0 min 0,000 mm 0,0 UV-I 0 W/m² -8,1 °C -8,7 °C 12,9 km/h (3 Bft)
09.12.2017 16:42 -5,4 °C -5,4 °C 81 % 1017,8 hPa 0,0 mm 7,5 km/h (2 Bft) W-SW 251 ° 0 min 0,000 mm 0,0 UV-I 0 W/m² -8,1 °C -8,9 °C 14,5 km/h (3 Bft)
09.12.2017 16:43 -5,4 °C -5,4 °C 82 % 1017,8 hPa 0,0 mm 7,7 km/h (2 Bft) SW 220 ° 0 min 0,000 mm 0,0 UV-I 0 W/m² -8,0 °C -9,0 °C 11,3 km/h (2 Bft)
09.12.2017 16:44 -5,4 °C -5,4 °C 82 % 1017,8 hPa 0,0 mm 7,8 km/h (2 Bft) W-SW 249 ° 0 min 0,000 mm 0,0 UV-I 0 W/m² -8,0 °C -9,0 °C 11,3 km/h (2 Bft)
09.12.2017 16:45 -5,4 °C -5,4 °C 82 % 1017,8 hPa 0,0 mm 10,1 km/h (2 Bft) W 265 ° 0 min 0,000 mm 0,0 UV-I 0 W/m² -8,0 °C -9,8 °C 14,5 km/h (3 Bft)
09.12.2017 16:46 -5,4 °C -5,4 °C 82 % 1017,8 hPa 0,0 mm 7,3 km/h (2 Bft) SW 232 ° 0 min 0,000 mm 0,0 UV-I 0 W/m² -8,0 °C -8,8 °C 14,5 km/h (3 Bft)
09.12.2017 16:47 -5,4 °C -5,4 °C 82 % 1017,8 hPa 0,0 mm 8,6 km/h (2 Bft) SW 234 ° 0 min 0,000 mm 0,0 UV-I 0 W/m² -8,0 °C -9,3 °C 12,9 km/h (3 Bft)
09.12.2017 16:48 -5,4 °C -5,4 °C 82 % 1017,9 hPa 0,0 mm 8,6 km/h (2 Bft) S-SW 204 ° 0 min 0,000 mm 0,0 UV-I 0 W/m² -8,0 °C -9,3 °C 14,5 km/h (3 Bft)
09.12.2017 16:49 -5,4 °C -5,4 °C 82 % 1017,8 hPa 0,0 mm 5,4 km/h (1 Bft) W-SW 256 ° 0 min 0,000 mm 0,0 UV-I 0 W/m² -8,0 °C -7,9 °C 6,4 km/h (2 Bft)
09.12.2017 16:50 -5,4 °C -5,4 °C 82 % 1017,9 hPa 0,0 mm 4,5 km/h (1 Bft) S-SW 211 ° 0 min 0,000 mm 0,0 UV-I 0 W/m² -8,0 °C -5,4 °C 6,4 km/h (2 Bft)
09.12.2017 16:51 -5,4 °C -5,4 °C 82 % 1017,8 hPa 0,0 mm 9,0 km/h (2 Bft) SW 236 ° 0 min 0,000 mm 0,0 UV-I 0 W/m² -8,0 °C -9,4 °C 14,5 km/h (3 Bft)
09.12.2017 16:52 -5,5 °C -5,4 °C 82 % 1017,9 hPa 0,0 mm 5,3 km/h (1 Bft) S-SW 211 ° 0 min 0,000 mm 0,0 UV-I 0 W/m² -8,1 °C -8,0 °C 8,0 km/h (2 Bft)
09.12.2017 16:53 -5,4 °C -5,4 °C 83 % 1017,9 hPa 0,0 mm 9,7 km/h (2 Bft) SW 218 ° 0 min 0,000 mm 0,0 UV-I 0 W/m² -7,8 °C -9,7 °C 17,7 km/h (3 Bft)
09.12.2017 16:54 -5,4 °C -5,4 °C 83 % 1017,8 hPa 0,0 mm 6,0 km/h (2 Bft) S-SW 200 ° 0 min 0,000 mm 0,0 UV-I 0 W/m² -7,8 °C -8,2 °C 11,3 km/h (2 Bft)
09.12.2017 16:55 -5,4 °C -5,4 °C 83 % 1017,8 hPa 0,0 mm 6,4 km/h (2 Bft) S-SW 196 ° 0 min 0,000 mm 0,0 UV-I 0 W/m² -7,8 °C -8,4 °C 8,0 km/h (2 Bft)
09.12.2017 16:56 -5,4 °C -5,4 °C 83 % 1017,8 hPa 0,0 mm 9,1 km/h (2 Bft) SW 234 ° 0 min 0,000 mm 0,0 UV-I 0 W/m² -7,8 °C -9,5 °C 11,3 km/h (2 Bft)
09.12.2017 16:57 -5,4 °C -5,4 °C 83 % 1017,8 hPa 0,0 mm 5,9 km/h (2 Bft) S-SW 206 ° 0 min 0,000 mm 0,0 UV-I 0 W/m² -7,8 °C -8,2 °C 9,7 km/h (2 Bft)
09.12.2017 16:58 -5,4 °C -5,4 °C 83 % 1017,9 hPa 0,0 mm 6,0 km/h (2 Bft) S-SW 202 ° 0 min 0,000 mm 0,0 UV-I 0 W/m² -7,8 °C -8,2 °C 9,7 km/h (2 Bft)
09.12.2017 16:59 -5,4 °C -5,4 °C 83 % 1017,8 hPa 0,0 mm 6,0 km/h (2 Bft) S-SW 195 ° 0 min 0,000 mm 0,0 UV-I 0 W/m² -7,8 °C -8,2 °C 9,7 km/h (2 Bft)
09.12.2017 17:00 -5,4 °C -5,4 °C 83 % 1017,9 hPa 0,0 mm 5,8 km/h (2 Bft) S 188 ° 0 min 0,000 mm 0,0 UV-I 0 W/m² -7,8 °C -8,1 °C 9,7 km/h (2 Bft)
09.12.2017 17:01 -5,4 °C -5,4 °C 83 % 1017,8 hPa 0,0 mm 5,4 km/h (1 Bft) S-SW 200 ° 0 min 0,000 mm 0,0 UV-I 0 W/m² -7,8 °C -7,9 °C 9,7 km/h (2 Bft)
09.12.2017 17:02 -5,4 °C -5,4 °C 83 % 1017,8 hPa 0,0 mm 4,8 km/h (1 Bft) S-SW 193 ° 0 min 0,000 mm 0,0 UV-I 0 W/m² -7,8 °C -7,6 °C 8,0 km/h (2 Bft)
09.12.2017 17:03 -5,5 °C -5,4 °C 83 % 1017,8 hPa 0,0 mm 6,2 km/h (2 Bft) SW 222 ° 0 min 0,000 mm 0,0 UV-I 0 W/m² -7,9 °C -8,4 °C 9,7 km/h (2 Bft)
09.12.2017 17:04 -5,5 °C -5,5 °C 83 % 1017,8 hPa 0,0 mm 6,4 km/h (2 Bft) SW 214 ° 0 min 0,000 mm 0,0 UV-I 0 W/m² -7,9 °C -8,5 °C 8,0 km/h (2 Bft)
09.12.2017 17:05 -5,5 °C -5,4 °C 83 % 1017,8 hPa 0,0 mm 4,6 km/h (1 Bft) S 184 ° 0 min 0,000 mm 0,0 UV-I 0 W/m² -7,9 °C -7,6 °C 8,0 km/h (2 Bft)
09.12.2017 17:06 -5,6 °C -5,5 °C 83 % 1017,9 hPa 0,0 mm 4,0 km/h (1 Bft) S-SW 212 ° 0 min 0,000 mm 0,0 UV-I 0 W/m² -8,0 °C -5,6 °C 8,0 km/h (2 Bft)
09.12.2017 17:07 -5,6 °C -5,6 °C 83 % 1017,8 hPa 0,0 mm 5,4 km/h (1 Bft) SW 216 ° 0 min 0,000 mm 0,0 UV-I 0 W/m² -8,0 °C -8,2 °C 8,0 km/h (2 Bft)
09.12.2017 17:08 -5,6 °C -5,6 °C 83 % 1017,8 hPa 0,0 mm 8,8 km/h (2 Bft) S-SW 211 ° 0 min 0,000 mm 0,0 UV-I 0 W/m² -8,0 °C -9,6 °C 14,5 km/h (3 Bft)
09.12.2017 17:09 -5,6 °C -5,6 °C 83 % 1017,9 hPa 0,0 mm 7,4 km/h (2 Bft) SW 227 ° 0 min 0,000 mm 0,0 UV-I 0 W/m² -8,0 °C -9,1 °C 11,3 km/h (2 Bft)
09.12.2017 17:10 -5,6 °C -5,6 °C 83 % 1017,8 hPa 0,0 mm 4,2 km/h (1 Bft) S 190 ° 0 min 0,000 mm 0,0 UV-I 0 W/m² -8,0 °C -5,6 °C 6,4 km/h (2 Bft)
09.12.2017 17:11 -5,6 °C -5,6 °C 83 % 1017,9 hPa 0,0 mm 5,6 km/h (1 Bft) S 182 ° 0 min 0,000 mm 0,0 UV-I 0 W/m² -8,0 °C -8,3 °C 8,0 km/h (2 Bft)
09.12.2017 17:12 -5,6 °C -5,6 °C 83 % 1017,9 hPa 0,0 mm 8,0 km/h (2 Bft) S-SW 202 ° 0 min 0,000 mm 0,0 UV-I 0 W/m² -8,0 °C -9,3 °C 12,9 km/h (3 Bft)
09.12.2017 17:13 -5,6 °C -5,6 °C 83 % 1017,9 hPa 0,0 mm 8,0 km/h (2 Bft) S-SW 202 ° 0 min 0,000 mm 0,0 UV-I 0 W/m² -8,0 °C -9,3 °C 11,3 km/h (2 Bft)
09.12.2017 17:14 -5,6 °C -5,6 °C 83 % 1017,9 hPa 0,0 mm 6,4 km/h (2 Bft) S-SW 202 ° 0 min 0,000 mm 0,0 UV-I 0 W/m² -8,0 °C -8,7 °C 11,3 km/h (2 Bft)
09.12.2017 17:15 -5,6 °C -5,6 °C 83 % 1017,9 hPa 0,0 mm 6,4 km/h (2 Bft) S-SW 202 ° 0 min 0,000 mm 0,0 UV-I 0 W/m² -8,0 °C -8,7 °C 8,0 km/h (2 Bft)
09.12.2017 17:16 -5,6 °C -5,6 °C 83 % 1017,9 hPa 0,0 mm 4,8 km/h (1 Bft) S-SW 202 ° 0 min 0,000 mm 0,0 UV-I 0 W/m² -8,0 °C -7,8 °C 8,0 km/h (2 Bft)
09.12.2017 17:17 -5,6 °C -5,6 °C 83 % 1017,9 hPa 0,0 mm 4,8 km/h (1 Bft) S-SW 202 ° 0 min 0,000 mm 0,0 UV-I 0 W/m² -8,0 °C -7,8 °C 8,0 km/h (2 Bft)
09.12.2017 17:18 -5,6 °C -5,6 °C 83 % 1017,9 hPa 0,0 mm 8,0 km/h (2 Bft) S-SW 202 ° 0 min 0,000 mm 0,0 UV-I 0 W/m² -8,0 °C -9,3 °C 11,3 km/h (2 Bft)
09.12.2017 17:19 -5,6 °C -5,6 °C 83 % 1017,9 hPa 0,0 mm 8,0 km/h (2 Bft) SW 225 ° 0 min 0,000 mm 0,0 UV-I 0 W/m² -8,0 °C -9,3 °C 14,5 km/h (3 Bft)
09.12.2017 17:20 -5,6 °C -5,6 °C 83 % 1017,9 hPa 0,0 mm 4,8 km/h (1 Bft) S 180 ° 0 min 0,000 mm 0,0 UV-I 0 W/m² -8,0 °C -7,8 °C 8,0 km/h (2 Bft)
09.12.2017 17:23 -5,6 °C -5,6 °C 83 % 1018,0 hPa 0,0 mm 2,2 km/h (1 Bft) S 188 ° 0 min 0,000 mm 0,0 UV-I 0 W/m² -8,0 °C -5,6 °C 3,2 km/h (1 Bft)
09.12.2017 17:24 -5,6 °C -5,6 °C 83 % 1018,0 hPa 0,0 mm 4,2 km/h (1 Bft) S-SW 213 ° 0 min 0,000 mm 0,0 UV-I 0 W/m² -8,0 °C -5,6 °C 8,0 km/h (2 Bft)
09.12.2017 17:25 -5,7 °C -5,6 °C 83 % 1018,0 hPa 0,0 mm 7,0 km/h (2 Bft) S-SW 206 ° 0 min 0,000 mm 0,0 UV-I 0 W/m² -8,1 °C -9,0 °C 9,7 km/h (2 Bft)
09.12.2017 17:27 -5,7 °C -5,6 °C 83 % 1018,0 hPa 0,0 mm 5,1 km/h (1 Bft) S-SW 211 ° 0 min 0,000 mm 0,0 UV-I 0 W/m² -8,1 °C -8,1 °C 8,0 km/h (2 Bft)
09.12.2017 17:28 -5,7 °C -5,7 °C 83 % 1018,0 hPa 0,0 mm 5,2 km/h (1 Bft) S-SW 209 ° 0 min 0,000 mm 0,0 UV-I 0 W/m² -8,1 °C -8,2 °C 8,0 km/h (2 Bft)
09.12.2017 17:29 -5,7 °C -5,7 °C 83 % 1018,0 hPa 0,0 mm 4,8 km/h (1 Bft) S 189 ° 0 min 0,000 mm 0,0 UV-I 0 W/m² -8,1 °C -7,9 °C 8,0 km/h (2 Bft)
09.12.2017 17:30 -5,7 °C -5,7 °C 83 % 1018,0 hPa 0,0 mm 4,7 km/h (1 Bft) S-SW 205 ° 0 min 0,000 mm 0,0 UV-I 0 W/m² -8,1 °C -7,9 °C 8,0 km/h (2 Bft)
09.12.2017 17:31 -5,7 °C -5,7 °C 83 % 1018,0 hPa 0,0 mm 2,4 km/h (1 Bft) S 188 ° 0 min 0,000 mm 0,0 UV-I 0 W/m² -8,1 °C -5,7 °C 4,8 km/h (1 Bft)
09.12.2017 17:32 -5,7 °C -5,7 °C 83 % 1018,0 hPa 0,0 mm 3,1 km/h (1 Bft) W-SW 238 ° 0 min 0,000 mm 0,0 UV-I 0 W/m² -8,1 °C -5,7 °C 4,8 km/h (1 Bft)
09.12.2017 17:33 -5,8 °C -5,7 °C 83 % 1018,0 hPa 0,0 mm 3,8 km/h (1 Bft) S 189 ° 0 min 0,000 mm 0,0 UV-I 0 W/m² -8,2 °C -5,8 °C 8,0 km/h (2 Bft)
09.12.2017 17:34 -5,8 °C -5,7 °C 83 % 1018,0 hPa 0,0 mm 5,2 km/h (1 Bft) S-SW 207 ° 0 min 0,000 mm 0,0 UV-I 0 W/m² -8,2 °C -8,3 °C 6,4 km/h (2 Bft)
09.12.2017 17:35 -5,8 °C -5,8 °C 83 % 1018,0 hPa 0,0 mm 9,4 km/h (2 Bft) SW 225 ° 0 min 0,000 mm 0,0 UV-I 0 W/m² -8,2 °C -10,0 °C 14,5 km/h (3 Bft)
09.12.2017 17:36 -5,8 °C -5,8 °C 83 % 1018,0 hPa 0,0 mm 4,8 km/h (1 Bft) SW 227 ° 0 min 0,000 mm 0,0 UV-I 0 W/m² -8,2 °C -8,1 °C 4,8 km/h (1 Bft)
09.12.2017 17:37 -5,8 °C -5,8 °C 83 % 1018,0 hPa 0,0 mm 3,2 km/h (1 Bft) S-SW 202 ° 0 min 0,000 mm 0,0 UV-I 0 W/m² -8,2 °C -5,8 °C 4,8 km/h (1 Bft)
09.12.2017 17:38 -5,8 °C -5,8 °C 83 % 1018,0 hPa 0,0 mm 4,8 km/h (1 Bft) S-SW 202 ° 0 min 0,000 mm 0,0 UV-I 0 W/m² -8,2 °C -8,1 °C 9,7 km/h (2 Bft)
09.12.2017 17:39 -5,8 °C -5,8 °C 83 % 1018,0 hPa 0,0 mm 8,0 km/h (2 Bft) S-SW 202 ° 0 min 0,000 mm 0,0 UV-I 0 W/m² -8,2 °C -9,6 °C 11,3 km/h (2 Bft)
09.12.2017 17:40 -5,8 °C -5,8 °C 83 % 1018,0 hPa 0,0 mm 6,4 km/h (2 Bft) S-SW 202 ° 0 min 0,000 mm 0,0 UV-I 0 W/m² -8,2 °C -8,9 °C 8,0 km/h (2 Bft)
09.12.2017 17:41 -5,8 °C -5,8 °C 84 % 1018,0 hPa 0,0 mm 4,8 km/h (1 Bft) S-SW 202 ° 0 min 0,000 mm 0,0 UV-I 0 W/m² -8,1 °C -8,1 °C 6,4 km/h (2 Bft)
09.12.2017 17:42 -5,8 °C -5,8 °C 84 % 1017,9 hPa 0,0 mm 1,6 km/h (1 Bft) S-SW 202 ° 0 min 0,000 mm 0,0 UV-I 0 W/m² -8,1 °C -5,8 °C 4,8 km/h (1 Bft)
09.12.2017 17:43 -5,9 °C -5,8 °C 84 % 1017,9 hPa 0,0 mm 1,6 km/h (1 Bft) S-SW 202 ° 0 min 0,000 mm 0,0 UV-I 0 W/m² -8,2 °C -5,9 °C 3,2 km/h (1 Bft)
09.12.2017 17:44 -5,9 °C -5,8 °C 84 % 1017,9 hPa 0,0 mm 1,6 km/h (1 Bft) S-SW 202 ° 0 min 0,000 mm 0,0 UV-I 0 W/m² -8,2 °C -5,9 °C 3,2 km/h (1 Bft)
09.12.2017 17:45 -5,9 °C -5,9 °C 84 % 1017,9 hPa 0,0 mm 3,2 km/h (1 Bft) S-SW 202 ° 0 min 0,000 mm 0,0 UV-I 0 W/m² -8,2 °C -5,9 °C 6,4 km/h (2 Bft)
09.12.2017 17:46 -5,9 °C -5,9 °C 83 % 1017,9 hPa 0,0 mm 4,8 km/h (1 Bft) S-SW 202 ° 0 min 0,000 mm 0,0 UV-I 0 W/m² -8,3 °C -8,2 °C 6,4 km/h (2 Bft)
09.12.2017 17:48 -5,9 °C -5,9 °C 84 % 1018,0 hPa 0,0 mm 3,3 km/h (1 Bft) S 182 ° 0 min 0,000 mm 0,0 UV-I 0 W/m² -8,2 °C -5,9 °C 4,8 km/h (1 Bft)
09.12.2017 17:49 -5,9 °C -5,9 °C 84 % 1018,0 hPa 0,0 mm 3,4 km/h (1 Bft) S 182 ° 0 min 0,000 mm 0,0 UV-I 0 W/m² -8,2 °C -5,9 °C 4,8 km/h (1 Bft)
09.12.2017 17:50 -5,9 °C -5,9 °C 83 % 1018,0 hPa 0,0 mm 2,7 km/h (1 Bft) S 182 ° 0 min 0,000 mm 0,0 UV-I 0 W/m² -8,3 °C -5,9 °C 4,8 km/h (1 Bft)
09.12.2017 17:51 -5,9 °C -5,9 °C 83 % 1018,0 hPa 0,0 mm 2,4 km/h (1 Bft) S 182 ° 0 min 0,000 mm 0,0 UV-I 0 W/m² -8,3 °C -5,9 °C 3,2 km/h (1 Bft)
09.12.2017 17:52 -5,9 °C -5,9 °C 83 % 1018,1 hPa 0,0 mm 4,2 km/h (1 Bft) S-SW 209 ° 0 min 0,000 mm 0,0 UV-I 0 W/m² -8,3 °C -5,9 °C 8,0 km/h (2 Bft)
09.12.2017 17:53 -6,0 °C -5,9 °C 83 % 1018,0 hPa 0,0 mm 9,9 km/h (2 Bft) S-SW 205 ° 0 min 0,000 mm 0,0 UV-I 0 W/m² -8,4 °C -10,5 °C 14,5 km/h (3 Bft)
09.12.2017 17:54 -5,9 °C -5,9 °C 83 % 1018,0 hPa 0,0 mm 7,2 km/h (2 Bft) S-SW 205 ° 0 min 0,000 mm 0,0 UV-I 0 W/m² -8,3 °C -9,3 °C 9,7 km/h (2 Bft)
09.12.2017 17:55 -6,0 °C -5,9 °C 83 % 1017,9 hPa 0,0 mm 4,2 km/h (1 Bft) S-SW 195 ° 0 min 0,000 mm 0,0 UV-I 0 W/m² -8,4 °C -6,0 °C 6,4 km/h (2 Bft)
09.12.2017 17:56 -6,0 °C -6,0 °C 83 % 1018,0 hPa 0,0 mm 1,9 km/h (1 Bft) S-SW 205 ° 0 min 0,000 mm 0,0 UV-I 0 W/m² -8,4 °C -6,0 °C 3,2 km/h (1 Bft)
09.12.2017 17:57 -6,0 °C -5,9 °C 83 % 1018,0 hPa 0,0 mm 2,7 km/h (1 Bft) S-SW 205 ° 0 min 0,000 mm 0,0 UV-I 0 W/m² -8,4 °C -6,0 °C 3,2 km/h (1 Bft)
09.12.2017 17:58 -6,0 °C -6,0 °C 83 % 1018,0 hPa 0,0 mm 3,3 km/h (1 Bft) S-SW 205 ° 0 min 0,000 mm 0,0 UV-I 0 W/m² -8,4 °C -6,0 °C 4,8 km/h (1 Bft)
09.12.2017 17:59 -6,0 °C -6,0 °C 83 % 1018,0 hPa 0,0 mm 4,3 km/h (1 Bft) S-SW 205 ° 0 min 0,000 mm 0,0 UV-I 0 W/m² -8,4 °C -6,0 °C 8,0 km/h (2 Bft)
09.12.2017 18:00 -6,0 °C -6,0 °C 83 % 1018,0 hPa 0,0 mm 4,4 km/h (1 Bft) S 188 ° 0 min 0,000 mm 0,0 UV-I 0 W/m² -8,4 °C -6,0 °C 6,4 km/h (2 Bft)
09.12.2017 18:01 -6,0 °C -6,0 °C 83 % 1018,0 hPa 0,0 mm 3,6 km/h (1 Bft) SW 215 ° 0 min 0,000 mm 0,0 UV-I 0 W/m² -8,4 °C -6,0 °C 8,0 km/h (2 Bft)
09.12.2017 18:02 -6,0 °C -6,0 °C 83 % 1018,0 hPa 0,0 mm 5,5 km/h (1 Bft) W-SW 241 ° 0 min 0,000 mm 0,0 UV-I 0 W/m² -8,4 °C -8,7 °C 8,0 km/h (2 Bft)
09.12.2017 18:03 -6,0 °C -6,0 °C 83 % 1018,0 hPa 0,0 mm 3,3 km/h (1 Bft) S-SW 211 ° 0 min 0,000 mm 0,0 UV-I 0 W/m² -8,4 °C -6,0 °C 4,8 km/h (1 Bft)
09.12.2017 18:04 -6,0 °C -6,0 °C 83 % 1017,9 hPa 0,0 mm 4,1 km/h (1 Bft) S-SW 195 ° 0 min 0,000 mm 0,0 UV-I 0 W/m² -8,4 °C -6,0 °C 4,8 km/h (1 Bft)
09.12.2017 18:05 -6,0 °C -6,0 °C 83 % 1017,9 hPa 0,0 mm 4,8 km/h (1 Bft) W-SW 244 ° 0 min 0,000 mm 0,0 UV-I 0 W/m² -8,4 °C -8,3 °C 6,4 km/h (2 Bft)
09.12.2017 18:06 -6,0 °C -6,0 °C 83 % 1018,0 hPa 0,0 mm 3,2 km/h (1 Bft) SW 219 ° 0 min 0,000 mm 0,0 UV-I 0 W/m² -8,4 °C -6,0 °C 4,8 km/h (1 Bft)
09.12.2017 18:07 -6,0 °C -6,0 °C 83 % 1018,0 hPa 0,0 mm 4,2 km/h (1 Bft) S-SW 207 ° 0 min 0,000 mm 0,0 UV-I 0 W/m² -8,4 °C -6,0 °C 4,8 km/h (1 Bft)
09.12.2017 18:09 -6,1 °C -6,0 °C 83 % 1018,0 hPa 0,0 mm 5,2 km/h (1 Bft) S-SW 198 ° 0 min 0,000 mm 0,0 UV-I 0 W/m² -8,5 °C -8,6 °C 8,0 km/h (2 Bft)
09.12.2017 18:10 -6,1 °C -6,0 °C 83 % 1018,0 hPa 0,0 mm 5,6 km/h (1 Bft) S-SW 199 ° 0 min 0,000 mm 0,0 UV-I 0 W/m² -8,5 °C -8,8 °C 6,4 km/h (2 Bft)
09.12.2017 18:11 -6,1 °C -6,0 °C 83 % 1018,0 hPa 0,0 mm 6,4 km/h (2 Bft) S-SW 194 ° 0 min 0,000 mm 0,0 UV-I 0 W/m² -8,5 °C -9,2 °C 8,0 km/h (2 Bft)
09.12.2017 18:12 -6,1 °C -6,1 °C 83 % 1018,0 hPa 0,0 mm 4,3 km/h (1 Bft) SW 218 ° 0 min 0,000 mm 0,0 UV-I 0 W/m² -8,5 °C -6,1 °C 4,8 km/h (1 Bft)
09.12.2017 18:13 -6,1 °C -6,1 °C 83 % 1018,0 hPa 0,0 mm 3,5 km/h (1 Bft) SW 218 ° 0 min 0,000 mm 0,0 UV-I 0 W/m² -8,5 °C -6,1 °C 4,8 km/h (1 Bft)
09.12.2017 18:14 -6,1 °C -6,1 °C 83 % 1018,0 hPa 0,0 mm 3,7 km/h (1 Bft) S-SW 200 ° 0 min 0,000 mm 0,0 UV-I 0 W/m² -8,5 °C -6,1 °C 6,4 km/h (2 Bft)
09.12.2017 18:15 -6,1 °C -6,1 °C 83 % 1018,0 hPa 0,0 mm 4,6 km/h (1 Bft) S-SW 200 ° 0 min 0,000 mm 0,0 UV-I 0 W/m² -8,5 °C -8,3 °C 4,8 km/h (1 Bft)
09.12.2017 18:16 -6,1 °C -6,1 °C 83 % 1018,0 hPa 0,0 mm 4,4 km/h (1 Bft) S-SW 205 ° 0 min 0,000 mm 0,0 UV-I 0 W/m² -8,5 °C -6,1 °C 6,4 km/h (2 Bft)
09.12.2017 18:17 -6,1 °C -6,1 °C 83 % 1018,0 hPa 0,0 mm 4,0 km/h (1 Bft) S-SW 205 ° 0 min 0,000 mm 0,0 UV-I 0 W/m² -8,5 °C -6,1 °C 6,4 km/h (2 Bft)
09.12.2017 18:18 -6,1 °C -6,1 °C 83 % 1018,0 hPa 0,0 mm 4,2 km/h (1 Bft) S-SW 206 ° 0 min 0,000 mm 0,0 UV-I 0 W/m² -8,5 °C -6,1 °C 6,4 km/h (2 Bft)
09.12.2017 18:19 -6,1 °C -6,1 °C 83 % 1018,0 hPa 0,0 mm 5,4 km/h (1 Bft) S-SW 211 ° 0 min 0,000 mm 0,0 UV-I 0 W/m² -8,5 °C -8,7 °C 6,4 km/h (2 Bft)
09.12.2017 18:20 -6,2 °C -6,1 °C 83 % 1018,1 hPa 0,0 mm 5,3 km/h (1 Bft) S 187 ° 0 min 0,000 mm 0,0 UV-I 0 W/m² -8,6 °C -8,8 °C 6,4 km/h (2 Bft)
09.12.2017 18:21 -6,2 °C -6,2 °C 83 % 1018,0 hPa 0,0 mm 8,9 km/h (2 Bft) S-SW 196 ° 0 min 0,000 mm 0,0 UV-I 0 W/m² -8,6 °C -10,4 °C 9,7 km/h (2 Bft)
09.12.2017 18:22 -6,2 °C -6,1 °C 83 % 1018,0 hPa 0,0 mm 3,2 km/h (1 Bft) S-SW 202 ° 0 min 0,000 mm 0,0 UV-I 0 W/m² -8,6 °C -6,2 °C 4,8 km/h (1 Bft)
09.12.2017 18:23 -6,2 °C -6,2 °C 83 % 1018,1 hPa 0,0 mm 4,8 km/h (1 Bft) S-SW 202 ° 0 min 0,000 mm 0,0 UV-I 0 W/m² -8,6 °C -8,5 °C 6,4 km/h (2 Bft)
09.12.2017 18:24 -6,2 °C -6,2 °C 83 % 1018,0 hPa 0,0 mm 6,4 km/h (2 Bft) S-SW 202 ° 0 min 0,000 mm 0,0 UV-I 0 W/m² -8,6 °C -9,3 °C 6,4 km/h (2 Bft)
09.12.2017 18:25 -6,2 °C -6,2 °C 83 % 1018,1 hPa 0,0 mm 3,2 km/h (1 Bft) S-SW 202 ° 0 min 0,000 mm 0,0 UV-I 0 W/m² -8,6 °C -6,2 °C 6,4 km/h (2 Bft)
09.12.2017 18:26 -6,2 °C -6,2 °C 83 % 1018,0 hPa 0,0 mm 4,8 km/h (1 Bft) S-SW 202 ° 0 min 0,000 mm 0,0 UV-I 0 W/m² -8,6 °C -8,5 °C 8,0 km/h (2 Bft)
09.12.2017 18:27 -6,2 °C -6,2 °C 83 % 1018,1 hPa 0,0 mm 4,8 km/h (1 Bft) S-SW 202 ° 0 min 0,000 mm 0,0 UV-I 0 W/m² -8,6 °C -8,5 °C 8,0 km/h (2 Bft)
09.12.2017 18:28 -6,2 °C -6,2 °C 83 % 1018,1 hPa 0,0 mm 3,2 km/h (1 Bft) S-SW 202 ° 0 min 0,000 mm 0,0 UV-I 0 W/m² -8,6 °C -6,2 °C 4,8 km/h (1 Bft)
09.12.2017 18:29 -6,2 °C -6,2 °C 83 % 1018,1 hPa 0,0 mm 3,2 km/h (1 Bft) S-SW 202 ° 0 min 0,000 mm 0,0 UV-I 0 W/m² -8,6 °C -6,2 °C 4,8 km/h (1 Bft)
09.12.2017 18:30 -6,2 °C -6,2 °C 83 % 1018,1 hPa 0,0 mm 3,2 km/h (1 Bft) S-SW 202 ° 0 min 0,000 mm 0,0 UV-I 0 W/m² -8,6 °C -6,2 °C 3,2 km/h (1 Bft)
09.12.2017 18:31 -6,2 °C -6,2 °C 83 % 1018,1 hPa 0,0 mm 1,6 km/h (1 Bft) S-SW 202 ° 0 min 0,000 mm 0,0 UV-I 0 W/m² -8,6 °C -6,2 °C 4,8 km/h (1 Bft)
09.12.2017 18:33 -6,2 °C -6,2 °C 83 % 1018,0 hPa 0,0 mm 1,4 km/h (1 Bft) S-SW 200 ° 0 min 0,000 mm 0,0 UV-I 0 W/m² -8,6 °C -6,2 °C 3,2 km/h (1 Bft)
09.12.2017 18:34 -6,2 °C -6,2 °C 83 % 1018,0 hPa 0,0 mm 2,4 km/h (1 Bft) S-SW 200 ° 0 min 0,000 mm 0,0 UV-I 0 W/m² -8,6 °C -6,2 °C 3,2 km/h (1 Bft)
09.12.2017 18:35 -6,2 °C -6,2 °C 83 % 1018,1 hPa 0,0 mm 2,9 km/h (1 Bft) S-SW 200 ° 0 min 0,000 mm 0,0 UV-I 0 W/m² -8,6 °C -6,2 °C 4,8 km/h (1 Bft)
09.12.2017 18:37 -6,2 °C -6,2 °C 83 % 1018,1 hPa 0,0 mm 3,2 km/h (1 Bft) S-SW 200 ° 0 min 0,000 mm 0,0 UV-I 0 W/m² -8,6 °C -6,2 °C 3,2 km/h (1 Bft)
09.12.2017 18:38 -6,2 °C -6,2 °C 83 % 1018,1 hPa 0,0 mm 3,2 km/h (1 Bft) SW 225 ° 0 min 0,000 mm 0,0 UV-I 0 W/m² -8,6 °C -6,2 °C 6,4 km/h (2 Bft)
09.12.2017 18:39 -6,1 °C -6,1 °C 84 % 1018,1 hPa 0,0 mm 4,8 km/h (1 Bft) W-SW 247 ° 0 min 0,000 mm 0,0 UV-I 0 W/m² -8,4 °C -8,4 °C 6,4 km/h (2 Bft)
09.12.2017 18:40 -6,2 °C -6,1 °C 84 % 1018,1 hPa 0,0 mm 6,4 km/h (2 Bft) S-SW 202 ° 0 min 0,000 mm 0,0 UV-I 0 W/m² -8,4 °C -9,3 °C 8,0 km/h (2 Bft)
09.12.2017 18:41 -6,1 °C -6,1 °C 84 % 1018,1 hPa 0,0 mm 6,4 km/h (2 Bft) SW 225 ° 0 min 0,000 mm 0,0 UV-I 0 W/m² -8,4 °C -9,2 °C 11,3 km/h (2 Bft)
09.12.2017 18:42 -6,1 °C -6,1 °C 84 % 1018,0 hPa 0,0 mm 4,8 km/h (1 Bft) SW 225 ° 0 min 0,000 mm 0,0 UV-I 0 W/m² -8,4 °C -8,4 °C 6,4 km/h (2 Bft)
09.12.2017 18:43 -6,1 °C -6,1 °C 84 % 1018,1 hPa 0,0 mm 4,8 km/h (1 Bft) S-SW 202 ° 0 min 0,000 mm 0,0 UV-I 0 W/m² -8,4 °C -8,4 °C 8,0 km/h (2 Bft)
09.12.2017 18:44 -6,1 °C -6,1 °C 84 % 1018,1 hPa 0,0 mm 4,8 km/h (1 Bft) S-SW 202 ° 0 min 0,000 mm 0,0 UV-I 0 W/m² -8,4 °C -8,4 °C 6,4 km/h (2 Bft)
09.12.2017 18:45 -6,1 °C -6,1 °C 84 % 1018,1 hPa 0,0 mm 4,8 km/h (1 Bft) S-SW 202 ° 0 min 0,000 mm 0,0 UV-I 0 W/m² -8,4 °C -8,4 °C 8,0 km/h (2 Bft)
09.12.2017 18:46 -6,1 °C -6,0 °C 83 % 1018,1 hPa 0,0 mm 8,0 km/h (2 Bft) S-SW 202 ° 0 min 0,000 mm 0,0 UV-I 0 W/m² -8,5 °C -9,9 °C 12,9 km/h (3 Bft)
09.12.2017 18:47 -6,1 °C -6,1 °C 84 % 1018,1 hPa 0,0 mm 4,8 km/h (1 Bft) S-SW 202 ° 0 min 0,000 mm 0,0 UV-I 0 W/m² -8,4 °C -8,4 °C 6,4 km/h (2 Bft)
09.12.2017 18:49 -6,0 °C -6,0 °C 84 % 1018,1 hPa 0,0 mm 5,5 km/h (1 Bft) S-SW 204 ° 0 min 0,000 mm 0,0 UV-I 0 W/m² -8,3 °C -8,7 °C 8,0 km/h (2 Bft)
09.12.2017 18:50 -6,0 °C -6,0 °C 84 % 1018,1 hPa 0,0 mm 3,6 km/h (1 Bft) SW 219 ° 0 min 0,000 mm 0,0 UV-I 0 W/m² -8,3 °C -6,0 °C 6,4 km/h (2 Bft)
09.12.2017 18:51 -6,0 °C -6,0 °C 84 % 1018,2 hPa 0,0 mm 1,6 km/h (1 Bft) SW 219 ° 0 min 0,000 mm 0,0 UV-I 0 W/m² -8,3 °C -6,0 °C 1,6 km/h (1 Bft)
09.12.2017 18:52 -5,9 °C -5,9 °C 84 % 1018,1 hPa 0,0 mm 1,6 km/h (1 Bft) SW 225 ° 0 min 0,000 mm 0,0 UV-I 0 W/m² -8,2 °C -5,9 °C 3,2 km/h (1 Bft)
09.12.2017 18:53 -5,9 °C -5,9 °C 84 % 1018,1 hPa 0,0 mm 6,4 km/h (2 Bft) SW 225 ° 0 min 0,000 mm 0,0 UV-I 0 W/m² -8,2 °C -9,0 °C 9,7 km/h (2 Bft)
09.12.2017 18:54 -5,9 °C -5,9 °C 84 % 1018,1 hPa 0,0 mm 4,8 km/h (1 Bft) S-SW 202 ° 0 min 0,000 mm 0,0 UV-I 0 W/m² -8,2 °C -8,2 °C 8,0 km/h (2 Bft)
09.12.2017 18:55 -5,9 °C -5,9 °C 84 % 1018,1 hPa 0,0 mm 3,2 km/h (1 Bft) S-SW 202 ° 0 min 0,000 mm 0,0 UV-I 0 W/m² -8,2 °C -5,9 °C 4,8 km/h (1 Bft)
09.12.2017 18:56 -5,8 °C -5,8 °C 84 % 1018,1 hPa 0,0 mm 4,8 km/h (1 Bft) SW 225 ° 0 min 0,000 mm 0,0 UV-I 0 W/m² -8,1 °C -8,1 °C 4,8 km/h (1 Bft)
09.12.2017 18:57 -5,8 °C -5,8 °C 84 % 1018,1 hPa 0,0 mm 3,2 km/h (1 Bft) SW 225 ° 0 min 0,000 mm 0,0 UV-I 0 W/m² -8,1 °C -5,8 °C 4,8 km/h (1 Bft)
09.12.2017 18:58 -5,8 °C -5,8 °C 84 % 1018,2 hPa 0,0 mm 3,2 km/h (1 Bft) S-SW 202 ° 0 min 0,000 mm 0,0 UV-I 0 W/m² -8,1 °C -5,8 °C 8,0 km/h (2 Bft)
09.12.2017 18:59 -5,8 °C -5,8 °C 84 % 1018,1 hPa 0,0 mm 4,8 km/h (1 Bft) SW 225 ° 0 min 0,000 mm 0,0 UV-I 0 W/m² -8,1 °C -8,1 °C 9,7 km/h (2 Bft)
09.12.2017 19:00 -5,7 °C -5,7 °C 84 % 1018,1 hPa 0,0 mm 6,4 km/h (2 Bft) S-SW 202 ° 0 min 0,000 mm 0,0 UV-I 0 W/m² -8,0 °C -8,8 °C 12,9 km/h (3 Bft)
09.12.2017 19:03 -5,7 °C -5,7 °C 84 % 1018,2 hPa 0,0 mm 6,8 km/h (2 Bft) SW 218 ° 0 min 0,000 mm 0,0 UV-I 0 W/m² -8,0 °C -8,9 °C 14,5 km/h (3 Bft)
09.12.2017 19:04 -5,7 °C -5,7 °C 84 % 1018,2 hPa 0,0 mm 4,4 km/h (1 Bft) SW 214 ° 0 min 0,000 mm 0,0 UV-I 0 W/m² -8,0 °C -5,7 °C 6,4 km/h (2 Bft)
09.12.2017 19:05 -5,6 °C -5,6 °C 84 % 1018,2 hPa 0,0 mm 9,1 km/h (2 Bft) S-SW 205 ° 0 min 0,000 mm 0,0 UV-I 0 W/m² -7,9 °C -9,7 °C 16,1 km/h (3 Bft)
09.12.2017 19:07 -5,6 °C -5,6 °C 84 % 1018,2 hPa 0,0 mm 6,3 km/h (2 Bft) W-SW 239 ° 0 min 0,000 mm 0,0 UV-I 0 W/m² -7,9 °C -8,6 °C 11,3 km/h (2 Bft)
09.12.2017 19:08 -5,6 °C -5,6 °C 84 % 1018,2 hPa 0,0 mm 3,4 km/h (1 Bft) SW 229 ° 0 min 0,000 mm 0,0 UV-I 0 W/m² -7,9 °C -5,6 °C 4,8 km/h (1 Bft)
09.12.2017 19:09 -5,6 °C -5,6 °C 84 % 1018,2 hPa 0,0 mm 3,4 km/h (1 Bft) SW 225 ° 0 min 0,000 mm 0,0 UV-I 0 W/m² -7,9 °C -5,6 °C 6,4 km/h (2 Bft)
09.12.2017 19:10 -5,6 °C -5,5 °C 84 % 1018,2 hPa 0,0 mm 7,1 km/h (2 Bft) W 271 ° 0 min 0,000 mm 0,0 UV-I 0 W/m² -7,9 °C -9,0 °C 9,7 km/h (2 Bft)
09.12.2017 19:12 -5,5 °C -5,5 °C 84 % 1018,3 hPa 0,0 mm 9,2 km/h (2 Bft) SW 234 ° 0 min 0,000 mm 0,0 UV-I 0 W/m² -7,8 °C -9,6 °C 14,5 km/h (3 Bft)
09.12.2017 19:13 -5,5 °C -5,5 °C 84 % 1018,3 hPa 0,0 mm 5,4 km/h (1 Bft) S-SW 210 ° 0 min 0,000 mm 0,0 UV-I 0 W/m² -7,8 °C -8,0 °C 6,4 km/h (2 Bft)
09.12.2017 19:14 -5,5 °C -5,5 °C 84 % 1018,2 hPa 0,0 mm 6,2 km/h (2 Bft) W-SW 238 ° 0 min 0,000 mm 0,0 UV-I 0 W/m² -7,8 °C -8,4 °C 11,3 km/h (2 Bft)
09.12.2017 19:15 -5,5 °C -5,5 °C 84 % 1018,3 hPa 0,0 mm 8,6 km/h (2 Bft) W-SW 250 ° 0 min 0,000 mm 0,0 UV-I 0 W/m² -7,8 °C -9,4 °C 11,3 km/h (2 Bft)
09.12.2017 19:16 -5,5 °C -5,5 °C 84 % 1018,3 hPa 0,0 mm 4,8 km/h (1 Bft) W-SW 250 ° 0 min 0,000 mm 0,0 UV-I 0 W/m² -7,8 °C -7,7 °C 4,8 km/h (1 Bft)
09.12.2017 19:17 -5,5 °C -5,5 °C 84 % 1018,3 hPa 0,0 mm 6,4 km/h (2 Bft) S-SW 202 ° 0 min 0,000 mm 0,0 UV-I 0 W/m² -7,8 °C -8,5 °C 9,7 km/h (2 Bft)
09.12.2017 19:18 -5,5 °C -5,4 °C 84 % 1018,3 hPa 0,0 mm 8,0 km/h (2 Bft) S-SW 202 ° 0 min 0,000 mm 0,0 UV-I 0 W/m² -7,8 °C -9,2 °C 11,3 km/h (2 Bft)
09.12.2017 19:19 -5,5 °C -5,5 °C 84 % 1018,3 hPa 0,0 mm 6,4 km/h (2 Bft) SW 225 ° 0 min 0,000 mm 0,0 UV-I 0 W/m² -7,8 °C -8,5 °C 9,7 km/h (2 Bft)
09.12.2017 19:20 -5,5 °C -5,4 °C 84 % 1018,3 hPa 0,0 mm 8,0 km/h (2 Bft) S-SW 202 ° 0 min 0,000 mm 0,0 UV-I 0 W/m² -7,8 °C -9,2 °C 12,9 km/h (3 Bft)
09.12.2017 19:21 -5,5 °C -5,5 °C 84 % 1018,4 hPa 0,0 mm 4,8 km/h (1 Bft) S-SW 202 ° 0 min 0,000 mm 0,0 UV-I 0 W/m² -7,8 °C -7,7 °C 9,7 km/h (2 Bft)
09.12.2017 19:22 -5,5 °C -5,5 °C 84 % 1018,3 hPa 0,0 mm 4,8 km/h (1 Bft) S-SW 202 ° 0 min 0,000 mm 0,0 UV-I 0 W/m² -7,8 °C -7,7 °C 8,0 km/h (2 Bft)
09.12.2017 19:23 -5,5 °C -5,5 °C 84 % 1018,4 hPa 0,0 mm 4,8 km/h (1 Bft) S-SW 202 ° 0 min 0,000 mm 0,0 UV-I 0 W/m² -7,8 °C -7,7 °C 8,0 km/h (2 Bft)
09.12.2017 19:24 -5,5 °C -5,5 °C 85 % 1018,5 hPa 0,0 mm 9,7 km/h (2 Bft) S-SW 202 ° 0 min 0,000 mm 0,0 UV-I 0 W/m² -7,6 °C -9,8 °C 14,5 km/h (3 Bft)
09.12.2017 19:25 -5,5 °C -5,5 °C 85 % 1018,3 hPa 0,0 mm 9,7 km/h (2 Bft) S-SW 202 ° 0 min 0,000 mm 0,0 UV-I 0 W/m² -7,6 °C -9,8 °C 12,9 km/h (3 Bft)
09.12.2017 19:28 -5,5 °C -5,5 °C 84 % 1018,3 hPa 0,0 mm 8,0 km/h (2 Bft) W-SW 255 ° 0 min 0,000 mm 0,0 UV-I 0 W/m² -7,8 °C -9,2 °C 12,9 km/h (3 Bft)
09.12.2017 19:29 -5,5 °C -5,5 °C 85 % 1018,3 hPa 0,0 mm 4,5 km/h (1 Bft) S-SW 196 ° 0 min 0,000 mm 0,0 UV-I 0 W/m² -7,6 °C -5,5 °C 6,4 km/h (2 Bft)
09.12.2017 19:30 -5,5 °C -5,5 °C 85 % 1018,3 hPa 0,0 mm 6,7 km/h (2 Bft) S-SW 198 ° 0 min 0,000 mm 0,0 UV-I 0 W/m² -7,6 °C -8,7 °C 9,7 km/h (2 Bft)
09.12.2017 19:32 -5,5 °C -5,5 °C 85 % 1018,4 hPa 0,0 mm 8,9 km/h (2 Bft) S-SW 198 ° 0 min 0,000 mm 0,0 UV-I 0 W/m² -7,6 °C -9,5 °C 14,5 km/h (3 Bft)
09.12.2017 19:33 -5,6 °C -5,5 °C 85 % 1018,4 hPa 0,0 mm 7,7 km/h (2 Bft) S-SW 200 ° 0 min 0,000 mm 0,0 UV-I 0 W/m² -7,7 °C -9,2 °C 12,9 km/h (3 Bft)
09.12.2017 19:34 -5,6 °C -5,6 °C 85 % 1018,4 hPa 0,0 mm 7,6 km/h (2 Bft) SW 216 ° 0 min 0,000 mm 0,0 UV-I 0 W/m² -7,7 °C -9,2 °C 11,3 km/h (2 Bft)
09.12.2017 19:36 -5,6 °C -5,6 °C 85 % 1018,4 hPa 0,0 mm 9,0 km/h (2 Bft) S 182 ° 0 min 0,000 mm 0,0 UV-I 0 W/m² -7,7 °C -9,7 °C 14,5 km/h (3 Bft)
09.12.2017 19:37 -5,6 °C -5,6 °C 85 % 1018,4 hPa 0,0 mm 6,9 km/h (2 Bft) S-SW 205 ° 0 min 0,000 mm 0,0 UV-I 0 W/m² -7,7 °C -8,9 °C 9,7 km/h (2 Bft)
09.12.2017 19:39 -5,6 °C -5,6 °C 85 % 1018,3 hPa 0,0 mm 6,1 km/h (2 Bft) SW 226 ° 0 min 0,000 mm 0,0 UV-I 0 W/m² -7,7 °C -8,5 °C 9,7 km/h (2 Bft)
09.12.2017 19:40 -5,6 °C -5,6 °C 85 % 1018,3 hPa 0,0 mm 5,0 km/h (1 Bft) SW 216 ° 0 min 0,000 mm 0,0 UV-I 0 W/m² -7,7 °C -7,9 °C 8,0 km/h (2 Bft)
09.12.2017 19:42 -5,6 °C -5,6 °C 85 % 1018,3 hPa 0,0 mm 7,3 km/h (2 Bft) S 190 ° 0 min 0,000 mm 0,0 UV-I 0 W/m² -7,7 °C -9,0 °C 12,9 km/h (3 Bft)
09.12.2017 19:43 -5,6 °C -5,6 °C 85 % 1018,3 hPa 0,0 mm 5,9 km/h (2 Bft) W-SW 248 ° 0 min 0,000 mm 0,0 UV-I 0 W/m² -7,7 °C -8,4 °C 9,7 km/h (2 Bft)
09.12.2017 19:45 -5,6 °C -5,6 °C 85 % 1018,3 hPa 0,0 mm 6,5 km/h (2 Bft) SW 234 ° 0 min 0,000 mm 0,0 UV-I 0 W/m² -7,7 °C -8,7 °C 9,7 km/h (2 Bft)
09.12.2017 19:46 -5,6 °C -5,6 °C 85 % 1018,3 hPa 0,0 mm 4,8 km/h (1 Bft) S-SW 198 ° 0 min 0,000 mm 0,0 UV-I 0 W/m² -7,7 °C -7,8 °C 6,4 km/h (2 Bft)
09.12.2017 19:48 -5,6 °C -5,6 °C 85 % 1018,3 hPa 0,0 mm 7,6 km/h (2 Bft) SW 217 ° 0 min 0,000 mm 0,0 UV-I 0 W/m² -7,7 °C -9,2 °C 12,9 km/h (3 Bft)
09.12.2017 19:49 -5,6 °C -5,6 °C 86 % 1018,3 hPa 0,0 mm 6,9 km/h (2 Bft) SW 218 ° 0 min 0,000 mm 0,0 UV-I 0 W/m² -7,6 °C -8,9 °C 11,3 km/h (2 Bft)
09.12.2017 19:51 -5,6 °C -5,6 °C 86 % 1018,4 hPa 0,0 mm 5,4 km/h (1 Bft) S-SW 198 ° 0 min 0,000 mm 0,0 UV-I 0 W/m² -7,6 °C -8,2 °C 9,7 km/h (2 Bft)
09.12.2017 19:52 -5,6 °C -5,6 °C 86 % 1018,4 hPa 0,0 mm 7,7 km/h (2 Bft) SW 224 ° 0 min 0,000 mm 0,0 UV-I 0 W/m² -7,6 °C -9,2 °C 12,9 km/h (3 Bft)
09.12.2017 19:54 -5,6 °C -5,6 °C 86 % 1018,2 hPa 0,0 mm 6,5 km/h (2 Bft) S-SW 205 ° 0 min 0,000 mm 0,0 UV-I 0 W/m² -7,6 °C -8,7 °C 11,3 km/h (2 Bft)
09.12.2017 19:55 -5,6 °C -5,6 °C 86 % 1018,2 hPa 0,0 mm 9,2 km/h (2 Bft) S-SW 200 ° 0 min 0,000 mm 0,0 UV-I 0 W/m² -7,6 °C -9,7 °C 12,9 km/h (3 Bft)
09.12.2017 19:57 -5,6 °C -5,6 °C 86 % 1018,2 hPa 0,0 mm 8,9 km/h (2 Bft) S-SW 207 ° 0 min 0,000 mm 0,0 UV-I 0 W/m² -7,6 °C -9,6 °C 12,9 km/h (3 Bft)
09.12.2017 19:58 -5,6 °C -5,6 °C 86 % 1018,2 hPa 0,0 mm 9,1 km/h (2 Bft) SW 219 ° 0 min 0,000 mm 0,0 UV-I 0 W/m² -7,6 °C -9,7 °C 14,5 km/h (3 Bft)
09.12.2017 20:00 -5,6 °C -5,6 °C 86 % 1018,2 hPa 0,0 mm 8,1 km/h (2 Bft) W-SW 240 ° 0 min 0,000 mm 0,0 UV-I 0 W/m² -7,6 °C -9,4 °C 20,9 km/h (4 Bft)
09.12.2017 20:01 -5,6 °C -5,6 °C 86 % 1018,2 hPa 0,0 mm 9,4 km/h (2 Bft) W-SW 254 ° 0 min 0,000 mm 0,0 UV-I 0 W/m² -7,6 °C -9,8 °C 12,9 km/h (3 Bft)
09.12.2017 20:03 -5,6 °C -5,6 °C 86 % 1018,2 hPa 0,0 mm 7,3 km/h (2 Bft) S-SW 200 ° 0 min 0,000 mm 0,0 UV-I 0 W/m² -7,6 °C -9,0 °C 12,9 km/h (3 Bft)
09.12.2017 20:04 -5,6 °C -5,6 °C 86 % 1018,2 hPa 0,0 mm 8,2 km/h (2 Bft) S-SW 205 ° 0 min 0,000 mm 0,0 UV-I 0 W/m² -7,6 °C -9,4 °C 14,5 km/h (3 Bft)
09.12.2017 20:06 -5,6 °C -5,6 °C 86 % 1018,2 hPa 0,0 mm 6,1 km/h (2 Bft) SW 230 ° 0 min 0,000 mm 0,0 UV-I 0 W/m² -7,6 °C -8,5 °C 11,3 km/h (2 Bft)
09.12.2017 20:07 -5,6 °C -5,6 °C 86 % 1018,2 hPa 0,0 mm 6,8 km/h (2 Bft) S-SW 196 ° 0 min 0,000 mm 0,0 UV-I 0 W/m² -7,6 °C -8,8 °C 12,9 km/h (3 Bft)
09.12.2017 20:09 -5,6 °C -5,6 °C 86 % 1018,2 hPa 0,0 mm 7,4 km/h (2 Bft) SW 229 ° 0 min 0,000 mm 0,0 UV-I 0 W/m² -7,6 °C -9,1 °C 12,9 km/h (3 Bft)
09.12.2017 20:10 -5,6 °C -5,6 °C 86 % 1018,2 hPa 0,0 mm 8,0 km/h (2 Bft) W 266 ° 0 min 0,000 mm 0,0 UV-I 0 W/m² -7,6 °C -9,3 °C 12,9 km/h (3 Bft)
09.12.2017 20:12 -5,6 °C -5,6 °C 86 % 1018,1 hPa 0,0 mm 8,2 km/h (2 Bft) S-SW 211 ° 0 min 0,000 mm 0,0 UV-I 0 W/m² -7,6 °C -9,4 °C 12,9 km/h (3 Bft)
09.12.2017 20:13 -5,6 °C -5,6 °C 86 % 1018,1 hPa 0,0 mm 5,4 km/h (1 Bft) S-SW 202 ° 0 min 0,000 mm 0,0 UV-I 0 W/m² -7,6 °C -8,2 °C 8,0 km/h (2 Bft)
09.12.2017 20:15 -5,5 °C -5,5 °C 86 % 1018,1 hPa 0,0 mm 7,0 km/h (2 Bft) SW 218 ° 0 min 0,000 mm 0,0 UV-I 0 W/m² -7,5 °C -8,8 °C 11,3 km/h (2 Bft)
09.12.2017 20:16 -5,6 °C -5,5 °C 86 % 1018,1 hPa 0,0 mm 6,4 km/h (2 Bft) SW 225 ° 0 min 0,000 mm 0,0 UV-I 0 W/m² -7,6 °C -8,7 °C 9,7 km/h (2 Bft)
09.12.2017 20:17 -5,5 °C -5,5 °C 86 % 1018,0 hPa 0,0 mm 4,8 km/h (1 Bft) SW 225 ° 0 min 0,000 mm 0,0 UV-I 0 W/m² -7,5 °C -7,7 °C 8,0 km/h (2 Bft)
09.12.2017 20:18 -5,5 °C -5,5 °C 86 % 1018,0 hPa 0,0 mm 4,8 km/h (1 Bft) SW 225 ° 0 min 0,000 mm 0,0 UV-I 0 W/m² -7,5 °C -7,7 °C 6,4 km/h (2 Bft)
09.12.2017 20:19 -5,5 °C -5,5 °C 86 % 1018,1 hPa 0,0 mm 6,4 km/h (2 Bft) S-SW 202 ° 0 min 0,000 mm 0,0 UV-I 0 W/m² -7,5 °C -8,5 °C 9,7 km/h (2 Bft)
09.12.2017 20:20 -5,5 °C -5,5 °C 86 % 1018,1 hPa 0,0 mm 4,8 km/h (1 Bft) W-SW 247 ° 0 min 0,000 mm 0,0 UV-I 0 W/m² -7,5 °C -7,7 °C 11,3 km/h (2 Bft)
09.12.2017 20:21 -5,5 °C -5,5 °C 86 % 1018,0 hPa 0,0 mm 3,2 km/h (1 Bft) S-SW 202 ° 0 min 0,000 mm 0,0 UV-I 0 W/m² -7,5 °C -5,5 °C 8,0 km/h (2 Bft)
09.12.2017 20:22 -5,5 °C -5,5 °C 86 % 1018,0 hPa 0,0 mm 3,2 km/h (1 Bft) W-SW 247 ° 0 min 0,000 mm 0,0 UV-I 0 W/m² -7,5 °C -5,5 °C 4,8 km/h (1 Bft)
09.12.2017 20:23 -5,6 °C -5,5 °C 86 % 1018,0 hPa 0,0 mm 4,8 km/h (1 Bft) W-SW 247 ° 0 min 0,000 mm 0,0 UV-I 0 W/m² -7,6 °C -7,8 °C 6,4 km/h (2 Bft)
09.12.2017 20:24 -5,5 °C -5,5 °C 86 % 1018,0 hPa 0,0 mm 6,4 km/h (2 Bft) W 270 ° 0 min 0,000 mm 0,0 UV-I 0 W/m² -7,5 °C -8,5 °C 9,7 km/h (2 Bft)
09.12.2017 20:25 -5,5 °C -5,5 °C 86 % 1018,0 hPa 0,0 mm 4,8 km/h (1 Bft) W 270 ° 0 min 0,000 mm 0,0 UV-I 0 W/m² -7,5 °C -7,7 °C 6,4 km/h (2 Bft)
09.12.2017 20:27 -5,6 °C -5,5 °C 86 % 1018,1 hPa 0,0 mm 3,4 km/h (1 Bft) W-SW 244 ° 0 min 0,000 mm 0,0 UV-I 0 W/m² -7,6 °C -5,6 °C 6,4 km/h (2 Bft)
09.12.2017 20:28 -5,6 °C -5,5 °C 86 % 1018,0 hPa 0,0 mm 1,6 km/h (1 Bft) W-SW 246 ° 0 min 0,000 mm 0,0 UV-I 0 W/m² -7,6 °C -5,6 °C 4,8 km/h (1 Bft)
09.12.2017 20:29 -5,6 °C -5,6 °C 86 % 1018,1 hPa 0,0 mm 2,7 km/h (1 Bft) SW 218 ° 0 min 0,000 mm 0,0 UV-I 0 W/m² -7,6 °C -5,6 °C 4,8 km/h (1 Bft)
09.12.2017 20:30 -5,6 °C -5,6 °C 86 % 1018,1 hPa 0,0 mm 2,1 km/h (1 Bft) SW 218 ° 0 min 0,000 mm 0,0 UV-I 0 W/m² -7,6 °C -5,6 °C 3,2 km/h (1 Bft)
09.12.2017 20:31 -5,6 °C -5,6 °C 86 % 1018,0 hPa 0,0 mm 3,0 km/h (1 Bft) S-SW 207 ° 0 min 0,000 mm 0,0 UV-I 0 W/m² -7,6 °C -5,6 °C 6,4 km/h (2 Bft)
09.12.2017 20:32 -5,6 °C -5,6 °C 86 % 1018,0 hPa 0,0 mm 6,4 km/h (2 Bft) S-SW 206 ° 0 min 0,000 mm 0,0 UV-I 0 W/m² -7,6 °C -8,7 °C 8,0 km/h (2 Bft)
09.12.2017 20:33 -5,6 °C -5,6 °C 86 % 1018,0 hPa 0,0 mm 6,8 km/h (2 Bft) S-SW 196 ° 0 min 0,000 mm 0,0 UV-I 0 W/m² -7,6 °C -8,8 °C 11,3 km/h (2 Bft)
09.12.2017 20:34 -5,6 °C -5,6 °C 86 % 1018,0 hPa 0,0 mm 7,2 km/h (2 Bft) S-SW 211 ° 0 min 0,000 mm 0,0 UV-I 0 W/m² -7,6 °C -9,0 °C 11,3 km/h (2 Bft)
09.12.2017 20:35 -5,6 °C -5,6 °C 86 % 1018,0 hPa 0,0 mm 4,6 km/h (1 Bft) S-SW 211 ° 0 min 0,000 mm 0,0 UV-I 0 W/m² -7,6 °C -7,7 °C 6,4 km/h (2 Bft)
09.12.2017 20:36 -5,6 °C -5,6 °C 86 % 1018,0 hPa 0,0 mm 4,3 km/h (1 Bft) S-SW 211 ° 0 min 0,000 mm 0,0 UV-I 0 W/m² -7,6 °C -5,6 °C 4,8 km/h (1 Bft)
09.12.2017 20:37 -5,6 °C -5,6 °C 86 % 1017,9 hPa 0,0 mm 4,8 km/h (1 Bft) S-SW 202 ° 0 min 0,000 mm 0,0 UV-I 0 W/m² -7,6 °C -7,8 °C 8,0 km/h (2 Bft)
09.12.2017 20:38 -5,6 °C -5,6 °C 86 % 1018,0 hPa 0,0 mm 3,2 km/h (1 Bft) S-SW 202 ° 0 min 0,000 mm 0,0 UV-I 0 W/m² -7,6 °C -5,6 °C 4,8 km/h (1 Bft)
09.12.2017 20:39 -5,7 °C -5,7 °C 86 % 1017,9 hPa 0,0 mm 6,4 km/h (2 Bft) S-SW 202 ° 0 min 0,000 mm 0,0 UV-I 0 W/m² -7,7 °C -8,8 °C 9,7 km/h (2 Bft)
09.12.2017 20:40 -5,7 °C -5,6 °C 86 % 1017,9 hPa 0,0 mm 4,8 km/h (1 Bft) S-SW 202 ° 0 min 0,000 mm 0,0 UV-I 0 W/m² -7,7 °C -7,9 °C 6,4 km/h (2 Bft)
09.12.2017 20:41 -5,7 °C -5,6 °C 86 % 1017,9 hPa 0,0 mm 4,8 km/h (1 Bft) S-SW 202 ° 0 min 0,000 mm 0,0 UV-I 0 W/m² -7,7 °C -7,9 °C 8,0 km/h (2 Bft)
09.12.2017 20:42 -5,7 °C -5,7 °C 86 % 1017,9 hPa 0,0 mm 6,4 km/h (2 Bft) S-SW 202 ° 0 min 0,000 mm 0,0 UV-I 0 W/m² -7,7 °C -8,8 °C 12,9 km/h (3 Bft)
09.12.2017 20:43 -5,7 °C -5,7 °C 85 % 1017,9 hPa 0,0 mm 3,2 km/h (1 Bft) S-SW 202 ° 0 min 0,000 mm 0,0 UV-I 0 W/m² -7,8 °C -5,7 °C 6,4 km/h (2 Bft)
09.12.2017 20:44 -5,7 °C -5,7 °C 85 % 1017,9 hPa 0,0 mm 3,2 km/h (1 Bft) S-SW 202 ° 0 min 0,000 mm 0,0 UV-I 0 W/m² -7,8 °C -5,7 °C 6,4 km/h (2 Bft)
09.12.2017 20:45 -5,7 °C -5,7 °C 85 % 1017,8 hPa 0,0 mm 3,2 km/h (1 Bft) S-SW 202 ° 0 min 0,000 mm 0,0 UV-I 0 W/m² -7,8 °C -5,7 °C 8,0 km/h (2 Bft)
09.12.2017 20:48 -5,7 °C -5,7 °C 85 % 1017,8 hPa 0,0 mm 4,9 km/h (1 Bft) W-SW 249 ° 0 min 0,000 mm 0,0 UV-I 0 W/m² -7,8 °C -8,0 °C 6,4 km/h (2 Bft)
09.12.2017 20:49 -5,7 °C -5,7 °C 85 % 1017,9 hPa 0,0 mm 4,2 km/h (1 Bft) SW 227 ° 0 min 0,000 mm 0,0 UV-I 0 W/m² -7,8 °C -5,7 °C 6,4 km/h (2 Bft)
09.12.2017 20:50 -5,7 °C -5,7 °C 85 % 1017,8 hPa 0,0 mm 2,7 km/h (1 Bft) SW 218 ° 0 min 0,000 mm 0,0 UV-I 0 W/m² -7,8 °C -5,7 °C 4,8 km/h (1 Bft)
09.12.2017 20:52 -5,7 °C -5,7 °C 85 % 1017,9 hPa 0,0 mm 3,8 km/h (1 Bft) S-SW 205 ° 0 min 0,000 mm 0,0 UV-I 0 W/m² -7,8 °C -5,7 °C 6,4 km/h (2 Bft)
09.12.2017 20:53 -5,7 °C -5,7 °C 85 % 1017,9 hPa 0,0 mm 4,6 km/h (1 Bft) S-SW 202 ° 0 min 0,000 mm 0,0 UV-I 0 W/m² -7,8 °C -7,8 °C 6,4 km/h (2 Bft)
09.12.2017 20:54 -5,7 °C -5,7 °C 85 % 1017,9 hPa 0,0 mm 3,1 km/h (1 Bft) S-SW 207 ° 0 min 0,000 mm 0,0 UV-I 0 W/m² -7,8 °C -5,7 °C 4,8 km/h (1 Bft)
09.12.2017 20:56 -5,8 °C -5,7 °C 85 % 1017,8 hPa 0,0 mm 4,5 km/h (1 Bft) S-SW 198 ° 0 min 0,000 mm 0,0 UV-I 0 W/m² -7,9 °C -5,8 °C 6,4 km/h (2 Bft)
09.12.2017 20:57 -5,8 °C -5,7 °C 85 % 1017,8 hPa 0,0 mm 4,1 km/h (1 Bft) S-SW 194 ° 0 min 0,000 mm 0,0 UV-I 0 W/m² -7,9 °C -5,8 °C 6,4 km/h (2 Bft)
09.12.2017 20:59 -5,8 °C -5,8 °C 85 % 1017,8 hPa 0,0 mm 4,4 km/h (1 Bft) S-SW 196 ° 0 min 0,000 mm 0,0 UV-I 0 W/m² -7,9 °C -5,8 °C 9,7 km/h (2 Bft)
09.12.2017 21:00 -5,8 °C -5,8 °C 85 % 1017,8 hPa 0,0 mm 3,2 km/h (1 Bft) S-SW 196 ° 0 min 0,000 mm 0,0 UV-I 0 W/m² -7,9 °C -5,8 °C 4,8 km/h (1 Bft)
09.12.2017 21:02 -5,8 °C -5,8 °C 85 % 1017,8 hPa 0,0 mm 4,0 km/h (1 Bft) SW 236 ° 0 min 0,000 mm 0,0 UV-I 0 W/m² -7,9 °C -5,8 °C 8,0 km/h (2 Bft)
09.12.2017 21:03 -5,8 °C -5,8 °C 85 % 1017,8 hPa 0,0 mm 3,2 km/h (1 Bft) W-SW 254 ° 0 min 0,000 mm 0,0 UV-I 0 W/m² -7,9 °C -5,8 °C 4,8 km/h (1 Bft)
09.12.2017 21:05 -5,8 °C -5,8 °C 85 % 1017,7 hPa 0,0 mm 3,8 km/h (1 Bft) SW 221 ° 0 min 0,000 mm 0,0 UV-I 0 W/m² -7,9 °C -5,8 °C 6,4 km/h (2 Bft)
09.12.2017 21:06 -5,8 °C -5,8 °C 85 % 1017,7 hPa 0,0 mm 4,7 km/h (1 Bft) SW 223 ° 0 min 0,000 mm 0,0 UV-I 0 W/m² -7,9 °C -8,0 °C 8,0 km/h (2 Bft)
09.12.2017 21:08 -5,8 °C -5,8 °C 85 % 1017,7 hPa 0,0 mm 3,3 km/h (1 Bft) SW 219 ° 0 min 0,000 mm 0,0 UV-I 0 W/m² -7,9 °C -5,8 °C 6,4 km/h (2 Bft)
09.12.2017 21:09 -5,8 °C -5,8 °C 85 % 1017,7 hPa 0,0 mm 3,7 km/h (1 Bft) W-SW 244 ° 0 min 0,000 mm 0,0 UV-I 0 W/m² -7,9 °C -5,8 °C 4,8 km/h (1 Bft)
09.12.2017 21:11 -5,8 °C -5,8 °C 85 % 1017,6 hPa 0,0 mm 4,7 km/h (1 Bft) S-SW 204 ° 0 min 0,000 mm 0,0 UV-I 0 W/m² -7,9 °C -8,0 °C 8,0 km/h (2 Bft)
09.12.2017 21:12 -5,8 °C -5,8 °C 85 % 1017,6 hPa 0,0 mm 4,2 km/h (1 Bft) S-SW 211 ° 0 min 0,000 mm 0,0 UV-I 0 W/m² -7,9 °C -5,8 °C 6,4 km/h (2 Bft)
09.12.2017 21:14 -5,8 °C -5,8 °C 84 % 1017,6 hPa 0,0 mm 4,0 km/h (1 Bft) S-SW 213 ° 0 min 0,000 mm 0,0 UV-I 0 W/m² -8,1 °C -5,8 °C 6,4 km/h (2 Bft)
09.12.2017 21:15 -5,8 °C -5,8 °C 84 % 1017,6 hPa 0,0 mm 3,9 km/h (1 Bft) S-SW 213 ° 0 min 0,000 mm 0,0 UV-I 0 W/m² -8,1 °C -5,8 °C 4,8 km/h (1 Bft)
09.12.2017 21:17 -5,8 °C -5,8 °C 84 % 1017,6 hPa 0,0 mm 4,2 km/h (1 Bft) S-SW 205 ° 0 min 0,000 mm 0,0 UV-I 0 W/m² -8,1 °C -5,8 °C 8,0 km/h (2 Bft)
09.12.2017 21:18 -5,8 °C -5,8 °C 84 % 1017,6 hPa 0,0 mm 5,0 km/h (1 Bft) S-SW 206 ° 0 min 0,000 mm 0,0 UV-I 0 W/m² -8,1 °C -8,2 °C 8,0 km/h (2 Bft)
09.12.2017 21:20 -5,8 °C -5,8 °C 84 % 1017,6 hPa 0,0 mm 2,8 km/h (1 Bft) S-SW 206 ° 0 min 0,000 mm 0,0 UV-I 0 W/m² -8,1 °C -5,8 °C 4,8 km/h (1 Bft)
09.12.2017 21:21 -5,8 °C -5,8 °C 84 % 1017,6 hPa 0,0 mm 2,4 km/h (1 Bft) S-SW 206 ° 0 min 0,000 mm 0,0 UV-I 0 W/m² -8,1 °C -5,8 °C 4,8 km/h (1 Bft)
09.12.2017 21:23 -5,8 °C -5,8 °C 84 % 1017,7 hPa 0,0 mm 2,8 km/h (1 Bft) S-SW 206 ° 0 min 0,000 mm 0,0 UV-I 0 W/m² -8,1 °C -5,8 °C 4,8 km/h (1 Bft)
09.12.2017 21:24 -5,9 °C -5,8 °C 84 % 1017,7 hPa 0,0 mm 2,0 km/h (1 Bft) S-SW 206 ° 0 min 0,000 mm 0,0 UV-I 0 W/m² -8,2 °C -5,9 °C 3,2 km/h (1 Bft)
09.12.2017 21:26 -5,9 °C -5,8 °C 84 % 1017,6 hPa 0,0 mm 0,7 km/h (0 Bft) S-SW 206 ° 0 min 0,000 mm 0,0 UV-I 0 W/m² -8,2 °C -5,9 °C 1,6 km/h (1 Bft)
09.12.2017 21:27 -5,9 °C -5,8 °C 84 % 1017,6 hPa 0,0 mm 3,0 km/h (1 Bft) W-SW 250 ° 0 min 0,000 mm 0,0 UV-I 0 W/m² -8,2 °C -5,9 °C 6,4 km/h (2 Bft)
09.12.2017 21:29 -5,9 °C -5,9 °C 84 % 1017,6 hPa 0,0 mm 2,4 km/h (1 Bft) W-SW 250 ° 0 min 0,000 mm 0,0 UV-I 0 W/m² -8,2 °C -5,9 °C 4,8 km/h (1 Bft)
09.12.2017 21:30 -5,9 °C -5,9 °C 84 % 1017,6 hPa 0,0 mm 1,4 km/h (1 Bft) W-SW 250 ° 0 min 0,000 mm 0,0 UV-I 0 W/m² -8,2 °C -5,9 °C 3,2 km/h (1 Bft)
09.12.2017 21:32 -5,9 °C -5,9 °C 83 % 1017,7 hPa 0,0 mm 2,1 km/h (1 Bft) W-SW 250 ° 0 min 0,000 mm 0,0 UV-I 0 W/m² -8,3 °C -5,9 °C 3,2 km/h (1 Bft)
09.12.2017 21:33 -6,0 °C -5,9 °C 83 % 1017,7 hPa 0,0 mm 4,6 km/h (1 Bft) S-SW 213 ° 0 min 0,000 mm 0,0 UV-I 0 W/m² -8,4 °C -8,2 °C 6,4 km/h (2 Bft)
09.12.2017 21:35 -6,1 °C -6,0 °C 83 % 1017,7 hPa 0,0 mm 4,5 km/h (1 Bft) S-SW 198 ° 0 min 0,000 mm 0,0 UV-I 0 W/m² -8,5 °C -6,1 °C 6,4 km/h (2 Bft)
09.12.2017 21:36 -6,1 °C -6,1 °C 83 % 1017,7 hPa 0,0 mm 6,4 km/h (2 Bft) S-SW 202 ° 0 min 0,000 mm 0,0 UV-I 0 W/m² -8,5 °C -9,2 °C 9,7 km/h (2 Bft)
09.12.2017 21:37 -6,1 °C -6,1 °C 83 % 1017,7 hPa 0,0 mm 8,0 km/h (2 Bft) S-SW 202 ° 0 min 0,000 mm 0,0 UV-I 0 W/m² -8,5 °C -9,9 °C 9,7 km/h (2 Bft)
09.12.2017 21:38 -6,1 °C -6,1 °C 83 % 1017,7 hPa 0,0 mm 8,0 km/h (2 Bft) S-SW 202 ° 0 min 0,000 mm 0,0 UV-I 0 W/m² -8,5 °C -9,9 °C 11,3 km/h (2 Bft)
09.12.2017 21:39 -6,2 °C -6,1 °C 83 % 1017,7 hPa 0,0 mm 4,8 km/h (1 Bft) S-SW 202 ° 0 min 0,000 mm 0,0 UV-I 0 W/m² -8,6 °C -8,5 °C 6,4 km/h (2 Bft)
09.12.2017 21:40 -6,2 °C -6,2 °C 83 % 1017,7 hPa 0,0 mm 4,8 km/h (1 Bft) S-SW 202 ° 0 min 0,000 mm 0,0 UV-I 0 W/m² -8,6 °C -8,5 °C 8,0 km/h (2 Bft)
09.12.2017 21:41 -6,2 °C -6,2 °C 83 % 1017,7 hPa 0,0 mm 6,4 km/h (2 Bft) S-SW 202 ° 0 min 0,000 mm 0,0 UV-I 0 W/m² -8,6 °C -9,3 °C 8,0 km/h (2 Bft)
09.12.2017 21:42 -6,3 °C -6,2 °C 83 % 1017,7 hPa 0,0 mm 8,0 km/h (2 Bft) S-SW 202 ° 0 min 0,000 mm 0,0 UV-I 0 W/m² -8,7 °C -10,1 °C 11,3 km/h (2 Bft)
09.12.2017 21:43 -6,3 °C -6,3 °C 83 % 1017,6 hPa 0,0 mm 6,4 km/h (2 Bft) S-SW 202 ° 0 min 0,000 mm 0,0 UV-I 0 W/m² -8,7 °C -9,5 °C 9,7 km/h (2 Bft)
09.12.2017 21:44 -6,3 °C -6,3 °C 83 % 1017,6 hPa 0,0 mm 6,4 km/h (2 Bft) S-SW 202 ° 0 min 0,000 mm 0,0 UV-I 0 W/m² -8,7 °C -9,5 °C 9,7 km/h (2 Bft)
09.12.2017 21:45 -6,3 °C -6,3 °C 83 % 1017,6 hPa 0,0 mm 4,8 km/h (1 Bft) S 180 ° 0 min 0,000 mm 0,0 UV-I 0 W/m² -8,7 °C -8,6 °C 8,0 km/h (2 Bft)
09.12.2017 21:47 -6,4 °C -6,3 °C 83 % 1017,6 hPa 0,0 mm 6,7 km/h (2 Bft) S-SW 203 ° 0 min 0,000 mm 0,0 UV-I 0 W/m² -8,8 °C -9,7 °C 8,0 km/h (2 Bft)
09.12.2017 21:48 -6,4 °C -6,4 °C 83 % 1017,6 hPa 0,0 mm 7,0 km/h (2 Bft) S 190 ° 0 min 0,000 mm 0,0 UV-I 0 W/m² -8,8 °C -9,8 °C 9,7 km/h (2 Bft)
09.12.2017 21:49 -6,4 °C -6,4 °C 84 % 1017,5 hPa 0,0 mm 3,3 km/h (1 Bft) S-SW 209 ° 0 min 0,000 mm 0,0 UV-I 0 W/m² -8,6 °C -6,4 °C 6,4 km/h (2 Bft)
09.12.2017 21:50 -6,5 °C -6,4 °C 84 % 1017,5 hPa 0,0 mm 7,4 km/h (2 Bft) S-SW 194 ° 0 min 0,000 mm 0,0 UV-I 0 W/m² -8,7 °C -10,1 °C 9,7 km/h (2 Bft)
09.12.2017 21:52 -6,6 °C -6,5 °C 84 % 1017,5 hPa 0,0 mm 4,5 km/h (1 Bft) S-SW 209 ° 0 min 0,000 mm 0,0 UV-I 0 W/m² -8,8 °C -6,6 °C 8,0 km/h (2 Bft)
09.12.2017 21:53 -6,6 °C -6,5 °C 84 % 1017,5 hPa 0,0 mm 5,3 km/h (1 Bft) SW 221 ° 0 min 0,000 mm 0,0 UV-I 0 W/m² -8,8 °C -9,2 °C 9,7 km/h (2 Bft)
09.12.2017 21:54 -6,6 °C -6,6 °C 84 % 1017,5 hPa 0,0 mm 3,4 km/h (1 Bft) SW 216 ° 0 min 0,000 mm 0,0 UV-I 0 W/m² -8,8 °C -6,6 °C 4,8 km/h (1 Bft)
09.12.2017 21:55 -6,6 °C -6,6 °C 85 % 1017,5 hPa 0,0 mm 3,4 km/h (1 Bft) S-SW 201 ° 0 min 0,000 mm 0,0 UV-I 0 W/m² -8,7 °C -6,6 °C 4,8 km/h (1 Bft)
09.12.2017 21:56 -6,6 °C -6,6 °C 85 % 1017,5 hPa 0,0 mm 4,3 km/h (1 Bft) S-SW 203 ° 0 min 0,000 mm 0,0 UV-I 0 W/m² -8,7 °C -6,6 °C 4,8 km/h (1 Bft)
09.12.2017 21:57 -6,6 °C -6,6 °C 85 % 1017,4 hPa 0,0 mm 3,2 km/h (1 Bft) SW 225 ° 0 min 0,000 mm 0,0 UV-I 0 W/m² -8,7 °C -6,6 °C 6,4 km/h (2 Bft)
09.12.2017 21:58 -6,6 °C -6,6 °C 85 % 1017,4 hPa 0,0 mm 4,8 km/h (1 Bft) S-SW 202 ° 0 min 0,000 mm 0,0 UV-I 0 W/m² -8,7 °C -9,0 °C 6,4 km/h (2 Bft)
09.12.2017 21:59 -6,6 °C -6,6 °C 85 % 1017,4 hPa 0,0 mm 4,8 km/h (1 Bft) S-SW 202 ° 0 min 0,000 mm 0,0 UV-I 0 W/m² -8,7 °C -9,0 °C 6,4 km/h (2 Bft)
09.12.2017 22:00 -6,6 °C -6,6 °C 85 % 1017,4 hPa 0,0 mm 4,8 km/h (1 Bft) S-SW 202 ° 0 min 0,000 mm 0,0 UV-I 0 W/m² -8,7 °C -9,0 °C 6,4 km/h (2 Bft)
09.12.2017 22:01 -6,6 °C -6,6 °C 85 % 1017,4 hPa 0,0 mm 4,8 km/h (1 Bft) S-SW 202 ° 0 min 0,000 mm 0,0 UV-I 0 W/m² -8,7 °C -9,0 °C 6,4 km/h (2 Bft)
09.12.2017 22:02 -6,6 °C -6,6 °C 85 % 1017,4 hPa 0,0 mm 4,8 km/h (1 Bft) S-SW 202 ° 0 min 0,000 mm 0,0 UV-I 0 W/m² -8,7 °C -9,0 °C 6,4 km/h (2 Bft)
09.12.2017 22:03 -6,6 °C -6,6 °C 85 % 1017,4 hPa 0,0 mm 4,8 km/h (1 Bft) S-SW 202 ° 0 min 0,000 mm 0,0 UV-I 0 W/m² -8,7 °C -9,0 °C 8,0 km/h (2 Bft)
09.12.2017 22:04 -6,6 °C -6,6 °C 85 % 1017,5 hPa 0,0 mm 6,4 km/h (2 Bft) S-SW 202 ° 0 min 0,000 mm 0,0 UV-I 0 W/m² -8,7 °C -9,8 °C 9,7 km/h (2 Bft)
09.12.2017 22:05 -6,6 °C -6,6 °C 85 % 1017,5 hPa 0,0 mm 8,0 km/h (2 Bft) S-SW 202 ° 0 min 0,000 mm 0,0 UV-I 0 W/m² -8,7 °C -10,5 °C 11,3 km/h (2 Bft)
09.12.2017 22:08 -6,6 °C -6,6 °C 85 % 1017,5 hPa 0,0 mm 5,5 km/h (1 Bft) SW 227 ° 0 min 0,000 mm 0,0 UV-I 0 W/m² -8,7 °C -9,4 °C 9,7 km/h (2 Bft)
09.12.2017 22:09 -6,6 °C -6,6 °C 85 % 1017,5 hPa 0,0 mm 2,7 km/h (1 Bft) S 186 ° 0 min 0,000 mm 0,0 UV-I 0 W/m² -8,7 °C -6,6 °C 4,8 km/h (1 Bft)
09.12.2017 22:10 -6,6 °C -6,6 °C 85 % 1017,5 hPa 0,0 mm 1,7 km/h (1 Bft) S 186 ° 0 min 0,000 mm 0,0 UV-I 0 W/m² -8,7 °C -6,6 °C 4,8 km/h (1 Bft)
09.12.2017 22:12 -6,6 °C -6,6 °C 85 % 1017,4 hPa 0,0 mm 0,5 km/h (0 Bft) S 186 ° 0 min 0,000 mm 0,0 UV-I 0 W/m² -8,7 °C -6,6 °C 1,6 km/h (1 Bft)
09.12.2017 22:13 -6,7 °C -6,6 °C 85 % 1017,4 hPa 0,0 mm 0,8 km/h (0 Bft) S 186 ° 0 min 0,000 mm 0,0 UV-I 0 W/m² -8,8 °C -6,7 °C 3,2 km/h (1 Bft)
09.12.2017 22:14 -6,7 °C -6,6 °C 85 % 1017,4 hPa 0,0 mm 2,3 km/h (1 Bft) S 188 ° 0 min 0,000 mm 0,0 UV-I 0 W/m² -8,8 °C -6,7 °C 3,2 km/h (1 Bft)
09.12.2017 22:15 -6,7 °C -6,7 °C 85 % 1017,3 hPa 0,0 mm 2,1 km/h (1 Bft) SW 222 ° 0 min 0,000 mm 0,0 UV-I 0 W/m² -8,8 °C -6,7 °C 3,2 km/h (1 Bft)
09.12.2017 22:17 -6,7 °C -6,7 °C 85 % 1017,3 hPa 0,0 mm 0,0 km/h (0 Bft) SW 222 ° 0 min 0,000 mm 0,0 UV-I 0 W/m² -8,8 °C -6,7 °C 0,0 km/h (0 Bft)
09.12.2017 22:18 -6,8 °C -6,7 °C 84 % 1017,4 hPa 0,0 mm 3,2 km/h (1 Bft) SW 225 ° 0 min 0,000 mm 0,0 UV-I 0 W/m² -9,0 °C -6,8 °C 3,2 km/h (1 Bft)
09.12.2017 22:19 -6,8 °C -6,8 °C 84 % 1017,3 hPa 0,0 mm 3,2 km/h (1 Bft) SW 225 ° 0 min 0,000 mm 0,0 UV-I 0 W/m² -9,0 °C -6,8 °C 6,4 km/h (2 Bft)
09.12.2017 22:20 -6,8 °C -6,8 °C 84 % 1017,3 hPa 0,0 mm 4,8 km/h (1 Bft) S-SW 202 ° 0 min 0,000 mm 0,0 UV-I 0 W/m² -9,0 °C -9,2 °C 6,4 km/h (2 Bft)
09.12.2017 22:21 -6,9 °C -6,8 °C 85 % 1017,3 hPa 0,0 mm 4,8 km/h (1 Bft) S-SW 202 ° 0 min 0,000 mm 0,0 UV-I 0 W/m² -9,0 °C -9,3 °C 6,4 km/h (2 Bft)
09.12.2017 22:22 -6,9 °C -6,9 °C 84 % 1017,4 hPa 0,0 mm 4,8 km/h (1 Bft) S-SW 202 ° 0 min 0,000 mm 0,0 UV-I 0 W/m² -9,1 °C -9,3 °C 8,0 km/h (2 Bft)
09.12.2017 22:23 -6,9 °C -6,9 °C 85 % 1017,3 hPa 0,0 mm 4,8 km/h (1 Bft) S-SW 202 ° 0 min 0,000 mm 0,0 UV-I 0 W/m² -9,0 °C -9,3 °C 8,0 km/h (2 Bft)
09.12.2017 22:24 -6,9 °C -6,9 °C 85 % 1017,3 hPa 0,0 mm 3,2 km/h (1 Bft) S-SW 202 ° 0 min 0,000 mm 0,0 UV-I 0 W/m² -9,0 °C -6,9 °C 6,4 km/h (2 Bft)
09.12.2017 22:25 -6,9 °C -6,9 °C 85 % 1017,4 hPa 0,0 mm 1,6 km/h (1 Bft) S-SW 202 ° 0 min 0,000 mm 0,0 UV-I 0 W/m² -9,0 °C -6,9 °C 3,2 km/h (1 Bft)
09.12.2017 22:26 -7,0 °C -7,0 °C 85 % 1017,3 hPa 0,0 mm 3,2 km/h (1 Bft) S-SW 202 ° 0 min 0,000 mm 0,0 UV-I 0 W/m² -9,1 °C -7,0 °C 4,8 km/h (1 Bft)
09.12.2017 22:27 -7,0 °C -7,0 °C 85 % 1017,3 hPa 0,0 mm 4,8 km/h (1 Bft) SW 225 ° 0 min 0,000 mm 0,0 UV-I 0 W/m² -9,1 °C -9,4 °C 8,0 km/h (2 Bft)
09.12.2017 22:28 -7,1 °C -7,0 °C 85 % 1017,3 hPa 0,0 mm 6,4 km/h (2 Bft) SW 225 ° 0 min 0,000 mm 0,0 UV-I 0 W/m² -9,2 °C -10,4 °C 11,3 km/h (2 Bft)
09.12.2017 22:29 -7,1 °C -7,1 °C 85 % 1017,2 hPa 0,0 mm 6,4 km/h (2 Bft) SW 225 ° 0 min 0,000 mm 0,0 UV-I 0 W/m² -9,2 °C -10,4 °C 9,7 km/h (2 Bft)
09.12.2017 22:30 -7,1 °C -7,1 °C 85 % 1017,2 hPa 0,0 mm 6,4 km/h (2 Bft) SW 225 ° 0 min 0,000 mm 0,0 UV-I 0 W/m² -9,2 °C -10,4 °C 8,0 km/h (2 Bft)
09.12.2017 22:31 -7,1 °C -7,1 °C 85 % 1017,2 hPa 0,0 mm 6,4 km/h (2 Bft) S-SW 202 ° 0 min 0,000 mm 0,0 UV-I 0 W/m² -9,2 °C -10,4 °C 9,7 km/h (2 Bft)
09.12.2017 22:32 -7,2 °C -7,1 °C 85 % 1017,2 hPa 0,0 mm 6,4 km/h (2 Bft) S-SW 202 ° 0 min 0,000 mm 0,0 UV-I 0 W/m² -9,3 °C -10,5 °C 11,3 km/h (2 Bft)
09.12.2017 22:33 -7,2 °C -7,2 °C 85 % 1017,1 hPa 0,0 mm 6,4 km/h (2 Bft) S-SW 202 ° 0 min 0,000 mm 0,0 UV-I 0 W/m² -9,3 °C -10,5 °C 8,0 km/h (2 Bft)
09.12.2017 22:34 -7,3 °C -7,2 °C 85 % 1017,1 hPa 0,0 mm 4,8 km/h (1 Bft) S-SW 202 ° 0 min 0,000 mm 0,0 UV-I 0 W/m² -9,4 °C -9,8 °C 6,4 km/h (2 Bft)
09.12.2017 22:36 -7,3 °C -7,2 °C 85 % 1017,0 hPa 0,0 mm 4,8 km/h (1 Bft) S-SW 194 ° 0 min 0,000 mm 0,0 UV-I 0 W/m² -9,4 °C -9,8 °C 6,4 km/h (2 Bft)
09.12.2017 22:37 -7,3 °C -7,3 °C 85 % 1017,1 hPa 0,0 mm 1,3 km/h (1 Bft) S-SW 194 ° 0 min 0,000 mm 0,0 UV-I 0 W/m² -9,4 °C -7,3 °C 4,8 km/h (1 Bft)
09.12.2017 22:38 -7,3 °C -7,3 °C 85 % 1017,1 hPa 0,0 mm 0,9 km/h (0 Bft) S-SW 194 ° 0 min 0,000 mm 0,0 UV-I 0 W/m² -9,4 °C -7,3 °C 3,2 km/h (1 Bft)
09.12.2017 22:39 -7,3 °C -7,3 °C 85 % 1017,0 hPa 0,0 mm 1,2 km/h (1 Bft) S-SW 194 ° 0 min 0,000 mm 0,0 UV-I 0 W/m² -9,4 °C -7,3 °C 3,2 km/h (1 Bft)
09.12.2017 22:40 -7,3 °C -7,3 °C 85 % 1017,0 hPa 0,0 mm 0,2 km/h (0 Bft) S-SW 194 ° 0 min 0,000 mm 0,0 UV-I 0 W/m² -9,4 °C -7,3 °C 1,6 km/h (1 Bft)
09.12.2017 22:42 -7,4 °C -7,3 °C 84 % 1017,0 hPa 0,0 mm 0,0 km/h (0 Bft) S-SW 194 ° 0 min 0,000 mm 0,0 UV-I 0 W/m² -9,6 °C -7,4 °C 0,0 km/h (0 Bft)
09.12.2017 22:43 -7,4 °C -7,4 °C 84 % 1017,0 hPa 0,0 mm 0,0 km/h (0 Bft) S-SW 194 ° 0 min 0,000 mm 0,0 UV-I 0 W/m² -9,6 °C -7,4 °C 0,0 km/h (0 Bft)
09.12.2017 22:44 -7,4 °C -7,4 °C 84 % 1017,0 hPa 0,0 mm 0,0 km/h (0 Bft) S-SW 194 ° 0 min 0,000 mm 0,0 UV-I 0 W/m² -9,6 °C -7,4 °C 0,0 km/h (0 Bft)
09.12.2017 22:45 -7,4 °C -7,4 °C 84 % 1017,0 hPa 0,0 mm 0,0 km/h (0 Bft) S-SW 194 ° 0 min 0,000 mm 0,0 UV-I 0 W/m² -9,6 °C -7,4 °C 0,0 km/h (0 Bft)
09.12.2017 22:46 -7,4 °C -7,4 °C 84 % 1016,9 hPa 0,0 mm 1,3 km/h (1 Bft) S-SW 194 ° 0 min 0,000 mm 0,0 UV-I 0 W/m² -9,6 °C -7,4 °C 4,8 km/h (1 Bft)
09.12.2017 22:47 -7,5 °C -7,4 °C 84 % 1016,9 hPa 0,0 mm 1,1 km/h (1 Bft) S-SW 194 ° 0 min 0,000 mm 0,0 UV-I 0 W/m² -9,7 °C -7,5 °C 3,2 km/h (1 Bft)
09.12.2017 22:48 -7,5 °C -7,4 °C 84 % 1017,0 hPa 0,0 mm 0,0 km/h (0 Bft) S-SW 194 ° 0 min 0,000 mm 0,0 UV-I 0 W/m² -9,7 °C -7,5 °C 0,0 km/h (0 Bft)
09.12.2017 22:49 -7,5 °C -7,4 °C 84 % 1017,0 hPa 0,0 mm 0,0 km/h (0 Bft) S-SW 194 ° 0 min 0,000 mm 0,0 UV-I 0 W/m² -9,7 °C -7,5 °C 0,0 km/h (0 Bft)
09.12.2017 22:50 -7,6 °C -7,5 °C 84 % 1017,0 hPa 0,0 mm 0,1 km/h (0 Bft) S-SW 194 ° 0 min 0,000 mm 0,0 UV-I 0 W/m² -9,8 °C -7,6 °C 1,6 km/h (1 Bft)
09.12.2017 22:51 -7,6 °C -7,5 °C 84 % 1017,0 hPa 0,0 mm 0,0 km/h (0 Bft) S-SW 194 ° 0 min 0,000 mm 0,0 UV-I 0 W/m² -9,8 °C -7,6 °C 0,0 km/h (0 Bft)
09.12.2017 22:52 -7,6 °C -7,6 °C 84 % 1016,9 hPa 0,0 mm 0,0 km/h (0 Bft) S-SW 194 ° 0 min 0,000 mm 0,0 UV-I 0 W/m² -9,8 °C -7,6 °C 0,0 km/h (0 Bft)
09.12.2017 22:53 -7,6 °C -7,6 °C 84 % 1016,9 hPa 0,0 mm 0,7 km/h (0 Bft) S-SW 194 ° 0 min 0,000 mm 0,0 UV-I 0 W/m² -9,8 °C -7,6 °C 1,6 km/h (1 Bft)
09.12.2017 22:54 -7,6 °C -7,6 °C 84 % 1016,9 hPa 0,0 mm 0,1 km/h (0 Bft) S-SW 194 ° 0 min 0,000 mm 0,0 UV-I 0 W/m² -9,8 °C -7,6 °C 1,6 km/h (1 Bft)
09.12.2017 22:55 -7,6 °C -7,6 °C 84 % 1016,9 hPa 0,0 mm 0,7 km/h (0 Bft) S-SW 194 ° 0 min 0,000 mm 0,0 UV-I 0 W/m² -9,8 °C -7,6 °C 3,2 km/h (1 Bft)
09.12.2017 22:56 -7,7 °C -7,6 °C 84 % 1016,9 hPa 0,0 mm 0,0 km/h (0 Bft) S-SW 194 ° 0 min 0,000 mm 0,0 UV-I 0 W/m² -9,9 °C -7,7 °C 0,0 km/h (0 Bft)
09.12.2017 22:57 -7,7 °C -7,7 °C 84 % 1016,9 hPa 0,0 mm 0,0 km/h (0 Bft) S-SW 194 ° 0 min 0,000 mm 0,0 UV-I 0 W/m² -9,9 °C -7,7 °C 0,0 km/h (0 Bft)
09.12.2017 22:58 -7,7 °C -7,7 °C 84 % 1016,9 hPa 0,0 mm 0,0 km/h (0 Bft) S-SW 194 ° 0 min 0,000 mm 0,0 UV-I 0 W/m² -9,9 °C -7,7 °C 0,0 km/h (0 Bft)
09.12.2017 22:59 -7,8 °C -7,7 °C 84 % 1016,9 hPa 0,0 mm 0,0 km/h (0 Bft) S-SW 194 ° 0 min 0,000 mm 0,0 UV-I 0 W/m² -10,0 °C -7,8 °C 0,0 km/h (0 Bft)
09.12.2017 23:00 -7,8 °C -7,7 °C 84 % 1016,8 hPa 0,0 mm 0,1 km/h (0 Bft) S-SW 194 ° 0 min 0,000 mm 0,0 UV-I 0 W/m² -10,0 °C -7,8 °C 1,6 km/h (1 Bft)
09.12.2017 23:01 -7,8 °C -7,8 °C 84 % 1016,9 hPa 0,0 mm 0,0 km/h (0 Bft) S-SW 194 ° 0 min 0,000 mm 0,0 UV-I 0 W/m² -10,0 °C -7,8 °C 0,0 km/h (0 Bft)
09.12.2017 23:02 -7,8 °C -7,8 °C 84 % 1016,9 hPa 0,0 mm 0,0 km/h (0 Bft) S-SW 194 ° 0 min 0,000 mm 0,0 UV-I 0 W/m² -10,0 °C -7,8 °C 0,0 km/h (0 Bft)
09.12.2017 23:03 -7,8 °C -7,8 °C 84 % 1016,9 hPa 0,0 mm 0,0 km/h (0 Bft) S-SW 194 ° 0 min 0,000 mm 0,0 UV-I 0 W/m² -10,0 °C -7,8 °C 0,0 km/h (0 Bft)
09.12.2017 23:04 -7,9 °C -7,8 °C 84 % 1016,8 hPa 0,0 mm 0,0 km/h (0 Bft) S-SW 194 ° 0 min 0,000 mm 0,0 UV-I 0 W/m² -10,1 °C -7,9 °C 0,0 km/h (0 Bft)
09.12.2017 23:05 -7,9 °C -7,8 °C 84 % 1016,9 hPa 0,0 mm 0,0 km/h (0 Bft) S-SW 194 ° 0 min 0,000 mm 0,0 UV-I 0 W/m² -10,1 °C -7,9 °C 0,0 km/h (0 Bft)
09.12.2017 23:06 -7,9 °C -7,8 °C 84 % 1016,9 hPa 0,0 mm 0,1 km/h (0 Bft) S-SW 194 ° 0 min 0,000 mm 0,0 UV-I 0 W/m² -10,1 °C -7,9 °C 1,6 km/h (1 Bft)
09.12.2017 23:07 -7,9 °C -7,9 °C 84 % 1016,9 hPa 0,0 mm 0,1 km/h (0 Bft) S-SW 194 ° 0 min 0,000 mm 0,0 UV-I 0 W/m² -10,1 °C -7,9 °C 1,6 km/h (1 Bft)
09.12.2017 23:08 -7,9 °C -7,9 °C 84 % 1016,9 hPa 0,0 mm 0,0 km/h (0 Bft) S-SW 194 ° 0 min 0,000 mm 0,0 UV-I 0 W/m² -10,1 °C -7,9 °C 0,0 km/h (0 Bft)
09.12.2017 23:09 -7,9 °C -7,9 °C 84 % 1016,9 hPa 0,0 mm 0,0 km/h (0 Bft) S-SW 194 ° 0 min 0,000 mm 0,0 UV-I 0 W/m² -10,1 °C -7,9 °C 0,0 km/h (0 Bft)
09.12.2017 23:10 -7,9 °C -7,9 °C 84 % 1016,9 hPa 0,0 mm 0,0 km/h (0 Bft) S-SW 194 ° 0 min 0,000 mm 0,0 UV-I 0 W/m² -10,1 °C -7,9 °C 0,0 km/h (0 Bft)
09.12.2017 23:11 -7,9 °C -7,9 °C 85 % 1016,9 hPa 0,0 mm 0,0 km/h (0 Bft) S-SW 194 ° 0 min 0,000 mm 0,0 UV-I 0 W/m² -10,0 °C -7,9 °C 0,0 km/h (0 Bft)
09.12.2017 23:12 -8,0 °C -7,9 °C 85 % 1016,8 hPa 0,0 mm 0,0 km/h (0 Bft) S-SW 194 ° 0 min 0,000 mm 0,0 UV-I 0 W/m² -10,1 °C -8,0 °C 0,0 km/h (0 Bft)
09.12.2017 23:13 -8,0 °C -8,0 °C 85 % 1016,8 hPa 0,0 mm 0,1 km/h (0 Bft) S-SW 194 ° 0 min 0,000 mm 0,0 UV-I 0 W/m² -10,1 °C -8,0 °C 1,6 km/h (1 Bft)
09.12.2017 23:14 -8,0 °C -8,0 °C 85 % 1016,8 hPa 0,0 mm 7,4 km/h (2 Bft) S 174 ° 0 min 0,000 mm 0,0 UV-I 0 W/m² -10,1 °C -11,9 °C 11,3 km/h (2 Bft)
09.12.2017 23:15 -8,0 °C -8,0 °C 85 % 1016,7 hPa 0,0 mm 4,9 km/h (1 Bft) SO 143 ° 0 min 0,000 mm 0,0 UV-I 0 W/m² -10,1 °C -10,6 °C 6,4 km/h (2 Bft)
09.12.2017 23:16 -8,1 °C -8,0 °C 85 % 1016,8 hPa 0,0 mm 2,6 km/h (1 Bft) SO 143 ° 0 min 0,000 mm 0,0 UV-I 0 W/m² -10,2 °C -8,1 °C 4,8 km/h (1 Bft)
09.12.2017 23:17 -8,1 °C -8,0 °C 86 % 1016,8 hPa 0,0 mm 1,2 km/h (1 Bft) SO 143 ° 0 min 0,000 mm 0,0 UV-I 0 W/m² -10,0 °C -8,1 °C 1,6 km/h (1 Bft)
09.12.2017 23:18 -8,1 °C -8,1 °C 86 % 1016,8 hPa 0,0 mm 0,4 km/h (0 Bft) W-SW 239 ° 0 min 0,000 mm 0,0 UV-I 0 W/m² -10,0 °C -8,1 °C 4,8 km/h (1 Bft)
09.12.2017 23:19 -8,1 °C -8,1 °C 86 % 1016,7 hPa 0,0 mm 5,0 km/h (1 Bft) S-SW 200 ° 0 min 0,000 mm 0,0 UV-I 0 W/m² -10,0 °C -10,8 °C 6,4 km/h (2 Bft)
09.12.2017 23:20 -8,1 °C -8,1 °C 86 % 1016,7 hPa 0,0 mm 5,5 km/h (1 Bft) SO 126 ° 0 min 0,000 mm 0,0 UV-I 0 W/m² -10,0 °C -11,1 °C 8,0 km/h (2 Bft)
09.12.2017 23:21 -8,1 °C -8,1 °C 86 % 1016,7 hPa 0,0 mm 3,2 km/h (1 Bft) O-SO 123 ° 0 min 0,000 mm 0,0 UV-I 0 W/m² -10,0 °C -8,1 °C 6,4 km/h (2 Bft)
09.12.2017 23:22 -8,1 °C -8,1 °C 86 % 1016,6 hPa 0,0 mm 1,1 km/h (1 Bft) O-SO 123 ° 0 min 0,000 mm 0,0 UV-I 0 W/m² -10,0 °C -8,1 °C 3,2 km/h (1 Bft)
09.12.2017 23:23 -8,1 °C -8,1 °C 86 % 1016,6 hPa 0,0 mm 0,1 km/h (0 Bft) O-SO 123 ° 0 min 0,000 mm 0,0 UV-I 0 W/m² -10,0 °C -8,1 °C 1,6 km/h (1 Bft)
09.12.2017 23:24 -8,1 °C -8,1 °C 86 % 1016,6 hPa 0,0 mm 0,0 km/h (0 Bft) O-SO 123 ° 0 min 0,000 mm 0,0 UV-I 0 W/m² -10,0 °C -8,1 °C 0,0 km/h (0 Bft)
09.12.2017 23:25 -8,2 °C -8,1 °C 86 % 1016,6 hPa 0,0 mm 0,0 km/h (0 Bft) O-SO 123 ° 0 min 0,000 mm 0,0 UV-I 0 W/m² -10,1 °C -8,2 °C 0,0 km/h (0 Bft)
09.12.2017 23:26 -8,1 °C -8,1 °C 86 % 1016,6 hPa 0,0 mm 0,0 km/h (0 Bft) O-SO 123 ° 0 min 0,000 mm 0,0 UV-I 0 W/m² -10,0 °C -8,1 °C 0,0 km/h (0 Bft)
09.12.2017 23:27 -8,2 °C -8,1 °C 85 % 1016,6 hPa 0,0 mm 0,0 km/h (0 Bft) O-SO 112 ° 0 min 0,000 mm 0,0 UV-I 0 W/m² -10,3 °C -8,2 °C 1,6 km/h (1 Bft)
09.12.2017 23:28 -8,2 °C -8,2 °C 86 % 1016,6 hPa 0,0 mm 0,0 km/h (0 Bft) O-SO 112 ° 0 min 0,000 mm 0,0 UV-I 0 W/m² -10,1 °C -8,2 °C 1,6 km/h (1 Bft)
09.12.2017 23:29 -8,2 °C -8,2 °C 85 % 1016,5 hPa 0,0 mm 0,0 km/h (0 Bft) N 0 ° 0 min 0,000 mm 0,0 UV-I 0 W/m² -10,3 °C -8,2 °C 0,0 km/h (0 Bft)
09.12.2017 23:30 -8,2 °C -8,2 °C 85 % 1016,6 hPa 0,0 mm 0,0 km/h (0 Bft) N 0 ° 0 min 0,000 mm 0,0 UV-I 0 W/m² -10,3 °C -8,2 °C 0,0 km/h (0 Bft)
09.12.2017 23:31 -8,2 °C -8,2 °C 86 % 1016,5 hPa 0,0 mm 0,0 km/h (0 Bft) N 0 ° 0 min 0,000 mm 0,0 UV-I 0 W/m² -10,1 °C -8,2 °C 0,0 km/h (0 Bft)
09.12.2017 23:32 -8,2 °C -8,2 °C 86 % 1016,5 hPa 0,0 mm 0,0 km/h (0 Bft) N 0 ° 0 min 0,000 mm 0,0 UV-I 0 W/m² -10,1 °C -8,2 °C 0,0 km/h (0 Bft)
09.12.2017 23:33 -8,2 °C -8,2 °C 86 % 1016,5 hPa 0,0 mm 0,0 km/h (0 Bft) N 0 ° 0 min 0,000 mm 0,0 UV-I 0 W/m² -10,1 °C -8,2 °C 0,0 km/h (0 Bft)
09.12.2017 23:34 -8,2 °C -8,2 °C 86 % 1016,4 hPa 0,0 mm 0,0 km/h (0 Bft) N 0 ° 0 min 0,000 mm 0,0 UV-I 0 W/m² -10,1 °C -8,2 °C 0,0 km/h (0 Bft)
09.12.2017 23:35 -8,2 °C -8,2 °C 86 % 1016,4 hPa 0,0 mm 0,0 km/h (0 Bft) N 0 ° 0 min 0,000 mm 0,0 UV-I 0 W/m² -10,1 °C -8,2 °C 0,0 km/h (0 Bft)
09.12.2017 23:36 -8,2 °C -8,2 °C 86 % 1016,4 hPa 0,0 mm 0,0 km/h (0 Bft) N 0 ° 0 min 0,000 mm 0,0 UV-I 0 W/m² -10,1 °C -8,2 °C 0,0 km/h (0 Bft)
09.12.2017 23:38 -8,2 °C -8,2 °C 86 % 1016,4 hPa 0,0 mm 0,0 km/h (0 Bft) O-SO 123 ° 0 min 0,000 mm 0,0 UV-I 0 W/m² -10,1 °C -8,2 °C 0,0 km/h (0 Bft)
09.12.2017 23:39 -8,2 °C -8,2 °C 86 % 1016,4 hPa 0,0 mm 0,0 km/h (0 Bft) O-SO 123 ° 0 min 0,000 mm 0,0 UV-I 0 W/m² -10,1 °C -8,2 °C 0,0 km/h (0 Bft)
09.12.2017 23:40 -8,2 °C -8,2 °C 86 % 1016,4 hPa 0,0 mm 0,0 km/h (0 Bft) O-SO 123 ° 0 min 0,000 mm 0,0 UV-I 0 W/m² -10,1 °C -8,2 °C 0,0 km/h (0 Bft)
09.12.2017 23:42 -8,2 °C -8,2 °C 86 % 1016,3 hPa 0,0 mm 0,0 km/h (0 Bft) O-SO 123 ° 0 min 0,000 mm 0,0 UV-I 0 W/m² -10,1 °C -8,2 °C 0,0 km/h (0 Bft)
09.12.2017 23:43 -8,2 °C -8,2 °C 86 % 1016,3 hPa 0,0 mm 0,0 km/h (0 Bft) O-SO 123 ° 0 min 0,000 mm 0,0 UV-I 0 W/m² -10,1 °C -8,2 °C 0,0 km/h (0 Bft)
09.12.2017 23:44 -8,3 °C -8,2 °C 86 % 1016,3 hPa 0,0 mm 0,0 km/h (0 Bft) O-SO 123 ° 0 min 0,000 mm 0,0 UV-I 0 W/m² -10,2 °C -8,3 °C 0,0 km/h (0 Bft)
09.12.2017 23:45 -8,2 °C -8,2 °C 86 % 1016,3 hPa 0,0 mm 0,0 km/h (0 Bft) O-SO 123 ° 0 min 0,000 mm 0,0 UV-I 0 W/m² -10,1 °C -8,2 °C 0,0 km/h (0 Bft)
09.12.2017 23:46 -8,2 °C -8,2 °C 86 % 1016,2 hPa 0,0 mm 0,0 km/h (0 Bft) O-SO 123 ° 0 min 0,000 mm 0,0 UV-I 0 W/m² -10,1 °C -8,2 °C 0,0 km/h (0 Bft)
09.12.2017 23:47 -8,3 °C -8,2 °C 86 % 1016,2 hPa 0,0 mm 0,0 km/h (0 Bft) N 0 ° 0 min 0,000 mm 0,0 UV-I 0 W/m² -10,2 °C -8,3 °C 0,0 km/h (0 Bft)
09.12.2017 23:48 -8,2 °C -8,2 °C 86 % 1016,2 hPa 0,0 mm 0,0 km/h (0 Bft) N 0 ° 0 min 0,000 mm 0,0 UV-I 0 W/m² -10,1 °C -8,2 °C 0,0 km/h (0 Bft)
09.12.2017 23:49 -8,3 °C -8,3 °C 86 % 1016,2 hPa 0,0 mm 0,0 km/h (0 Bft) N 0 ° 0 min 0,000 mm 0,0 UV-I 0 W/m² -10,2 °C -8,3 °C 0,0 km/h (0 Bft)
09.12.2017 23:50 -8,3 °C -8,3 °C 86 % 1016,2 hPa 0,0 mm 0,0 km/h (0 Bft) N 0 ° 0 min 0,000 mm 0,0 UV-I 0 W/m² -10,2 °C -8,3 °C 0,0 km/h (0 Bft)
09.12.2017 23:51 -8,3 °C -8,3 °C 86 % 1016,2 hPa 0,0 mm 0,0 km/h (0 Bft) N 0 ° 0 min 0,000 mm 0,0 UV-I 0 W/m² -10,2 °C -8,3 °C 0,0 km/h (0 Bft)
09.12.2017 23:52 -8,3 °C -8,3 °C 86 % 1016,2 hPa 0,0 mm 0,0 km/h (0 Bft) N 0 ° 0 min 0,000 mm 0,0 UV-I 0 W/m² -10,2 °C -8,3 °C 0,0 km/h (0 Bft)
09.12.2017 23:53 -8,3 °C -8,3 °C 86 % 1016,2 hPa 0,0 mm 0,0 km/h (0 Bft) N 0 ° 0 min 0,000 mm 0,0 UV-I 0 W/m² -10,2 °C -8,3 °C 0,0 km/h (0 Bft)
09.12.2017 23:54 -8,3 °C -8,3 °C 86 % 1016,2 hPa 0,0 mm 0,0 km/h (0 Bft) N 0 ° 0 min 0,000 mm 0,0 UV-I 0 W/m² -10,2 °C -8,3 °C 0,0 km/h (0 Bft)
09.12.2017 23:55 -8,3 °C -8,3 °C 86 % 1016,1 hPa 0,0 mm 0,0 km/h (0 Bft) N 0 ° 0 min 0,000 mm 0,0 UV-I 0 W/m² -10,2 °C -8,3 °C 0,0 km/h (0 Bft)
09.12.2017 23:56 -8,3 °C -8,3 °C 87 % 1016,1 hPa 0,0 mm 0,0 km/h (0 Bft) N 0 ° 0 min 0,000 mm 0,0 UV-I 0 W/m² -10,1 °C -8,3 °C 0,0 km/h (0 Bft)
09.12.2017 23:58 -8,3 °C -8,3 °C 87 % 1016,1 hPa 0,0 mm 0,0 km/h (0 Bft) O-SO 123 ° 0 min 0,000 mm 0,0 UV-I 0 W/m² -10,1 °C -8,3 °C 0,0 km/h (0 Bft)
09.12.2017 23:59 -8,3 °C -8,3 °C 87 % 1016,1 hPa 0,0 mm 0,0 km/h (0 Bft) O-SO 123 ° 0 min 0,000 mm 0,0 UV-I 0 W/m² -10,1 °C -8,3 °C 0,0 km/h (0 Bft)
_ Min-Zeit 23:59 23:59 13:54 01:24 - 23:59 - - - - - - 23:30 23:14 23:59
Minimum _ -8,3 °C -8,3 °C 78 % 1012,0 hPa - 0,0 km/h (0 Bft) - - - - - - -10,3 °C -11,9 °C 0,0 km/h (0 Bft)
_ Max-Zeit 01:15 01:15 01:34 19:24 23:59 13:59 - - 23:59 13:00 23:59 13:54 01:34 01:06 14:13
Maximum _ -2,8 °C -2,8 °C 92 % 1018,5 hPa 0,0 mm 22,1 km/h
W-NW (4 Bft)
- - 0 min 0,026 mm 0,0 UV-I 190 W/m² -4,0 °C -2,9 °C 33,8 km/h
W-NW (5 Bft)
Durchschnitt _ -4,8 °C -4,8 °C 86 % 1016,3 hPa #0,0 mm 8,2 km/h (2 Bft) W - #0 min. #0,152 mm 0,0 UV-I 8 W/m² -6,8 °C -7,9 °C 12,6 km/h (3 Bft)